<?xml version='1.0' encoding='UTF-8'?><gpx version="1.1" creator="JPX - https://github.com/jenetics/jpx" xmlns="http://www.topografix.com/GPX/1/1"><trk><trkseg><trkpt lat="43.06572035279308" lon="12.304661126514098"><ele>237.0</ele><time>2026-04-18T07:01:14.998Z</time></trkpt><trkpt lat="43.06574514490339" lon="12.304740602681512"><ele>237.0</ele><time>2026-04-18T07:01:16.998Z</time></trkpt><trkpt lat="43.065792498989595" lon="12.304851298583323"><ele>237.0</ele><time>2026-04-18T07:01:18.998Z</time></trkpt><trkpt lat="43.065833999926674" lon="12.30495251234488"><ele>237.0</ele><time>2026-04-18T07:01:20.998Z</time></trkpt><trkpt lat="43.06588581320944" lon="12.30504496653083"><ele>237.0</ele><time>2026-04-18T07:01:22.998Z</time></trkpt><trkpt lat="43.065944318819376" lon="12.305129287698167"><ele>237.0</ele><time>2026-04-18T07:01:24.998Z</time></trkpt><trkpt lat="43.06586888444018" lon="12.30517053689909"><ele>237.0</ele><time>2026-04-18T07:01:33Z</time></trkpt><trkpt lat="43.06577578820778" lon="12.305118629927964"><ele>237.0</ele><time>2026-04-18T07:01:36Z</time></trkpt><trkpt lat="43.06575176384096" lon="12.305031252256367"><ele>237.0</ele><time>2026-04-18T07:01:37Z</time></trkpt><trkpt lat="43.06572496921306" lon="12.304952660810551"><ele>237.0</ele><time>2026-04-18T07:01:38Z</time></trkpt><trkpt lat="43.06568260133934" lon="12.304875516998813"><ele>237.0</ele><time>2026-04-18T07:01:39Z</time></trkpt><trkpt lat="43.065641480324196" lon="12.304776553877005"><ele>237.0</ele><time>2026-04-18T07:01:40Z</time></trkpt><trkpt lat="43.065595462929046" lon="12.304671278064847"><ele>237.0</ele><time>2026-04-18T07:01:41Z</time></trkpt><trkpt lat="43.065542515000956" lon="12.304557687839365"><ele>237.0</ele><time>2026-04-18T07:01:42Z</time></trkpt><trkpt lat="43.0654871671567" lon="12.304433548509493"><ele>237.0</ele><time>2026-04-18T07:01:43Z</time></trkpt><trkpt lat="43.065439889404544" lon="12.304319373223809"><ele>237.0</ele><time>2026-04-18T07:01:44Z</time></trkpt><trkpt lat="43.06539894694063" lon="12.304225571931761"><ele>237.0</ele><time>2026-04-18T07:01:45Z</time></trkpt><trkpt lat="43.06535175358583" lon="12.304130831596103"><ele>237.0</ele><time>2026-04-18T07:01:46Z</time></trkpt><trkpt lat="43.06529793029584" lon="12.304014879028028"><ele>237.0</ele><time>2026-04-18T07:01:47Z</time></trkpt><trkpt lat="43.06525234760807" lon="12.30391046989139"><ele>237.0</ele><time>2026-04-18T07:01:48Z</time></trkpt><trkpt lat="43.06520955015993" lon="12.303815985095998"><ele>237.0</ele><time>2026-04-18T07:01:49Z</time></trkpt><trkpt lat="43.06517707063966" lon="12.303736734759056"><ele>237.0</ele><time>2026-04-18T07:01:50Z</time></trkpt><trkpt lat="43.065149424727586" lon="12.303582613796708"><ele>237.33333333333334</ele><time>2026-04-18T07:01:52Z</time></trkpt><trkpt lat="43.065209546255154" lon="12.303431724375132"><ele>237.66666666666669</ele><time>2026-04-18T07:01:54Z</time></trkpt><trkpt lat="43.06526587071118" lon="12.303372490162115"><ele>238.0</ele><time>2026-04-18T07:01:55Z</time></trkpt><trkpt lat="43.06533955718111" lon="12.303333963940597"><ele>238.33333333333334</ele><time>2026-04-18T07:01:56Z</time></trkpt><trkpt lat="43.065417620994836" lon="12.303291149480073"><ele>238.66666666666669</ele><time>2026-04-18T07:01:57Z</time></trkpt><trkpt lat="43.06549507853772" lon="12.303236109302471"><ele>239.0</ele><time>2026-04-18T07:01:58Z</time></trkpt><trkpt lat="43.06558126961422" lon="12.303170102386208"><ele>239.0</ele><time>2026-04-18T07:01:59Z</time></trkpt><trkpt lat="43.065669869354664" lon="12.303103009064671"><ele>238.99999999999997</ele><time>2026-04-18T07:02:00Z</time></trkpt><trkpt lat="43.06574391592457" lon="12.303042346190804"><ele>238.99999999999997</ele><time>2026-04-18T07:02:01Z</time></trkpt><trkpt lat="43.06582756610823" lon="12.302975439539075"><ele>239.0</ele><time>2026-04-18T07:02:02Z</time></trkpt><trkpt lat="43.06591831132119" lon="12.302907356004424"><ele>239.0</ele><time>2026-04-18T07:02:03Z</time></trkpt><trkpt lat="43.06601421111644" lon="12.302836527288422"><ele>239.25</ele><time>2026-04-18T07:02:04Z</time></trkpt><trkpt lat="43.06610725422157" lon="12.302764300637584"><ele>239.5</ele><time>2026-04-18T07:02:05Z</time></trkpt><trkpt lat="43.06620561034528" lon="12.30269361097667"><ele>239.75</ele><time>2026-04-18T07:02:06Z</time></trkpt><trkpt lat="43.066305900187615" lon="12.302614423712674"><ele>240.0</ele><time>2026-04-18T07:02:07Z</time></trkpt><trkpt lat="43.066410326181625" lon="12.30253381082333"><ele>240.0</ele><time>2026-04-18T07:02:08Z</time></trkpt><trkpt lat="43.06651849546009" lon="12.302456316285143"><ele>240.0</ele><time>2026-04-18T07:02:09Z</time></trkpt><trkpt lat="43.06662432031087" lon="12.302384341636776"><ele>240.0</ele><time>2026-04-18T07:02:09.999Z</time></trkpt><trkpt lat="43.0667131358391" lon="12.302316754950406"><ele>240.0</ele><time>2026-04-18T07:02:10.999Z</time></trkpt><trkpt lat="43.066810697140475" lon="12.30224378816857"><ele>239.4</ele><time>2026-04-18T07:02:11.999Z</time></trkpt><trkpt lat="43.066907222557106" lon="12.302164387561385"><ele>238.8</ele><time>2026-04-18T07:02:12.999Z</time></trkpt><trkpt lat="43.06699897426418" lon="12.302090772612658"><ele>238.2</ele><time>2026-04-18T07:02:13.999Z</time></trkpt><trkpt lat="43.06708256531358" lon="12.302030336352002"><ele>237.6</ele><time>2026-04-18T07:02:14.999Z</time></trkpt><trkpt lat="43.06715184679884" lon="12.301981114969953"><ele>237.0</ele><time>2026-04-18T07:02:15.999Z</time></trkpt><trkpt lat="43.06721975540008" lon="12.30192834803592"><ele>237.0</ele><time>2026-04-18T07:02:16.999Z</time></trkpt><trkpt lat="43.06729917627938" lon="12.301866594458648"><ele>237.0</ele><time>2026-04-18T07:02:17.999Z</time></trkpt><trkpt lat="43.0673819874698" lon="12.301803219971555"><ele>237.0</ele><time>2026-04-18T07:02:18.999Z</time></trkpt><trkpt lat="43.06746723810954" lon="12.301742051130738"><ele>237.0</ele><time>2026-04-18T07:02:19.999Z</time></trkpt><trkpt lat="43.067543856764544" lon="12.301684920451104"><ele>237.0</ele><time>2026-04-18T07:02:20.999Z</time></trkpt><trkpt lat="43.06760253267707" lon="12.30163996544402"><ele>237.0</ele><time>2026-04-18T07:02:21.999Z</time></trkpt><trkpt lat="43.067651088013264" lon="12.301540348865315"><ele>236.83333333333334</ele><time>2026-04-18T07:02:23.999Z</time></trkpt><trkpt lat="43.067637489116954" lon="12.30144493509879"><ele>236.66666666666669</ele><time>2026-04-18T07:02:24.999Z</time></trkpt><trkpt lat="43.06761106149883" lon="12.301342857243547"><ele>236.5</ele><time>2026-04-18T07:02:25.999Z</time></trkpt><trkpt lat="43.067578291576815" lon="12.301247668520555"><ele>236.33333333333334</ele><time>2026-04-18T07:02:26.999Z</time></trkpt><trkpt lat="43.0675507057219" lon="12.301143647822565"><ele>236.16666666666669</ele><time>2026-04-18T07:02:27.999Z</time></trkpt><trkpt lat="43.06752895636887" lon="12.301024723464947"><ele>236.0</ele><time>2026-04-18T07:02:28.999Z</time></trkpt><trkpt lat="43.06750448326202" lon="12.300896909455927"><ele>236.0</ele><time>2026-04-18T07:02:29.999Z</time></trkpt><trkpt lat="43.06747364194571" lon="12.300779508888514"><ele>236.00000000000003</ele><time>2026-04-18T07:02:30.999Z</time></trkpt><trkpt lat="43.06744051334265" lon="12.30064486969717"><ele>236.00000000000003</ele><time>2026-04-18T07:02:31.999Z</time></trkpt><trkpt lat="43.06740737788438" lon="12.300510284012052"><ele>236.0</ele><time>2026-04-18T07:02:32.999Z</time></trkpt><trkpt lat="43.06737463600196" lon="12.300366577413964"><ele>236.0</ele><time>2026-04-18T07:02:33.999Z</time></trkpt><trkpt lat="43.067343170703005" lon="12.300221191284603"><ele>235.8</ele><time>2026-04-18T07:02:34.999Z</time></trkpt><trkpt lat="43.06731370275422" lon="12.300089161578526"><ele>235.60000000000002</ele><time>2026-04-18T07:02:35.999Z</time></trkpt><trkpt lat="43.067282043988314" lon="12.299973650320576"><ele>235.4</ele><time>2026-04-18T07:02:36.999Z</time></trkpt><trkpt lat="43.067251030480996" lon="12.299844738866033"><ele>235.2</ele><time>2026-04-18T07:02:37.999Z</time></trkpt><trkpt lat="43.06722781349789" lon="12.299716519235854"><ele>235.0</ele><time>2026-04-18T07:02:38.999Z</time></trkpt><trkpt lat="43.067202783052124" lon="12.299590542145348"><ele>234.99999999999997</ele><time>2026-04-18T07:02:39.999Z</time></trkpt><trkpt lat="43.06717342298434" lon="12.299468470425444"><ele>235.0</ele><time>2026-04-18T07:02:40.999Z</time></trkpt><trkpt lat="43.06714158500706" lon="12.299355106324079"><ele>235.0</ele><time>2026-04-18T07:02:41.999Z</time></trkpt><trkpt lat="43.06710717045254" lon="12.29926081838403"><ele>235.0</ele><time>2026-04-18T07:02:42.999Z</time></trkpt><trkpt lat="43.06706977996693" lon="12.299178339877544"><ele>234.99999999999997</ele><time>2026-04-18T07:02:43.999Z</time></trkpt><trkpt lat="43.06704879959271" lon="12.299093136022446"><ele>235.0</ele><time>2026-04-18T07:02:44.999Z</time></trkpt><trkpt lat="43.066993641867825" lon="12.29896373783277"><ele>234.99999999999997</ele><time>2026-04-18T07:02:46.999Z</time></trkpt><trkpt lat="43.06695897038988" lon="12.298882967778098"><ele>235.0</ele><time>2026-04-18T07:02:48.999Z</time></trkpt><trkpt lat="43.066920540837344" lon="12.298793442986321"><ele>235.0</ele><time>2026-04-18T07:02:51.999Z</time></trkpt><trkpt lat="43.066986069394574" lon="12.298839717684649"><ele>235.0</ele><time>2026-04-18T07:03:04.999Z</time></trkpt><trkpt lat="43.06710341447523" lon="12.298943743515931"><ele>234.99999999999997</ele><time>2026-04-18T07:03:06.999Z</time></trkpt><trkpt lat="43.067127723270794" lon="12.299039369828206"><ele>235.0</ele><time>2026-04-18T07:03:07.999Z</time></trkpt><trkpt lat="43.06715540507971" lon="12.299148265037358"><ele>235.0</ele><time>2026-04-18T07:03:08.999Z</time></trkpt><trkpt lat="43.0671895647603" lon="12.299282643044283"><ele>235.0</ele><time>2026-04-18T07:03:09.999Z</time></trkpt><trkpt lat="43.06716791718345" lon="12.29946486254907"><ele>235.0</ele><time>2026-04-18T07:03:10.999Z</time></trkpt><trkpt lat="43.06720667874268" lon="12.299634217180689"><ele>235.0</ele><time>2026-04-18T07:03:11.998Z</time></trkpt><trkpt lat="43.067238815744304" lon="12.299812691002852"><ele>234.75</ele><time>2026-04-18T07:03:12.998Z</time></trkpt><trkpt lat="43.06727085297123" lon="12.299978818471576"><ele>234.5</ele><time>2026-04-18T07:03:13.998Z</time></trkpt><trkpt lat="43.067310281586934" lon="12.30013989689755"><ele>234.25</ele><time>2026-04-18T07:03:14.998Z</time></trkpt><trkpt lat="43.067343710955896" lon="12.300303673979123"><ele>234.0</ele><time>2026-04-18T07:03:15.998Z</time></trkpt><trkpt lat="43.067385152299025" lon="12.300468596259375"><ele>234.25</ele><time>2026-04-18T07:03:16.998Z</time></trkpt><trkpt lat="43.06742226551469" lon="12.300622980316303"><ele>234.5</ele><time>2026-04-18T07:03:17.998Z</time></trkpt><trkpt lat="43.06745918689959" lon="12.30078707978517"><ele>234.75</ele><time>2026-04-18T07:03:18.998Z</time></trkpt><trkpt lat="43.06750128533389" lon="12.30095284686178"><ele>235.0</ele><time>2026-04-18T07:03:19.998Z</time></trkpt><trkpt lat="43.06754006067528" lon="12.301109120148318"><ele>235.2</ele><time>2026-04-18T07:03:20.998Z</time></trkpt><trkpt lat="43.067563972777506" lon="12.301234089662794"><ele>235.4</ele><time>2026-04-18T07:03:21.998Z</time></trkpt><trkpt lat="43.06758331386844" lon="12.301327687062837"><ele>235.60000000000002</ele><time>2026-04-18T07:03:22.998Z</time></trkpt><trkpt lat="43.067617470260224" lon="12.30147165562883"><ele>235.8</ele><time>2026-04-18T07:03:24.998Z</time></trkpt><trkpt lat="43.0676343576498" lon="12.30157846280157"><ele>236.0</ele><time>2026-04-18T07:03:28.998Z</time></trkpt><trkpt lat="43.067730153589196" lon="12.301545197417541"><ele>236.0</ele><time>2026-04-18T07:03:30.998Z</time></trkpt><trkpt lat="43.06779620108213" lon="12.301482251632983"><ele>236.00000000000003</ele><time>2026-04-18T07:03:32.999Z</time></trkpt><trkpt lat="43.06792625664297" lon="12.301385406718474"><ele>236.00000000000003</ele><time>2026-04-18T07:03:34.999Z</time></trkpt><trkpt lat="43.0680035893327" lon="12.301319372481442"><ele>236.0</ele><time>2026-04-18T07:03:35.999Z</time></trkpt><trkpt lat="43.068096022904164" lon="12.30125357073357"><ele>236.0</ele><time>2026-04-18T07:03:36.999Z</time></trkpt><trkpt lat="43.06819346940934" lon="12.301184371860915"><ele>235.25</ele><time>2026-04-18T07:03:37.999Z</time></trkpt><trkpt lat="43.068293421279456" lon="12.301106807013069"><ele>234.5</ele><time>2026-04-18T07:03:38.999Z</time></trkpt><trkpt lat="43.06839595254656" lon="12.301023772902534"><ele>233.75</ele><time>2026-04-18T07:03:39.999Z</time></trkpt><trkpt lat="43.06850615288778" lon="12.300943733425193"><ele>233.0</ele><time>2026-04-18T07:03:40.999Z</time></trkpt><trkpt lat="43.06860428439648" lon="12.300862310066897"><ele>233.0</ele><time>2026-04-18T07:03:41.999Z</time></trkpt><trkpt lat="43.06869267259836" lon="12.300760549369889"><ele>233.0</ele><time>2026-04-18T07:03:42.999Z</time></trkpt><trkpt lat="43.06876274192477" lon="12.300623442797134"><ele>233.0</ele><time>2026-04-18T07:03:43.999Z</time></trkpt><trkpt lat="43.06882105683223" lon="12.30047431225331"><ele>233.0</ele><time>2026-04-18T07:03:44.999Z</time></trkpt><trkpt lat="43.068880385024656" lon="12.300296261639835"><ele>233.0</ele><time>2026-04-18T07:03:45.999Z</time></trkpt><trkpt lat="43.06892935284634" lon="12.300117621637773"><ele>233.0</ele><time>2026-04-18T07:03:46.999Z</time></trkpt><trkpt lat="43.0689965632144" lon="12.299930417390861"><ele>233.0</ele><time>2026-04-18T07:03:47.999Z</time></trkpt><trkpt lat="43.06906005365166" lon="12.299740040602922"><ele>233.0</ele><time>2026-04-18T07:03:48.999Z</time></trkpt><trkpt lat="43.069124845548785" lon="12.29954376954575"><ele>230.66666666666669</ele><time>2026-04-18T07:03:49.999Z</time></trkpt><trkpt lat="43.06919067562105" lon="12.299346519421732"><ele>228.33333333333331</ele><time>2026-04-18T07:03:50.999Z</time></trkpt><trkpt lat="43.06925602908958" lon="12.29914410478823"><ele>226.0</ele><time>2026-04-18T07:03:51.999Z</time></trkpt><trkpt lat="43.06930675602387" lon="12.29893605333295"><ele>225.75</ele><time>2026-04-18T07:03:52.999Z</time></trkpt><trkpt lat="43.06932551753761" lon="12.298717140141791"><ele>225.5</ele><time>2026-04-18T07:03:53.999Z</time></trkpt><trkpt lat="43.069326419948844" lon="12.298513929813288"><ele>225.25</ele><time>2026-04-18T07:03:54.999Z</time></trkpt><trkpt lat="43.069322802100366" lon="12.298339706850506"><ele>225.0</ele><time>2026-04-18T07:03:55.999Z</time></trkpt><trkpt lat="43.06933989055817" lon="12.298204019543572"><ele>225.0</ele><time>2026-04-18T07:03:56.999Z</time></trkpt><trkpt lat="43.06939405057034" lon="12.29808795574972"><ele>225.0</ele><time>2026-04-18T07:03:57.999Z</time></trkpt><trkpt lat="43.069476025768445" lon="12.297985975730542"><ele>225.0</ele><time>2026-04-18T07:03:58.999Z</time></trkpt><trkpt lat="43.069582970288366" lon="12.297917262428532"><ele>225.0</ele><time>2026-04-18T07:03:59.999Z</time></trkpt><trkpt lat="43.06971701722405" lon="12.297928711893645"><ele>225.5</ele><time>2026-04-18T07:04:00.999Z</time></trkpt><trkpt lat="43.06985927093791" lon="12.297927816674637"><ele>226.0</ele><time>2026-04-18T07:04:01.999Z</time></trkpt><trkpt lat="43.0700012672647" lon="12.297963237658704"><ele>226.5</ele><time>2026-04-18T07:04:02.999Z</time></trkpt><trkpt lat="43.07015358634879" lon="12.297992863127932"><ele>227.0</ele><time>2026-04-18T07:04:03.999Z</time></trkpt><trkpt lat="43.07030865513336" lon="12.298009631106982"><ele>224.33333333333334</ele><time>2026-04-18T07:04:04.999Z</time></trkpt><trkpt lat="43.07045793049519" lon="12.298023000233377"><ele>221.66666666666669</ele><time>2026-04-18T07:04:05.999Z</time></trkpt><trkpt lat="43.07061265840443" lon="12.298022947690342"><ele>219.0</ele><time>2026-04-18T07:04:06.999Z</time></trkpt><trkpt lat="43.07076795628009" lon="12.297980972329468"><ele>219.33333333333331</ele><time>2026-04-18T07:04:07.999Z</time></trkpt><trkpt lat="43.07092270342399" lon="12.297906376674797"><ele>219.66666666666666</ele><time>2026-04-18T07:04:08.999Z</time></trkpt><trkpt lat="43.07108033706227" lon="12.297825249889247"><ele>220.0</ele><time>2026-04-18T07:04:09.999Z</time></trkpt><trkpt lat="43.071236434446554" lon="12.297753117135246"><ele>220.0</ele><time>2026-04-18T07:04:10.999Z</time></trkpt><trkpt lat="43.071398105119066" lon="12.297676156957246"><ele>220.0</ele><time>2026-04-18T07:04:11.999Z</time></trkpt><trkpt lat="43.071558161744996" lon="12.297592801436526"><ele>220.0</ele><time>2026-04-18T07:04:12.999Z</time></trkpt><trkpt lat="43.071718598042494" lon="12.29750181252523"><ele>219.66666666666666</ele><time>2026-04-18T07:04:13.999Z</time></trkpt><trkpt lat="43.07187598958629" lon="12.297411725144668"><ele>219.33333333333331</ele><time>2026-04-18T07:04:14.999Z</time></trkpt><trkpt lat="43.07203503757173" lon="12.297316783767146"><ele>219.0</ele><time>2026-04-18T07:04:15.999Z</time></trkpt><trkpt lat="43.07219677439056" lon="12.297223720547889"><ele>219.0</ele><time>2026-04-18T07:04:16.999Z</time></trkpt><trkpt lat="43.07235231301343" lon="12.297135393173592"><ele>219.0</ele><time>2026-04-18T07:04:17.999Z</time></trkpt><trkpt lat="43.07249393123362" lon="12.297055375224136"><ele>219.0</ele><time>2026-04-18T07:04:18.999Z</time></trkpt><trkpt lat="43.072619974857886" lon="12.296984582465447"><ele>219.0</ele><time>2026-04-18T07:04:19.999Z</time></trkpt><trkpt lat="43.07273592453814" lon="12.296914189406806"><ele>218.99999999999997</ele><time>2026-04-18T07:04:20.999Z</time></trkpt><trkpt lat="43.0728438327867" lon="12.296854106084893"><ele>218.99999999999997</ele><time>2026-04-18T07:04:21.999Z</time></trkpt><trkpt lat="43.07294091942525" lon="12.296801123132935"><ele>219.0</ele><time>2026-04-18T07:04:22.999Z</time></trkpt><trkpt lat="43.07302591361768" lon="12.29676068583867"><ele>219.0</ele><time>2026-04-18T07:04:23.999Z</time></trkpt><trkpt lat="43.073101950042954" lon="12.296730231991273"><ele>219.0</ele><time>2026-04-18T07:04:24.999Z</time></trkpt><trkpt lat="43.073170414446544" lon="12.296714763841875"><ele>219.0</ele><time>2026-04-18T07:04:25.999Z</time></trkpt><trkpt lat="43.07324280858793" lon="12.296701721047407"><ele>219.0</ele><time>2026-04-18T07:04:26.999Z</time></trkpt><trkpt lat="43.073314310025296" lon="12.29665092929716"><ele>219.0</ele><time>2026-04-18T07:04:27.999Z</time></trkpt><trkpt lat="43.07339480572632" lon="12.296565214307167"><ele>219.0</ele><time>2026-04-18T07:04:28.999Z</time></trkpt><trkpt lat="43.0734877335846" lon="12.296488050339214"><ele>219.0</ele><time>2026-04-18T07:04:29.999Z</time></trkpt><trkpt lat="43.07357584212601" lon="12.296444229708387"><ele>220.6</ele><time>2026-04-18T07:04:30.999Z</time></trkpt><trkpt lat="43.07363267139376" lon="12.296406145694021"><ele>222.2</ele><time>2026-04-18T07:04:31.999Z</time></trkpt><trkpt lat="43.07370070122859" lon="12.29632465276486"><ele>223.79999999999998</ele><time>2026-04-18T07:04:33.999Z</time></trkpt><trkpt lat="43.07367655515442" lon="12.296112026327298"><ele>225.39999999999998</ele><time>2026-04-18T07:04:35.999Z</time></trkpt><trkpt lat="43.0736456733428" lon="12.2959974815734"><ele>227.0</ele><time>2026-04-18T07:04:36.999Z</time></trkpt><trkpt lat="43.073591794065834" lon="12.29587582246873"><ele>227.0</ele><time>2026-04-18T07:04:37.999Z</time></trkpt><trkpt lat="43.07354108511136" lon="12.295742889321676"><ele>227.0</ele><time>2026-04-18T07:04:38.999Z</time></trkpt><trkpt lat="43.073489517431" lon="12.295599553560702"><ele>227.0</ele><time>2026-04-18T07:04:39.999Z</time></trkpt><trkpt lat="43.07343745479715" lon="12.295447464768602"><ele>227.0</ele><time>2026-04-18T07:04:40.999Z</time></trkpt><trkpt lat="43.073382281777036" lon="12.295288981617968"><ele>227.0</ele><time>2026-04-18T07:04:41.999Z</time></trkpt><trkpt lat="43.073322516168204" lon="12.295117788381772"><ele>227.0</ele><time>2026-04-18T07:04:42.999Z</time></trkpt><trkpt lat="43.073266118530064" lon="12.294933517389326"><ele>227.0</ele><time>2026-04-18T07:04:43.999Z</time></trkpt><trkpt lat="43.07319581938851" lon="12.294746474937124"><ele>227.0</ele><time>2026-04-18T07:04:44.999Z</time></trkpt><trkpt lat="43.073134740328285" lon="12.294573676151078"><ele>226.25</ele><time>2026-04-18T07:04:45.999Z</time></trkpt><trkpt lat="43.07307528152025" lon="12.294421927023105"><ele>225.5</ele><time>2026-04-18T07:04:46.999Z</time></trkpt><trkpt lat="43.0730240672117" lon="12.29426981918568"><ele>224.75</ele><time>2026-04-18T07:04:47.999Z</time></trkpt><trkpt lat="43.07297571535799" lon="12.294129312268005"><ele>224.0</ele><time>2026-04-18T07:04:48.999Z</time></trkpt><trkpt lat="43.07292080304034" lon="12.293989625812529"><ele>224.0</ele><time>2026-04-18T07:04:49.999Z</time></trkpt><trkpt lat="43.07287449975193" lon="12.29387584814435"><ele>223.99999999999997</ele><time>2026-04-18T07:04:50.999Z</time></trkpt><trkpt lat="43.07284454800568" lon="12.29378454356887"><ele>223.99999999999997</ele><time>2026-04-18T07:04:51.999Z</time></trkpt><trkpt lat="43.07282740833676" lon="12.293661524765401"><ele>224.0</ele><time>2026-04-18T07:04:53.999Z</time></trkpt><trkpt lat="43.072923038645236" lon="12.293599311394324"><ele>224.0</ele><time>2026-04-18T07:04:56.999Z</time></trkpt><trkpt lat="43.07305518739483" lon="12.2935714534809"><ele>224.0</ele><time>2026-04-18T07:04:58.999Z</time></trkpt><trkpt lat="43.07313035773814" lon="12.293524761364132"><ele>223.99999999999997</ele><time>2026-04-18T07:04:59.999Z</time></trkpt><trkpt lat="43.07320297102832" lon="12.293477693051475"><ele>223.99999999999997</ele><time>2026-04-18T07:05:00.999Z</time></trkpt><trkpt lat="43.07335375992863" lon="12.293416902586943"><ele>224.0</ele><time>2026-04-18T07:05:02.999Z</time></trkpt><trkpt lat="43.073423961454864" lon="12.293384953639372"><ele>224.0</ele><time>2026-04-18T07:05:03.999Z</time></trkpt><trkpt lat="43.07350285097264" lon="12.293349050812852"><ele>223.00000000000003</ele><time>2026-04-18T07:05:04.999Z</time></trkpt><trkpt lat="43.073582731846905" lon="12.293313153218937"><ele>222.0</ele><time>2026-04-18T07:05:05.999Z</time></trkpt><trkpt lat="43.073647998963786" lon="12.293283698476321"><ele>221.0</ele><time>2026-04-18T07:05:06.999Z</time></trkpt><trkpt lat="43.073709074438355" lon="12.293241597496616"><ele>220.0</ele><time>2026-04-18T07:05:07.999Z</time></trkpt><trkpt lat="43.07375800717207" lon="12.293175333807351"><ele>219.00000000000003</ele><time>2026-04-18T07:05:08.999Z</time></trkpt><trkpt lat="43.07380639779269" lon="12.29309323397886"><ele>218.0</ele><time>2026-04-18T07:05:09.999Z</time></trkpt><trkpt lat="43.073837047792125" lon="12.292981883903442"><ele>217.75</ele><time>2026-04-18T07:05:10.999Z</time></trkpt><trkpt lat="43.07383173379932" lon="12.292861359198275"><ele>217.5</ele><time>2026-04-18T07:05:11.999Z</time></trkpt><trkpt lat="43.073837485947955" lon="12.29270384845977"><ele>217.25</ele><time>2026-04-18T07:05:12.998Z</time></trkpt><trkpt lat="43.073814766590615" lon="12.292521882220928"><ele>217.0</ele><time>2026-04-18T07:05:13.998Z</time></trkpt><trkpt lat="43.07378661471912" lon="12.292360025679418"><ele>216.99999999999997</ele><time>2026-04-18T07:05:14.998Z</time></trkpt><trkpt lat="43.07375388139716" lon="12.292263482150773"><ele>217.0</ele><time>2026-04-18T07:05:15.998Z</time></trkpt><trkpt lat="43.07374092778943" lon="12.292176665846858"><ele>217.0</ele><time>2026-04-18T07:05:16.998Z</time></trkpt><trkpt lat="43.073742525135096" lon="12.29206496118476"><ele>217.0</ele><time>2026-04-18T07:05:17.998Z</time></trkpt><trkpt lat="43.07373246423215" lon="12.291952073978505"><ele>216.99999999999997</ele><time>2026-04-18T07:05:18.998Z</time></trkpt><trkpt lat="43.07372296280091" lon="12.291833683991335"><ele>217.0</ele><time>2026-04-18T07:05:19.998Z</time></trkpt><trkpt lat="43.07371413453864" lon="12.291723681829065"><ele>216.39999999999998</ele><time>2026-04-18T07:05:20.998Z</time></trkpt><trkpt lat="43.073703542156316" lon="12.29159169834406"><ele>215.79999999999998</ele><time>2026-04-18T07:05:21.998Z</time></trkpt><trkpt lat="43.07367057687616" lon="12.291462875735474"><ele>215.2</ele><time>2026-04-18T07:05:22.998Z</time></trkpt><trkpt lat="43.0736754290736" lon="12.2913674820583"><ele>214.6</ele><time>2026-04-18T07:05:23.998Z</time></trkpt><trkpt lat="43.073737387363735" lon="12.291305502301464"><ele>214.0</ele><time>2026-04-18T07:05:26.998Z</time></trkpt><trkpt lat="43.0738094233322" lon="12.291457653329635"><ele>214.0</ele><time>2026-04-18T07:05:40.999Z</time></trkpt><trkpt lat="43.07389454780486" lon="12.291557159796453"><ele>213.99999999999997</ele><time>2026-04-18T07:05:42.999Z</time></trkpt><trkpt lat="43.07398074429442" lon="12.291650570261925"><ele>213.99999999999997</ele><time>2026-04-18T07:05:44.999Z</time></trkpt><trkpt lat="43.074056882618734" lon="12.291761665400237"><ele>214.0</ele><time>2026-04-18T07:05:46.999Z</time></trkpt><trkpt lat="43.074112628967065" lon="12.291819022981345"><ele>214.0</ele><time>2026-04-18T07:05:47.999Z</time></trkpt><trkpt lat="43.074184540793546" lon="12.291950634449584"><ele>214.0</ele><time>2026-04-18T07:05:49.999Z</time></trkpt><trkpt lat="43.074249747439886" lon="12.292038040839893"><ele>213.99999999999997</ele><time>2026-04-18T07:05:51.999Z</time></trkpt><trkpt lat="43.07433946171272" lon="12.292093605447143"><ele>213.99999999999997</ele><time>2026-04-18T07:06:20.999Z</time></trkpt><trkpt lat="43.07439954910294" lon="12.292048013411177"><ele>214.0</ele><time>2026-04-18T07:06:46.999Z</time></trkpt><trkpt lat="43.07444581486267" lon="12.291955298911347"><ele>214.0</ele><time>2026-04-18T07:07:19.999Z</time></trkpt><trkpt lat="43.07454370582997" lon="12.291812661922837"><ele>214.0</ele><time>2026-04-18T07:07:21.999Z</time></trkpt><trkpt lat="43.07460148585974" lon="12.29169102224254"><ele>214.0</ele><time>2026-04-18T07:07:22.999Z</time></trkpt><trkpt lat="43.074665122752755" lon="12.291547062779614"><ele>214.0</ele><time>2026-04-18T07:07:23.999Z</time></trkpt><trkpt lat="43.07473424326127" lon="12.291388209090131"><ele>214.0</ele><time>2026-04-18T07:07:24.999Z</time></trkpt><trkpt lat="43.07479426232696" lon="12.29121418290485"><ele>213.75</ele><time>2026-04-18T07:07:25.999Z</time></trkpt><trkpt lat="43.074879341967666" lon="12.29105474125074"><ele>213.5</ele><time>2026-04-18T07:07:26.999Z</time></trkpt><trkpt lat="43.074934659992756" lon="12.29088003598"><ele>213.25</ele><time>2026-04-18T07:07:27.998Z</time></trkpt><trkpt lat="43.074998045208275" lon="12.29072679175994"><ele>213.0</ele><time>2026-04-18T07:07:28.998Z</time></trkpt><trkpt lat="43.075056238815215" lon="12.29060473872965"><ele>213.0</ele><time>2026-04-18T07:07:29.998Z</time></trkpt><trkpt lat="43.07511408343008" lon="12.290467448439296"><ele>213.0</ele><time>2026-04-18T07:07:30.998Z</time></trkpt><trkpt lat="43.07516801973264" lon="12.290311702676979"><ele>213.0</ele><time>2026-04-18T07:07:31.998Z</time></trkpt><trkpt lat="43.07522850559008" lon="12.290160221992869"><ele>213.0</ele><time>2026-04-18T07:07:32.998Z</time></trkpt><trkpt lat="43.07528299357074" lon="12.290016283352683"><ele>213.0</ele><time>2026-04-18T07:07:33.998Z</time></trkpt><trkpt lat="43.07533011610966" lon="12.289895956638388"><ele>213.0</ele><time>2026-04-18T07:07:34.998Z</time></trkpt><trkpt lat="43.075381534932276" lon="12.28980050033795"><ele>213.0</ele><time>2026-04-18T07:07:35.998Z</time></trkpt><trkpt lat="43.075420186373094" lon="12.289713501163131"><ele>213.0</ele><time>2026-04-18T07:07:36.998Z</time></trkpt><trkpt lat="43.07546862395314" lon="12.289608276513446"><ele>213.0</ele><time>2026-04-18T07:07:38.998Z</time></trkpt><trkpt lat="43.07536147731755" lon="12.289416303866803"><ele>213.66666666666666</ele><time>2026-04-18T07:07:41.998Z</time></trkpt><trkpt lat="43.07529596970674" lon="12.289333446752364"><ele>214.33333333333331</ele><time>2026-04-18T07:07:42.998Z</time></trkpt><trkpt lat="43.07523683522625" lon="12.289248105207315"><ele>215.0</ele><time>2026-04-18T07:07:43.998Z</time></trkpt><trkpt lat="43.075178362180814" lon="12.289173794287088"><ele>215.66666666666666</ele><time>2026-04-18T07:07:44.999Z</time></trkpt><trkpt lat="43.0751562500889" lon="12.289050210668705"><ele>216.33333333333331</ele><time>2026-04-18T07:07:46.999Z</time></trkpt><trkpt lat="43.07518349835569" lon="12.28896212899829"><ele>217.0</ele><time>2026-04-18T07:07:47.999Z</time></trkpt><trkpt lat="43.075187128827935" lon="12.288808960247483"><ele>216.25</ele><time>2026-04-18T07:07:49.999Z</time></trkpt><trkpt lat="43.07506350901912" lon="12.288658228527533"><ele>215.5</ele><time>2026-04-18T07:07:51.999Z</time></trkpt><trkpt lat="43.07498417361686" lon="12.288566330331191"><ele>214.75</ele><time>2026-04-18T07:07:52.999Z</time></trkpt><trkpt lat="43.074915482454706" lon="12.288469831121134"><ele>214.0</ele><time>2026-04-18T07:07:53.999Z</time></trkpt><trkpt lat="43.07484396480261" lon="12.288388113917973"><ele>214.0</ele><time>2026-04-18T07:07:54.999Z</time></trkpt><trkpt lat="43.07477515303415" lon="12.288303426007559"><ele>213.99999999999997</ele><time>2026-04-18T07:07:55.999Z</time></trkpt><trkpt lat="43.074707889475626" lon="12.288220972933184"><ele>213.99999999999997</ele><time>2026-04-18T07:07:56.999Z</time></trkpt><trkpt lat="43.07464536515209" lon="12.288144329326652"><ele>214.0</ele><time>2026-04-18T07:07:57.999Z</time></trkpt><trkpt lat="43.07458372962" lon="12.28805767777888"><ele>214.0</ele><time>2026-04-18T07:07:58.999Z</time></trkpt><trkpt lat="43.07451910493938" lon="12.287946369746804"><ele>214.79999999999998</ele><time>2026-04-18T07:08:00.999Z</time></trkpt><trkpt lat="43.074459595528204" lon="12.28781291186551"><ele>215.59999999999997</ele><time>2026-04-18T07:08:02.999Z</time></trkpt><trkpt lat="43.07442626990841" lon="12.287736687157013"><ele>216.4</ele><time>2026-04-18T07:08:03.999Z</time></trkpt><trkpt lat="43.07437513379334" lon="12.287640327410886"><ele>217.2</ele><time>2026-04-18T07:08:05.999Z</time></trkpt><trkpt lat="43.07435185882366" lon="12.287525619820796"><ele>218.0</ele><time>2026-04-18T07:08:07.999Z</time></trkpt><trkpt lat="43.074316862410114" lon="12.287377120259544"><ele>218.0</ele><time>2026-04-18T07:08:09.999Z</time></trkpt><trkpt lat="43.0742877894724" lon="12.287289901235598"><ele>218.0</ele><time>2026-04-18T07:08:10.999Z</time></trkpt><trkpt lat="43.07427479162718" lon="12.287180826064894"><ele>218.0</ele><time>2026-04-18T07:08:11.999Z</time></trkpt><trkpt lat="43.07424326440951" lon="12.287090443066553"><ele>218.0</ele><time>2026-04-18T07:08:12.999Z</time></trkpt><trkpt lat="43.074231227292856" lon="12.286929682264963"><ele>218.0</ele><time>2026-04-18T07:08:14.999Z</time></trkpt><trkpt lat="43.07421703936713" lon="12.286754834433333"><ele>218.8</ele><time>2026-04-18T07:08:16.999Z</time></trkpt><trkpt lat="43.0742075454444" lon="12.28662635014713"><ele>219.60000000000002</ele><time>2026-04-18T07:08:17.999Z</time></trkpt><trkpt lat="43.07418309436465" lon="12.286504409977082"><ele>220.39999999999998</ele><time>2026-04-18T07:08:18.999Z</time></trkpt><trkpt lat="43.074171737218435" lon="12.286381128147905"><ele>221.2</ele><time>2026-04-18T07:08:19.999Z</time></trkpt><trkpt lat="43.074157570330016" lon="12.286257953073509"><ele>222.0</ele><time>2026-04-18T07:08:20.999Z</time></trkpt><trkpt lat="43.07416193885218" lon="12.28611888907605"><ele>222.16666666666666</ele><time>2026-04-18T07:08:21.999Z</time></trkpt><trkpt lat="43.0741651958364" lon="12.285995642043966"><ele>222.33333333333331</ele><time>2026-04-18T07:08:22.999Z</time></trkpt><trkpt lat="43.074174270563645" lon="12.285875449429593"><ele>222.5</ele><time>2026-04-18T07:08:23.999Z</time></trkpt><trkpt lat="43.07418790059668" lon="12.285773416883334"><ele>222.66666666666666</ele><time>2026-04-18T07:08:24.999Z</time></trkpt><trkpt lat="43.07420212078981" lon="12.285688410662122"><ele>222.83333333333331</ele><time>2026-04-18T07:08:25.999Z</time></trkpt><trkpt lat="43.07424205330317" lon="12.28552195163679"><ele>223.0</ele><time>2026-04-18T07:08:27.999Z</time></trkpt><trkpt lat="43.07427658777915" lon="12.285421840440264"><ele>222.99999999999997</ele><time>2026-04-18T07:08:28.999Z</time></trkpt><trkpt lat="43.07431498925762" lon="12.285265536453398"><ele>223.0</ele><time>2026-04-18T07:08:30.999Z</time></trkpt><trkpt lat="43.07434572295666" lon="12.285182660160935"><ele>223.0</ele><time>2026-04-18T07:08:31.999Z</time></trkpt><trkpt lat="43.07438009668717" lon="12.285097378536074"><ele>223.0</ele><time>2026-04-18T07:08:32.999Z</time></trkpt><trkpt lat="43.074420606196654" lon="12.284995278280617"><ele>222.99999999999997</ele><time>2026-04-18T07:08:33.999Z</time></trkpt><trkpt lat="43.07443916301108" lon="12.284880401007374"><ele>223.0</ele><time>2026-04-18T07:08:34.999Z</time></trkpt><trkpt lat="43.074465891610394" lon="12.284723837247965"><ele>223.66666666666666</ele><time>2026-04-18T07:08:36.999Z</time></trkpt><trkpt lat="43.07456638372098" lon="12.28460752466498"><ele>224.33333333333331</ele><time>2026-04-18T07:08:38.999Z</time></trkpt><trkpt lat="43.07462407680753" lon="12.284533943257067"><ele>225.0</ele><time>2026-04-18T07:08:39.999Z</time></trkpt><trkpt lat="43.07467109636581" lon="12.284443235586368"><ele>225.66666666666669</ele><time>2026-04-18T07:08:40.999Z</time></trkpt><trkpt lat="43.07470746817342" lon="12.284355629442363"><ele>226.33333333333334</ele><time>2026-04-18T07:08:41.999Z</time></trkpt><trkpt lat="43.074753155489574" lon="12.2842860690454"><ele>227.0</ele><time>2026-04-18T07:08:42.999Z</time></trkpt><trkpt lat="43.07479283442264" lon="12.284142091685409"><ele>227.00000000000003</ele><time>2026-04-18T07:08:44.999Z</time></trkpt><trkpt lat="43.074781369105516" lon="12.28405100865701"><ele>227.0</ele><time>2026-04-18T07:08:45.999Z</time></trkpt><trkpt lat="43.07476379920918" lon="12.283962271683132"><ele>227.0</ele><time>2026-04-18T07:08:46.999Z</time></trkpt><trkpt lat="43.07475241139221" lon="12.283822921477032"><ele>227.0</ele><time>2026-04-18T07:08:48.999Z</time></trkpt><trkpt lat="43.07476651789657" lon="12.283692117729098"><ele>227.00000000000003</ele><time>2026-04-18T07:08:50.999Z</time></trkpt><trkpt lat="43.07479602395008" lon="12.283590964448537"><ele>227.0</ele><time>2026-04-18T07:08:51.999Z</time></trkpt><trkpt lat="43.074852252203996" lon="12.283486408069134"><ele>227.33333333333334</ele><time>2026-04-18T07:08:52.999Z</time></trkpt><trkpt lat="43.07488682042685" lon="12.283376331360962"><ele>227.66666666666669</ele><time>2026-04-18T07:08:53.999Z</time></trkpt><trkpt lat="43.07494173034304" lon="12.283281277998592"><ele>228.0</ele><time>2026-04-18T07:08:54.999Z</time></trkpt><trkpt lat="43.074994912106504" lon="12.283228254833055"><ele>228.33333333333331</ele><time>2026-04-18T07:08:55.999Z</time></trkpt><trkpt lat="43.075106161939196" lon="12.283253039681858"><ele>228.66666666666666</ele><time>2026-04-18T07:08:57.999Z</time></trkpt><trkpt lat="43.075168066179415" lon="12.283322169367938"><ele>229.0</ele><time>2026-04-18T07:08:58.999Z</time></trkpt><trkpt lat="43.07522047170651" lon="12.283399717300291"><ele>231.33333333333331</ele><time>2026-04-18T07:08:59.999Z</time></trkpt><trkpt lat="43.075283798878615" lon="12.283464035890157"><ele>233.66666666666666</ele><time>2026-04-18T07:09:00.999Z</time></trkpt><trkpt lat="43.07534073296854" lon="12.283510727377685"><ele>236.0</ele><time>2026-04-18T07:09:01.999Z</time></trkpt><trkpt lat="43.07544835199772" lon="12.283480065379996"><ele>238.33333333333331</ele><time>2026-04-18T07:09:03.999Z</time></trkpt><trkpt lat="43.07547971158964" lon="12.283375666821676"><ele>240.66666666666666</ele><time>2026-04-18T07:09:05.999Z</time></trkpt><trkpt lat="43.07546289120276" lon="12.283262039372808"><ele>243.0</ele><time>2026-04-18T07:09:07.999Z</time></trkpt><trkpt lat="43.07544827807658" lon="12.283162082878782"><ele>244.25</ele><time>2026-04-18T07:09:08.999Z</time></trkpt><trkpt lat="43.07542872489075" lon="12.283028288957585"><ele>245.5</ele><time>2026-04-18T07:09:09.999Z</time></trkpt><trkpt lat="43.07540454634454" lon="12.282883017131056"><ele>246.75</ele><time>2026-04-18T07:09:10.999Z</time></trkpt><trkpt lat="43.07537538509699" lon="12.282724709391525"><ele>248.0</ele><time>2026-04-18T07:09:11.999Z</time></trkpt><trkpt lat="43.075341046375016" lon="12.282554884061224"><ele>248.0</ele><time>2026-04-18T07:09:12.999Z</time></trkpt><trkpt lat="43.07530155642591" lon="12.282394884412726"><ele>248.0</ele><time>2026-04-18T07:09:13.999Z</time></trkpt><trkpt lat="43.07524855608132" lon="12.282281702733158"><ele>248.0</ele><time>2026-04-18T07:09:14.999Z</time></trkpt><trkpt lat="43.0751942534571" lon="12.282157203406554"><ele>248.0</ele><time>2026-04-18T07:09:15.999Z</time></trkpt><trkpt lat="43.07513337765448" lon="12.282009448192479"><ele>248.0</ele><time>2026-04-18T07:09:16.999Z</time></trkpt><trkpt lat="43.07505479692167" lon="12.281873608604183"><ele>248.0</ele><time>2026-04-18T07:09:17.999Z</time></trkpt><trkpt lat="43.07497016923163" lon="12.281752520847766"><ele>248.0</ele><time>2026-04-18T07:09:18.999Z</time></trkpt><trkpt lat="43.07487882841533" lon="12.281658642804647"><ele>248.0</ele><time>2026-04-18T07:09:19.999Z</time></trkpt><trkpt lat="43.07482070140866" lon="12.281555255619132"><ele>248.0</ele><time>2026-04-18T07:09:20.999Z</time></trkpt><trkpt lat="43.07477493063223" lon="12.281465105323035"><ele>248.0</ele><time>2026-04-18T07:09:21.999Z</time></trkpt><trkpt lat="43.074734209324625" lon="12.281390625172866"><ele>248.0</ele><time>2026-04-18T07:09:22.999Z</time></trkpt><trkpt lat="43.07468933111306" lon="12.281273008055164"><ele>248.0</ele><time>2026-04-18T07:09:24.999Z</time></trkpt><trkpt lat="43.074758482793754" lon="12.281164163708816"><ele>248.0</ele><time>2026-04-18T07:09:26.999Z</time></trkpt><trkpt lat="43.07488411074318" lon="12.281139687343165"><ele>250.33333333333334</ele><time>2026-04-18T07:09:28.999Z</time></trkpt><trkpt lat="43.07495859513149" lon="12.281122539052722"><ele>252.66666666666669</ele><time>2026-04-18T07:09:29.999Z</time></trkpt><trkpt lat="43.075032924238684" lon="12.281097037396124"><ele>255.0</ele><time>2026-04-18T07:09:30.999Z</time></trkpt><trkpt lat="43.07511390538542" lon="12.281052009756975"><ele>257.3333333333333</ele><time>2026-04-18T07:09:31.999Z</time></trkpt><trkpt lat="43.075188163115335" lon="12.28099114590016"><ele>259.66666666666663</ele><time>2026-04-18T07:09:32.999Z</time></trkpt><trkpt lat="43.07527283759224" lon="12.280947196699348"><ele>262.0</ele><time>2026-04-18T07:09:33.999Z</time></trkpt><trkpt lat="43.07534330334207" lon="12.28086822631029"><ele>262.0</ele><time>2026-04-18T07:09:34.999Z</time></trkpt><trkpt lat="43.075435432426396" lon="12.280741336563192"><ele>262.0</ele><time>2026-04-18T07:09:36.999Z</time></trkpt><trkpt lat="43.07546275624186" lon="12.280657482790815"><ele>262.0</ele><time>2026-04-18T07:09:37.999Z</time></trkpt><trkpt lat="43.07548558008495" lon="12.280555858949432"><ele>262.0</ele><time>2026-04-18T07:09:38.999Z</time></trkpt><trkpt lat="43.07550693159382" lon="12.28044437758415"><ele>262.0</ele><time>2026-04-18T07:09:39.999Z</time></trkpt><trkpt lat="43.07552874020684" lon="12.280348671172645"><ele>262.0</ele><time>2026-04-18T07:09:40.999Z</time></trkpt><trkpt lat="43.07555867090938" lon="12.280267414009282"><ele>261.0</ele><time>2026-04-18T07:09:41.999Z</time></trkpt><trkpt lat="43.0755946002283" lon="12.280189783451304"><ele>260.0</ele><time>2026-04-18T07:09:42.999Z</time></trkpt><trkpt lat="43.075668994635556" lon="12.280049658585943"><ele>259.0</ele><time>2026-04-18T07:09:44.999Z</time></trkpt><trkpt lat="43.07572084436726" lon="12.279969593376517"><ele>258.0</ele><time>2026-04-18T07:09:45.999Z</time></trkpt><trkpt lat="43.07580380233698" lon="12.279934481812711"><ele>257.0</ele><time>2026-04-18T07:09:46.999Z</time></trkpt><trkpt lat="43.07586714910213" lon="12.279870984457613"><ele>256.0</ele><time>2026-04-18T07:09:47.999Z</time></trkpt><trkpt lat="43.075925134799505" lon="12.279810243056739"><ele>256.3333333333333</ele><time>2026-04-18T07:09:48.999Z</time></trkpt><trkpt lat="43.07601999204563" lon="12.27969296170919"><ele>256.66666666666663</ele><time>2026-04-18T07:09:50.999Z</time></trkpt><trkpt lat="43.07607980886928" lon="12.279630487729355"><ele>257.0</ele><time>2026-04-18T07:09:51.999Z</time></trkpt><trkpt lat="43.07613652767158" lon="12.279560062207413"><ele>257.3333333333333</ele><time>2026-04-18T07:09:52.999Z</time></trkpt><trkpt lat="43.07619489372324" lon="12.279489116986875"><ele>257.6666666666667</ele><time>2026-04-18T07:09:53.999Z</time></trkpt><trkpt lat="43.07625464355462" lon="12.279419904081957"><ele>258.0</ele><time>2026-04-18T07:09:54.999Z</time></trkpt><trkpt lat="43.076325012420675" lon="12.27934391057771"><ele>258.0</ele><time>2026-04-18T07:09:55.999Z</time></trkpt><trkpt lat="43.07640360502177" lon="12.279245712890601"><ele>258.0</ele><time>2026-04-18T07:09:56.999Z</time></trkpt><trkpt lat="43.0765020439013" lon="12.279164677271705"><ele>258.0</ele><time>2026-04-18T07:09:57.999Z</time></trkpt><trkpt lat="43.07661460725416" lon="12.279088091459926"><ele>258.0</ele><time>2026-04-18T07:09:58.999Z</time></trkpt><trkpt lat="43.07672665162623" lon="12.279007618642343"><ele>258.2</ele><time>2026-04-18T07:09:59.999Z</time></trkpt><trkpt lat="43.07683514276317" lon="12.27892072466542"><ele>258.4</ele><time>2026-04-18T07:10:00.999Z</time></trkpt><trkpt lat="43.076943038325474" lon="12.27884584043341"><ele>258.59999999999997</ele><time>2026-04-18T07:10:01.999Z</time></trkpt><trkpt lat="43.07702194552594" lon="12.278773230570485"><ele>258.8</ele><time>2026-04-18T07:10:02.999Z</time></trkpt><trkpt lat="43.07709775550301" lon="12.278713849242667"><ele>259.0</ele><time>2026-04-18T07:10:03.999Z</time></trkpt><trkpt lat="43.077175035152045" lon="12.278634202864671"><ele>259.0</ele><time>2026-04-18T07:10:04.999Z</time></trkpt><trkpt lat="43.07725052535294" lon="12.27853526698689"><ele>259.0</ele><time>2026-04-18T07:10:05.999Z</time></trkpt><trkpt lat="43.07732242261598" lon="12.27842982830504"><ele>259.0</ele><time>2026-04-18T07:10:06.999Z</time></trkpt><trkpt lat="43.07741259888325" lon="12.278331397515029"><ele>259.0</ele><time>2026-04-18T07:10:07.999Z</time></trkpt><trkpt lat="43.07747522282254" lon="12.278224277244913"><ele>259.0</ele><time>2026-04-18T07:10:08.999Z</time></trkpt><trkpt lat="43.07751316367452" lon="12.278115888695295"><ele>260.8</ele><time>2026-04-18T07:10:09.999Z</time></trkpt><trkpt lat="43.077567986303" lon="12.278039691988745"><ele>262.59999999999997</ele><time>2026-04-18T07:10:10.999Z</time></trkpt><trkpt lat="43.07761366637717" lon="12.277955360394834"><ele>264.4</ele><time>2026-04-18T07:10:11.999Z</time></trkpt><trkpt lat="43.07764614866217" lon="12.27784938752904"><ele>266.2</ele><time>2026-04-18T07:10:12.999Z</time></trkpt><trkpt lat="43.07767892796346" lon="12.277718490919343"><ele>268.0</ele><time>2026-04-18T07:10:14.999Z</time></trkpt><trkpt lat="43.07771109028821" lon="12.27756831712012"><ele>268.0</ele><time>2026-04-18T07:10:17.999Z</time></trkpt><trkpt lat="43.0777238919522" lon="12.27748298947934"><ele>268.0</ele><time>2026-04-18T07:10:18.999Z</time></trkpt><trkpt lat="43.077739291769525" lon="12.277350856911818"><ele>268.0</ele><time>2026-04-18T07:10:20.999Z</time></trkpt><trkpt lat="43.07772543520841" lon="12.277259290851847"><ele>268.0</ele><time>2026-04-18T07:10:31.999Z</time></trkpt><trkpt lat="43.07794207686527" lon="12.277155928540447"><ele>269.6</ele><time>2026-04-18T07:10:35.999Z</time></trkpt><trkpt lat="43.078025778564225" lon="12.277132740748813"><ele>271.20000000000005</ele><time>2026-04-18T07:10:36.999Z</time></trkpt><trkpt lat="43.07811510297939" lon="12.277107703719269"><ele>272.8</ele><time>2026-04-18T07:10:37.999Z</time></trkpt><trkpt lat="43.07821440278381" lon="12.277069513567087"><ele>274.40000000000003</ele><time>2026-04-18T07:10:38.999Z</time></trkpt><trkpt lat="43.078320951611445" lon="12.277036312588333"><ele>276.0</ele><time>2026-04-18T07:10:39.999Z</time></trkpt><trkpt lat="43.078433506776015" lon="12.277001810575111"><ele>276.8</ele><time>2026-04-18T07:10:40.999Z</time></trkpt><trkpt lat="43.07854727701147" lon="12.276964752638168"><ele>277.6</ele><time>2026-04-18T07:10:41.999Z</time></trkpt><trkpt lat="43.07865487600162" lon="12.276928581725405"><ele>278.4</ele><time>2026-04-18T07:10:42.999Z</time></trkpt><trkpt lat="43.07874420912254" lon="12.276904791698508"><ele>279.2</ele><time>2026-04-18T07:10:43.999Z</time></trkpt><trkpt lat="43.07883114263885" lon="12.27686829177164"><ele>280.0</ele><time>2026-04-18T07:10:44.999Z</time></trkpt><trkpt lat="43.07891885655081" lon="12.27683255212095"><ele>280.0</ele><time>2026-04-18T07:10:45.999Z</time></trkpt><trkpt lat="43.079017959573434" lon="12.276796260082275"><ele>280.0</ele><time>2026-04-18T07:10:46.999Z</time></trkpt><trkpt lat="43.07911099200835" lon="12.27677398333106"><ele>280.0</ele><time>2026-04-18T07:10:47.999Z</time></trkpt><trkpt lat="43.07920823666889" lon="12.276751079338576"><ele>280.0</ele><time>2026-04-18T07:10:48.999Z</time></trkpt><trkpt lat="43.079297307578685" lon="12.276710525122843"><ele>280.0</ele><time>2026-04-18T07:10:49.999Z</time></trkpt><trkpt lat="43.07938365883097" lon="12.276668567295049"><ele>280.75</ele><time>2026-04-18T07:10:50.999Z</time></trkpt><trkpt lat="43.07946610919855" lon="12.27661836237733"><ele>281.5</ele><time>2026-04-18T07:10:51.999Z</time></trkpt><trkpt lat="43.07963830904456" lon="12.276523095898607"><ele>282.25</ele><time>2026-04-18T07:10:53.999Z</time></trkpt><trkpt lat="43.07973139869786" lon="12.276473056514675"><ele>283.0</ele><time>2026-04-18T07:10:54.999Z</time></trkpt><trkpt lat="43.079821867671676" lon="12.27641331735298"><ele>284.8</ele><time>2026-04-18T07:10:55.999Z</time></trkpt><trkpt lat="43.07990412818053" lon="12.276336169049438"><ele>286.6</ele><time>2026-04-18T07:10:56.999Z</time></trkpt><trkpt lat="43.079967043180595" lon="12.27624110753459"><ele>288.4</ele><time>2026-04-18T07:10:57.999Z</time></trkpt><trkpt lat="43.08002650434891" lon="12.276147703011809"><ele>290.2</ele><time>2026-04-18T07:10:58.999Z</time></trkpt><trkpt lat="43.08007117180516" lon="12.276060294591252"><ele>292.0</ele><time>2026-04-18T07:10:59.999Z</time></trkpt><trkpt lat="43.08012658024549" lon="12.275965127583666"><ele>292.0</ele><time>2026-04-18T07:11:00.999Z</time></trkpt><trkpt lat="43.08019472748732" lon="12.275868035518254"><ele>292.0</ele><time>2026-04-18T07:11:01.999Z</time></trkpt><trkpt lat="43.08027457888097" lon="12.27578349376767"><ele>292.0</ele><time>2026-04-18T07:11:02.999Z</time></trkpt><trkpt lat="43.0803612294071" lon="12.275724716872691"><ele>292.0</ele><time>2026-04-18T07:11:03.999Z</time></trkpt><trkpt lat="43.080451876063925" lon="12.275682188719315"><ele>292.0</ele><time>2026-04-18T07:11:04.999Z</time></trkpt><trkpt lat="43.08054454161085" lon="12.275677713702018"><ele>292.0</ele><time>2026-04-18T07:11:05.999Z</time></trkpt><trkpt lat="43.0806424725032" lon="12.275681774240184"><ele>292.0</ele><time>2026-04-18T07:11:06.999Z</time></trkpt><trkpt lat="43.08073443046156" lon="12.275664935451964"><ele>292.0</ele><time>2026-04-18T07:11:07.999Z</time></trkpt><trkpt lat="43.08083015350591" lon="12.27567207895165"><ele>292.0</ele><time>2026-04-18T07:11:08.999Z</time></trkpt><trkpt lat="43.08093123142615" lon="12.275683008828064"><ele>292.0</ele><time>2026-04-18T07:11:09.999Z</time></trkpt><trkpt lat="43.08103521784093" lon="12.275695373941854"><ele>290.8</ele><time>2026-04-18T07:11:10.999Z</time></trkpt><trkpt lat="43.0811369397204" lon="12.275698984696215"><ele>289.6</ele><time>2026-04-18T07:11:11.999Z</time></trkpt><trkpt lat="43.081232285126895" lon="12.275706862762577"><ele>288.40000000000003</ele><time>2026-04-18T07:11:12.999Z</time></trkpt><trkpt lat="43.08132512053958" lon="12.275718634780686"><ele>287.2</ele><time>2026-04-18T07:11:13.999Z</time></trkpt><trkpt lat="43.08142504327152" lon="12.275733649861747"><ele>286.0</ele><time>2026-04-18T07:11:14.999Z</time></trkpt><trkpt lat="43.08152976413007" lon="12.2757637942827"><ele>286.2</ele><time>2026-04-18T07:11:15.999Z</time></trkpt><trkpt lat="43.08163241064214" lon="12.275832731269137"><ele>286.40000000000003</ele><time>2026-04-18T07:11:16.999Z</time></trkpt><trkpt lat="43.08172931600076" lon="12.275892072412631"><ele>286.6</ele><time>2026-04-18T07:11:17.999Z</time></trkpt><trkpt lat="43.08182231838548" lon="12.275954756428312"><ele>286.8</ele><time>2026-04-18T07:11:18.999Z</time></trkpt><trkpt lat="43.08190703961467" lon="12.276005847945584"><ele>287.0</ele><time>2026-04-18T07:11:19.999Z</time></trkpt><trkpt lat="43.0819628866607" lon="12.276121311820278"><ele>287.0</ele><time>2026-04-18T07:11:20.999Z</time></trkpt><trkpt lat="43.082030390169734" lon="12.276220897495225"><ele>287.0</ele><time>2026-04-18T07:11:21.999Z</time></trkpt><trkpt lat="43.08210128882573" lon="12.276307499101714"><ele>287.0</ele><time>2026-04-18T07:11:22.999Z</time></trkpt><trkpt lat="43.08215787153811" lon="12.276393972092134"><ele>287.0</ele><time>2026-04-18T07:11:23.999Z</time></trkpt><trkpt lat="43.08220983798591" lon="12.27647371553327"><ele>287.0</ele><time>2026-04-18T07:11:24.999Z</time></trkpt><trkpt lat="43.08225755837332" lon="12.276541861778684"><ele>287.0</ele><time>2026-04-18T07:11:25.999Z</time></trkpt><trkpt lat="43.08231133238995" lon="12.276606081165347"><ele>285.8</ele><time>2026-04-18T07:11:26.999Z</time></trkpt><trkpt lat="43.082397663192154" lon="12.276721466285393"><ele>284.6</ele><time>2026-04-18T07:11:28.999Z</time></trkpt><trkpt lat="43.08247893180061" lon="12.27681171394573"><ele>283.40000000000003</ele><time>2026-04-18T07:11:30.999Z</time></trkpt><trkpt lat="43.08256714388054" lon="12.27684258964431"><ele>282.2</ele><time>2026-04-18T07:11:32.999Z</time></trkpt><trkpt lat="43.08267064356558" lon="12.276791089228254"><ele>281.0</ele><time>2026-04-18T07:11:34.999Z</time></trkpt><trkpt lat="43.08275767338174" lon="12.276809246388959"><ele>281.0</ele><time>2026-04-18T07:11:36.999Z</time></trkpt><trkpt lat="43.08282723000041" lon="12.276729496792225"><ele>281.0</ele><time>2026-04-18T07:11:39.999Z</time></trkpt><trkpt lat="43.082765218079196" lon="12.276653199657677"><ele>281.0</ele><time>2026-04-18T07:11:40.999Z</time></trkpt><trkpt lat="43.0827051659796" lon="12.276597581719864"><ele>281.0</ele><time>2026-04-18T07:11:41.999Z</time></trkpt><trkpt lat="43.082677263573935" lon="12.27649791350029"><ele>281.0</ele><time>2026-04-18T07:11:42.999Z</time></trkpt><trkpt lat="43.08262910941214" lon="12.276407348941092"><ele>281.0</ele><time>2026-04-18T07:11:43.999Z</time></trkpt><trkpt lat="43.08259777301009" lon="12.27630108463788"><ele>279.83333333333337</ele><time>2026-04-18T07:11:44.999Z</time></trkpt><trkpt lat="43.08254825798852" lon="12.276205401004626"><ele>278.6666666666667</ele><time>2026-04-18T07:11:45.999Z</time></trkpt><trkpt lat="43.082514851112556" lon="12.276105689139506"><ele>277.5</ele><time>2026-04-18T07:11:46.999Z</time></trkpt><trkpt lat="43.08248112939786" lon="12.275991368000417"><ele>276.3333333333333</ele><time>2026-04-18T07:11:47.999Z</time></trkpt><trkpt lat="43.08245301872341" lon="12.275869533648027"><ele>275.16666666666663</ele><time>2026-04-18T07:11:48.999Z</time></trkpt><trkpt lat="43.082434620314714" lon="12.275740056882409"><ele>274.0</ele><time>2026-04-18T07:11:49.999Z</time></trkpt><trkpt lat="43.082435246763495" lon="12.275610631137493"><ele>274.0</ele><time>2026-04-18T07:11:50.999Z</time></trkpt><trkpt lat="43.08244507610441" lon="12.275480642304249"><ele>274.0</ele><time>2026-04-18T07:11:51.999Z</time></trkpt><trkpt lat="43.08245227342192" lon="12.275349905111163"><ele>274.0</ele><time>2026-04-18T07:11:52.999Z</time></trkpt><trkpt lat="43.082467175091054" lon="12.275224112007505"><ele>274.0</ele><time>2026-04-18T07:11:53.999Z</time></trkpt><trkpt lat="43.0824935840385" lon="12.27509686102705"><ele>274.0</ele><time>2026-04-18T07:11:54.999Z</time></trkpt><trkpt lat="43.082518885180605" lon="12.274960182879285"><ele>274.0</ele><time>2026-04-18T07:11:55.999Z</time></trkpt><trkpt lat="43.08253500008155" lon="12.274812929581707"><ele>274.0</ele><time>2026-04-18T07:11:56.999Z</time></trkpt><trkpt lat="43.08255333449256" lon="12.274685801171422"><ele>274.0</ele><time>2026-04-18T07:11:57.999Z</time></trkpt><trkpt lat="43.08255074608649" lon="12.274566732198371"><ele>274.0</ele><time>2026-04-18T07:11:58.999Z</time></trkpt><trkpt lat="43.08252725342529" lon="12.27444467981821"><ele>274.0</ele><time>2026-04-18T07:11:59.999Z</time></trkpt><trkpt lat="43.08249826407243" lon="12.274336592736615"><ele>273.8</ele><time>2026-04-18T07:12:00.999Z</time></trkpt><trkpt lat="43.082481744216494" lon="12.274219809710633"><ele>273.59999999999997</ele><time>2026-04-18T07:12:01.999Z</time></trkpt><trkpt lat="43.08249347169774" lon="12.27408255222913"><ele>273.4</ele><time>2026-04-18T07:12:02.999Z</time></trkpt><trkpt lat="43.082544619504375" lon="12.273934037794815"><ele>273.2</ele><time>2026-04-18T07:12:03.999Z</time></trkpt><trkpt lat="43.082586939511955" lon="12.273769797395987"><ele>273.0</ele><time>2026-04-18T07:12:04.999Z</time></trkpt><trkpt lat="43.082647423581605" lon="12.27360681906435"><ele>272.6</ele><time>2026-04-18T07:12:05.999Z</time></trkpt><trkpt lat="43.08268974320762" lon="12.273467443654553"><ele>272.20000000000005</ele><time>2026-04-18T07:12:06.999Z</time></trkpt><trkpt lat="43.08273136783449" lon="12.273338483531957"><ele>271.8</ele><time>2026-04-18T07:12:07.999Z</time></trkpt><trkpt lat="43.08277737021205" lon="12.273218673883516"><ele>271.40000000000003</ele><time>2026-04-18T07:12:08.999Z</time></trkpt><trkpt lat="43.08279890441648" lon="12.27308930510963"><ele>271.0</ele><time>2026-04-18T07:12:09.999Z</time></trkpt><trkpt lat="43.082822120417546" lon="12.27297950660005"><ele>270.0</ele><time>2026-04-18T07:12:10.999Z</time></trkpt><trkpt lat="43.08283968550737" lon="12.272888288627628"><ele>269.0</ele><time>2026-04-18T07:12:11.999Z</time></trkpt><trkpt lat="43.08284294839606" lon="12.27279214901872"><ele>268.0</ele><time>2026-04-18T07:12:12.999Z</time></trkpt><trkpt lat="43.082814465434915" lon="12.272685019767454"><ele>267.0</ele><time>2026-04-18T07:12:13.999Z</time></trkpt><trkpt lat="43.08277313604951" lon="12.27256945038538"><ele>266.0</ele><time>2026-04-18T07:12:14.999Z</time></trkpt><trkpt lat="43.08272026267835" lon="12.272458236246933"><ele>265.0</ele><time>2026-04-18T07:12:15.999Z</time></trkpt><trkpt lat="43.08267756692574" lon="12.272350669770693"><ele>263.2</ele><time>2026-04-18T07:12:16.999Z</time></trkpt><trkpt lat="43.08263585290982" lon="12.272251411848648"><ele>261.4</ele><time>2026-04-18T07:12:17.999Z</time></trkpt><trkpt lat="43.08260467636644" lon="12.272165984947605"><ele>259.6</ele><time>2026-04-18T07:12:18.999Z</time></trkpt><trkpt lat="43.08257599599569" lon="12.27201415877794"><ele>257.8</ele><time>2026-04-18T07:12:20.999Z</time></trkpt><trkpt lat="43.082618888388986" lon="12.271878158676262"><ele>256.0</ele><time>2026-04-18T07:12:22.999Z</time></trkpt><trkpt lat="43.082673250607556" lon="12.27179230036364"><ele>256.0</ele><time>2026-04-18T07:12:24.999Z</time></trkpt><trkpt lat="43.082640347273426" lon="12.271672457037551"><ele>256.0</ele><time>2026-04-18T07:12:26.999Z</time></trkpt><trkpt lat="43.08255112037086" lon="12.271566221417846"><ele>256.0</ele><time>2026-04-18T07:12:28.999Z</time></trkpt><trkpt lat="43.082533478454025" lon="12.271475848793012"><ele>256.0</ele><time>2026-04-18T07:12:29.999Z</time></trkpt><trkpt lat="43.08254173082583" lon="12.271254771429245"><ele>256.0</ele><time>2026-04-18T07:12:31.999Z</time></trkpt><trkpt lat="43.082550508152316" lon="12.271106644470212"><ele>254.5</ele><time>2026-04-18T07:12:32.999Z</time></trkpt><trkpt lat="43.08257815740551" lon="12.270954134773968"><ele>253.0</ele><time>2026-04-18T07:12:33.999Z</time></trkpt><trkpt lat="43.08261184702094" lon="12.27079350716034"><ele>251.5</ele><time>2026-04-18T07:12:34.999Z</time></trkpt><trkpt lat="43.08265407829449" lon="12.270632363609456"><ele>250.0</ele><time>2026-04-18T07:12:35.999Z</time></trkpt><trkpt lat="43.082698054212145" lon="12.270495345866607"><ele>249.4</ele><time>2026-04-18T07:12:36.999Z</time></trkpt><trkpt lat="43.08274197132874" lon="12.270367320379105"><ele>248.8</ele><time>2026-04-18T07:12:37.999Z</time></trkpt><trkpt lat="43.082774384419764" lon="12.270249589124692"><ele>248.2</ele><time>2026-04-18T07:12:38.999Z</time></trkpt><trkpt lat="43.08280764943963" lon="12.270148331791386"><ele>247.6</ele><time>2026-04-18T07:12:39.999Z</time></trkpt><trkpt lat="43.08289221053905" lon="12.269976857664442"><ele>247.0</ele><time>2026-04-18T07:12:40.999Z</time></trkpt><trkpt lat="43.08294096724507" lon="12.269854386813751"><ele>246.16666666666666</ele><time>2026-04-18T07:12:41.999Z</time></trkpt><trkpt lat="43.08299630643932" lon="12.269730200856198"><ele>245.33333333333331</ele><time>2026-04-18T07:12:42.999Z</time></trkpt><trkpt lat="43.083035913832994" lon="12.26961555461383"><ele>244.5</ele><time>2026-04-18T07:12:43.999Z</time></trkpt><trkpt lat="43.08305633539501" lon="12.269525979457248"><ele>243.66666666666669</ele><time>2026-04-18T07:12:44.999Z</time></trkpt><trkpt lat="43.08307774476384" lon="12.269442277052233"><ele>242.83333333333334</ele><time>2026-04-18T07:12:45.999Z</time></trkpt><trkpt lat="43.08310166263634" lon="12.26935376338106"><ele>242.0</ele><time>2026-04-18T07:12:46.999Z</time></trkpt><trkpt lat="43.08316950579102" lon="12.269279853964605"><ele>242.0</ele><time>2026-04-18T07:12:47.999Z</time></trkpt><trkpt lat="43.08325043585107" lon="12.269191815073393"><ele>242.0</ele><time>2026-04-18T07:12:48.999Z</time></trkpt><trkpt lat="43.083341289065146" lon="12.269082039347092"><ele>242.0</ele><time>2026-04-18T07:12:49.999Z</time></trkpt><trkpt lat="43.08343994893095" lon="12.268994316189362"><ele>242.0</ele><time>2026-04-18T07:12:50.999Z</time></trkpt><trkpt lat="43.08353057488641" lon="12.26891212405761"><ele>239.2</ele><time>2026-04-18T07:12:51.999Z</time></trkpt><trkpt lat="43.08361400737394" lon="12.268832707383282"><ele>236.39999999999998</ele><time>2026-04-18T07:12:52.999Z</time></trkpt><trkpt lat="43.08369327523447" lon="12.268750933963585"><ele>233.60000000000002</ele><time>2026-04-18T07:12:53.999Z</time></trkpt><trkpt lat="43.08375839083831" lon="12.268682721920408"><ele>230.8</ele><time>2026-04-18T07:12:54.999Z</time></trkpt><trkpt lat="43.083819163855175" lon="12.268617891759206"><ele>228.0</ele><time>2026-04-18T07:12:55.999Z</time></trkpt><trkpt lat="43.08389652487534" lon="12.268538863305022"><ele>228.0</ele><time>2026-04-18T07:12:57.999Z</time></trkpt><trkpt lat="43.083989010016275" lon="12.268454138441935"><ele>228.0</ele><time>2026-04-18T07:12:59.999Z</time></trkpt><trkpt lat="43.084052004505196" lon="12.268375956610647"><ele>228.0</ele><time>2026-04-18T07:13:00.999Z</time></trkpt><trkpt lat="43.08412307791112" lon="12.268289156478"><ele>228.0</ele><time>2026-04-18T07:13:01.999Z</time></trkpt><trkpt lat="43.0842289430574" lon="12.268170407542152"><ele>228.0</ele><time>2026-04-18T07:13:02.999Z</time></trkpt><trkpt lat="43.084337747637505" lon="12.268052131647448"><ele>226.25</ele><time>2026-04-18T07:13:03.999Z</time></trkpt><trkpt lat="43.08444274892097" lon="12.267938359987514"><ele>224.5</ele><time>2026-04-18T07:13:04.999Z</time></trkpt><trkpt lat="43.084534212674114" lon="12.267840108521753"><ele>222.75</ele><time>2026-04-18T07:13:05.999Z</time></trkpt><trkpt lat="43.08461443157248" lon="12.267750107724934"><ele>221.0</ele><time>2026-04-18T07:13:06.999Z</time></trkpt><trkpt lat="43.084685683910955" lon="12.26765505132236"><ele>221.0</ele><time>2026-04-18T07:13:07.999Z</time></trkpt><trkpt lat="43.084752566055116" lon="12.26754328308102"><ele>221.00000000000003</ele><time>2026-04-18T07:13:08.999Z</time></trkpt><trkpt lat="43.084816006241" lon="12.267401803576607"><ele>221.00000000000003</ele><time>2026-04-18T07:13:09.999Z</time></trkpt><trkpt lat="43.084857803279384" lon="12.267254753710446"><ele>221.0</ele><time>2026-04-18T07:13:10.999Z</time></trkpt><trkpt lat="43.08488231452952" lon="12.26711938781942"><ele>221.0</ele><time>2026-04-18T07:13:11.999Z</time></trkpt><trkpt lat="43.08489871193326" lon="12.266995720063951"><ele>221.0</ele><time>2026-04-18T07:13:12.999Z</time></trkpt><trkpt lat="43.084907578978175" lon="12.26686938796733"><ele>221.00000000000003</ele><time>2026-04-18T07:13:13.999Z</time></trkpt><trkpt lat="43.084899112018576" lon="12.266746023419527"><ele>221.00000000000003</ele><time>2026-04-18T07:13:14.999Z</time></trkpt><trkpt lat="43.08485610782504" lon="12.26662738513693"><ele>221.0</ele><time>2026-04-18T07:13:15.999Z</time></trkpt><trkpt lat="43.08481562402955" lon="12.266517456402704"><ele>221.0</ele><time>2026-04-18T07:13:16.999Z</time></trkpt><trkpt lat="43.084789995855445" lon="12.266392143437214"><ele>221.0</ele><time>2026-04-18T07:13:17.999Z</time></trkpt><trkpt lat="43.08477700202549" lon="12.266261980242495"><ele>221.00000000000003</ele><time>2026-04-18T07:13:18.999Z</time></trkpt><trkpt lat="43.08476876170709" lon="12.266102403395037"><ele>221.00000000000003</ele><time>2026-04-18T07:13:19.999Z</time></trkpt><trkpt lat="43.08477001866403" lon="12.26594411627511"><ele>221.0</ele><time>2026-04-18T07:13:20.999Z</time></trkpt><trkpt lat="43.084784760626846" lon="12.265810482725811"><ele>221.0</ele><time>2026-04-18T07:13:21.999Z</time></trkpt><trkpt lat="43.08481263482149" lon="12.265677070362237"><ele>221.0</ele><time>2026-04-18T07:13:22.999Z</time></trkpt><trkpt lat="43.08485279497856" lon="12.265540073960317"><ele>221.00000000000003</ele><time>2026-04-18T07:13:23.999Z</time></trkpt><trkpt lat="43.08490383862517" lon="12.265410224783064"><ele>221.00000000000003</ele><time>2026-04-18T07:13:24.999Z</time></trkpt><trkpt lat="43.08496047960041" lon="12.265292798482282"><ele>221.0</ele><time>2026-04-18T07:13:25.999Z</time></trkpt><trkpt lat="43.085014626955925" lon="12.265181699964623"><ele>221.0</ele><time>2026-04-18T07:13:26.999Z</time></trkpt><trkpt lat="43.08505859869986" lon="12.265079526803735"><ele>221.00000000000003</ele><time>2026-04-18T07:13:27.999Z</time></trkpt><trkpt lat="43.0850956431937" lon="12.264989917307101"><ele>221.0</ele><time>2026-04-18T07:13:28.999Z</time></trkpt><trkpt lat="43.08512999956803" lon="12.264899422822893"><ele>221.0</ele><time>2026-04-18T07:13:29.999Z</time></trkpt><trkpt lat="43.08514441749837" lon="12.264805150358018"><ele>221.0</ele><time>2026-04-18T07:13:30.999Z</time></trkpt><trkpt lat="43.085185079256256" lon="12.264682232668294"><ele>221.00000000000003</ele><time>2026-04-18T07:13:32.999Z</time></trkpt><trkpt lat="43.085224097068235" lon="12.264602026978736"><ele>221.0</ele><time>2026-04-18T07:13:43.999Z</time></trkpt><trkpt lat="43.08511494994695" lon="12.264500875918216"><ele>221.0</ele><time>2026-04-18T07:14:16.999Z</time></trkpt><trkpt lat="43.08505661811523" lon="12.264448587724974"><ele>221.00000000000003</ele><time>2026-04-18T07:14:17.999Z</time></trkpt><trkpt lat="43.08497400471331" lon="12.264383370390147"><ele>221.00000000000003</ele><time>2026-04-18T07:14:18.999Z</time></trkpt><trkpt lat="43.08486902927637" lon="12.264288338125818"><ele>221.0</ele><time>2026-04-18T07:14:19.999Z</time></trkpt><trkpt lat="43.08475922458586" lon="12.264201547146378"><ele>221.0</ele><time>2026-04-18T07:14:20.999Z</time></trkpt><trkpt lat="43.08462198508892" lon="12.264083864904594"><ele>221.0</ele><time>2026-04-18T07:14:21.999Z</time></trkpt><trkpt lat="43.084457372268574" lon="12.263949781565875"><ele>221.0</ele><time>2026-04-18T07:14:22.999Z</time></trkpt><trkpt lat="43.0842989522347" lon="12.263805571191353"><ele>221.0</ele><time>2026-04-18T07:14:23.999Z</time></trkpt><trkpt lat="43.08416531088674" lon="12.263686953843054"><ele>221.75</ele><time>2026-04-18T07:14:24.999Z</time></trkpt><trkpt lat="43.08405887989283" lon="12.263565581044874"><ele>222.5</ele><time>2026-04-18T07:14:25.999Z</time></trkpt><trkpt lat="43.08395348517336" lon="12.263474035993658"><ele>223.25</ele><time>2026-04-18T07:14:26.999Z</time></trkpt><trkpt lat="43.08384827743039" lon="12.263411022219307"><ele>224.0</ele><time>2026-04-18T07:14:27.999Z</time></trkpt><trkpt lat="43.08376078717642" lon="12.263400329629023"><ele>224.00000000000003</ele><time>2026-04-18T07:14:28.999Z</time></trkpt><trkpt lat="43.08368295195455" lon="12.26337943488486"><ele>224.0</ele><time>2026-04-18T07:14:29.999Z</time></trkpt><trkpt lat="43.0836179771096" lon="12.263327311453164"><ele>224.0</ele><time>2026-04-18T07:14:30.999Z</time></trkpt><trkpt lat="43.08355241471654" lon="12.263291085058226"><ele>224.0</ele><time>2026-04-18T07:14:31.999Z</time></trkpt><trkpt lat="43.08348807906868" lon="12.26320513240284"><ele>224.00000000000003</ele><time>2026-04-18T07:14:32.999Z</time></trkpt><trkpt lat="43.083393549651525" lon="12.263096663134545"><ele>224.0</ele><time>2026-04-18T07:14:33.999Z</time></trkpt><trkpt lat="43.083284046408444" lon="12.262949088791572"><ele>223.66666666666669</ele><time>2026-04-18T07:14:34.999Z</time></trkpt><trkpt lat="43.083153460546605" lon="12.262793509290223"><ele>223.33333333333331</ele><time>2026-04-18T07:14:35.999Z</time></trkpt><trkpt lat="43.083009279057684" lon="12.262628811390986"><ele>223.0</ele><time>2026-04-18T07:14:37Z</time></trkpt><trkpt lat="43.08285396946473" lon="12.262465547771502"><ele>223.0</ele><time>2026-04-18T07:14:38Z</time></trkpt><trkpt lat="43.082707731812576" lon="12.262335819792103"><ele>223.0</ele><time>2026-04-18T07:14:39Z</time></trkpt><trkpt lat="43.082589163293854" lon="12.262202647707012"><ele>223.0</ele><time>2026-04-18T07:14:40Z</time></trkpt><trkpt lat="43.08247716033358" lon="12.26209240162231"><ele>224.25</ele><time>2026-04-18T07:14:41Z</time></trkpt><trkpt lat="43.08237503984752" lon="12.261990780878405"><ele>225.5</ele><time>2026-04-18T07:14:42Z</time></trkpt><trkpt lat="43.082277115613294" lon="12.26191738501355"><ele>226.75</ele><time>2026-04-18T07:14:43Z</time></trkpt><trkpt lat="43.08220825818567" lon="12.261846526192576"><ele>228.0</ele><time>2026-04-18T07:14:44Z</time></trkpt><trkpt lat="43.082102444849355" lon="12.26175019185232"><ele>228.0</ele><time>2026-04-18T07:14:46Z</time></trkpt><trkpt lat="43.08204865158435" lon="12.261686870468035"><ele>228.0</ele><time>2026-04-18T07:14:47Z</time></trkpt><trkpt lat="43.08196656216987" lon="12.26165119909935"><ele>228.0</ele><time>2026-04-18T07:14:49Z</time></trkpt><trkpt lat="43.081894993445914" lon="12.261642548591102"><ele>228.0</ele><time>2026-04-18T07:15:17Z</time></trkpt><trkpt lat="43.081928337199486" lon="12.261464577366777"><ele>228.0</ele><time>2026-04-18T07:15:19Z</time></trkpt><trkpt lat="43.081950530386514" lon="12.261299917202678"><ele>228.5</ele><time>2026-04-18T07:15:20Z</time></trkpt><trkpt lat="43.081996853747775" lon="12.261122605279157"><ele>229.0</ele><time>2026-04-18T07:15:21Z</time></trkpt><trkpt lat="43.08204425010866" lon="12.26091785878328"><ele>229.5</ele><time>2026-04-18T07:15:22Z</time></trkpt><trkpt lat="43.08208153343407" lon="12.260737311732237"><ele>230.0</ele><time>2026-04-18T07:15:23Z</time></trkpt><trkpt lat="43.08211432171681" lon="12.2605936691268"><ele>230.8</ele><time>2026-04-18T07:15:24Z</time></trkpt><trkpt lat="43.08214218905263" lon="12.260465601325896"><ele>231.6</ele><time>2026-04-18T07:15:25Z</time></trkpt><trkpt lat="43.08218354478851" lon="12.260364395330052"><ele>232.39999999999998</ele><time>2026-04-18T07:15:26Z</time></trkpt><trkpt lat="43.08220478806551" lon="12.26027807236113"><ele>233.2</ele><time>2026-04-18T07:15:27Z</time></trkpt><trkpt lat="43.08233167300938" lon="12.260248615403826"><ele>234.0</ele><time>2026-04-18T07:15:29Z</time></trkpt><trkpt lat="43.082427195085145" lon="12.260147123132374"><ele>234.25</ele><time>2026-04-18T07:15:31Z</time></trkpt><trkpt lat="43.08247937158534" lon="12.259973012444458"><ele>234.5</ele><time>2026-04-18T07:15:33Z</time></trkpt><trkpt lat="43.082509921131795" lon="12.259842303926169"><ele>234.75</ele><time>2026-04-18T07:15:34Z</time></trkpt><trkpt lat="43.082537665055966" lon="12.259711090731242"><ele>235.0</ele><time>2026-04-18T07:15:35Z</time></trkpt><trkpt lat="43.082572513165154" lon="12.25953932766101"><ele>235.4</ele><time>2026-04-18T07:15:36Z</time></trkpt><trkpt lat="43.08260835431531" lon="12.259363881110744"><ele>235.8</ele><time>2026-04-18T07:15:37Z</time></trkpt><trkpt lat="43.08264188180065" lon="12.259194060156702"><ele>236.2</ele><time>2026-04-18T07:15:38Z</time></trkpt><trkpt lat="43.08265167724388" lon="12.259061926226762"><ele>236.6</ele><time>2026-04-18T07:15:39Z</time></trkpt><trkpt lat="43.08267584393798" lon="12.258959161116245"><ele>237.0</ele><time>2026-04-18T07:15:40Z</time></trkpt><trkpt lat="43.08269167571561" lon="12.258871051069764"><ele>238.5</ele><time>2026-04-18T07:15:41Z</time></trkpt><trkpt lat="43.08272419977741" lon="12.258744037111981"><ele>240.0</ele><time>2026-04-18T07:15:43Z</time></trkpt><trkpt lat="43.08279752268436" lon="12.258629726108301"><ele>241.5</ele><time>2026-04-18T07:15:45Z</time></trkpt><trkpt lat="43.08286296530813" lon="12.258612339914416"><ele>243.0</ele><time>2026-04-18T07:15:46Z</time></trkpt><trkpt lat="43.082932716054806" lon="12.258620157600953"><ele>244.5</ele><time>2026-04-18T07:15:47Z</time></trkpt><trkpt lat="43.08301317189332" lon="12.258643940539196"><ele>246.0</ele><time>2026-04-18T07:15:48Z</time></trkpt><trkpt lat="43.08310143976434" lon="12.258654216574897"><ele>246.0</ele><time>2026-04-18T07:15:49Z</time></trkpt><trkpt lat="43.08320934775181" lon="12.258660189117897"><ele>246.00000000000003</ele><time>2026-04-18T07:15:50Z</time></trkpt><trkpt lat="43.083332472973545" lon="12.258670360765807"><ele>246.00000000000003</ele><time>2026-04-18T07:15:51Z</time></trkpt><trkpt lat="43.08343413227417" lon="12.258711198769426"><ele>246.0</ele><time>2026-04-18T07:15:52Z</time></trkpt><trkpt lat="43.08351763096007" lon="12.25870944898004"><ele>246.0</ele><time>2026-04-18T07:15:53Z</time></trkpt><trkpt lat="43.08360019710761" lon="12.258733928221552"><ele>246.33333333333334</ele><time>2026-04-18T07:15:54Z</time></trkpt><trkpt lat="43.083672418978495" lon="12.258701990537805"><ele>246.66666666666669</ele><time>2026-04-18T07:15:55Z</time></trkpt><trkpt lat="43.08373737162372" lon="12.258673642034994"><ele>247.0</ele><time>2026-04-18T07:15:56Z</time></trkpt><trkpt lat="43.083797853814566" lon="12.258620672455605"><ele>247.33333333333334</ele><time>2026-04-18T07:15:57Z</time></trkpt><trkpt lat="43.083858943087506" lon="12.258553076379465"><ele>247.66666666666669</ele><time>2026-04-18T07:15:58Z</time></trkpt><trkpt lat="43.0839391871111" lon="12.258498461923867"><ele>248.0</ele><time>2026-04-18T07:15:59Z</time></trkpt><trkpt lat="43.084014752003014" lon="12.258408330596975"><ele>250.4</ele><time>2026-04-18T07:16:00Z</time></trkpt><trkpt lat="43.084103367144195" lon="12.258348617162124"><ele>252.8</ele><time>2026-04-18T07:16:01Z</time></trkpt><trkpt lat="43.084201514462606" lon="12.258284509724664"><ele>255.2</ele><time>2026-04-18T07:16:02Z</time></trkpt><trkpt lat="43.08430523378206" lon="12.25822456978189"><ele>257.6</ele><time>2026-04-18T07:16:03Z</time></trkpt><trkpt lat="43.08440004553059" lon="12.258164047153736"><ele>260.0</ele><time>2026-04-18T07:16:04Z</time></trkpt><trkpt lat="43.08448809285092" lon="12.258111553451942"><ele>261.0</ele><time>2026-04-18T07:16:05Z</time></trkpt><trkpt lat="43.084565683489615" lon="12.258066390968375"><ele>262.0</ele><time>2026-04-18T07:16:06Z</time></trkpt><trkpt lat="43.0846357486331" lon="12.258023386105176"><ele>263.0</ele><time>2026-04-18T07:16:07Z</time></trkpt><trkpt lat="43.08470670456349" lon="12.257984858806266"><ele>264.0</ele><time>2026-04-18T07:16:08.999Z</time></trkpt><trkpt lat="43.08477601968797" lon="12.257975090038281"><ele>265.0</ele><time>2026-04-18T07:16:12.999Z</time></trkpt><trkpt lat="43.08476954257554" lon="12.25778870489092"><ele>266.0</ele><time>2026-04-18T07:16:13.999Z</time></trkpt><trkpt lat="43.084776843997716" lon="12.25765342321832"><ele>266.0</ele><time>2026-04-18T07:16:15.999Z</time></trkpt><trkpt lat="43.08478728287211" lon="12.257517079469434"><ele>266.0</ele><time>2026-04-18T07:16:17.999Z</time></trkpt><trkpt lat="43.084716891433935" lon="12.257422947739009"><ele>266.0</ele><time>2026-04-18T07:16:18.999Z</time></trkpt><trkpt lat="43.08465705280305" lon="12.257299022813791"><ele>266.0</ele><time>2026-04-18T07:16:20.999Z</time></trkpt><trkpt lat="43.084635155945406" lon="12.25720364475977"><ele>266.0</ele><time>2026-04-18T07:16:25Z</time></trkpt><trkpt lat="43.084743749043334" lon="12.257164253631824"><ele>268.33333333333337</ele><time>2026-04-18T07:16:26Z</time></trkpt><trkpt lat="43.08480957216544" lon="12.25711014255027"><ele>270.6666666666667</ele><time>2026-04-18T07:16:27Z</time></trkpt><trkpt lat="43.084879429532656" lon="12.25705976257976"><ele>273.0</ele><time>2026-04-18T07:16:28Z</time></trkpt><trkpt lat="43.08494550337767" lon="12.257012426435823"><ele>275.3333333333333</ele><time>2026-04-18T07:16:29Z</time></trkpt><trkpt lat="43.085021282974736" lon="12.25700386987385"><ele>277.66666666666663</ele><time>2026-04-18T07:16:31Z</time></trkpt><trkpt lat="43.08512734792248" lon="12.257105422163914"><ele>280.0</ele><time>2026-04-18T07:16:33Z</time></trkpt><trkpt lat="43.085182840418845" lon="12.257176276157605"><ele>280.3333333333333</ele><time>2026-04-18T07:16:34Z</time></trkpt><trkpt lat="43.08527435167826" lon="12.257257808754941"><ele>280.66666666666663</ele><time>2026-04-18T07:16:36Z</time></trkpt><trkpt lat="43.08534392587042" lon="12.25733683403043"><ele>281.0</ele><time>2026-04-18T07:16:38Z</time></trkpt><trkpt lat="43.085406600000844" lon="12.25737144387542"><ele>281.3333333333333</ele><time>2026-04-18T07:16:40Z</time></trkpt><trkpt lat="43.08547750021479" lon="12.257358530628888"><ele>281.6666666666667</ele><time>2026-04-18T07:16:42Z</time></trkpt><trkpt lat="43.085513445497426" lon="12.257281677898343"><ele>282.0</ele><time>2026-04-18T07:17:01Z</time></trkpt><trkpt lat="43.08557270490711" lon="12.257163488433077"><ele>282.3333333333333</ele><time>2026-04-18T07:17:07Z</time></trkpt><trkpt lat="43.08562412388517" lon="12.257041207143804"><ele>282.6666666666667</ele><time>2026-04-18T07:17:09Z</time></trkpt><trkpt lat="43.0856345660116" lon="12.25687870960817"><ele>283.0</ele><time>2026-04-18T07:17:11Z</time></trkpt><trkpt lat="43.085617120887115" lon="12.256781009167627"><ele>283.33333333333337</ele><time>2026-04-18T07:17:12Z</time></trkpt><trkpt lat="43.08557858330068" lon="12.25668985010099"><ele>283.6666666666667</ele><time>2026-04-18T07:17:13Z</time></trkpt><trkpt lat="43.085542233794136" lon="12.25661164613987"><ele>284.0</ele><time>2026-04-18T07:17:14Z</time></trkpt><trkpt lat="43.085484241861764" lon="12.256480416631984"><ele>283.5</ele><time>2026-04-18T07:17:16Z</time></trkpt><trkpt lat="43.08544230165769" lon="12.256384545634237"><ele>283.0</ele><time>2026-04-18T07:17:18Z</time></trkpt><trkpt lat="43.08550422080515" lon="12.256356576821313"><ele>282.5</ele><time>2026-04-18T07:17:25Z</time></trkpt><trkpt lat="43.085586122610266" lon="12.256366652528945"><ele>282.0</ele><time>2026-04-18T07:17:26Z</time></trkpt><trkpt lat="43.085681544527645" lon="12.256400369580833"><ele>281.5</ele><time>2026-04-18T07:17:27Z</time></trkpt><trkpt lat="43.08579926561058" lon="12.256426513953492"><ele>281.0</ele><time>2026-04-18T07:17:28Z</time></trkpt><trkpt lat="43.08590432530406" lon="12.256456887806621"><ele>280.8</ele><time>2026-04-18T07:17:29Z</time></trkpt><trkpt lat="43.08600934054487" lon="12.256480043529393"><ele>280.6</ele><time>2026-04-18T07:17:30Z</time></trkpt><trkpt lat="43.086116930969304" lon="12.256486416230777"><ele>280.4</ele><time>2026-04-18T07:17:31Z</time></trkpt><trkpt lat="43.08622352054832" lon="12.2564740234917"><ele>280.2</ele><time>2026-04-18T07:17:32Z</time></trkpt><trkpt lat="43.08632686013605" lon="12.256444555603073"><ele>280.0</ele><time>2026-04-18T07:17:33Z</time></trkpt><trkpt lat="43.08642793903965" lon="12.256407870330962"><ele>277.25</ele><time>2026-04-18T07:17:34Z</time></trkpt><trkpt lat="43.0865446674224" lon="12.256366563295506"><ele>274.5</ele><time>2026-04-18T07:17:35Z</time></trkpt><trkpt lat="43.086673910597106" lon="12.25631743834405"><ele>271.75</ele><time>2026-04-18T07:17:36Z</time></trkpt><trkpt lat="43.086808566870786" lon="12.256253852697563"><ele>269.0</ele><time>2026-04-18T07:17:37Z</time></trkpt><trkpt lat="43.08694326032913" lon="12.256165231009062"><ele>266.5</ele><time>2026-04-18T07:17:38Z</time></trkpt><trkpt lat="43.08706955024567" lon="12.25606872499629"><ele>264.0</ele><time>2026-04-18T07:17:39Z</time></trkpt><trkpt lat="43.08718678899298" lon="12.255969548638575"><ele>261.5</ele><time>2026-04-18T07:17:40Z</time></trkpt><trkpt lat="43.087309617903294" lon="12.255892983224467"><ele>259.0</ele><time>2026-04-18T07:17:41Z</time></trkpt><trkpt lat="43.087430356620416" lon="12.255845570670928"><ele>258.5</ele><time>2026-04-18T07:17:42Z</time></trkpt><trkpt lat="43.087550742794754" lon="12.25584429998322"><ele>258.0</ele><time>2026-04-18T07:17:43Z</time></trkpt><trkpt lat="43.08766433402601" lon="12.255875821798965"><ele>257.5</ele><time>2026-04-18T07:17:44Z</time></trkpt><trkpt lat="43.087756739839726" lon="12.255953397234613"><ele>257.0</ele><time>2026-04-18T07:17:45Z</time></trkpt><trkpt lat="43.087850236223865" lon="12.256061666952265"><ele>257.0</ele><time>2026-04-18T07:17:46Z</time></trkpt><trkpt lat="43.08795790785599" lon="12.256187414261072"><ele>257.0</ele><time>2026-04-18T07:17:47Z</time></trkpt><trkpt lat="43.08806380279487" lon="12.256307140754723"><ele>257.0</ele><time>2026-04-18T07:17:48Z</time></trkpt><trkpt lat="43.08816116492651" lon="12.25642040949442"><ele>257.0</ele><time>2026-04-18T07:17:49Z</time></trkpt><trkpt lat="43.08825040347156" lon="12.256535546307722"><ele>255.39999999999998</ele><time>2026-04-18T07:17:50Z</time></trkpt><trkpt lat="43.08833004636401" lon="12.256639345020302"><ele>253.79999999999998</ele><time>2026-04-18T07:17:51Z</time></trkpt><trkpt lat="43.08840621177009" lon="12.25673769702072"><ele>252.2</ele><time>2026-04-18T07:17:52Z</time></trkpt><trkpt lat="43.088477221561824" lon="12.256830451513116"><ele>250.6</ele><time>2026-04-18T07:17:53Z</time></trkpt><trkpt lat="43.08854547476144" lon="12.256924770963632"><ele>249.0</ele><time>2026-04-18T07:17:54Z</time></trkpt><trkpt lat="43.08860751420743" lon="12.257017173495019"><ele>249.0</ele><time>2026-04-18T07:17:55Z</time></trkpt><trkpt lat="43.08866639843782" lon="12.257102597577571"><ele>249.0</ele><time>2026-04-18T07:17:56Z</time></trkpt><trkpt lat="43.088724019808744" lon="12.257175009088177"><ele>249.0</ele><time>2026-04-18T07:17:57Z</time></trkpt><trkpt lat="43.08878535370719" lon="12.257234824287439"><ele>249.0</ele><time>2026-04-18T07:17:58Z</time></trkpt><trkpt lat="43.08884981970733" lon="12.257300322643216"><ele>249.0</ele><time>2026-04-18T07:17:59Z</time></trkpt><trkpt lat="43.08892621012133" lon="12.257355008331375"><ele>249.0</ele><time>2026-04-18T07:18:00Z</time></trkpt><trkpt lat="43.08908238614483" lon="12.257444829837649"><ele>248.16666666666666</ele><time>2026-04-18T07:18:02Z</time></trkpt><trkpt lat="43.08915793141412" lon="12.257485793443266"><ele>247.33333333333331</ele><time>2026-04-18T07:18:03Z</time></trkpt><trkpt lat="43.089241360144236" lon="12.25751621055327"><ele>246.5</ele><time>2026-04-18T07:18:04Z</time></trkpt><trkpt lat="43.08932742605201" lon="12.257539705663538"><ele>245.66666666666666</ele><time>2026-04-18T07:18:05Z</time></trkpt><trkpt lat="43.089419902654846" lon="12.257560771799842"><ele>244.83333333333331</ele><time>2026-04-18T07:18:06Z</time></trkpt><trkpt lat="43.089492781554306" lon="12.257576106467907"><ele>244.0</ele><time>2026-04-18T07:18:07Z</time></trkpt><trkpt lat="43.08956549236394" lon="12.257590624516043"><ele>244.0</ele><time>2026-04-18T07:18:08Z</time></trkpt><trkpt lat="43.08965441826627" lon="12.257608679849042"><ele>243.99999999999997</ele><time>2026-04-18T07:18:09Z</time></trkpt><trkpt lat="43.08975016953119" lon="12.257630159337845"><ele>243.99999999999997</ele><time>2026-04-18T07:18:10Z</time></trkpt><trkpt lat="43.089845661695946" lon="12.25764475369985"><ele>244.0</ele><time>2026-04-18T07:18:11Z</time></trkpt><trkpt lat="43.08993832840269" lon="12.257658654658165"><ele>244.0</ele><time>2026-04-18T07:18:12Z</time></trkpt><trkpt lat="43.090035114955384" lon="12.25768019357598"><ele>242.39999999999998</ele><time>2026-04-18T07:18:13Z</time></trkpt><trkpt lat="43.09013475251669" lon="12.257703087247917"><ele>240.79999999999998</ele><time>2026-04-18T07:18:14Z</time></trkpt><trkpt lat="43.090237236735106" lon="12.257730345857567"><ele>239.20000000000002</ele><time>2026-04-18T07:18:15Z</time></trkpt><trkpt lat="43.090332957266575" lon="12.257757428874635"><ele>237.60000000000002</ele><time>2026-04-18T07:18:16Z</time></trkpt><trkpt lat="43.090437435142746" lon="12.2577960155136"><ele>236.0</ele><time>2026-04-18T07:18:17Z</time></trkpt><trkpt lat="43.090548447579394" lon="12.257839361412472"><ele>236.0</ele><time>2026-04-18T07:18:18Z</time></trkpt><trkpt lat="43.09065859216546" lon="12.257881822896339"><ele>236.0</ele><time>2026-04-18T07:18:19Z</time></trkpt><trkpt lat="43.09077048967008" lon="12.257927602398137"><ele>236.0</ele><time>2026-04-18T07:18:20Z</time></trkpt><trkpt lat="43.09087836620917" lon="12.257972738111791"><ele>236.0</ele><time>2026-04-18T07:18:21Z</time></trkpt><trkpt lat="43.09098241018134" lon="12.258014971304558"><ele>235.20000000000002</ele><time>2026-04-18T07:18:22Z</time></trkpt><trkpt lat="43.09107889006739" lon="12.258057822132647"><ele>234.40000000000003</ele><time>2026-04-18T07:18:23Z</time></trkpt><trkpt lat="43.091171900426716" lon="12.258093637082823"><ele>233.6</ele><time>2026-04-18T07:18:24Z</time></trkpt><trkpt lat="43.091261843226604" lon="12.25812657324163"><ele>232.8</ele><time>2026-04-18T07:18:25Z</time></trkpt><trkpt lat="43.09133407141696" lon="12.25816318950227"><ele>232.0</ele><time>2026-04-18T07:18:26Z</time></trkpt><trkpt lat="43.0914133035714" lon="12.25822034852858"><ele>231.0</ele><time>2026-04-18T07:18:28Z</time></trkpt><trkpt lat="43.09147387450158" lon="12.258027681627137"><ele>230.0</ele><time>2026-04-18T07:18:33Z</time></trkpt><trkpt lat="43.09146746261282" lon="12.257930796036066"><ele>229.0</ele><time>2026-04-18T07:18:34Z</time></trkpt><trkpt lat="43.09144584471886" lon="12.257825302262017"><ele>228.0</ele><time>2026-04-18T07:18:35Z</time></trkpt><trkpt lat="43.09142099217305" lon="12.257704023621422"><ele>227.0</ele><time>2026-04-18T07:18:36Z</time></trkpt><trkpt lat="43.091392622682235" lon="12.257562460379038"><ele>227.0</ele><time>2026-04-18T07:18:37Z</time></trkpt><trkpt lat="43.09136017341968" lon="12.257398759302024"><ele>227.0</ele><time>2026-04-18T07:18:38Z</time></trkpt><trkpt lat="43.09132568506467" lon="12.25722726080677"><ele>227.0</ele><time>2026-04-18T07:18:39Z</time></trkpt><trkpt lat="43.091285778274425" lon="12.257043882891512"><ele>227.0</ele><time>2026-04-18T07:18:40Z</time></trkpt><trkpt lat="43.09124396025925" lon="12.25685731800109"><ele>226.25</ele><time>2026-04-18T07:18:41Z</time></trkpt><trkpt lat="43.09120374790869" lon="12.256680195705382"><ele>225.5</ele><time>2026-04-18T07:18:42Z</time></trkpt><trkpt lat="43.091166797204686" lon="12.25651743989812"><ele>224.75</ele><time>2026-04-18T07:18:43Z</time></trkpt><trkpt lat="43.09112983180103" lon="12.256354619344336"><ele>224.0</ele><time>2026-04-18T07:18:44Z</time></trkpt><trkpt lat="43.0910904699837" lon="12.256180595433143"><ele>223.75</ele><time>2026-04-18T07:18:45Z</time></trkpt><trkpt lat="43.091049284451756" lon="12.255997868213367"><ele>223.5</ele><time>2026-04-18T07:18:46Z</time></trkpt><trkpt lat="43.09100870389491" lon="12.255817825087865"><ele>223.25</ele><time>2026-04-18T07:18:47Z</time></trkpt><trkpt lat="43.090968697492954" lon="12.25563505037941"><ele>223.0</ele><time>2026-04-18T07:18:48Z</time></trkpt><trkpt lat="43.090928885048285" lon="12.255440580383645"><ele>223.0</ele><time>2026-04-18T07:18:49Z</time></trkpt><trkpt lat="43.09088952059643" lon="12.255248298236493"><ele>223.0</ele><time>2026-04-18T07:18:50Z</time></trkpt><trkpt lat="43.090849005859795" lon="12.25505039735918"><ele>223.0</ele><time>2026-04-18T07:18:51Z</time></trkpt><trkpt lat="43.09081051802811" lon="12.254862397266132"><ele>223.0</ele><time>2026-04-18T07:18:52Z</time></trkpt><trkpt lat="43.09077801608533" lon="12.254703636254552"><ele>223.0</ele><time>2026-04-18T07:18:53Z</time></trkpt><trkpt lat="43.09074590423045" lon="12.254546780650935"><ele>223.0</ele><time>2026-04-18T07:18:54Z</time></trkpt><trkpt lat="43.0907168387932" lon="12.254405895239403"><ele>223.0</ele><time>2026-04-18T07:18:55Z</time></trkpt><trkpt lat="43.09068691066502" lon="12.254261202581754"><ele>223.0</ele><time>2026-04-18T07:18:56Z</time></trkpt><trkpt lat="43.090658237570146" lon="12.254122577563233"><ele>223.0</ele><time>2026-04-18T07:18:57Z</time></trkpt><trkpt lat="43.09063433375744" lon="12.254007010406713"><ele>223.25</ele><time>2026-04-18T07:18:58Z</time></trkpt><trkpt lat="43.0906157269715" lon="12.253917052722677"><ele>223.5</ele><time>2026-04-18T07:18:59Z</time></trkpt><trkpt lat="43.09056523800294" lon="12.253752699773349"><ele>223.75</ele><time>2026-04-18T07:19:02Z</time></trkpt><trkpt lat="43.09071984344219" lon="12.253659077275811"><ele>224.0</ele><time>2026-04-18T07:19:06Z</time></trkpt><trkpt lat="43.09082535291804" lon="12.253589447433402"><ele>224.2</ele><time>2026-04-18T07:19:08Z</time></trkpt><trkpt lat="43.09090557376957" lon="12.253511037595208"><ele>224.39999999999998</ele><time>2026-04-18T07:19:10Z</time></trkpt><trkpt lat="43.09095943193076" lon="12.253403465102277"><ele>224.6</ele><time>2026-04-18T07:19:12Z</time></trkpt><trkpt lat="43.09100738848646" lon="12.253276035062315"><ele>224.8</ele><time>2026-04-18T07:19:14Z</time></trkpt><trkpt lat="43.091053084804585" lon="12.253149054278792"><ele>225.0</ele><time>2026-04-18T07:19:16Z</time></trkpt><trkpt lat="43.091104871079146" lon="12.253023850975922"><ele>225.0</ele><time>2026-04-18T07:19:18Z</time></trkpt><trkpt lat="43.0911473380666" lon="12.252914364185369"><ele>225.0</ele><time>2026-04-18T07:19:20Z</time></trkpt><trkpt lat="43.0911974709145" lon="12.25281379825513"><ele>225.0</ele><time>2026-04-18T07:19:22Z</time></trkpt><trkpt lat="43.091230048803766" lon="12.252702280416985"><ele>225.0</ele><time>2026-04-18T07:19:24Z</time></trkpt><trkpt lat="43.09127338986101" lon="12.252588727187604"><ele>225.0</ele><time>2026-04-18T07:19:26Z</time></trkpt><trkpt lat="43.091332431769956" lon="12.25251213951549"><ele>225.0</ele><time>2026-04-18T07:19:28Z</time></trkpt><trkpt lat="43.091404781051565" lon="12.252442776004346"><ele>225.0</ele><time>2026-04-18T07:19:31Z</time></trkpt><trkpt lat="43.091463011880364" lon="12.252371653237692"><ele>225.0</ele><time>2026-04-18T07:19:33Z</time></trkpt><trkpt lat="43.09151768987829" lon="12.252278725540819"><ele>225.0</ele><time>2026-04-18T07:19:35Z</time></trkpt><trkpt lat="43.09155510589931" lon="12.252206787855178"><ele>225.0</ele><time>2026-04-18T07:19:36Z</time></trkpt><trkpt lat="43.09162906237601" lon="12.252089131572646"><ele>225.0</ele><time>2026-04-18T07:19:38Z</time></trkpt><trkpt lat="43.091690410796815" lon="12.251999914017002"><ele>225.0</ele><time>2026-04-18T07:19:40Z</time></trkpt><trkpt lat="43.09176120602522" lon="12.25188506227092"><ele>225.2</ele><time>2026-04-18T07:19:42Z</time></trkpt><trkpt lat="43.091821946575195" lon="12.25176585615501"><ele>225.4</ele><time>2026-04-18T07:19:44Z</time></trkpt><trkpt lat="43.09187317287246" lon="12.251663775269202"><ele>225.60000000000002</ele><time>2026-04-18T07:19:46Z</time></trkpt><trkpt lat="43.09192774447096" lon="12.251596247434918"><ele>225.8</ele><time>2026-04-18T07:19:48Z</time></trkpt><trkpt lat="43.09201361631722" lon="12.251570567626446"><ele>226.0</ele><time>2026-04-18T07:19:51Z</time></trkpt><trkpt lat="43.0921126307626" lon="12.251511875557602"><ele>225.8</ele><time>2026-04-18T07:19:54Z</time></trkpt><trkpt lat="43.09220890956544" lon="12.251456956116593"><ele>225.60000000000002</ele><time>2026-04-18T07:19:56Z</time></trkpt><trkpt lat="43.092309667398176" lon="12.251412766424732"><ele>225.4</ele><time>2026-04-18T07:19:58Z</time></trkpt><trkpt lat="43.09239327559672" lon="12.251422477166512"><ele>225.2</ele><time>2026-04-18T07:20:00Z</time></trkpt><trkpt lat="43.09247445598628" lon="12.251467575571551"><ele>225.0</ele><time>2026-04-18T07:20:02Z</time></trkpt><trkpt lat="43.09255391088149" lon="12.251556556264747"><ele>224.8</ele><time>2026-04-18T07:20:04Z</time></trkpt><trkpt lat="43.09264115364878" lon="12.25164777620251"><ele>224.6</ele><time>2026-04-18T07:20:06Z</time></trkpt><trkpt lat="43.09271318522368" lon="12.251701817573208"><ele>224.39999999999998</ele><time>2026-04-18T07:20:08Z</time></trkpt><trkpt lat="43.09280592409463" lon="12.251788161272888"><ele>224.2</ele><time>2026-04-18T07:20:10Z</time></trkpt><trkpt lat="43.09291495799407" lon="12.251883731294773"><ele>224.0</ele><time>2026-04-18T07:20:12Z</time></trkpt><trkpt lat="43.09297224373913" lon="12.2519393662287"><ele>224.0</ele><time>2026-04-18T07:20:13Z</time></trkpt><trkpt lat="43.09303091194869" lon="12.25199574158854"><ele>224.0</ele><time>2026-04-18T07:20:14Z</time></trkpt><trkpt lat="43.093087425713094" lon="12.25204627442987"><ele>224.0</ele><time>2026-04-18T07:20:15Z</time></trkpt><trkpt lat="43.09314107700097" lon="12.25210232222199"><ele>224.0</ele><time>2026-04-18T07:20:16Z</time></trkpt><trkpt lat="43.09320098419787" lon="12.252155519556842"><ele>224.0</ele><time>2026-04-18T07:20:17Z</time></trkpt><trkpt lat="43.09325981416074" lon="12.252213144109215"><ele>224.0</ele><time>2026-04-18T07:20:18Z</time></trkpt><trkpt lat="43.09331666361927" lon="12.252265394945344"><ele>224.0</ele><time>2026-04-18T07:20:19Z</time></trkpt><trkpt lat="43.09337595849553" lon="12.252318831526257"><ele>223.83333333333334</ele><time>2026-04-18T07:20:20Z</time></trkpt><trkpt lat="43.09343432707459" lon="12.252372990576225"><ele>223.66666666666669</ele><time>2026-04-18T07:20:21Z</time></trkpt><trkpt lat="43.09349199861635" lon="12.252424282342302"><ele>223.5</ele><time>2026-04-18T07:20:22Z</time></trkpt><trkpt lat="43.0935502329718" lon="12.252479798061437"><ele>223.33333333333331</ele><time>2026-04-18T07:20:23Z</time></trkpt><trkpt lat="43.093609879929936" lon="12.252531214578084"><ele>223.16666666666666</ele><time>2026-04-18T07:20:24Z</time></trkpt><trkpt lat="43.09366638034103" lon="12.252583464734148"><ele>223.0</ele><time>2026-04-18T07:20:25Z</time></trkpt><trkpt lat="43.09377900502415" lon="12.252685350335199"><ele>223.0</ele><time>2026-04-18T07:20:27Z</time></trkpt><trkpt lat="43.09383219417583" lon="12.25273271881887"><ele>223.0</ele><time>2026-04-18T07:20:28Z</time></trkpt><trkpt lat="43.09388880511934" lon="12.25278542275903"><ele>223.0</ele><time>2026-04-18T07:20:29Z</time></trkpt><trkpt lat="43.093946983758336" lon="12.252841745960383"><ele>223.0</ele><time>2026-04-18T07:20:30Z</time></trkpt><trkpt lat="43.09400334791292" lon="12.252893350141203"><ele>223.0</ele><time>2026-04-18T07:20:31Z</time></trkpt><trkpt lat="43.09405851625809" lon="12.252952448468816"><ele>223.0</ele><time>2026-04-18T07:20:32Z</time></trkpt><trkpt lat="43.09411584949108" lon="12.253000664705601"><ele>223.0</ele><time>2026-04-18T07:20:33Z</time></trkpt><trkpt lat="43.09421325508093" lon="12.253097537952835"><ele>222.71428571428572</ele><time>2026-04-18T07:20:35Z</time></trkpt><trkpt lat="43.09427222367866" lon="12.253155433386432"><ele>222.42857142857142</ele><time>2026-04-18T07:20:36Z</time></trkpt><trkpt lat="43.09432814965323" lon="12.253207340723085"><ele>222.14285714285717</ele><time>2026-04-18T07:20:37Z</time></trkpt><trkpt lat="43.09438638824711" lon="12.253259042114712"><ele>221.85714285714286</ele><time>2026-04-18T07:20:38Z</time></trkpt><trkpt lat="43.09444559180265" lon="12.253313532546045"><ele>221.57142857142858</ele><time>2026-04-18T07:20:39Z</time></trkpt><trkpt lat="43.09450117951818" lon="12.253358117763716"><ele>221.2857142857143</ele><time>2026-04-18T07:20:40Z</time></trkpt><trkpt lat="43.09455988064891" lon="12.253414871175753"><ele>221.0</ele><time>2026-04-18T07:20:41Z</time></trkpt><trkpt lat="43.09461842504616" lon="12.253477992334746"><ele>221.00000000000003</ele><time>2026-04-18T07:20:42Z</time></trkpt><trkpt lat="43.09467791030979" lon="12.253536910177225"><ele>221.0</ele><time>2026-04-18T07:20:43Z</time></trkpt><trkpt lat="43.094740476128585" lon="12.253595084998272"><ele>221.0</ele><time>2026-04-18T07:20:44Z</time></trkpt><trkpt lat="43.094797215108365" lon="12.253649785023379"><ele>221.0</ele><time>2026-04-18T07:20:45Z</time></trkpt><trkpt lat="43.09485944813923" lon="12.253709606271102"><ele>221.00000000000003</ele><time>2026-04-18T07:20:46Z</time></trkpt><trkpt lat="43.094927553632814" lon="12.25377156575302"><ele>221.0</ele><time>2026-04-18T07:20:47Z</time></trkpt><trkpt lat="43.09499816658178" lon="12.253831459665658"><ele>220.85714285714286</ele><time>2026-04-18T07:20:48Z</time></trkpt><trkpt lat="43.095060443597376" lon="12.253888989888619"><ele>220.71428571428572</ele><time>2026-04-18T07:20:49Z</time></trkpt><trkpt lat="43.095116468614414" lon="12.253940979412631"><ele>220.57142857142856</ele><time>2026-04-18T07:20:50Z</time></trkpt><trkpt lat="43.09518776212475" lon="12.254003047373931"><ele>220.42857142857144</ele><time>2026-04-18T07:20:51Z</time></trkpt><trkpt lat="43.0952415376327" lon="12.254059085799033"><ele>220.28571428571428</ele><time>2026-04-18T07:20:52Z</time></trkpt><trkpt lat="43.095302064045555" lon="12.254115121180398"><ele>220.14285714285714</ele><time>2026-04-18T07:20:53Z</time></trkpt><trkpt lat="43.095366767631305" lon="12.25417296265294"><ele>220.0</ele><time>2026-04-18T07:20:54Z</time></trkpt><trkpt lat="43.09543075828772" lon="12.254234657626245"><ele>219.99999999999997</ele><time>2026-04-18T07:20:55Z</time></trkpt><trkpt lat="43.09549182416645" lon="12.254283634702793"><ele>220.0</ele><time>2026-04-18T07:20:56Z</time></trkpt><trkpt lat="43.09555615076846" lon="12.25434355730262"><ele>220.0</ele><time>2026-04-18T07:20:57Z</time></trkpt><trkpt lat="43.09560661090208" lon="12.25440316338623"><ele>220.0</ele><time>2026-04-18T07:20:58Z</time></trkpt><trkpt lat="43.095660389662825" lon="12.25446403617565"><ele>219.99999999999997</ele><time>2026-04-18T07:20:59Z</time></trkpt><trkpt lat="43.095718749970096" lon="12.254524143653711"><ele>220.0</ele><time>2026-04-18T07:21:00Z</time></trkpt><trkpt lat="43.095812502351535" lon="12.254605109970498"><ele>220.0</ele><time>2026-04-18T07:21:02Z</time></trkpt><trkpt lat="43.09589061307112" lon="12.25463803186766"><ele>220.0</ele><time>2026-04-18T07:21:04Z</time></trkpt><trkpt lat="43.09596735185871" lon="12.254596663199221"><ele>220.0</ele><time>2026-04-18T07:21:06Z</time></trkpt><trkpt lat="43.09603857707676" lon="12.254469723355278"><ele>220.0</ele><time>2026-04-18T07:21:08Z</time></trkpt><trkpt lat="43.09608686860424" lon="12.254376395372704"><ele>220.0</ele><time>2026-04-18T07:21:09Z</time></trkpt><trkpt lat="43.09615643629051" lon="12.254237573635129"><ele>220.0</ele><time>2026-04-18T07:21:10Z</time></trkpt><trkpt lat="43.09622787384385" lon="12.254093103324966"><ele>220.0</ele><time>2026-04-18T07:21:11Z</time></trkpt><trkpt lat="43.096309913368614" lon="12.253934297463829"><ele>220.0</ele><time>2026-04-18T07:21:12Z</time></trkpt><trkpt lat="43.09638900497186" lon="12.25377655091128"><ele>220.0</ele><time>2026-04-18T07:21:13Z</time></trkpt><trkpt lat="43.09646702534836" lon="12.25362955784269"><ele>220.25</ele><time>2026-04-18T07:21:14Z</time></trkpt><trkpt lat="43.096536648396636" lon="12.253489613375912"><ele>220.5</ele><time>2026-04-18T07:21:15Z</time></trkpt><trkpt lat="43.096606403593604" lon="12.253354997540425"><ele>220.75</ele><time>2026-04-18T07:21:16Z</time></trkpt><trkpt lat="43.09667207406205" lon="12.253224066701362"><ele>221.0</ele><time>2026-04-18T07:21:17Z</time></trkpt><trkpt lat="43.09673660076503" lon="12.253092018248115"><ele>221.5</ele><time>2026-04-18T07:21:18Z</time></trkpt><trkpt lat="43.09680791222823" lon="12.25295499344259"><ele>222.0</ele><time>2026-04-18T07:21:19Z</time></trkpt><trkpt lat="43.09687719207144" lon="12.252819530190743"><ele>222.5</ele><time>2026-04-18T07:21:20Z</time></trkpt><trkpt lat="43.096946553867916" lon="12.252683806085887"><ele>223.0</ele><time>2026-04-18T07:21:21Z</time></trkpt><trkpt lat="43.097014418612254" lon="12.252552637748385"><ele>223.0</ele><time>2026-04-18T07:21:22Z</time></trkpt><trkpt lat="43.097075191970774" lon="12.252427732445241"><ele>223.0</ele><time>2026-04-18T07:21:23Z</time></trkpt><trkpt lat="43.09713733469262" lon="12.252305683020344"><ele>223.0</ele><time>2026-04-18T07:21:24Z</time></trkpt><trkpt lat="43.09719868381181" lon="12.252188244623216"><ele>223.0</ele><time>2026-04-18T07:21:25Z</time></trkpt><trkpt lat="43.09726047867281" lon="12.25206750008717"><ele>223.0</ele><time>2026-04-18T07:21:26Z</time></trkpt><trkpt lat="43.0973221311765" lon="12.251940108863941"><ele>223.0</ele><time>2026-04-18T07:21:27Z</time></trkpt><trkpt lat="43.09738328866073" lon="12.251820304423694"><ele>223.0</ele><time>2026-04-18T07:21:28Z</time></trkpt><trkpt lat="43.097442326538506" lon="12.251705681849625"><ele>223.0</ele><time>2026-04-18T07:21:29Z</time></trkpt><trkpt lat="43.09750250005999" lon="12.251585970515906"><ele>223.0</ele><time>2026-04-18T07:21:30Z</time></trkpt><trkpt lat="43.09756364688869" lon="12.251462435184678"><ele>223.0</ele><time>2026-04-18T07:21:31Z</time></trkpt><trkpt lat="43.09761811487588" lon="12.251352728508468"><ele>222.60000000000002</ele><time>2026-04-18T07:21:32Z</time></trkpt><trkpt lat="43.097673474371106" lon="12.251239437613597"><ele>222.20000000000002</ele><time>2026-04-18T07:21:33Z</time></trkpt><trkpt lat="43.09773766288583" lon="12.25111592933889"><ele>221.8</ele><time>2026-04-18T07:21:34Z</time></trkpt><trkpt lat="43.09780105609237" lon="12.250988299938754"><ele>221.4</ele><time>2026-04-18T07:21:35Z</time></trkpt><trkpt lat="43.09786969693915" lon="12.250856248891784"><ele>221.0</ele><time>2026-04-18T07:21:36Z</time></trkpt><trkpt lat="43.09794029470383" lon="12.250718656321414"><ele>221.25</ele><time>2026-04-18T07:21:37Z</time></trkpt><trkpt lat="43.09800296024603" lon="12.250587986635681"><ele>221.5</ele><time>2026-04-18T07:21:38Z</time></trkpt><trkpt lat="43.09807436523561" lon="12.25045198897591"><ele>221.75</ele><time>2026-04-18T07:21:39Z</time></trkpt><trkpt lat="43.098143853782574" lon="12.250314419659073"><ele>222.0</ele><time>2026-04-18T07:21:40Z</time></trkpt><trkpt lat="43.09821285703208" lon="12.250174307107027"><ele>222.0</ele><time>2026-04-18T07:21:41Z</time></trkpt><trkpt lat="43.098284647271925" lon="12.25003630409553"><ele>222.0</ele><time>2026-04-18T07:21:42Z</time></trkpt><trkpt lat="43.09835557049646" lon="12.249892393261854"><ele>222.0</ele><time>2026-04-18T07:21:43Z</time></trkpt><trkpt lat="43.0984254272838" lon="12.249747347045206"><ele>222.0</ele><time>2026-04-18T07:21:44Z</time></trkpt><trkpt lat="43.09849833842031" lon="12.24960615243582"><ele>222.0</ele><time>2026-04-18T07:21:45Z</time></trkpt><trkpt lat="43.09856557176358" lon="12.249471989418081"><ele>222.0</ele><time>2026-04-18T07:21:46Z</time></trkpt><trkpt lat="43.09862596893115" lon="12.249357983447691"><ele>222.0</ele><time>2026-04-18T07:21:47Z</time></trkpt><trkpt lat="43.09868047139506" lon="12.249253709337243"><ele>222.0</ele><time>2026-04-18T07:21:48Z</time></trkpt><trkpt lat="43.09873067379283" lon="12.249153669837362"><ele>222.0</ele><time>2026-04-18T07:21:49Z</time></trkpt><trkpt lat="43.09877065481148" lon="12.249075517899458"><ele>222.0</ele><time>2026-04-18T07:21:50Z</time></trkpt><trkpt lat="43.098812635922684" lon="12.248995783365228"><ele>222.0</ele><time>2026-04-18T07:21:51Z</time></trkpt><trkpt lat="43.098847585434605" lon="12.248910091032899"><ele>222.0</ele><time>2026-04-18T07:21:52Z</time></trkpt><trkpt lat="43.098872199365395" lon="12.248814719694437"><ele>222.0</ele><time>2026-04-18T07:21:53Z</time></trkpt><trkpt lat="43.09887819186352" lon="12.248705291696336"><ele>222.0</ele><time>2026-04-18T07:21:54Z</time></trkpt><trkpt lat="43.098867089361" lon="12.248584162015362"><ele>222.0</ele><time>2026-04-18T07:21:55Z</time></trkpt><trkpt lat="43.09885541373076" lon="12.248436545771549"><ele>222.25</ele><time>2026-04-18T07:21:56Z</time></trkpt><trkpt lat="43.09885858380828" lon="12.24827250750305"><ele>222.5</ele><time>2026-04-18T07:21:57Z</time></trkpt><trkpt lat="43.09884031552133" lon="12.24810724813234"><ele>222.75</ele><time>2026-04-18T07:21:58Z</time></trkpt><trkpt lat="43.09882584632614" lon="12.247942555430575"><ele>223.0</ele><time>2026-04-18T07:21:59Z</time></trkpt><trkpt lat="43.09883168049646" lon="12.247752200423003"><ele>223.25</ele><time>2026-04-18T07:22:00Z</time></trkpt><trkpt lat="43.09880588108049" lon="12.247556296357185"><ele>223.5</ele><time>2026-04-18T07:22:01Z</time></trkpt><trkpt lat="43.098795395646086" lon="12.24736626641881"><ele>223.75</ele><time>2026-04-18T07:22:02Z</time></trkpt><trkpt lat="43.09878982887727" lon="12.247212312984379"><ele>224.0</ele><time>2026-04-18T07:22:03Z</time></trkpt><trkpt lat="43.09877997633933" lon="12.247058669403495"><ele>224.0</ele><time>2026-04-18T07:22:04Z</time></trkpt><trkpt lat="43.09876896067065" lon="12.246889531813348"><ele>224.0</ele><time>2026-04-18T07:22:05Z</time></trkpt><trkpt lat="43.098758950995894" lon="12.246722163219271"><ele>224.0</ele><time>2026-04-18T07:22:06Z</time></trkpt><trkpt lat="43.09875575910438" lon="12.246567827573314"><ele>224.0</ele><time>2026-04-18T07:22:07Z</time></trkpt><trkpt lat="43.09874840459786" lon="12.246411941404556"><ele>224.2</ele><time>2026-04-18T07:22:08Z</time></trkpt><trkpt lat="43.09874295941683" lon="12.246250364180286"><ele>224.39999999999998</ele><time>2026-04-18T07:22:09Z</time></trkpt><trkpt lat="43.098733795024515" lon="12.246110303193142"><ele>224.6</ele><time>2026-04-18T07:22:10Z</time></trkpt><trkpt lat="43.098725854806794" lon="12.245969624218684"><ele>224.8</ele><time>2026-04-18T07:22:11Z</time></trkpt><trkpt lat="43.098718069901594" lon="12.24582042083302"><ele>225.0</ele><time>2026-04-18T07:22:12Z</time></trkpt><trkpt lat="43.0987057251175" lon="12.245669095849728"><ele>225.75</ele><time>2026-04-18T07:22:13Z</time></trkpt><trkpt lat="43.09869467290064" lon="12.24551680120314"><ele>226.5</ele><time>2026-04-18T07:22:14Z</time></trkpt><trkpt lat="43.098663713433325" lon="12.245363453918275"><ele>227.25</ele><time>2026-04-18T07:22:15Z</time></trkpt><trkpt lat="43.09861919254605" lon="12.245208218424745"><ele>228.0</ele><time>2026-04-18T07:22:16Z</time></trkpt><trkpt lat="43.098581383913334" lon="12.245040642947812"><ele>228.0</ele><time>2026-04-18T07:22:17Z</time></trkpt><trkpt lat="43.098546270128416" lon="12.244871953816261"><ele>228.0</ele><time>2026-04-18T07:22:18Z</time></trkpt><trkpt lat="43.09851317926741" lon="12.244704114162495"><ele>228.0</ele><time>2026-04-18T07:22:19Z</time></trkpt><trkpt lat="43.09849517407323" lon="12.244530259938935"><ele>228.0</ele><time>2026-04-18T07:22:20Z</time></trkpt><trkpt lat="43.09844574877971" lon="12.24436790733515"><ele>228.0</ele><time>2026-04-18T07:22:21Z</time></trkpt><trkpt lat="43.09841448683816" lon="12.244217453141031"><ele>228.0</ele><time>2026-04-18T07:22:22Z</time></trkpt><trkpt lat="43.09838833399278" lon="12.24408592572938"><ele>228.0</ele><time>2026-04-18T07:22:23Z</time></trkpt><trkpt lat="43.09836476315296" lon="12.243971806747693"><ele>228.0</ele><time>2026-04-18T07:22:24Z</time></trkpt><trkpt lat="43.09834347759465" lon="12.243854431073023"><ele>228.0</ele><time>2026-04-18T07:22:25Z</time></trkpt><trkpt lat="43.09832398494939" lon="12.24373967781282"><ele>228.0</ele><time>2026-04-18T07:22:26Z</time></trkpt><trkpt lat="43.09829971821693" lon="12.243640026326807"><ele>228.0</ele><time>2026-04-18T07:22:27Z</time></trkpt><trkpt lat="43.09827756258733" lon="12.243533330130047"><ele>228.0</ele><time>2026-04-18T07:22:28Z</time></trkpt><trkpt lat="43.09825734921504" lon="12.243438729576958"><ele>228.0</ele><time>2026-04-18T07:22:29Z</time></trkpt><trkpt lat="43.098245488752156" lon="12.243334618005463"><ele>228.0</ele><time>2026-04-18T07:22:30Z</time></trkpt><trkpt lat="43.09824487230979" lon="12.243209345807756"><ele>228.0</ele><time>2026-04-18T07:22:31Z</time></trkpt><trkpt lat="43.09823919204828" lon="12.243073734137099"><ele>228.2</ele><time>2026-04-18T07:22:32Z</time></trkpt><trkpt lat="43.09824595479532" lon="12.24293487524536"><ele>228.4</ele><time>2026-04-18T07:22:33Z</time></trkpt><trkpt lat="43.098231674712984" lon="12.24280917223872"><ele>228.59999999999997</ele><time>2026-04-18T07:22:34Z</time></trkpt><trkpt lat="43.0982376460704" lon="12.242673085293712"><ele>228.79999999999998</ele><time>2026-04-18T07:22:35Z</time></trkpt><trkpt lat="43.09821699003375" lon="12.242529592775563"><ele>229.0</ele><time>2026-04-18T07:22:36Z</time></trkpt><trkpt lat="43.098216416992344" lon="12.242393707926684"><ele>229.39999999999998</ele><time>2026-04-18T07:22:37Z</time></trkpt><trkpt lat="43.09820196363739" lon="12.242255348152792"><ele>229.79999999999998</ele><time>2026-04-18T07:22:38Z</time></trkpt><trkpt lat="43.0982126133025" lon="12.242110568045963"><ele>230.20000000000002</ele><time>2026-04-18T07:22:39Z</time></trkpt><trkpt lat="43.0982025305318" lon="12.242001409347946"><ele>230.60000000000002</ele><time>2026-04-18T07:22:40Z</time></trkpt><trkpt lat="43.098213490020896" lon="12.241879842659745"><ele>231.0</ele><time>2026-04-18T07:22:41Z</time></trkpt><trkpt lat="43.098232368000374" lon="12.24177314353567"><ele>231.0</ele><time>2026-04-18T07:22:42Z</time></trkpt><trkpt lat="43.098268726363486" lon="12.241652423990583"><ele>231.0</ele><time>2026-04-18T07:22:43Z</time></trkpt><trkpt lat="43.098311399858055" lon="12.241545271211947"><ele>231.0</ele><time>2026-04-18T07:22:44Z</time></trkpt><trkpt lat="43.098360262811575" lon="12.241431337477808"><ele>231.0</ele><time>2026-04-18T07:22:45Z</time></trkpt><trkpt lat="43.0984082280438" lon="12.241337132635302"><ele>231.0</ele><time>2026-04-18T07:22:46Z</time></trkpt><trkpt lat="43.09846130913078" lon="12.241259313025962"><ele>231.0</ele><time>2026-04-18T07:22:47Z</time></trkpt><trkpt lat="43.0985304068141" lon="12.241183473429963"><ele>231.5</ele><time>2026-04-18T07:22:48Z</time></trkpt><trkpt lat="43.09860365206522" lon="12.241104291456903"><ele>232.0</ele><time>2026-04-18T07:22:49Z</time></trkpt><trkpt lat="43.098682142256415" lon="12.241029228993346"><ele>232.5</ele><time>2026-04-18T07:22:50Z</time></trkpt><trkpt lat="43.098763709915524" lon="12.240984031325107"><ele>233.0</ele><time>2026-04-18T07:22:51Z</time></trkpt><trkpt lat="43.09881082469007" lon="12.240914959575495"><ele>233.5</ele><time>2026-04-18T07:22:52Z</time></trkpt><trkpt lat="43.09886163573984" lon="12.240860612305896"><ele>234.0</ele><time>2026-04-18T07:22:53Z</time></trkpt><trkpt lat="43.09890527845017" lon="12.240778859572735"><ele>234.0</ele><time>2026-04-18T07:22:54Z</time></trkpt><trkpt lat="43.098920847859915" lon="12.240670582656373"><ele>234.0</ele><time>2026-04-18T07:22:55Z</time></trkpt><trkpt lat="43.098917495636975" lon="12.240550912340272"><ele>234.0</ele><time>2026-04-18T07:22:56Z</time></trkpt><trkpt lat="43.09891995800842" lon="12.240432208964272"><ele>234.0</ele><time>2026-04-18T07:22:57Z</time></trkpt><trkpt lat="43.098957182060104" lon="12.24033046680148"><ele>234.0</ele><time>2026-04-18T07:22:58Z</time></trkpt><trkpt lat="43.09900277897491" lon="12.240237419787801"><ele>234.0</ele><time>2026-04-18T07:22:59Z</time></trkpt><trkpt lat="43.09905146676207" lon="12.24015228053529"><ele>235.0</ele><time>2026-04-18T07:23:00Z</time></trkpt><trkpt lat="43.09910911559698" lon="12.240083552249073"><ele>235.99999999999997</ele><time>2026-04-18T07:23:01Z</time></trkpt><trkpt lat="43.09916550852433" lon="12.240012598319755"><ele>236.99999999999997</ele><time>2026-04-18T07:23:02Z</time></trkpt><trkpt lat="43.09923373001251" lon="12.239904521420785"><ele>238.0</ele><time>2026-04-18T07:23:03Z</time></trkpt><trkpt lat="43.09931113550838" lon="12.239794681209188"><ele>239.0</ele><time>2026-04-18T07:23:04Z</time></trkpt><trkpt lat="43.09937633802034" lon="12.239666919667556"><ele>239.0</ele><time>2026-04-18T07:23:05Z</time></trkpt><trkpt lat="43.099451767159174" lon="12.239541222721291"><ele>238.99999999999997</ele><time>2026-04-18T07:23:06Z</time></trkpt><trkpt lat="43.09952980744118" lon="12.239425802868743"><ele>238.99999999999997</ele><time>2026-04-18T07:23:07Z</time></trkpt><trkpt lat="43.099595485113475" lon="12.239323085926273"><ele>239.0</ele><time>2026-04-18T07:23:08Z</time></trkpt><trkpt lat="43.099663156753714" lon="12.239224891507329"><ele>239.0</ele><time>2026-04-18T07:23:09Z</time></trkpt><trkpt lat="43.09973179567825" lon="12.239118660398422"><ele>239.00000000000003</ele><time>2026-04-18T07:23:10Z</time></trkpt><trkpt lat="43.09979171348268" lon="12.239019565244062"><ele>239.0</ele><time>2026-04-18T07:23:11Z</time></trkpt><trkpt lat="43.09984570804053" lon="12.238941812080977"><ele>239.0</ele><time>2026-04-18T07:23:12Z</time></trkpt><trkpt lat="43.09989059078069" lon="12.238870090886484"><ele>239.0</ele><time>2026-04-18T07:23:13Z</time></trkpt><trkpt lat="43.09994239641613" lon="12.23876508161161"><ele>239.00000000000003</ele><time>2026-04-18T07:23:15Z</time></trkpt><trkpt lat="43.099981440761496" lon="12.238692631736086"><ele>239.0</ele><time>2026-04-18T07:23:50Z</time></trkpt><trkpt lat="43.099947953190245" lon="12.238779555416196"><ele>242.0</ele><time>2026-04-18T07:23:57Z</time></trkpt><trkpt lat="43.09989135687895" lon="12.238897325334417"><ele>238.0</ele><time>2026-04-18T07:24:02Z</time></trkpt><trkpt lat="43.0998259338088" lon="12.238998957833635"><ele>239.0</ele><time>2026-04-18T07:24:04Z</time></trkpt><trkpt lat="43.099878230754136" lon="12.23892824516936"><ele>238.0</ele><time>2026-04-18T07:24:10Z</time></trkpt><trkpt lat="43.09991486609124" lon="12.238849685183744"><ele>238.0</ele><time>2026-04-18T07:24:12.001Z</time></trkpt></trkseg><trkseg><trkpt lat="43.0999448513765" lon="12.238751340323203"><ele>242.0</ele><time>2026-04-18T07:40:32Z</time></trkpt><trkpt lat="43.09999032805668" lon="12.238639397186034"><ele>242.0</ele><time>2026-04-18T07:40:46Z</time></trkpt><trkpt lat="43.10007913989988" lon="12.238516002841003"><ele>242.0</ele><time>2026-04-18T07:40:48Z</time></trkpt><trkpt lat="43.10016445324729" lon="12.238491616378067"><ele>242.0</ele><time>2026-04-18T07:40:49Z</time></trkpt><trkpt lat="43.10027105931591" lon="12.238497640750593"><ele>242.0</ele><time>2026-04-18T07:40:50Z</time></trkpt><trkpt lat="43.10037081416092" lon="12.238536080431333"><ele>242.0</ele><time>2026-04-18T07:40:51Z</time></trkpt><trkpt lat="43.10048941104321" lon="12.23854007653558"><ele>242.0</ele><time>2026-04-18T07:40:52Z</time></trkpt><trkpt lat="43.100606730715484" lon="12.23855839563524"><ele>242.0</ele><time>2026-04-18T07:40:53Z</time></trkpt><trkpt lat="43.100738799660036" lon="12.23858800494844"><ele>242.0</ele><time>2026-04-18T07:40:54Z</time></trkpt><trkpt lat="43.10087568160925" lon="12.238627358725518"><ele>244.0</ele><time>2026-04-18T07:40:55Z</time></trkpt><trkpt lat="43.10101042203938" lon="12.238652662232202"><ele>246.0</ele><time>2026-04-18T07:40:56Z</time></trkpt><trkpt lat="43.1011288746786" lon="12.23867016065373"><ele>248.0</ele><time>2026-04-18T07:40:57Z</time></trkpt><trkpt lat="43.10125191133246" lon="12.238654215434183"><ele>250.0</ele><time>2026-04-18T07:40:58Z</time></trkpt><trkpt lat="43.101382808060045" lon="12.238617300967924"><ele>250.0</ele><time>2026-04-18T07:40:59Z</time></trkpt><trkpt lat="43.10151342898219" lon="12.238554963096067"><ele>250.0</ele><time>2026-04-18T07:41:00Z</time></trkpt><trkpt lat="43.101644866890524" lon="12.23848259109517"><ele>250.0</ele><time>2026-04-18T07:41:01Z</time></trkpt><trkpt lat="43.10177399463414" lon="12.238397445923539"><ele>250.0</ele><time>2026-04-18T07:41:02Z</time></trkpt><trkpt lat="43.1019059054883" lon="12.238302530729309"><ele>252.0</ele><time>2026-04-18T07:41:03Z</time></trkpt><trkpt lat="43.10203049285969" lon="12.238216192339845"><ele>254.0</ele><time>2026-04-18T07:41:04Z</time></trkpt><trkpt lat="43.10216379031855" lon="12.238122594960048"><ele>256.0</ele><time>2026-04-18T07:41:05Z</time></trkpt><trkpt lat="43.1023097660379" lon="12.238028460482722"><ele>258.5</ele><time>2026-04-18T07:41:06Z</time></trkpt><trkpt lat="43.10244556775562" lon="12.23793419487289"><ele>261.0</ele><time>2026-04-18T07:41:07Z</time></trkpt><trkpt lat="43.10257548298829" lon="12.237834605697241"><ele>263.5</ele><time>2026-04-18T07:41:08Z</time></trkpt><trkpt lat="43.10269074752905" lon="12.237745345761395"><ele>266.0</ele><time>2026-04-18T07:41:09Z</time></trkpt><trkpt lat="43.10278655153556" lon="12.23766927539848"><ele>266.0</ele><time>2026-04-18T07:41:10Z</time></trkpt><trkpt lat="43.10286966285124" lon="12.23754538057029"><ele>266.0</ele><time>2026-04-18T07:41:11Z</time></trkpt><trkpt lat="43.102947739247476" lon="12.237405113029691"><ele>266.0</ele><time>2026-04-18T07:41:12Z</time></trkpt><trkpt lat="43.103027716566615" lon="12.237256619292898"><ele>266.0</ele><time>2026-04-18T07:41:13Z</time></trkpt><trkpt lat="43.10312116566672" lon="12.237119086336016"><ele>266.25</ele><time>2026-04-18T07:41:14Z</time></trkpt><trkpt lat="43.10320769645293" lon="12.2369956190157"><ele>266.5</ele><time>2026-04-18T07:41:15Z</time></trkpt><trkpt lat="43.10330172483301" lon="12.23690707048678"><ele>266.75</ele><time>2026-04-18T07:41:16Z</time></trkpt><trkpt lat="43.10341295744446" lon="12.23688182849559"><ele>267.0</ele><time>2026-04-18T07:41:17Z</time></trkpt><trkpt lat="43.103541499491016" lon="12.236873532241235"><ele>268.5</ele><time>2026-04-18T07:41:18Z</time></trkpt><trkpt lat="43.10368006448363" lon="12.236849488073226"><ele>270.0</ele><time>2026-04-18T07:41:19Z</time></trkpt><trkpt lat="43.1038233009709" lon="12.236811510335052"><ele>271.5</ele><time>2026-04-18T07:41:20Z</time></trkpt><trkpt lat="43.10397012032764" lon="12.236789190983584"><ele>273.0</ele><time>2026-04-18T07:41:21Z</time></trkpt><trkpt lat="43.104122046521205" lon="12.236764833415714"><ele>275.0</ele><time>2026-04-18T07:41:22Z</time></trkpt><trkpt lat="43.1042688299638" lon="12.236745413997246"><ele>277.0</ele><time>2026-04-18T07:41:23Z</time></trkpt><trkpt lat="43.10439968477073" lon="12.23671752237578"><ele>279.0</ele><time>2026-04-18T07:41:24Z</time></trkpt><trkpt lat="43.104529974555255" lon="12.236682297646432"><ele>281.0</ele><time>2026-04-18T07:41:25Z</time></trkpt><trkpt lat="43.10466267846953" lon="12.236637940608539"><ele>281.0</ele><time>2026-04-18T07:41:26Z</time></trkpt><trkpt lat="43.104794330924165" lon="12.236571997569113"><ele>281.0</ele><time>2026-04-18T07:41:27Z</time></trkpt><trkpt lat="43.10492305632305" lon="12.23650007880745"><ele>281.0</ele><time>2026-04-18T07:41:28Z</time></trkpt><trkpt lat="43.10505645544178" lon="12.236415966157125"><ele>281.0</ele><time>2026-04-18T07:41:29Z</time></trkpt><trkpt lat="43.10518069516829" lon="12.236313546005048"><ele>284.5</ele><time>2026-04-18T07:41:30Z</time></trkpt><trkpt lat="43.105299876984965" lon="12.236193899156941"><ele>288.0</ele><time>2026-04-18T07:41:31Z</time></trkpt><trkpt lat="43.10540968274406" lon="12.236058327975519"><ele>291.5</ele><time>2026-04-18T07:41:32Z</time></trkpt><trkpt lat="43.10551794765136" lon="12.235910113474453"><ele>295.0</ele><time>2026-04-18T07:41:33Z</time></trkpt><trkpt lat="43.10563907250663" lon="12.235785371915515"><ele>295.0</ele><time>2026-04-18T07:41:34Z</time></trkpt><trkpt lat="43.10574532593479" lon="12.235647161572267"><ele>295.0</ele><time>2026-04-18T07:41:35Z</time></trkpt><trkpt lat="43.10583349079497" lon="12.235512834896918"><ele>295.0</ele><time>2026-04-18T07:41:36Z</time></trkpt><trkpt lat="43.10592174075181" lon="12.23540071994224"><ele>295.0</ele><time>2026-04-18T07:41:37Z</time></trkpt><trkpt lat="43.10599977348448" lon="12.235264010479517"><ele>298.25</ele><time>2026-04-18T07:41:38Z</time></trkpt><trkpt lat="43.10608215555543" lon="12.235120386675469"><ele>301.5</ele><time>2026-04-18T07:41:39Z</time></trkpt><trkpt lat="43.10616661249295" lon="12.234988799275536"><ele>304.75</ele><time>2026-04-18T07:41:40Z</time></trkpt><trkpt lat="43.10624356280852" lon="12.23487115315426"><ele>308.0</ele><time>2026-04-18T07:41:41Z</time></trkpt><trkpt lat="43.10630287252778" lon="12.234781534164386"><ele>310.33333333333337</ele><time>2026-04-18T07:41:42Z</time></trkpt><trkpt lat="43.10635453673475" lon="12.234694809802413"><ele>312.6666666666667</ele><time>2026-04-18T07:41:43Z</time></trkpt><trkpt lat="43.10640281076035" lon="12.234625797663078"><ele>315.0</ele><time>2026-04-18T07:41:44Z</time></trkpt><trkpt lat="43.10647532181405" lon="12.234566850060997"><ele>317.3333333333333</ele><time>2026-04-18T07:41:46Z</time></trkpt><trkpt lat="43.10654421399" lon="12.23453575203592"><ele>319.66666666666663</ele><time>2026-04-18T07:41:48Z</time></trkpt><trkpt lat="43.10668425062844" lon="12.234522277038876"><ele>322.0</ele><time>2026-04-18T07:41:50Z</time></trkpt><trkpt lat="43.10677261379646" lon="12.234554872477366"><ele>322.25</ele><time>2026-04-18T07:41:51Z</time></trkpt><trkpt lat="43.10686821766551" lon="12.234610238084356"><ele>322.5</ele><time>2026-04-18T07:41:52Z</time></trkpt><trkpt lat="43.10697198835241" lon="12.23467651364957"><ele>322.75</ele><time>2026-04-18T07:41:53Z</time></trkpt><trkpt lat="43.10707869565703" lon="12.234756198908988"><ele>323.0</ele><time>2026-04-18T07:41:54Z</time></trkpt><trkpt lat="43.107164569380174" lon="12.23485503109903"><ele>320.33333333333337</ele><time>2026-04-18T07:41:55Z</time></trkpt><trkpt lat="43.10725219063719" lon="12.234969079589026"><ele>317.6666666666667</ele><time>2026-04-18T07:41:56Z</time></trkpt><trkpt lat="43.107313956290014" lon="12.235057628907706"><ele>315.0</ele><time>2026-04-18T07:41:57Z</time></trkpt><trkpt lat="43.10737706126122" lon="12.235127718115944"><ele>312.3333333333333</ele><time>2026-04-18T07:41:58Z</time></trkpt><trkpt lat="43.107430389871816" lon="12.235212171017107"><ele>309.66666666666663</ele><time>2026-04-18T07:41:59Z</time></trkpt><trkpt lat="43.10748154537964" lon="12.235266136390544"><ele>307.0</ele><time>2026-04-18T07:42:00Z</time></trkpt><trkpt lat="43.107541973038145" lon="12.235333141201457"><ele>307.0</ele><time>2026-04-18T07:42:02Z</time></trkpt><trkpt lat="43.10761145075028" lon="12.235419287665291"><ele>307.0</ele><time>2026-04-18T07:42:09Z</time></trkpt><trkpt lat="43.10775395119668" lon="12.235327802149714"><ele>307.0</ele><time>2026-04-18T07:42:13Z</time></trkpt><trkpt lat="43.107833499762535" lon="12.235199177579794"><ele>307.0</ele><time>2026-04-18T07:42:15Z</time></trkpt><trkpt lat="43.107869908706334" lon="12.235122218171988"><ele>307.0</ele><time>2026-04-18T07:42:16Z</time></trkpt><trkpt lat="43.10791413608606" lon="12.234987229553036"><ele>307.0</ele><time>2026-04-18T07:42:18Z</time></trkpt><trkpt lat="43.1079544512687" lon="12.234854668116993"><ele>307.0</ele><time>2026-04-18T07:42:20Z</time></trkpt><trkpt lat="43.107976097269955" lon="12.234758338290357"><ele>307.0</ele><time>2026-04-18T07:42:21Z</time></trkpt><trkpt lat="43.1079960898798" lon="12.2346698096645"><ele>307.0</ele><time>2026-04-18T07:42:22Z</time></trkpt><trkpt lat="43.10800894881055" lon="12.23451926776681"><ele>307.0</ele><time>2026-04-18T07:42:24Z</time></trkpt><trkpt lat="43.10803106584157" lon="12.234376121405761"><ele>307.4</ele><time>2026-04-18T07:42:26Z</time></trkpt><trkpt lat="43.10809647494028" lon="12.234233403482492"><ele>307.79999999999995</ele><time>2026-04-18T07:42:28Z</time></trkpt><trkpt lat="43.108198839373806" lon="12.234156558586434"><ele>308.2</ele><time>2026-04-18T07:42:30Z</time></trkpt><trkpt lat="43.108261524889976" lon="12.234165052377366"><ele>308.59999999999997</ele><time>2026-04-18T07:42:31Z</time></trkpt><trkpt lat="43.10835476725949" lon="12.234182864273537"><ele>309.0</ele><time>2026-04-18T07:42:32Z</time></trkpt><trkpt lat="43.10844414668479" lon="12.234173752499597"><ele>309.0</ele><time>2026-04-18T07:42:33Z</time></trkpt><trkpt lat="43.1085329578811" lon="12.23417241311134"><ele>309.0</ele><time>2026-04-18T07:42:34Z</time></trkpt><trkpt lat="43.10862952969255" lon="12.23415376079689"><ele>309.0</ele><time>2026-04-18T07:42:35Z</time></trkpt><trkpt lat="43.108735011791566" lon="12.234132087651002"><ele>309.0</ele><time>2026-04-18T07:42:36Z</time></trkpt><trkpt lat="43.10883267117488" lon="12.234104969600233"><ele>309.0</ele><time>2026-04-18T07:42:37Z</time></trkpt><trkpt lat="43.10891949436043" lon="12.234075426051232"><ele>309.0</ele><time>2026-04-18T07:42:38Z</time></trkpt><trkpt lat="43.10900763464272" lon="12.234048866532595"><ele>309.0</ele><time>2026-04-18T07:42:39Z</time></trkpt><trkpt lat="43.10908884626892" lon="12.23398017177707"><ele>309.0</ele><time>2026-04-18T07:42:40Z</time></trkpt><trkpt lat="43.10915452252607" lon="12.233931013772597"><ele>309.0</ele><time>2026-04-18T07:42:41Z</time></trkpt><trkpt lat="43.109218080096205" lon="12.233872643438215"><ele>309.0</ele><time>2026-04-18T07:42:42Z</time></trkpt><trkpt lat="43.10929035195531" lon="12.233830449828547"><ele>309.0</ele><time>2026-04-18T07:42:43Z</time></trkpt><trkpt lat="43.10936376048708" lon="12.233802952424876"><ele>312.6</ele><time>2026-04-18T07:42:44Z</time></trkpt><trkpt lat="43.109422332929206" lon="12.233768298193594"><ele>316.2</ele><time>2026-04-18T07:42:45Z</time></trkpt><trkpt lat="43.10952134343839" lon="12.233687484701946"><ele>319.8</ele><time>2026-04-18T07:42:47Z</time></trkpt><trkpt lat="43.10959927980817" lon="12.233546005702502"><ele>323.40000000000003</ele><time>2026-04-18T07:42:49Z</time></trkpt><trkpt lat="43.10963240333232" lon="12.233453281722008"><ele>327.0</ele><time>2026-04-18T07:42:50Z</time></trkpt><trkpt lat="43.109663109700676" lon="12.23335107259436"><ele>327.0</ele><time>2026-04-18T07:42:51Z</time></trkpt><trkpt lat="43.10968227039886" lon="12.233232840958328"><ele>327.0</ele><time>2026-04-18T07:42:52Z</time></trkpt><trkpt lat="43.10972914969671" lon="12.233120003464945"><ele>327.0</ele><time>2026-04-18T07:42:53Z</time></trkpt><trkpt lat="43.10975189783045" lon="12.232994287501537"><ele>327.0</ele><time>2026-04-18T07:42:54Z</time></trkpt><trkpt lat="43.109779852702815" lon="12.23290129116083"><ele>327.0</ele><time>2026-04-18T07:42:55Z</time></trkpt><trkpt lat="43.10981307131963" lon="12.232739943995545"><ele>325.1666666666667</ele><time>2026-04-18T07:42:57Z</time></trkpt><trkpt lat="43.109820383978544" lon="12.232626348336748"><ele>323.3333333333333</ele><time>2026-04-18T07:42:58Z</time></trkpt><trkpt lat="43.10982113965873" lon="12.232527350669224"><ele>321.5</ele><time>2026-04-18T07:42:59Z</time></trkpt><trkpt lat="43.10981355293233" lon="12.232434710707617"><ele>319.66666666666663</ele><time>2026-04-18T07:43:00Z</time></trkpt><trkpt lat="43.10982380622312" lon="12.232328043916215"><ele>317.8333333333333</ele><time>2026-04-18T07:43:01Z</time></trkpt><trkpt lat="43.10986481925267" lon="12.232165315673603"><ele>316.0</ele><time>2026-04-18T07:43:03Z</time></trkpt><trkpt lat="43.10991588044401" lon="12.23208081557142"><ele>316.0</ele><time>2026-04-18T07:43:04Z</time></trkpt><trkpt lat="43.109990267353716" lon="12.231968557931797"><ele>316.0</ele><time>2026-04-18T07:43:06Z</time></trkpt><trkpt lat="43.11003830216995" lon="12.231850881681279"><ele>316.0</ele><time>2026-04-18T07:43:08Z</time></trkpt><trkpt lat="43.11008711627096" lon="12.23169212116135"><ele>316.0</ele><time>2026-04-18T07:43:10Z</time></trkpt><trkpt lat="43.11012270777079" lon="12.231598695222687"><ele>316.0</ele><time>2026-04-18T07:43:11Z</time></trkpt><trkpt lat="43.11014426075502" lon="12.231508559643855"><ele>318.3333333333333</ele><time>2026-04-18T07:43:12Z</time></trkpt><trkpt lat="43.110159557183714" lon="12.231384341190646"><ele>320.66666666666663</ele><time>2026-04-18T07:43:13Z</time></trkpt><trkpt lat="43.11017739592205" lon="12.231278091013644"><ele>323.0</ele><time>2026-04-18T07:43:14Z</time></trkpt><trkpt lat="43.110203721329995" lon="12.231181401458226"><ele>325.3333333333333</ele><time>2026-04-18T07:43:15Z</time></trkpt><trkpt lat="43.11020849561703" lon="12.231075753122358"><ele>327.6666666666667</ele><time>2026-04-18T07:43:16Z</time></trkpt><trkpt lat="43.110232548340576" lon="12.230991900866082"><ele>330.0</ele><time>2026-04-18T07:43:17Z</time></trkpt><trkpt lat="43.11030351695261" lon="12.23088877255816"><ele>330.0</ele><time>2026-04-18T07:43:19Z</time></trkpt><trkpt lat="43.11038607810268" lon="12.23094639877874"><ele>330.0</ele><time>2026-04-18T07:43:21Z</time></trkpt><trkpt lat="43.110433405913" lon="12.23100947077083"><ele>330.0</ele><time>2026-04-18T07:43:22Z</time></trkpt><trkpt lat="43.11050322215083" lon="12.23109480101069"><ele>330.0</ele><time>2026-04-18T07:43:23Z</time></trkpt><trkpt lat="43.11057234655072" lon="12.23114912854563"><ele>330.0</ele><time>2026-04-18T07:43:24Z</time></trkpt><trkpt lat="43.11064711151649" lon="12.231192676211336"><ele>330.0</ele><time>2026-04-18T07:43:25Z</time></trkpt><trkpt lat="43.110715566203744" lon="12.231218500026966"><ele>328.14285714285717</ele><time>2026-04-18T07:43:26Z</time></trkpt><trkpt lat="43.110783371773586" lon="12.23122884236997"><ele>326.2857142857143</ele><time>2026-04-18T07:43:27Z</time></trkpt><trkpt lat="43.11085086701132" lon="12.231215631262888"><ele>324.42857142857144</ele><time>2026-04-18T07:43:28Z</time></trkpt><trkpt lat="43.11092134416077" lon="12.231192981739744"><ele>322.57142857142856</ele><time>2026-04-18T07:43:29Z</time></trkpt><trkpt lat="43.11099254049055" lon="12.23116808022211"><ele>320.7142857142857</ele><time>2026-04-18T07:43:30Z</time></trkpt><trkpt lat="43.11105519185945" lon="12.231118000178437"><ele>318.8571428571429</ele><time>2026-04-18T07:43:31Z</time></trkpt><trkpt lat="43.111119159614155" lon="12.231060094653907"><ele>317.0</ele><time>2026-04-18T07:43:32Z</time></trkpt><trkpt lat="43.111191732060774" lon="12.230994901526525"><ele>317.0</ele><time>2026-04-18T07:43:33Z</time></trkpt><trkpt lat="43.11129506905365" lon="12.230912858415905"><ele>317.0</ele><time>2026-04-18T07:43:35Z</time></trkpt><trkpt lat="43.111355824859594" lon="12.230876367749309"><ele>317.0</ele><time>2026-04-18T07:43:36Z</time></trkpt><trkpt lat="43.1114601469529" lon="12.230844300966288"><ele>317.0</ele><time>2026-04-18T07:43:38Z</time></trkpt><trkpt lat="43.11152344291771" lon="12.230852468266818"><ele>317.0</ele><time>2026-04-18T07:43:39Z</time></trkpt><trkpt lat="43.11158444526734" lon="12.230900821751352"><ele>317.0</ele><time>2026-04-18T07:43:40Z</time></trkpt><trkpt lat="43.11164457932362" lon="12.230959829113527"><ele>316.6</ele><time>2026-04-18T07:43:41Z</time></trkpt><trkpt lat="43.11169279436728" lon="12.231050498383981"><ele>316.2</ele><time>2026-04-18T07:43:42Z</time></trkpt><trkpt lat="43.11173638158208" lon="12.231128009275103"><ele>315.8</ele><time>2026-04-18T07:43:43Z</time></trkpt><trkpt lat="43.11176844312548" lon="12.231303496333348"><ele>315.4</ele><time>2026-04-18T07:43:45Z</time></trkpt><trkpt lat="43.11177937285495" lon="12.231436954208165"><ele>315.0</ele><time>2026-04-18T07:43:47Z</time></trkpt><trkpt lat="43.11172994694458" lon="12.23155930371724"><ele>315.0</ele><time>2026-04-18T07:44:08Z</time></trkpt><trkpt lat="43.111649892031785" lon="12.231652965945875"><ele>315.0</ele><time>2026-04-18T07:44:10Z</time></trkpt><trkpt lat="43.111563798202305" lon="12.231753469601085"><ele>315.0</ele><time>2026-04-18T07:44:12Z</time></trkpt><trkpt lat="43.11150545445614" lon="12.231906625127085"><ele>315.0</ele><time>2026-04-18T07:44:14Z</time></trkpt><trkpt lat="43.111473201364916" lon="12.232061659133246"><ele>313.6666666666667</ele><time>2026-04-18T07:44:16Z</time></trkpt><trkpt lat="43.11146329264846" lon="12.232165670422846"><ele>312.3333333333333</ele><time>2026-04-18T07:44:18Z</time></trkpt><trkpt lat="43.11144961612712" lon="12.232275330005269"><ele>311.0</ele><time>2026-04-18T07:44:20Z</time></trkpt><trkpt lat="43.11147132549464" lon="12.232394450778079"><ele>309.66666666666663</ele><time>2026-04-18T07:44:22Z</time></trkpt><trkpt lat="43.11152774081246" lon="12.232487518502845"><ele>308.3333333333333</ele><time>2026-04-18T07:44:24Z</time></trkpt><trkpt lat="43.11160437260905" lon="12.232547997099326"><ele>307.0</ele><time>2026-04-18T07:44:26Z</time></trkpt><trkpt lat="43.11169893780786" lon="12.232574133537701"><ele>307.0</ele><time>2026-04-18T07:44:28Z</time></trkpt><trkpt lat="43.11181496286497" lon="12.232581916990604"><ele>307.0</ele><time>2026-04-18T07:44:30Z</time></trkpt><trkpt lat="43.111948106977515" lon="12.232547880345418"><ele>307.0</ele><time>2026-04-18T07:44:32Z</time></trkpt><trkpt lat="43.11201190845762" lon="12.232527239081202"><ele>307.0</ele><time>2026-04-18T07:44:33Z</time></trkpt><trkpt lat="43.11207583501799" lon="12.232496925442845"><ele>307.0</ele><time>2026-04-18T07:44:34Z</time></trkpt><trkpt lat="43.112134510340816" lon="12.232436730152829"><ele>307.0</ele><time>2026-04-18T07:44:35Z</time></trkpt><trkpt lat="43.112209209816754" lon="12.232379352372414"><ele>307.0</ele><time>2026-04-18T07:44:36Z</time></trkpt><trkpt lat="43.11228568723636" lon="12.232321721112625"><ele>307.0</ele><time>2026-04-18T07:44:37Z</time></trkpt><trkpt lat="43.11235955979578" lon="12.232258001717211"><ele>307.0</ele><time>2026-04-18T07:44:39Z</time></trkpt><trkpt lat="43.11244983511001" lon="12.232263569300938"><ele>307.0</ele><time>2026-04-18T07:44:41Z</time></trkpt><trkpt lat="43.11251702272691" lon="12.23227204379776"><ele>307.0</ele><time>2026-04-18T07:44:43Z</time></trkpt><trkpt lat="43.11261932094679" lon="12.23229164116108"><ele>309.8</ele><time>2026-04-18T07:44:46Z</time></trkpt><trkpt lat="43.11269631858437" lon="12.232325825801762"><ele>312.6</ele><time>2026-04-18T07:44:48Z</time></trkpt><trkpt lat="43.1127154777273" lon="12.232422258991184"><ele>315.40000000000003</ele><time>2026-04-18T07:44:50Z</time></trkpt><trkpt lat="43.11280803077651" lon="12.232538335157587"><ele>318.2</ele><time>2026-04-18T07:44:52Z</time></trkpt><trkpt lat="43.11286586763264" lon="12.232610663002674"><ele>321.0</ele><time>2026-04-18T07:44:54Z</time></trkpt><trkpt lat="43.11294535899226" lon="12.232710070865563"><ele>321.0</ele><time>2026-04-18T07:44:56Z</time></trkpt><trkpt lat="43.113115548086874" lon="12.232690565174376"><ele>321.0</ele><time>2026-04-18T07:44:58Z</time></trkpt><trkpt lat="43.11318684210164" lon="12.232748955707345"><ele>321.0</ele><time>2026-04-18T07:45:00Z</time></trkpt><trkpt lat="43.11326364065957" lon="12.232690569549217"><ele>321.0</ele><time>2026-04-18T07:45:02Z</time></trkpt><trkpt lat="43.11332110712176" lon="12.232602088667342"><ele>321.0</ele><time>2026-04-18T07:45:03Z</time></trkpt><trkpt lat="43.113360178486545" lon="12.23252658983019"><ele>322.4285714285714</ele><time>2026-04-18T07:45:04Z</time></trkpt><trkpt lat="43.113426878426125" lon="12.232453795170729"><ele>323.85714285714283</ele><time>2026-04-18T07:45:07Z</time></trkpt><trkpt lat="43.11349846019296" lon="12.23241203924758"><ele>325.2857142857143</ele><time>2026-04-18T07:45:09Z</time></trkpt><trkpt lat="43.1135467648538" lon="12.232341325889028"><ele>326.71428571428567</ele><time>2026-04-18T07:45:12Z</time></trkpt><trkpt lat="43.11355491830643" lon="12.232241561418466"><ele>328.1428571428571</ele><time>2026-04-18T07:45:16Z</time></trkpt><trkpt lat="43.11356799178239" lon="12.232155286037793"><ele>329.57142857142856</ele><time>2026-04-18T07:45:18Z</time></trkpt><trkpt lat="43.11358254127748" lon="12.232067672840504"><ele>331.0</ele><time>2026-04-18T07:45:21Z</time></trkpt><trkpt lat="43.11359440157311" lon="12.231964741601113"><ele>331.8333333333333</ele><time>2026-04-18T07:45:25Z</time></trkpt><trkpt lat="43.11360830255342" lon="12.231852031286946"><ele>332.66666666666663</ele><time>2026-04-18T07:45:27Z</time></trkpt><trkpt lat="43.11362510465642" lon="12.231731990466017"><ele>333.5</ele><time>2026-04-18T07:45:29Z</time></trkpt><trkpt lat="43.11363503615852" lon="12.231615253439626"><ele>334.3333333333333</ele><time>2026-04-18T07:45:31Z</time></trkpt><trkpt lat="43.11366048812066" lon="12.231485683676246"><ele>335.1666666666667</ele><time>2026-04-18T07:45:33Z</time></trkpt><trkpt lat="43.11367947507794" lon="12.2313714601851"><ele>336.0</ele><time>2026-04-18T07:45:35Z</time></trkpt><trkpt lat="43.113740850857916" lon="12.231298636040952"><ele>336.5</ele><time>2026-04-18T07:45:37Z</time></trkpt><trkpt lat="43.113779509564104" lon="12.231172070349418"><ele>337.0</ele><time>2026-04-18T07:45:39Z</time></trkpt><trkpt lat="43.11382085403487" lon="12.231070720070841"><ele>337.5</ele><time>2026-04-18T07:45:41Z</time></trkpt><trkpt lat="43.11384822465548" lon="12.230989755563836"><ele>338.0</ele><time>2026-04-18T07:45:43Z</time></trkpt><trkpt lat="43.113863759961966" lon="12.230902885588307"><ele>338.5</ele><time>2026-04-18T07:45:45Z</time></trkpt><trkpt lat="43.11386145910939" lon="12.230805452256119"><ele>339.0</ele><time>2026-04-18T07:45:48Z</time></trkpt><trkpt lat="43.11387075628697" lon="12.230696265558926"><ele>338.8333333333333</ele><time>2026-04-18T07:45:52Z</time></trkpt><trkpt lat="43.11389801794573" lon="12.230575374604522"><ele>338.6666666666667</ele><time>2026-04-18T07:45:55Z</time></trkpt><trkpt lat="43.11391601878069" lon="12.230476712667807"><ele>338.5</ele><time>2026-04-18T07:45:58Z</time></trkpt><trkpt lat="43.1139370526412" lon="12.230371547533347"><ele>338.33333333333337</ele><time>2026-04-18T07:46:01Z</time></trkpt><trkpt lat="43.11394586785238" lon="12.230246378950948"><ele>338.1666666666667</ele><time>2026-04-18T07:46:04Z</time></trkpt><trkpt lat="43.113991221290725" lon="12.230119701067885"><ele>338.0</ele><time>2026-04-18T07:46:07Z</time></trkpt><trkpt lat="43.11400270087423" lon="12.230027152828958"><ele>338.0</ele><time>2026-04-18T07:46:10Z</time></trkpt><trkpt lat="43.113974221433686" lon="12.229884759371632"><ele>338.0</ele><time>2026-04-18T07:46:17Z</time></trkpt><trkpt lat="43.113927279039686" lon="12.229809803394286"><ele>338.0</ele><time>2026-04-18T07:46:19Z</time></trkpt><trkpt lat="43.11390066291662" lon="12.229719770556915"><ele>338.0</ele><time>2026-04-18T07:46:21Z</time></trkpt><trkpt lat="43.11385878344915" lon="12.229591349785073"><ele>338.0</ele><time>2026-04-18T07:46:32Z</time></trkpt><trkpt lat="43.11388124931049" lon="12.229482460750237"><ele>338.0</ele><time>2026-04-18T07:46:35Z</time></trkpt><trkpt lat="43.11394730478628" lon="12.229419482160809"><ele>337.6666666666667</ele><time>2026-04-18T07:46:38Z</time></trkpt><trkpt lat="43.11404327978553" lon="12.229426057419689"><ele>337.33333333333337</ele><time>2026-04-18T07:46:40Z</time></trkpt><trkpt lat="43.11412296391694" lon="12.229444433207217"><ele>337.0</ele><time>2026-04-18T07:47:03Z</time></trkpt><trkpt lat="43.11424357522302" lon="12.229429024048846"><ele>336.6666666666667</ele><time>2026-04-18T07:47:05Z</time></trkpt><trkpt lat="43.11432118523803" lon="12.2294160492797"><ele>336.3333333333333</ele><time>2026-04-18T07:47:06Z</time></trkpt><trkpt lat="43.11438544569168" lon="12.229414815020437"><ele>336.0</ele><time>2026-04-18T07:47:07Z</time></trkpt><trkpt lat="43.114448926292646" lon="12.229422009292737"><ele>332.0</ele><time>2026-04-18T07:47:08Z</time></trkpt><trkpt lat="43.114514909068674" lon="12.22942439028119"><ele>328.0</ele><time>2026-04-18T07:47:09Z</time></trkpt><trkpt lat="43.114607333648" lon="12.229421085043677"><ele>324.0</ele><time>2026-04-18T07:47:11Z</time></trkpt><trkpt lat="43.1146778447561" lon="12.229362127050264"><ele>320.0</ele><time>2026-04-18T07:47:13Z</time></trkpt><trkpt lat="43.114774893600355" lon="12.229278128760381"><ele>316.0</ele><time>2026-04-18T07:47:15Z</time></trkpt><trkpt lat="43.11484580493935" lon="12.229243511892784"><ele>312.0</ele><time>2026-04-18T07:47:16Z</time></trkpt><trkpt lat="43.11492107021988" lon="12.229218349664068"><ele>311.1666666666667</ele><time>2026-04-18T07:47:17Z</time></trkpt><trkpt lat="43.11499149319227" lon="12.229212288310046"><ele>310.3333333333333</ele><time>2026-04-18T07:47:18Z</time></trkpt><trkpt lat="43.115065726882975" lon="12.229199610424645"><ele>309.5</ele><time>2026-04-18T07:47:19Z</time></trkpt><trkpt lat="43.11513098771989" lon="12.229178495572784"><ele>308.66666666666663</ele><time>2026-04-18T07:47:20Z</time></trkpt><trkpt lat="43.11519486642645" lon="12.229174777433158"><ele>307.8333333333333</ele><time>2026-04-18T07:47:21.001Z</time></trkpt><trkpt lat="43.11529051431259" lon="12.229164914891767"><ele>307.0</ele><time>2026-04-18T07:47:23.001Z</time></trkpt><trkpt lat="43.11539964309952" lon="12.229151632862843"><ele>307.0</ele><time>2026-04-18T07:47:25.001Z</time></trkpt><trkpt lat="43.115466558571555" lon="12.22915331042918"><ele>307.0</ele><time>2026-04-18T07:47:26.001Z</time></trkpt><trkpt lat="43.11553081614297" lon="12.229159957198636"><ele>307.0</ele><time>2026-04-18T07:47:27.001Z</time></trkpt><trkpt lat="43.11564497877752" lon="12.229155715976928"><ele>307.0</ele><time>2026-04-18T07:47:29.001Z</time></trkpt><trkpt lat="43.1157319664963" lon="12.229138703552914"><ele>307.0</ele><time>2026-04-18T07:47:31.001Z</time></trkpt><trkpt lat="43.115799984604294" lon="12.229146730121967"><ele>307.0</ele><time>2026-04-18T07:47:33.001Z</time></trkpt><trkpt lat="43.11590013276585" lon="12.229141953454532"><ele>306.2</ele><time>2026-04-18T07:47:35.001Z</time></trkpt><trkpt lat="43.1159634498895" lon="12.229119683595705"><ele>305.4</ele><time>2026-04-18T07:47:36.001Z</time></trkpt><trkpt lat="43.116067217367025" lon="12.229220323949537"><ele>304.6</ele><time>2026-04-18T07:47:37.001Z</time></trkpt><trkpt lat="43.116172381428264" lon="12.229172298357197"><ele>303.8</ele><time>2026-04-18T07:47:39.001Z</time></trkpt><trkpt lat="43.1162725350537" lon="12.229108520078576"><ele>303.0</ele><time>2026-04-18T07:47:41.001Z</time></trkpt><trkpt lat="43.116360824311954" lon="12.229024040367388"><ele>302.8</ele><time>2026-04-18T07:47:43.001Z</time></trkpt><trkpt lat="43.11644275988628" lon="12.228939121228045"><ele>302.6</ele><time>2026-04-18T07:47:45.001Z</time></trkpt><trkpt lat="43.116525128040415" lon="12.22884150366649"><ele>302.4</ele><time>2026-04-18T07:47:47.001Z</time></trkpt><trkpt lat="43.11658114027639" lon="12.228747630705758"><ele>302.2</ele><time>2026-04-18T07:47:49.001Z</time></trkpt><trkpt lat="43.11660138713608" lon="12.228577602499822"><ele>302.0</ele><time>2026-04-18T07:47:51.001Z</time></trkpt><trkpt lat="43.11663684220857" lon="12.228466147469442"><ele>302.0</ele><time>2026-04-18T07:47:53.001Z</time></trkpt><trkpt lat="43.11671867878597" lon="12.228378276129838"><ele>302.0</ele><time>2026-04-18T07:47:55Z</time></trkpt><trkpt lat="43.11683238265171" lon="12.228337827062395"><ele>302.0</ele><time>2026-04-18T07:47:57Z</time></trkpt><trkpt lat="43.11689815618894" lon="12.228297265234314"><ele>302.0</ele><time>2026-04-18T07:47:58Z</time></trkpt><trkpt lat="43.116978532076985" lon="12.228212733985444"><ele>302.0</ele><time>2026-04-18T07:47:59Z</time></trkpt><trkpt lat="43.11704900684367" lon="12.228134720520982"><ele>303.5</ele><time>2026-04-18T07:48:00Z</time></trkpt><trkpt lat="43.1171157413643" lon="12.22806322766228"><ele>305.0</ele><time>2026-04-18T07:48:01Z</time></trkpt><trkpt lat="43.11716871677473" lon="12.228006813278276"><ele>306.5</ele><time>2026-04-18T07:48:02Z</time></trkpt><trkpt lat="43.11725864213884" lon="12.227941051441354"><ele>308.0</ele><time>2026-04-18T07:48:04Z</time></trkpt><trkpt lat="43.117351071077245" lon="12.228002607190765"><ele>309.5</ele><time>2026-04-18T07:48:06Z</time></trkpt><trkpt lat="43.117428670520084" lon="12.228057791461119"><ele>311.0</ele><time>2026-04-18T07:48:07Z</time></trkpt><trkpt lat="43.11749814480157" lon="12.228121398145904"><ele>307.2</ele><time>2026-04-18T07:48:08Z</time></trkpt><trkpt lat="43.117571652669646" lon="12.228165425524846"><ele>303.40000000000003</ele><time>2026-04-18T07:48:09Z</time></trkpt><trkpt lat="43.11767834304188" lon="12.228259407489505"><ele>299.6</ele><time>2026-04-18T07:48:11Z</time></trkpt><trkpt lat="43.11777120049069" lon="12.228357131057141"><ele>295.8</ele><time>2026-04-18T07:48:13Z</time></trkpt><trkpt lat="43.11788679538622" lon="12.228417654000783"><ele>292.0</ele><time>2026-04-18T07:48:15Z</time></trkpt><trkpt lat="43.1179603419682" lon="12.228420930936766"><ele>292.0</ele><time>2026-04-18T07:48:16Z</time></trkpt><trkpt lat="43.11803310939907" lon="12.228361894433174"><ele>292.0</ele><time>2026-04-18T07:48:17Z</time></trkpt><trkpt lat="43.11810227855579" lon="12.228362486793461"><ele>292.0</ele><time>2026-04-18T07:48:18Z</time></trkpt><trkpt lat="43.11820042992892" lon="12.228376405934442"><ele>292.0</ele><time>2026-04-18T07:48:20Z</time></trkpt><trkpt lat="43.11826599881795" lon="12.228423426076466"><ele>292.0</ele><time>2026-04-18T07:48:22Z</time></trkpt><trkpt lat="43.118310268710374" lon="12.228537665236868"><ele>292.0</ele><time>2026-04-18T07:48:24Z</time></trkpt><trkpt lat="43.118350962253835" lon="12.228619212531582"><ele>292.0</ele><time>2026-04-18T07:48:26Z</time></trkpt><trkpt lat="43.118378318233574" lon="12.228739033393497"><ele>292.0</ele><time>2026-04-18T07:48:30Z</time></trkpt><trkpt lat="43.118498888821605" lon="12.228698548352757"><ele>292.0</ele><time>2026-04-18T07:48:31Z</time></trkpt><trkpt lat="43.11859943035035" lon="12.228686440421003"><ele>292.0</ele><time>2026-04-18T07:48:32Z</time></trkpt><trkpt lat="43.118694501365255" lon="12.228657102790564"><ele>292.0</ele><time>2026-04-18T07:48:33Z</time></trkpt><trkpt lat="43.11877612191388" lon="12.228624441969243"><ele>292.0</ele><time>2026-04-18T07:48:34Z</time></trkpt><trkpt lat="43.11885672192745" lon="12.228584389664867"><ele>292.0</ele><time>2026-04-18T07:48:35Z</time></trkpt><trkpt lat="43.11892354598326" lon="12.228544179565882"><ele>292.0</ele><time>2026-04-18T07:48:36Z</time></trkpt><trkpt lat="43.11899141050059" lon="12.228491173364626"><ele>292.0</ele><time>2026-04-18T07:48:37Z</time></trkpt><trkpt lat="43.11907411772569" lon="12.228417496945415"><ele>292.0</ele><time>2026-04-18T07:48:38Z</time></trkpt><trkpt lat="43.11916535848919" lon="12.228326032042478"><ele>292.0</ele><time>2026-04-18T07:48:39Z</time></trkpt><trkpt lat="43.11923357459813" lon="12.228261072844935"><ele>292.0</ele><time>2026-04-18T07:48:40Z</time></trkpt><trkpt lat="43.11929854247516" lon="12.228240585208217"><ele>292.0</ele><time>2026-04-18T07:48:41Z</time></trkpt><trkpt lat="43.11936646987307" lon="12.228320865026694"><ele>292.0</ele><time>2026-04-18T07:48:42Z</time></trkpt><trkpt lat="43.11944241418997" lon="12.22836470639042"><ele>292.0</ele><time>2026-04-18T07:48:43Z</time></trkpt><trkpt lat="43.11953329720157" lon="12.228395527995259"><ele>292.0</ele><time>2026-04-18T07:48:44Z</time></trkpt><trkpt lat="43.11964919347541" lon="12.228388586109611"><ele>292.0</ele><time>2026-04-18T07:48:45Z</time></trkpt><trkpt lat="43.11976857347957" lon="12.228356957934775"><ele>292.0</ele><time>2026-04-18T07:48:46Z</time></trkpt><trkpt lat="43.119890177516346" lon="12.228328560439884"><ele>292.0</ele><time>2026-04-18T07:48:47Z</time></trkpt><trkpt lat="43.12001021458251" lon="12.228330057726714"><ele>292.0</ele><time>2026-04-18T07:48:48Z</time></trkpt><trkpt lat="43.12012846979622" lon="12.228300809397584"><ele>292.0</ele><time>2026-04-18T07:48:49Z</time></trkpt><trkpt lat="43.12023315933047" lon="12.228268266826205"><ele>292.25</ele><time>2026-04-18T07:48:50Z</time></trkpt><trkpt lat="43.12034014004843" lon="12.228227554624047"><ele>292.5</ele><time>2026-04-18T07:48:51Z</time></trkpt><trkpt lat="43.12044182442721" lon="12.22818447270766"><ele>292.75</ele><time>2026-04-18T07:48:52Z</time></trkpt><trkpt lat="43.12055443173347" lon="12.228134376975484"><ele>293.0</ele><time>2026-04-18T07:48:53Z</time></trkpt><trkpt lat="43.12066468838377" lon="12.228083328930245"><ele>299.25</ele><time>2026-04-18T07:48:54Z</time></trkpt><trkpt lat="43.120780900275975" lon="12.228045487230663"><ele>305.5</ele><time>2026-04-18T07:48:55Z</time></trkpt><trkpt lat="43.12090953046963" lon="12.228019591353666"><ele>311.75</ele><time>2026-04-18T07:48:56Z</time></trkpt><trkpt lat="43.12103831951763" lon="12.228004150055826"><ele>318.0</ele><time>2026-04-18T07:48:57Z</time></trkpt><trkpt lat="43.121173046832745" lon="12.228001878865616"><ele>318.0</ele><time>2026-04-18T07:48:58Z</time></trkpt><trkpt lat="43.121303164073524" lon="12.228003854272972"><ele>318.0</ele><time>2026-04-18T07:48:59Z</time></trkpt><trkpt lat="43.12143392104961" lon="12.228016063038243"><ele>318.0</ele><time>2026-04-18T07:49:00Z</time></trkpt><trkpt lat="43.12156237607714" lon="12.228044716341751"><ele>318.0</ele><time>2026-04-18T07:49:01Z</time></trkpt><trkpt lat="43.12168641932952" lon="12.228071459782901"><ele>318.25</ele><time>2026-04-18T07:49:02Z</time></trkpt><trkpt lat="43.12181036421078" lon="12.228085766974159"><ele>318.5</ele><time>2026-04-18T07:49:03Z</time></trkpt><trkpt lat="43.121927173427224" lon="12.22809614657445"><ele>318.75</ele><time>2026-04-18T07:49:04Z</time></trkpt><trkpt lat="43.122047129210365" lon="12.228111239323589"><ele>319.0</ele><time>2026-04-18T07:49:05Z</time></trkpt><trkpt lat="43.122165826970104" lon="12.228115805315053"><ele>319.0</ele><time>2026-04-18T07:49:06.001Z</time></trkpt><trkpt lat="43.12226939947913" lon="12.22811236654403"><ele>319.0</ele><time>2026-04-18T07:49:07.001Z</time></trkpt><trkpt lat="43.122358119876175" lon="12.228109576482504"><ele>319.0</ele><time>2026-04-18T07:49:08.001Z</time></trkpt><trkpt lat="43.12242832856288" lon="12.228106279960912"><ele>319.0</ele><time>2026-04-18T07:49:09.001Z</time></trkpt><trkpt lat="43.12249025811783" lon="12.228090463831466"><ele>319.0</ele><time>2026-04-18T07:49:11.001Z</time></trkpt><trkpt lat="43.1223996867321" lon="12.228110934853008"><ele>319.0</ele><time>2026-04-18T07:49:36.001Z</time></trkpt><trkpt lat="43.122242456300384" lon="12.22783624372766"><ele>319.0</ele><time>2026-04-18T07:49:37.001Z</time></trkpt><trkpt lat="43.12213800402372" lon="12.22775786925566"><ele>319.0</ele><time>2026-04-18T07:49:38.001Z</time></trkpt><trkpt lat="43.12204740574714" lon="12.227693609231151"><ele>319.0</ele><time>2026-04-18T07:49:39.001Z</time></trkpt><trkpt lat="43.1219498289777" lon="12.227623271293721"><ele>319.0</ele><time>2026-04-18T07:49:40.001Z</time></trkpt><trkpt lat="43.12184563731444" lon="12.22754725310488"><ele>319.0</ele><time>2026-04-18T07:49:41.001Z</time></trkpt><trkpt lat="43.121745607403824" lon="12.227474271243128"><ele>319.0</ele><time>2026-04-18T07:49:42.001Z</time></trkpt><trkpt lat="43.121634892382446" lon="12.22741873837607"><ele>319.0</ele><time>2026-04-18T07:49:43.001Z</time></trkpt><trkpt lat="43.12153329001882" lon="12.22733638899686"><ele>319.0</ele><time>2026-04-18T07:49:44.001Z</time></trkpt><trkpt lat="43.1214473197578" lon="12.227263923781074"><ele>319.0</ele><time>2026-04-18T07:49:45Z</time></trkpt><trkpt lat="43.121368874591155" lon="12.22717532387191"><ele>319.0</ele><time>2026-04-18T07:49:46Z</time></trkpt><trkpt lat="43.121276838928615" lon="12.227099136909334"><ele>320.2</ele><time>2026-04-18T07:49:47Z</time></trkpt><trkpt lat="43.12118200457718" lon="12.227023265677294"><ele>321.4</ele><time>2026-04-18T07:49:48Z</time></trkpt><trkpt lat="43.12110023826069" lon="12.226958999464978"><ele>322.6</ele><time>2026-04-18T07:49:49Z</time></trkpt><trkpt lat="43.1210161836435" lon="12.226893563416281"><ele>323.8</ele><time>2026-04-18T07:49:50Z</time></trkpt><trkpt lat="43.12092589583417" lon="12.226823229315354"><ele>325.0</ele><time>2026-04-18T07:49:51Z</time></trkpt><trkpt lat="43.12082655132714" lon="12.226771840194315"><ele>327.75</ele><time>2026-04-18T07:49:52Z</time></trkpt><trkpt lat="43.12072801100915" lon="12.226684677313548"><ele>330.5</ele><time>2026-04-18T07:49:53Z</time></trkpt><trkpt lat="43.120623946001075" lon="12.226607957403333"><ele>333.25</ele><time>2026-04-18T07:49:54Z</time></trkpt><trkpt lat="43.12052503391871" lon="12.226529038169533"><ele>336.0</ele><time>2026-04-18T07:49:55Z</time></trkpt><trkpt lat="43.12042599864001" lon="12.226455010752494"><ele>336.6</ele><time>2026-04-18T07:49:56Z</time></trkpt><trkpt lat="43.120330749465644" lon="12.226374562901196"><ele>337.20000000000005</ele><time>2026-04-18T07:49:57Z</time></trkpt><trkpt lat="43.120235292001645" lon="12.226317506671888"><ele>337.79999999999995</ele><time>2026-04-18T07:49:58Z</time></trkpt><trkpt lat="43.12013915321009" lon="12.226261648909412"><ele>338.4</ele><time>2026-04-18T07:49:59Z</time></trkpt><trkpt lat="43.12005362554726" lon="12.22618327707157"><ele>339.0</ele><time>2026-04-18T07:50:00Z</time></trkpt><trkpt lat="43.119996261141" lon="12.22612749905163"><ele>339.0</ele><time>2026-04-18T07:50:01Z</time></trkpt><trkpt lat="43.11990699788298" lon="12.22601570728528"><ele>339.0</ele><time>2026-04-18T07:50:03Z</time></trkpt><trkpt lat="43.119862004217886" lon="12.225936929238905"><ele>339.0</ele><time>2026-04-18T07:50:04Z</time></trkpt><trkpt lat="43.119793227186626" lon="12.225853778057571"><ele>339.0</ele><time>2026-04-18T07:50:05Z</time></trkpt><trkpt lat="43.119731902003416" lon="12.225754035705512"><ele>339.0</ele><time>2026-04-18T07:50:06Z</time></trkpt><trkpt lat="43.11967816644837" lon="12.225675625932531"><ele>344.0</ele><time>2026-04-18T07:50:07Z</time></trkpt><trkpt lat="43.11964468464844" lon="12.225591316427744"><ele>349.0</ele><time>2026-04-18T07:50:08Z</time></trkpt><trkpt lat="43.11962247070962" lon="12.225475964445748"><ele>354.0</ele><time>2026-04-18T07:50:09Z</time></trkpt><trkpt lat="43.11955695527483" lon="12.225273025097792"><ele>359.0</ele><time>2026-04-18T07:50:11Z</time></trkpt><trkpt lat="43.119511710517955" lon="12.22518238361345"><ele>364.0</ele><time>2026-04-18T07:50:12Z</time></trkpt><trkpt lat="43.11945106587983" lon="12.225075335015378"><ele>364.0</ele><time>2026-04-18T07:50:13Z</time></trkpt><trkpt lat="43.119386226837605" lon="12.22495535018995"><ele>364.0</ele><time>2026-04-18T07:50:14Z</time></trkpt><trkpt lat="43.11931365661701" lon="12.22483035872327"><ele>364.0</ele><time>2026-04-18T07:50:15Z</time></trkpt><trkpt lat="43.11926055597371" lon="12.224712401763322"><ele>364.0</ele><time>2026-04-18T07:50:16Z</time></trkpt><trkpt lat="43.11919016563353" lon="12.224604833983655"><ele>364.0</ele><time>2026-04-18T07:50:17Z</time></trkpt><trkpt lat="43.119136440693595" lon="12.224498341891566"><ele>361.79999999999995</ele><time>2026-04-18T07:50:18Z</time></trkpt><trkpt lat="43.11907468280099" lon="12.224397115715282"><ele>359.59999999999997</ele><time>2026-04-18T07:50:19Z</time></trkpt><trkpt lat="43.11901026369492" lon="12.224282958711814"><ele>357.4</ele><time>2026-04-18T07:50:20Z</time></trkpt><trkpt lat="43.11894694269076" lon="12.224185782782344"><ele>355.2</ele><time>2026-04-18T07:50:21Z</time></trkpt><trkpt lat="43.11888707257443" lon="12.224095993098919"><ele>353.0</ele><time>2026-04-18T07:50:22Z</time></trkpt><trkpt lat="43.11883075840892" lon="12.224011131155395"><ele>357.4</ele><time>2026-04-18T07:50:23Z</time></trkpt><trkpt lat="43.118755841443836" lon="12.223936500078468"><ele>361.79999999999995</ele><time>2026-04-18T07:50:24Z</time></trkpt><trkpt lat="43.11866946934225" lon="12.223848509637106"><ele>366.2</ele><time>2026-04-18T07:50:25Z</time></trkpt><trkpt lat="43.11859317038908" lon="12.223751901039686"><ele>370.6</ele><time>2026-04-18T07:50:26Z</time></trkpt><trkpt lat="43.118533763017275" lon="12.223667622559685"><ele>375.0</ele><time>2026-04-18T07:50:27Z</time></trkpt><trkpt lat="43.118488838721596" lon="12.223599615787029"><ele>375.0</ele><time>2026-04-18T07:50:28Z</time></trkpt><trkpt lat="43.11841178262612" lon="12.223487185132317"><ele>375.0</ele><time>2026-04-18T07:50:30Z</time></trkpt><trkpt lat="43.118356714018375" lon="12.223400765207886"><ele>375.0</ele><time>2026-04-18T07:50:31Z</time></trkpt><trkpt lat="43.11831039713135" lon="12.2233005288622"><ele>375.0</ele><time>2026-04-18T07:50:32Z</time></trkpt><trkpt lat="43.118265067681634" lon="12.223206834025063"><ele>375.0</ele><time>2026-04-18T07:50:33Z</time></trkpt><trkpt lat="43.11818613649596" lon="12.223094256863808"><ele>373.8571428571429</ele><time>2026-04-18T07:50:35Z</time></trkpt><trkpt lat="43.11812278354332" lon="12.223053794845729"><ele>372.71428571428567</ele><time>2026-04-18T07:50:36Z</time></trkpt><trkpt lat="43.118042297633494" lon="12.22302837989929"><ele>371.57142857142856</ele><time>2026-04-18T07:50:37Z</time></trkpt><trkpt lat="43.11797442805361" lon="12.223014120451667"><ele>370.42857142857144</ele><time>2026-04-18T07:50:38Z</time></trkpt><trkpt lat="43.11791023108477" lon="12.222969011037108"><ele>369.28571428571433</ele><time>2026-04-18T07:50:39Z</time></trkpt><trkpt lat="43.11784992454198" lon="12.222925495881094"><ele>368.1428571428571</ele><time>2026-04-18T07:50:40Z</time></trkpt><trkpt lat="43.11778505458774" lon="12.222914656899942"><ele>367.0</ele><time>2026-04-18T07:50:41Z</time></trkpt><trkpt lat="43.11766052426" lon="12.222973492421035"><ele>367.0</ele><time>2026-04-18T07:50:43Z</time></trkpt><trkpt lat="43.11758779348315" lon="12.223005881512153"><ele>367.0</ele><time>2026-04-18T07:50:44Z</time></trkpt><trkpt lat="43.117510256280106" lon="12.22300820229944"><ele>367.0</ele><time>2026-04-18T07:50:45Z</time></trkpt><trkpt lat="43.11743313211183" lon="12.22298035373186"><ele>367.0</ele><time>2026-04-18T07:50:46Z</time></trkpt><trkpt lat="43.11736150621186" lon="12.22296630154025"><ele>367.0</ele><time>2026-04-18T07:50:47Z</time></trkpt><trkpt lat="43.11728845656752" lon="12.222944815971418"><ele>367.0</ele><time>2026-04-18T07:50:48Z</time></trkpt><trkpt lat="43.11720829173339" lon="12.222904430630251"><ele>367.0</ele><time>2026-04-18T07:50:50Z</time></trkpt><trkpt lat="43.11711104696537" lon="12.222916162481788"><ele>367.0</ele><time>2026-04-18T07:50:52Z</time></trkpt><trkpt lat="43.11698540836201" lon="12.222905457359298"><ele>367.0</ele><time>2026-04-18T07:50:54Z</time></trkpt><trkpt lat="43.11691617936848" lon="12.222891394404225"><ele>367.0</ele><time>2026-04-18T07:50:55Z</time></trkpt><trkpt lat="43.116842891799685" lon="12.222895052018103"><ele>367.0</ele><time>2026-04-18T07:50:56Z</time></trkpt><trkpt lat="43.11677375423664" lon="12.222899345406768"><ele>367.0</ele><time>2026-04-18T07:50:57Z</time></trkpt><trkpt lat="43.11669055556824" lon="12.222901690681956"><ele>367.0</ele><time>2026-04-18T07:50:58Z</time></trkpt><trkpt lat="43.11661333368016" lon="12.222895109489054"><ele>367.0</ele><time>2026-04-18T07:50:59Z</time></trkpt><trkpt lat="43.11651850700969" lon="12.222893017783958"><ele>367.0</ele><time>2026-04-18T07:51:00Z</time></trkpt><trkpt lat="43.116432680170746" lon="12.222887715861743"><ele>367.0</ele><time>2026-04-18T07:51:01Z</time></trkpt><trkpt lat="43.11633845595358" lon="12.222864071232413"><ele>367.0</ele><time>2026-04-18T07:51:02Z</time></trkpt><trkpt lat="43.116259303298925" lon="12.22283793595348"><ele>367.0</ele><time>2026-04-18T07:51:03Z</time></trkpt><trkpt lat="43.11616610152292" lon="12.222822873572285"><ele>368.20000000000005</ele><time>2026-04-18T07:51:04Z</time></trkpt><trkpt lat="43.116085106053234" lon="12.222788095678894"><ele>369.4</ele><time>2026-04-18T07:51:05Z</time></trkpt><trkpt lat="43.11600842575603" lon="12.222756676682726"><ele>370.6</ele><time>2026-04-18T07:51:06Z</time></trkpt><trkpt lat="43.115877211875116" lon="12.222738427942039"><ele>371.79999999999995</ele><time>2026-04-18T07:51:08Z</time></trkpt><trkpt lat="43.115784509633045" lon="12.222719157011827"><ele>373.0</ele><time>2026-04-18T07:51:09Z</time></trkpt><trkpt lat="43.1156801683699" lon="12.222741834733515"><ele>375.79999999999995</ele><time>2026-04-18T07:51:10Z</time></trkpt><trkpt lat="43.11559859772435" lon="12.222766061901005"><ele>378.6</ele><time>2026-04-18T07:51:11Z</time></trkpt><trkpt lat="43.11549507207934" lon="12.222811137869517"><ele>381.4</ele><time>2026-04-18T07:51:12Z</time></trkpt><trkpt lat="43.11538859877374" lon="12.22280407716529"><ele>384.20000000000005</ele><time>2026-04-18T07:51:13Z</time></trkpt><trkpt lat="43.11530017299383" lon="12.222814417027886"><ele>387.0</ele><time>2026-04-18T07:51:14Z</time></trkpt><trkpt lat="43.11521425942701" lon="12.22284324515253"><ele>387.0</ele><time>2026-04-18T07:51:15Z</time></trkpt><trkpt lat="43.11512320227861" lon="12.222851768596842"><ele>387.0</ele><time>2026-04-18T07:51:16Z</time></trkpt><trkpt lat="43.11502539545891" lon="12.2228617619217"><ele>387.0</ele><time>2026-04-18T07:51:17Z</time></trkpt><trkpt lat="43.11493034651489" lon="12.222886335641412"><ele>387.0</ele><time>2026-04-18T07:51:18Z</time></trkpt><trkpt lat="43.11483488805476" lon="12.222903552221231"><ele>387.0</ele><time>2026-04-18T07:51:19Z</time></trkpt><trkpt lat="43.114751754588" lon="12.222915181384229"><ele>391.8</ele><time>2026-04-18T07:51:20Z</time></trkpt><trkpt lat="43.1146800033213" lon="12.222912448414943"><ele>396.6</ele><time>2026-04-18T07:51:21Z</time></trkpt><trkpt lat="43.11457724022066" lon="12.222926112503112"><ele>401.40000000000003</ele><time>2026-04-18T07:51:23Z</time></trkpt><trkpt lat="43.11449699068298" lon="12.222916524224244"><ele>406.20000000000005</ele><time>2026-04-18T07:51:25Z</time></trkpt><trkpt lat="43.11448243789402" lon="12.22275239890777"><ele>411.0</ele><time>2026-04-18T07:51:27Z</time></trkpt><trkpt lat="43.114535413613744" lon="12.222657757688598"><ele>411.0</ele><time>2026-04-18T07:51:28Z</time></trkpt><trkpt lat="43.11455098298589" lon="12.222535529659845"><ele>411.0</ele><time>2026-04-18T07:51:29Z</time></trkpt><trkpt lat="43.1145852077986" lon="12.222428699950257"><ele>411.0</ele><time>2026-04-18T07:51:30Z</time></trkpt><trkpt lat="43.11458240080692" lon="12.222319916810983"><ele>411.0</ele><time>2026-04-18T07:51:31Z</time></trkpt><trkpt lat="43.11457232475288" lon="12.222206986590287"><ele>411.0</ele><time>2026-04-18T07:51:32Z</time></trkpt><trkpt lat="43.11453406743478" lon="12.22213768317993"><ele>411.0</ele><time>2026-04-18T07:51:33Z</time></trkpt><trkpt lat="43.11447029872602" lon="12.22205845605639"><ele>409.0</ele><time>2026-04-18T07:51:34Z</time></trkpt><trkpt lat="43.114398208020006" lon="12.221968206835136"><ele>407.0</ele><time>2026-04-18T07:51:35Z</time></trkpt><trkpt lat="43.11434574435205" lon="12.22187277744782"><ele>405.0</ele><time>2026-04-18T07:51:36Z</time></trkpt><trkpt lat="43.11430471128306" lon="12.221775806995318"><ele>403.0</ele><time>2026-04-18T07:51:37Z</time></trkpt><trkpt lat="43.11424974049579" lon="12.221697536341868"><ele>401.0</ele><time>2026-04-18T07:51:38Z</time></trkpt><trkpt lat="43.11417261574644" lon="12.22161187328961"><ele>399.0</ele><time>2026-04-18T07:51:39Z</time></trkpt><trkpt lat="43.114073949395" lon="12.22156214694677"><ele>399.0</ele><time>2026-04-18T07:51:40Z</time></trkpt><trkpt lat="43.11399776597157" lon="12.221510283437253"><ele>399.0</ele><time>2026-04-18T07:51:41Z</time></trkpt><trkpt lat="43.113921219098785" lon="12.22146589044521"><ele>399.0</ele><time>2026-04-18T07:51:42Z</time></trkpt><trkpt lat="43.11384105193949" lon="12.22141436902511"><ele>399.0</ele><time>2026-04-18T07:51:43Z</time></trkpt><trkpt lat="43.11375033124798" lon="12.221391869656093"><ele>399.0</ele><time>2026-04-18T07:51:44Z</time></trkpt><trkpt lat="43.1136770929684" lon="12.221349554101792"><ele>399.0</ele><time>2026-04-18T07:51:45Z</time></trkpt><trkpt lat="43.11357736897615" lon="12.221327148982011"><ele>399.0</ele><time>2026-04-18T07:51:47Z</time></trkpt><trkpt lat="43.11351837309859" lon="12.221424879400134"><ele>399.0</ele><time>2026-04-18T07:51:50Z</time></trkpt><trkpt lat="43.11356526282801" lon="12.221550487522368"><ele>399.0</ele><time>2026-04-18T07:51:52Z</time></trkpt><trkpt lat="43.11363755600433" lon="12.221649146067737"><ele>399.0</ele><time>2026-04-18T07:51:54Z</time></trkpt><trkpt lat="43.11366686192128" lon="12.221743174000938"><ele>399.0</ele><time>2026-04-18T07:51:56Z</time></trkpt><trkpt lat="43.11366439522533" lon="12.221846838020602"><ele>399.0</ele><time>2026-04-18T07:51:58Z</time></trkpt><trkpt lat="43.113580083582896" lon="12.221880178234429"><ele>403.0</ele><time>2026-04-18T07:52:22Z</time></trkpt><trkpt lat="43.11351687780906" lon="12.221880971525044"><ele>407.0</ele><time>2026-04-18T07:52:25Z</time></trkpt><trkpt lat="43.11338018570738" lon="12.221693758510067"><ele>411.0</ele><time>2026-04-18T07:52:42Z</time></trkpt><trkpt lat="43.113275808262735" lon="12.221687764030488"><ele>415.0</ele><time>2026-04-18T07:52:44Z</time></trkpt><trkpt lat="43.11315781628111" lon="12.221641570536221"><ele>418.0</ele><time>2026-04-18T07:52:46Z</time></trkpt><trkpt lat="43.113097686809674" lon="12.221872728396308"><ele>421.0</ele><time>2026-04-18T07:52:47Z</time></trkpt><trkpt lat="43.11306178246507" lon="12.221616271725898"><ele>424.0</ele><time>2026-04-18T07:52:48Z</time></trkpt><trkpt lat="43.11300094187605" lon="12.221574190168266"><ele>427.0</ele><time>2026-04-18T07:52:50Z</time></trkpt><trkpt lat="43.11292704231713" lon="12.221493075076712"><ele>427.0</ele><time>2026-04-18T07:52:53Z</time></trkpt><trkpt lat="43.11288205393154" lon="12.221429467238037"><ele>427.0</ele><time>2026-04-18T07:52:55Z</time></trkpt><trkpt lat="43.11281848124584" lon="12.221392876355317"><ele>427.0</ele><time>2026-04-18T07:52:58Z</time></trkpt><trkpt lat="43.11288942655193" lon="12.221436271249557"><ele>427.0</ele><time>2026-04-18T07:53:04Z</time></trkpt><trkpt lat="43.11293949637239" lon="12.221488983012796"><ele>427.0</ele><time>2026-04-18T07:53:05Z</time></trkpt><trkpt lat="43.11300584636884" lon="12.221553511997417"><ele>427.0</ele><time>2026-04-18T07:53:06Z</time></trkpt><trkpt lat="43.11306310879534" lon="12.221618575217818"><ele>427.0</ele><time>2026-04-18T07:53:08Z</time></trkpt><trkpt lat="43.11314334889458" lon="12.221678504004585"><ele>427.0</ele><time>2026-04-18T07:53:26Z</time></trkpt><trkpt lat="43.113214216913725" lon="12.221748668246605"><ele>427.00000000000006</ele><time>2026-04-18T07:53:28Z</time></trkpt><trkpt lat="43.113319043483436" lon="12.22179735818306"><ele>427.00000000000006</ele><time>2026-04-18T07:53:30Z</time></trkpt><trkpt lat="43.11340939998439" lon="12.221833541657746"><ele>427.0</ele><time>2026-04-18T07:53:33Z</time></trkpt><trkpt lat="43.113475430160435" lon="12.221657606964156"><ele>427.0</ele><time>2026-04-18T07:53:35Z</time></trkpt><trkpt lat="43.11339635004402" lon="12.221783070325396"><ele>424.6</ele><time>2026-04-18T07:53:39Z</time></trkpt><trkpt lat="43.11345517031225" lon="12.2215472670461"><ele>422.20000000000005</ele><time>2026-04-18T07:53:40Z</time></trkpt><trkpt lat="43.113397396244224" lon="12.221435879570894"><ele>419.8</ele><time>2026-04-18T07:53:42Z</time></trkpt><trkpt lat="43.11334574025043" lon="12.221347758719265"><ele>417.4</ele><time>2026-04-18T07:53:44Z</time></trkpt><trkpt lat="43.11328415316628" lon="12.221293850160254"><ele>415.0</ele><time>2026-04-18T07:53:46Z</time></trkpt><trkpt lat="43.11324136773912" lon="12.221216418207533"><ele>414.33333333333337</ele><time>2026-04-18T07:53:48Z</time></trkpt><trkpt lat="43.11321804397352" lon="12.221134913867903"><ele>413.6666666666667</ele><time>2026-04-18T07:53:51Z</time></trkpt><trkpt lat="43.113162103842356" lon="12.221094688085305"><ele>413.0</ele><time>2026-04-18T07:53:58Z</time></trkpt><trkpt lat="43.11310413893383" lon="12.22102237869487"><ele>412.33333333333337</ele><time>2026-04-18T07:54:00Z</time></trkpt><trkpt lat="43.11306298188442" lon="12.22091881945469"><ele>411.6666666666667</ele><time>2026-04-18T07:54:03Z</time></trkpt><trkpt lat="43.11309343439555" lon="12.221020681328058"><ele>411.0</ele><time>2026-04-18T07:54:16Z</time></trkpt><trkpt lat="43.11318275250587" lon="12.221100823295325"><ele>409.0</ele><time>2026-04-18T07:54:18Z</time></trkpt><trkpt lat="43.11327542376864" lon="12.221150699111616"><ele>407.0</ele><time>2026-04-18T07:54:19Z</time></trkpt><trkpt lat="43.11335541988433" lon="12.221203401789772"><ele>405.0</ele><time>2026-04-18T07:54:20Z</time></trkpt><trkpt lat="43.1134269743176" lon="12.221249839355917"><ele>403.0</ele><time>2026-04-18T07:54:21Z</time></trkpt><trkpt lat="43.11348611892376" lon="12.22128580480929"><ele>401.0</ele><time>2026-04-18T07:54:22Z</time></trkpt><trkpt lat="43.11355921414348" lon="12.221337609618649"><ele>399.0</ele><time>2026-04-18T07:54:24Z</time></trkpt><trkpt lat="43.11365846251013" lon="12.221359739233645"><ele>399.0</ele><time>2026-04-18T07:54:26Z</time></trkpt><trkpt lat="43.113740525073396" lon="12.22141058613494"><ele>399.0</ele><time>2026-04-18T07:54:28Z</time></trkpt><trkpt lat="43.113814521081984" lon="12.221427626881281"><ele>399.0</ele><time>2026-04-18T07:54:30Z</time></trkpt><trkpt lat="43.11387381836629" lon="12.221474938715685"><ele>399.0</ele><time>2026-04-18T07:54:32Z</time></trkpt><trkpt lat="43.1138312506474" lon="12.221411304176266"><ele>399.0</ele><time>2026-04-18T07:55:14Z</time></trkpt><trkpt lat="43.11376828332286" lon="12.221382526264037"><ele>399.0</ele><time>2026-04-18T07:55:15Z</time></trkpt><trkpt lat="43.113665342604385" lon="12.221335479348921"><ele>399.0</ele><time>2026-04-18T07:55:17Z</time></trkpt><trkpt lat="43.11360351214179" lon="12.221307221044244"><ele>399.0</ele><time>2026-04-18T07:55:18Z</time></trkpt><trkpt lat="43.113524722369895" lon="12.221272064099173"><ele>399.0</ele><time>2026-04-18T07:55:19Z</time></trkpt><trkpt lat="43.11346281107822" lon="12.221238988568102"><ele>399.0</ele><time>2026-04-18T07:55:20Z</time></trkpt><trkpt lat="43.1133780536316" lon="12.221189420786462"><ele>399.0</ele><time>2026-04-18T07:55:22Z</time></trkpt><trkpt lat="43.11331465227831" lon="12.221150765643713"><ele>399.0</ele><time>2026-04-18T07:55:24Z</time></trkpt><trkpt lat="43.11311462579726" lon="12.221027167211815"><ele>397.6666666666667</ele><time>2026-04-18T07:55:25Z</time></trkpt><trkpt lat="43.11307992744725" lon="12.220939807940061"><ele>396.33333333333337</ele><time>2026-04-18T07:55:27Z</time></trkpt><trkpt lat="43.11306884021713" lon="12.220846070482924"><ele>395.0</ele><time>2026-04-18T07:55:29Z</time></trkpt><trkpt lat="43.11300991433696" lon="12.220763531213514"><ele>393.6666666666667</ele><time>2026-04-18T07:55:31Z</time></trkpt><trkpt lat="43.11297260321156" lon="12.220669593009184"><ele>392.33333333333337</ele><time>2026-04-18T07:55:33Z</time></trkpt><trkpt lat="43.112942466550386" lon="12.220593717961197"><ele>391.0</ele><time>2026-04-18T07:55:35Z</time></trkpt><trkpt lat="43.113419099874925" lon="12.22021060122716"><ele>389.20000000000005</ele><time>2026-04-18T07:55:39Z</time></trkpt><trkpt lat="43.11353611837998" lon="12.220218510916368"><ele>387.40000000000003</ele><time>2026-04-18T07:55:41Z</time></trkpt><trkpt lat="43.1136204201316" lon="12.220193549431905"><ele>385.6</ele><time>2026-04-18T07:55:43Z</time></trkpt><trkpt lat="43.113716928516304" lon="12.220160685832868"><ele>383.8</ele><time>2026-04-18T07:55:45Z</time></trkpt><trkpt lat="43.113821135586946" lon="12.220140606374022"><ele>382.0</ele><time>2026-04-18T07:55:47Z</time></trkpt><trkpt lat="43.11390632801618" lon="12.220137903735493"><ele>382.0</ele><time>2026-04-18T07:55:49.001Z</time></trkpt><trkpt lat="43.11398467021684" lon="12.22013520166397"><ele>382.0</ele><time>2026-04-18T07:55:53.001Z</time></trkpt><trkpt lat="43.11407456729761" lon="12.220091477631549"><ele>382.0</ele><time>2026-04-18T07:55:56.001Z</time></trkpt><trkpt lat="43.11417020658484" lon="12.220037373210827"><ele>382.0</ele><time>2026-04-18T07:55:58.001Z</time></trkpt><trkpt lat="43.11426268815504" lon="12.21999999803458"><ele>382.0</ele><time>2026-04-18T07:56:00.001Z</time></trkpt><trkpt lat="43.1143550314848" lon="12.219974167569383"><ele>380.0</ele><time>2026-04-18T07:56:02.001Z</time></trkpt><trkpt lat="43.11443259962261" lon="12.219909307306416"><ele>378.0</ele><time>2026-04-18T07:56:04.001Z</time></trkpt><trkpt lat="43.11449440555611" lon="12.219801606577018"><ele>376.0</ele><time>2026-04-18T07:56:06.001Z</time></trkpt><trkpt lat="43.114569471955626" lon="12.219707236796431"><ele>374.0</ele><time>2026-04-18T07:56:08.001Z</time></trkpt><trkpt lat="43.114642939551956" lon="12.219625313053209"><ele>372.0</ele><time>2026-04-18T07:56:10.001Z</time></trkpt><trkpt lat="43.11470776039328" lon="12.219516816601818"><ele>370.20000000000005</ele><time>2026-04-18T07:56:12.001Z</time></trkpt><trkpt lat="43.114749380198404" lon="12.219389717605745"><ele>368.4</ele><time>2026-04-18T07:56:14Z</time></trkpt><trkpt lat="43.11478841412045" lon="12.219272506744685"><ele>366.6</ele><time>2026-04-18T07:56:16Z</time></trkpt><trkpt lat="43.11483778454957" lon="12.219135407044046"><ele>364.79999999999995</ele><time>2026-04-18T07:56:18Z</time></trkpt><trkpt lat="43.11487366226675" lon="12.21903540582014"><ele>363.0</ele><time>2026-04-18T07:56:20Z</time></trkpt><trkpt lat="43.11491668464011" lon="12.218914396307001"><ele>359.6666666666667</ele><time>2026-04-18T07:56:22Z</time></trkpt><trkpt lat="43.11496437653387" lon="12.218816226837191"><ele>356.3333333333333</ele><time>2026-04-18T07:56:24Z</time></trkpt><trkpt lat="43.11501850348782" lon="12.21875007960931"><ele>353.0</ele><time>2026-04-18T07:56:26Z</time></trkpt><trkpt lat="43.1150759505923" lon="12.218661440080059"><ele>349.66666666666663</ele><time>2026-04-18T07:56:28Z</time></trkpt><trkpt lat="43.11510587183991" lon="12.218564811177966"><ele>346.3333333333333</ele><time>2026-04-18T07:56:30Z</time></trkpt><trkpt lat="43.11510595465721" lon="12.218439939683762"><ele>343.0</ele><time>2026-04-18T07:56:32Z</time></trkpt><trkpt lat="43.11508021714723" lon="12.2183294700463"><ele>343.0</ele><time>2026-04-18T07:56:34Z</time></trkpt><trkpt lat="43.115049758466476" lon="12.218235816460007"><ele>343.0</ele><time>2026-04-18T07:56:36Z</time></trkpt><trkpt lat="43.11499892697825" lon="12.218138628630818"><ele>343.0</ele><time>2026-04-18T07:56:40Z</time></trkpt><trkpt lat="43.11490557709553" lon="12.21808271050012"><ele>343.0</ele><time>2026-04-18T07:56:43Z</time></trkpt><trkpt lat="43.11483508934736" lon="12.218076997815354"><ele>343.0</ele><time>2026-04-18T07:56:45Z</time></trkpt><trkpt lat="43.11477212158234" lon="12.21805237619629"><ele>343.0</ele><time>2026-04-18T07:56:47Z</time></trkpt><trkpt lat="43.114711427826784" lon="12.217989414626045"><ele>340.8333333333333</ele><time>2026-04-18T07:56:49Z</time></trkpt><trkpt lat="43.11473104971619" lon="12.217899208403733"><ele>338.66666666666663</ele><time>2026-04-18T07:56:51Z</time></trkpt><trkpt lat="43.11481493983762" lon="12.21785206954675"><ele>336.5</ele><time>2026-04-18T07:56:53Z</time></trkpt><trkpt lat="43.11488883378905" lon="12.21780389044851"><ele>334.3333333333333</ele><time>2026-04-18T07:56:55Z</time></trkpt><trkpt lat="43.11494470855493" lon="12.217746465045515"><ele>332.1666666666667</ele><time>2026-04-18T07:56:57Z</time></trkpt><trkpt lat="43.11500646066701" lon="12.217673066333596"><ele>330.0</ele><time>2026-04-18T07:56:59Z</time></trkpt><trkpt lat="43.11507703283178" lon="12.21758324383381"><ele>329.7142857142857</ele><time>2026-04-18T07:57:01Z</time></trkpt><trkpt lat="43.115140863203926" lon="12.217517420878288"><ele>329.42857142857144</ele><time>2026-04-18T07:57:03Z</time></trkpt><trkpt lat="43.11518381476272" lon="12.217453151802188"><ele>329.1428571428571</ele><time>2026-04-18T07:57:05Z</time></trkpt><trkpt lat="43.11524722014033" lon="12.217378044891518"><ele>328.8571428571429</ele><time>2026-04-18T07:57:08Z</time></trkpt><trkpt lat="43.11526851051245" lon="12.217292794989662"><ele>328.57142857142856</ele><time>2026-04-18T07:57:10Z</time></trkpt><trkpt lat="43.11531194366307" lon="12.217219373072641"><ele>328.2857142857143</ele><time>2026-04-18T07:57:13Z</time></trkpt><trkpt lat="43.11535991074158" lon="12.217136951093384"><ele>328.0</ele><time>2026-04-18T07:57:16Z</time></trkpt><trkpt lat="43.11540333179854" lon="12.21706800360212"><ele>325.16666666666663</ele><time>2026-04-18T07:57:19Z</time></trkpt><trkpt lat="43.11548161027978" lon="12.21702522470042"><ele>322.3333333333333</ele><time>2026-04-18T07:57:21Z</time></trkpt><trkpt lat="43.115540278712196" lon="12.216991147708129"><ele>319.5</ele><time>2026-04-18T07:57:23Z</time></trkpt><trkpt lat="43.11560834935955" lon="12.216952022795333"><ele>316.6666666666667</ele><time>2026-04-18T07:57:25Z</time></trkpt><trkpt lat="43.115591716899026" lon="12.216868829699582"><ele>313.83333333333337</ele><time>2026-04-18T07:57:29Z</time></trkpt><trkpt lat="43.11548279813937" lon="12.21683118626678"><ele>311.0</ele><time>2026-04-18T07:57:32Z</time></trkpt><trkpt lat="43.11538565312558" lon="12.216812608051223"><ele>311.0</ele><time>2026-04-18T07:57:34Z</time></trkpt><trkpt lat="43.115299813947864" lon="12.216801144880982"><ele>311.0</ele><time>2026-04-18T07:57:36Z</time></trkpt><trkpt lat="43.115209114610046" lon="12.216802178434554"><ele>311.0</ele><time>2026-04-18T07:57:38Z</time></trkpt><trkpt lat="43.115132206643004" lon="12.216836383474726"><ele>311.0</ele><time>2026-04-18T07:57:40Z</time></trkpt><trkpt lat="43.11504956408465" lon="12.21686541423634"><ele>311.0</ele><time>2026-04-18T07:57:42Z</time></trkpt><trkpt lat="43.114975937361145" lon="12.216905824008856"><ele>311.0</ele><time>2026-04-18T07:57:44Z</time></trkpt><trkpt lat="43.11490326487801" lon="12.216956233753429"><ele>311.0</ele><time>2026-04-18T07:57:46Z</time></trkpt><trkpt lat="43.11484002768353" lon="12.216975708947485"><ele>311.0</ele><time>2026-04-18T07:57:48Z</time></trkpt><trkpt lat="43.114776238276164" lon="12.216913598052521"><ele>311.0</ele><time>2026-04-18T07:57:50Z</time></trkpt><trkpt lat="43.114779736792684" lon="12.216815054953821"><ele>311.0</ele><time>2026-04-18T07:57:52Z</time></trkpt><trkpt lat="43.114835417903635" lon="12.216757968212582"><ele>311.0</ele><time>2026-04-18T07:57:54Z</time></trkpt><trkpt lat="43.1148963128935" lon="12.216684405792716"><ele>311.0</ele><time>2026-04-18T07:57:57Z</time></trkpt><trkpt lat="43.114950854610115" lon="12.216581035001782"><ele>311.0</ele><time>2026-04-18T07:58:00Z</time></trkpt><trkpt lat="43.11501827402107" lon="12.216531657773192"><ele>311.0</ele><time>2026-04-18T07:58:02Z</time></trkpt><trkpt lat="43.11507875124954" lon="12.216469058008542"><ele>311.0</ele><time>2026-04-18T07:58:04Z</time></trkpt><trkpt lat="43.11512508706668" lon="12.216392219418884"><ele>311.0</ele><time>2026-04-18T07:58:06Z</time></trkpt><trkpt lat="43.11515758952995" lon="12.216301855477242"><ele>311.0</ele><time>2026-04-18T07:58:08Z</time></trkpt><trkpt lat="43.11522632236306" lon="12.216225322634495"><ele>311.0</ele><time>2026-04-18T07:58:10Z</time></trkpt><trkpt lat="43.11532485124024" lon="12.216175095126456"><ele>308.6</ele><time>2026-04-18T07:58:12Z</time></trkpt><trkpt lat="43.115386933678415" lon="12.216159267318067"><ele>306.20000000000005</ele><time>2026-04-18T07:58:13Z</time></trkpt><trkpt lat="43.11546819985443" lon="12.21605899167873"><ele>303.79999999999995</ele><time>2026-04-18T07:58:15Z</time></trkpt><trkpt lat="43.11556425844132" lon="12.21602131171421"><ele>301.4</ele><time>2026-04-18T07:58:17Z</time></trkpt><trkpt lat="43.11561950613824" lon="12.215955494041655"><ele>299.0</ele><time>2026-04-18T07:58:19Z</time></trkpt><trkpt lat="43.115738563027435" lon="12.215902901665011"><ele>298.5</ele><time>2026-04-18T07:58:21Z</time></trkpt><trkpt lat="43.1158677397558" lon="12.21584977533977"><ele>298.0</ele><time>2026-04-18T07:58:23Z</time></trkpt><trkpt lat="43.11593164701732" lon="12.215821048010683"><ele>297.5</ele><time>2026-04-18T07:58:24Z</time></trkpt><trkpt lat="43.115992462518776" lon="12.215788900142913"><ele>297.0</ele><time>2026-04-18T07:58:25Z</time></trkpt><trkpt lat="43.116063795449634" lon="12.215774519677387"><ele>296.5</ele><time>2026-04-18T07:58:26Z</time></trkpt><trkpt lat="43.11613852965533" lon="12.21576325133667"><ele>296.0</ele><time>2026-04-18T07:58:27Z</time></trkpt><trkpt lat="43.116208248537255" lon="12.215753623933868"><ele>296.0</ele><time>2026-04-18T07:58:28Z</time></trkpt><trkpt lat="43.11628145776575" lon="12.21574795535087"><ele>296.0</ele><time>2026-04-18T07:58:30Z</time></trkpt><trkpt lat="43.116371577743834" lon="12.215731963866604"><ele>296.0</ele><time>2026-04-18T07:58:32Z</time></trkpt><trkpt lat="43.11643695758643" lon="12.215701224084265"><ele>296.0</ele><time>2026-04-18T07:58:34Z</time></trkpt><trkpt lat="43.116531993507195" lon="12.215654590641043"><ele>296.0</ele><time>2026-04-18T07:59:00Z</time></trkpt><trkpt lat="43.11659307664489" lon="12.215631031494112"><ele>296.0</ele><time>2026-04-18T07:59:01Z</time></trkpt><trkpt lat="43.11665374891261" lon="12.215584293581779"><ele>292.8</ele><time>2026-04-18T07:59:02Z</time></trkpt><trkpt lat="43.11675363863377" lon="12.21552787616661"><ele>289.6</ele><time>2026-04-18T07:59:04Z</time></trkpt><trkpt lat="43.11682310991459" lon="12.215526649097617"><ele>286.4</ele><time>2026-04-18T07:59:05Z</time></trkpt><trkpt lat="43.116885146318005" lon="12.215508375250673"><ele>283.2</ele><time>2026-04-18T07:59:06Z</time></trkpt><trkpt lat="43.11700751191573" lon="12.215474474076798"><ele>280.0</ele><time>2026-04-18T07:59:08Z</time></trkpt><trkpt lat="43.117094552927234" lon="12.215531175995281"><ele>280.0</ele><time>2026-04-18T07:59:10Z</time></trkpt><trkpt lat="43.11716528792995" lon="12.215579753077186"><ele>280.0</ele><time>2026-04-18T07:59:12Z</time></trkpt><trkpt lat="43.11724046556495" lon="12.215593508720717"><ele>280.0</ele><time>2026-04-18T07:59:14Z</time></trkpt><trkpt lat="43.117294838674916" lon="12.215780229733872"><ele>280.0</ele><time>2026-04-18T07:59:17Z</time></trkpt><trkpt lat="43.11730124729233" lon="12.215933752157866"><ele>280.0</ele><time>2026-04-18T07:59:19Z</time></trkpt><trkpt lat="43.11730229434516" lon="12.216021080796459"><ele>282.16666666666663</ele><time>2026-04-18T07:59:20Z</time></trkpt><trkpt lat="43.11730544613388" lon="12.216119405629538"><ele>284.3333333333333</ele><time>2026-04-18T07:59:21Z</time></trkpt><trkpt lat="43.1173039621098" lon="12.216217742714564"><ele>286.5</ele><time>2026-04-18T07:59:22Z</time></trkpt><trkpt lat="43.117286219474806" lon="12.216340342380402"><ele>288.6666666666667</ele><time>2026-04-18T07:59:23Z</time></trkpt><trkpt lat="43.11727794382089" lon="12.216506132665392"><ele>290.83333333333337</ele><time>2026-04-18T07:59:25Z</time></trkpt><trkpt lat="43.11727990791574" lon="12.216618193367815"><ele>293.0</ele><time>2026-04-18T07:59:27Z</time></trkpt><trkpt lat="43.11731383644799" lon="12.216691522179936"><ele>294.0</ele><time>2026-04-18T07:59:29Z</time></trkpt><trkpt lat="43.117375112885554" lon="12.216818495842428"><ele>295.0</ele><time>2026-04-18T07:59:31Z</time></trkpt><trkpt lat="43.11740293370182" lon="12.216939109419073"><ele>296.0</ele><time>2026-04-18T07:59:33Z</time></trkpt><trkpt lat="43.117467016617944" lon="12.21698771962341"><ele>297.0</ele><time>2026-04-18T07:59:35Z</time></trkpt><trkpt lat="43.117536114129514" lon="12.217003737607651"><ele>298.0</ele><time>2026-04-18T07:59:36Z</time></trkpt><trkpt lat="43.117614967376106" lon="12.217035826200528"><ele>299.0</ele><time>2026-04-18T07:59:37Z</time></trkpt><trkpt lat="43.11767368443159" lon="12.217090179046695"><ele>296.33333333333337</ele><time>2026-04-18T07:59:38Z</time></trkpt><trkpt lat="43.11772026706538" lon="12.217170835389537"><ele>293.6666666666667</ele><time>2026-04-18T07:59:39Z</time></trkpt><trkpt lat="43.11775530644666" lon="12.217302030875185"><ele>291.0</ele><time>2026-04-18T07:59:41Z</time></trkpt><trkpt lat="43.117774963860015" lon="12.217394227251987"><ele>288.3333333333333</ele><time>2026-04-18T07:59:43Z</time></trkpt><trkpt lat="43.117785630078636" lon="12.21748686742412"><ele>285.66666666666663</ele><time>2026-04-18T07:59:45Z</time></trkpt><trkpt lat="43.117800377458465" lon="12.217570892263954"><ele>283.0</ele><time>2026-04-18T07:59:47Z</time></trkpt><trkpt lat="43.117845355533206" lon="12.217690143428701"><ele>283.0</ele><time>2026-04-18T07:59:49Z</time></trkpt><trkpt lat="43.11788848174449" lon="12.217760718222998"><ele>283.0</ele><time>2026-04-18T07:59:50Z</time></trkpt><trkpt lat="43.11796860992011" lon="12.217874369798322"><ele>283.0</ele><time>2026-04-18T07:59:52Z</time></trkpt><trkpt lat="43.118007641213275" lon="12.217974180339903"><ele>283.0</ele><time>2026-04-18T07:59:54Z</time></trkpt><trkpt lat="43.11800071138714" lon="12.218084356845544"><ele>283.0</ele><time>2026-04-18T07:59:56Z</time></trkpt><trkpt lat="43.11799960461682" lon="12.218176913243413"><ele>283.0</ele><time>2026-04-18T07:59:58Z</time></trkpt><trkpt lat="43.11799387130983" lon="12.218295794068919"><ele>282.8333333333333</ele><time>2026-04-18T08:00:00Z</time></trkpt><trkpt lat="43.11800488509553" lon="12.218458362186523"><ele>282.66666666666663</ele><time>2026-04-18T08:00:02Z</time></trkpt><trkpt lat="43.118036479470625" lon="12.218548348140095"><ele>282.5</ele><time>2026-04-18T08:00:04Z</time></trkpt><trkpt lat="43.11813352314881" lon="12.218548961643643"><ele>282.3333333333333</ele><time>2026-04-18T08:00:06Z</time></trkpt><trkpt lat="43.11820175128588" lon="12.218560017381867"><ele>282.1666666666667</ele><time>2026-04-18T08:00:07Z</time></trkpt><trkpt lat="43.11828125216168" lon="12.218579284411161"><ele>282.0</ele><time>2026-04-18T08:00:08Z</time></trkpt><trkpt lat="43.118360332429475" lon="12.218594278784213"><ele>280.8333333333333</ele><time>2026-04-18T08:00:09Z</time></trkpt><trkpt lat="43.118442630118615" lon="12.218617011465716"><ele>279.6666666666667</ele><time>2026-04-18T08:00:10Z</time></trkpt><trkpt lat="43.11853052445023" lon="12.218648085992173"><ele>278.5</ele><time>2026-04-18T08:00:11Z</time></trkpt><trkpt lat="43.11860598531239" lon="12.21867418734379"><ele>277.33333333333337</ele><time>2026-04-18T08:00:12Z</time></trkpt><trkpt lat="43.11867267009429" lon="12.218710762105937"><ele>276.1666666666667</ele><time>2026-04-18T08:00:13Z</time></trkpt><trkpt lat="43.1187598968065" lon="12.21876842030782"><ele>275.0</ele><time>2026-04-18T08:00:14Z</time></trkpt><trkpt lat="43.11885023044912" lon="12.218826254338794"><ele>275.0</ele><time>2026-04-18T08:00:15.001Z</time></trkpt><trkpt lat="43.11892538954359" lon="12.218865629262703"><ele>275.0</ele><time>2026-04-18T08:00:16.001Z</time></trkpt><trkpt lat="43.11900450691181" lon="12.218888862299744"><ele>275.0</ele><time>2026-04-18T08:00:17.001Z</time></trkpt><trkpt lat="43.11909126903331" lon="12.218904079868167"><ele>275.0</ele><time>2026-04-18T08:00:18.001Z</time></trkpt><trkpt lat="43.11916604006485" lon="12.21891165560915"><ele>275.0</ele><time>2026-04-18T08:00:19.001Z</time></trkpt><trkpt lat="43.11924392045561" lon="12.218919154137732"><ele>275.0</ele><time>2026-04-18T08:00:20.001Z</time></trkpt><trkpt lat="43.11932464906152" lon="12.21893410723146"><ele>274.7142857142857</ele><time>2026-04-18T08:00:21.001Z</time></trkpt><trkpt lat="43.11938942113394" lon="12.21895627582447"><ele>274.42857142857144</ele><time>2026-04-18T08:00:22.001Z</time></trkpt><trkpt lat="43.11944858458431" lon="12.218989826338284"><ele>274.1428571428571</ele><time>2026-04-18T08:00:23.001Z</time></trkpt><trkpt lat="43.11952080909412" lon="12.219036227612644"><ele>273.8571428571429</ele><time>2026-04-18T08:00:24.001Z</time></trkpt><trkpt lat="43.1195788078097" lon="12.219089184607602"><ele>273.57142857142856</ele><time>2026-04-18T08:00:25.001Z</time></trkpt><trkpt lat="43.11962634217067" lon="12.219160747340513"><ele>273.2857142857143</ele><time>2026-04-18T08:00:26.001Z</time></trkpt><trkpt lat="43.11967815001858" lon="12.219243731935636"><ele>273.0</ele><time>2026-04-18T08:00:27.001Z</time></trkpt><trkpt lat="43.11972747468125" lon="12.219339569516903"><ele>272.0</ele><time>2026-04-18T08:00:28Z</time></trkpt><trkpt lat="43.11977144750025" lon="12.21943381093006"><ele>271.0</ele><time>2026-04-18T08:00:29Z</time></trkpt><trkpt lat="43.1198282516201" lon="12.219544220252313"><ele>270.0</ele><time>2026-04-18T08:00:30Z</time></trkpt><trkpt lat="43.11987458564498" lon="12.219633316569814"><ele>269.0</ele><time>2026-04-18T08:00:31Z</time></trkpt><trkpt lat="43.11991935270623" lon="12.219695501531104"><ele>268.0</ele><time>2026-04-18T08:00:32Z</time></trkpt><trkpt lat="43.12002319501264" lon="12.219755814134956"><ele>267.0</ele><time>2026-04-18T08:00:34Z</time></trkpt><trkpt lat="43.1201014530874" lon="12.21978140647152"><ele>267.00000000000006</ele><time>2026-04-18T08:00:35Z</time></trkpt><trkpt lat="43.12017292894341" lon="12.219803107153503"><ele>267.0</ele><time>2026-04-18T08:00:36Z</time></trkpt><trkpt lat="43.120230104012535" lon="12.219852105078962"><ele>267.0</ele><time>2026-04-18T08:00:37Z</time></trkpt><trkpt lat="43.12028137902012" lon="12.219921401815645"><ele>267.0</ele><time>2026-04-18T08:00:38Z</time></trkpt><trkpt lat="43.12034135603324" lon="12.219995728311652"><ele>267.0</ele><time>2026-04-18T08:00:39Z</time></trkpt><trkpt lat="43.12039065892641" lon="12.220074735584276"><ele>267.00000000000006</ele><time>2026-04-18T08:00:40Z</time></trkpt><trkpt lat="43.12043041957697" lon="12.220149160244242"><ele>267.0</ele><time>2026-04-18T08:00:41Z</time></trkpt><trkpt lat="43.1204873239295" lon="12.220276486677124"><ele>268.4</ele><time>2026-04-18T08:00:43Z</time></trkpt><trkpt lat="43.12052592486042" lon="12.220408132685233"><ele>269.79999999999995</ele><time>2026-04-18T08:00:45Z</time></trkpt><trkpt lat="43.12059243802951" lon="12.220352759142495"><ele>271.2</ele><time>2026-04-18T08:00:50Z</time></trkpt><trkpt lat="43.12060200836183" lon="12.22022458493456"><ele>272.59999999999997</ele><time>2026-04-18T08:00:52Z</time></trkpt><trkpt lat="43.12058678377547" lon="12.220051294349256"><ele>274.0</ele><time>2026-04-18T08:00:54Z</time></trkpt><trkpt lat="43.12057922318919" lon="12.219950801383241"><ele>272.59999999999997</ele><time>2026-04-18T08:00:55Z</time></trkpt><trkpt lat="43.12052918101335" lon="12.219802721889954"><ele>271.2</ele><time>2026-04-18T08:00:57Z</time></trkpt><trkpt lat="43.120491261713944" lon="12.219711944515"><ele>269.79999999999995</ele><time>2026-04-18T08:00:58Z</time></trkpt><trkpt lat="43.120453714642714" lon="12.219618499172649"><ele>268.4</ele><time>2026-04-18T08:00:59Z</time></trkpt><trkpt lat="43.12043378266962" lon="12.219503724647554"><ele>267.0</ele><time>2026-04-18T08:01:00Z</time></trkpt><trkpt lat="43.120362135272686" lon="12.219389725426781"><ele>267.0</ele><time>2026-04-18T08:01:02Z</time></trkpt><trkpt lat="43.120333087617055" lon="12.219298698821369"><ele>267.0</ele><time>2026-04-18T08:01:03Z</time></trkpt><trkpt lat="43.12029259771443" lon="12.219218572281786"><ele>267.0</ele><time>2026-04-18T08:01:04Z</time></trkpt><trkpt lat="43.120243486120536" lon="12.219158696393757"><ele>267.0</ele><time>2026-04-18T08:01:05Z</time></trkpt><trkpt lat="43.12019561459105" lon="12.219012073674248"><ele>267.0</ele><time>2026-04-18T08:01:07Z</time></trkpt><trkpt lat="43.1201760537403" lon="12.218840366620567"><ele>266.5</ele><time>2026-04-18T08:01:09Z</time></trkpt><trkpt lat="43.12017130338533" lon="12.218747351679744"><ele>266.0</ele><time>2026-04-18T08:01:10Z</time></trkpt><trkpt lat="43.12015114526439" lon="12.218593371160924"><ele>265.5</ele><time>2026-04-18T08:01:12Z</time></trkpt><trkpt lat="43.12015207462422" lon="12.218500625358221"><ele>265.0</ele><time>2026-04-18T08:01:13Z</time></trkpt><trkpt lat="43.12014910428843" lon="12.218401250903606"><ele>264.5</ele><time>2026-04-18T08:01:14Z</time></trkpt><trkpt lat="43.12014716749886" lon="12.218304161809476"><ele>264.0</ele><time>2026-04-18T08:01:15Z</time></trkpt><trkpt lat="43.12014483873163" lon="12.21821670406112"><ele>263.6666666666667</ele><time>2026-04-18T08:01:16Z</time></trkpt><trkpt lat="43.120136032293104" lon="12.218076092604006"><ele>263.3333333333333</ele><time>2026-04-18T08:01:18Z</time></trkpt><trkpt lat="43.12012911370457" lon="12.217967057916875"><ele>263.0</ele><time>2026-04-18T08:01:20Z</time></trkpt><trkpt lat="43.12013594411354" lon="12.217829825026033"><ele>262.66666666666663</ele><time>2026-04-18T08:01:22Z</time></trkpt><trkpt lat="43.120142173402435" lon="12.217694872385843"><ele>262.3333333333333</ele><time>2026-04-18T08:01:24Z</time></trkpt><trkpt lat="43.120157299303145" lon="12.217604773164702"><ele>262.0</ele><time>2026-04-18T08:01:25Z</time></trkpt><trkpt lat="43.12019758232805" lon="12.217442531274273"><ele>263.66666666666663</ele><time>2026-04-18T08:01:27Z</time></trkpt><trkpt lat="43.12024193044195" lon="12.217315144739686"><ele>265.3333333333333</ele><time>2026-04-18T08:01:29Z</time></trkpt><trkpt lat="43.1202953328635" lon="12.217239469885174"><ele>267.0</ele><time>2026-04-18T08:01:31Z</time></trkpt><trkpt lat="43.12036458999019" lon="12.217193608162937"><ele>268.6666666666667</ele><time>2026-04-18T08:01:32Z</time></trkpt><trkpt lat="43.120435903179846" lon="12.217180048085977"><ele>270.33333333333337</ele><time>2026-04-18T08:01:33Z</time></trkpt><trkpt lat="43.12049247322124" lon="12.217126404754463"><ele>272.0</ele><time>2026-04-18T08:01:34Z</time></trkpt><trkpt lat="43.12056892897725" lon="12.217096316966964"><ele>272.0</ele><time>2026-04-18T08:01:35Z</time></trkpt><trkpt lat="43.120635414220246" lon="12.21705958454416"><ele>272.0</ele><time>2026-04-18T08:01:36Z</time></trkpt><trkpt lat="43.12071454578516" lon="12.217018901668057"><ele>272.0</ele><time>2026-04-18T08:01:37Z</time></trkpt><trkpt lat="43.120775253375264" lon="12.216986031717104"><ele>272.0</ele><time>2026-04-18T08:01:38Z</time></trkpt><trkpt lat="43.12087354335988" lon="12.216947913518348"><ele>272.0</ele><time>2026-04-18T08:01:40Z</time></trkpt><trkpt lat="43.120976764671944" lon="12.21691490373111"><ele>272.0</ele><time>2026-04-18T08:01:42Z</time></trkpt><trkpt lat="43.12104402961847" lon="12.216828806090087"><ele>269.5</ele><time>2026-04-18T08:01:45Z</time></trkpt><trkpt lat="43.12106894397733" lon="12.216726748772473"><ele>267.0</ele><time>2026-04-18T08:01:47Z</time></trkpt><trkpt lat="43.12111766249016" lon="12.216581843217693"><ele>264.5</ele><time>2026-04-18T08:01:49Z</time></trkpt><trkpt lat="43.12110559583075" lon="12.216477560826494"><ele>262.0</ele><time>2026-04-18T08:01:50Z</time></trkpt><trkpt lat="43.1210944977543" lon="12.216363953781567"><ele>259.5</ele><time>2026-04-18T08:01:51Z</time></trkpt><trkpt lat="43.12109579934996" lon="12.216252929464387"><ele>257.0</ele><time>2026-04-18T08:01:52Z</time></trkpt><trkpt lat="43.12108073625199" lon="12.216136028571436"><ele>257.0</ele><time>2026-04-18T08:01:53Z</time></trkpt><trkpt lat="43.12103816837191" lon="12.216025325008678"><ele>257.0</ele><time>2026-04-18T08:01:54Z</time></trkpt><trkpt lat="43.12101881877556" lon="12.215886468683795"><ele>257.0</ele><time>2026-04-18T08:01:55Z</time></trkpt><trkpt lat="43.12098643900052" lon="12.21577517999161"><ele>257.0</ele><time>2026-04-18T08:01:56Z</time></trkpt><trkpt lat="43.120953005700585" lon="12.215674664812763"><ele>257.0</ele><time>2026-04-18T08:01:57Z</time></trkpt><trkpt lat="43.12091274145218" lon="12.215575526837856"><ele>257.0</ele><time>2026-04-18T08:01:58Z</time></trkpt><trkpt lat="43.120864418471285" lon="12.215480951248338"><ele>256.33333333333337</ele><time>2026-04-18T08:01:59Z</time></trkpt><trkpt lat="43.12081185343554" lon="12.21539500061154"><ele>255.66666666666669</ele><time>2026-04-18T08:02:00Z</time></trkpt><trkpt lat="43.120735212081044" lon="12.215296183142371"><ele>255.0</ele><time>2026-04-18T08:02:01Z</time></trkpt><trkpt lat="43.120672718696305" lon="12.21523785336005"><ele>254.33333333333331</ele><time>2026-04-18T08:02:02Z</time></trkpt><trkpt lat="43.12061489223217" lon="12.215187142615157"><ele>253.66666666666666</ele><time>2026-04-18T08:02:03Z</time></trkpt><trkpt lat="43.120566169768146" lon="12.215111388056775"><ele>253.0</ele><time>2026-04-18T08:02:04Z</time></trkpt><trkpt lat="43.120497599498364" lon="12.215036668822421"><ele>253.16666666666666</ele><time>2026-04-18T08:02:05Z</time></trkpt><trkpt lat="43.120434846488116" lon="12.214970003229976"><ele>253.33333333333331</ele><time>2026-04-18T08:02:06Z</time></trkpt><trkpt lat="43.12035430091872" lon="12.214910249711599"><ele>253.5</ele><time>2026-04-18T08:02:07Z</time></trkpt><trkpt lat="43.120293218540915" lon="12.214810711313614"><ele>253.66666666666669</ele><time>2026-04-18T08:02:08Z</time></trkpt><trkpt lat="43.12022626962363" lon="12.214731105808573"><ele>253.83333333333334</ele><time>2026-04-18T08:02:09Z</time></trkpt><trkpt lat="43.1201696839019" lon="12.214663822637398"><ele>254.0</ele><time>2026-04-18T08:02:10Z</time></trkpt><trkpt lat="43.1200971577355" lon="12.214578546937298"><ele>254.0</ele><time>2026-04-18T08:02:11Z</time></trkpt><trkpt lat="43.1200229266976" lon="12.214511990983445"><ele>253.99999999999997</ele><time>2026-04-18T08:02:12Z</time></trkpt><trkpt lat="43.119954931740985" lon="12.214436308899767"><ele>253.99999999999997</ele><time>2026-04-18T08:02:13Z</time></trkpt><trkpt lat="43.11987167762588" lon="12.214386964511181"><ele>254.0</ele><time>2026-04-18T08:02:14Z</time></trkpt><trkpt lat="43.119786110487794" lon="12.214314693298089"><ele>254.0</ele><time>2026-04-18T08:02:15Z</time></trkpt><trkpt lat="43.11970581749123" lon="12.214242085273085"><ele>253.66666666666669</ele><time>2026-04-18T08:02:16Z</time></trkpt><trkpt lat="43.11963500479465" lon="12.21419285402103"><ele>253.33333333333334</ele><time>2026-04-18T08:02:17Z</time></trkpt><trkpt lat="43.11955711186311" lon="12.214126348258715"><ele>253.0</ele><time>2026-04-18T08:02:18Z</time></trkpt><trkpt lat="43.11947808967211" lon="12.214062092081408"><ele>252.66666666666669</ele><time>2026-04-18T08:02:19Z</time></trkpt><trkpt lat="43.1193956743365" lon="12.21400603518778"><ele>252.33333333333334</ele><time>2026-04-18T08:02:20Z</time></trkpt><trkpt lat="43.1193212186887" lon="12.213935629407873"><ele>252.0</ele><time>2026-04-18T08:02:21Z</time></trkpt><trkpt lat="43.11924135914286" lon="12.213923144460022"><ele>252.0</ele><time>2026-04-18T08:02:22Z</time></trkpt><trkpt lat="43.11917290344492" lon="12.213906234397813"><ele>252.0</ele><time>2026-04-18T08:02:23Z</time></trkpt><trkpt lat="43.1190836856231" lon="12.213869644533354"><ele>252.0</ele><time>2026-04-18T08:02:24Z</time></trkpt><trkpt lat="43.11900978417985" lon="12.213879311390308"><ele>252.0</ele><time>2026-04-18T08:02:25Z</time></trkpt><trkpt lat="43.118898300334905" lon="12.213880710912868"><ele>252.0</ele><time>2026-04-18T08:02:27Z</time></trkpt><trkpt lat="43.11881749329938" lon="12.213870696357365"><ele>252.0</ele><time>2026-04-18T08:02:29Z</time></trkpt><trkpt lat="43.11877601903758" lon="12.21380103521637"><ele>252.39999999999998</ele><time>2026-04-18T08:02:32Z</time></trkpt><trkpt lat="43.118790658024764" lon="12.213685613017354"><ele>252.79999999999998</ele><time>2026-04-18T08:02:39Z</time></trkpt><trkpt lat="43.11877727905425" lon="12.213553896094556"><ele>253.2</ele><time>2026-04-18T08:02:41Z</time></trkpt><trkpt lat="43.11881235882088" lon="12.213411095012614"><ele>253.6</ele><time>2026-04-18T08:02:43Z</time></trkpt><trkpt lat="43.11885739413625" lon="12.213317881320378"><ele>254.0</ele><time>2026-04-18T08:02:45Z</time></trkpt><trkpt lat="43.11898773144754" lon="12.213399375926732"><ele>253.6</ele><time>2026-04-18T08:02:46Z</time></trkpt><trkpt lat="43.119084539329336" lon="12.213361710016175"><ele>253.2</ele><time>2026-04-18T08:02:47Z</time></trkpt><trkpt lat="43.119181161065654" lon="12.213324116602244"><ele>252.79999999999998</ele><time>2026-04-18T08:02:48Z</time></trkpt><trkpt lat="43.11928114258209" lon="12.213285215900799"><ele>252.39999999999998</ele><time>2026-04-18T08:02:49Z</time></trkpt><trkpt lat="43.11937801747489" lon="12.213248147289413"><ele>252.0</ele><time>2026-04-18T08:02:50Z</time></trkpt><trkpt lat="43.119462847369775" lon="12.213217161278243"><ele>252.0</ele><time>2026-04-18T08:02:51Z</time></trkpt><trkpt lat="43.1195366588289" lon="12.213190200005686"><ele>252.0</ele><time>2026-04-18T08:02:52Z</time></trkpt><trkpt lat="43.11960525473478" lon="12.21315994711722"><ele>252.0</ele><time>2026-04-18T08:02:53Z</time></trkpt><trkpt lat="43.119663389746364" lon="12.21312467157617"><ele>252.0</ele><time>2026-04-18T08:02:54Z</time></trkpt><trkpt lat="43.11972730480827" lon="12.21301787198559"><ele>252.0</ele><time>2026-04-18T08:02:56Z</time></trkpt><trkpt lat="43.1197154690557" lon="12.212864484474125"><ele>252.0</ele><time>2026-04-18T08:02:58Z</time></trkpt><trkpt lat="43.11968965939154" lon="12.212771684169489"><ele>251.39999999999998</ele><time>2026-04-18T08:02:59Z</time></trkpt><trkpt lat="43.11965130572318" lon="12.212679600003915"><ele>250.79999999999998</ele><time>2026-04-18T08:03:00Z</time></trkpt><trkpt lat="43.11963320666684" lon="12.212574682732896"><ele>250.2</ele><time>2026-04-18T08:03:01Z</time></trkpt><trkpt lat="43.11959960396964" lon="12.212447259892013"><ele>249.6</ele><time>2026-04-18T08:03:02Z</time></trkpt><trkpt lat="43.11957336208127" lon="12.212302383282067"><ele>249.0</ele><time>2026-04-18T08:03:03Z</time></trkpt><trkpt lat="43.11955164330836" lon="12.212174621452633"><ele>248.79999999999998</ele><time>2026-04-18T08:03:04Z</time></trkpt><trkpt lat="43.11944971169694" lon="12.212071085295742"><ele>248.59999999999997</ele><time>2026-04-18T08:03:05Z</time></trkpt><trkpt lat="43.11939822558303" lon="12.211951737225586"><ele>248.4</ele><time>2026-04-18T08:03:06Z</time></trkpt><trkpt lat="43.1193917991038" lon="12.21182670391721"><ele>248.2</ele><time>2026-04-18T08:03:07Z</time></trkpt><trkpt lat="43.11938701507932" lon="12.211721306068837"><ele>248.0</ele><time>2026-04-18T08:03:08Z</time></trkpt><trkpt lat="43.11938234021693" lon="12.211629990467513"><ele>248.0</ele><time>2026-04-18T08:03:09Z</time></trkpt><trkpt lat="43.11937660125343" lon="12.211489490034513"><ele>248.0</ele><time>2026-04-18T08:03:11Z</time></trkpt><trkpt lat="43.11937222233722" lon="12.211349048609792"><ele>248.0</ele><time>2026-04-18T08:03:13Z</time></trkpt><trkpt lat="43.119367742311894" lon="12.211205364448045"><ele>248.0</ele><time>2026-04-18T08:03:15Z</time></trkpt><trkpt lat="43.119364089209746" lon="12.211040532594883"><ele>248.0</ele><time>2026-04-18T08:03:17Z</time></trkpt><trkpt lat="43.119361401115995" lon="12.210910919780368"><ele>248.0</ele><time>2026-04-18T08:03:18Z</time></trkpt><trkpt lat="43.11935659700788" lon="12.210739304736448"><ele>248.0</ele><time>2026-04-18T08:03:19Z</time></trkpt><trkpt lat="43.11934677903345" lon="12.210537615628773"><ele>248.0</ele><time>2026-04-18T08:03:20Z</time></trkpt><trkpt lat="43.1193188580402" lon="12.210378395353535"><ele>248.0</ele><time>2026-04-18T08:03:21Z</time></trkpt><trkpt lat="43.11929387722729" lon="12.210238045563454"><ele>247.60000000000002</ele><time>2026-04-18T08:03:22Z</time></trkpt><trkpt lat="43.11925302493267" lon="12.210094122008451"><ele>247.20000000000002</ele><time>2026-04-18T08:03:23Z</time></trkpt><trkpt lat="43.11920843621831" lon="12.209964086006186"><ele>246.8</ele><time>2026-04-18T08:03:24Z</time></trkpt><trkpt lat="43.119164422195524" lon="12.209826069429552"><ele>246.4</ele><time>2026-04-18T08:03:25Z</time></trkpt><trkpt lat="43.119140245312195" lon="12.209690784056523"><ele>246.0</ele><time>2026-04-18T08:03:26Z</time></trkpt><trkpt lat="43.11910832864441" lon="12.209573946765468"><ele>245.8</ele><time>2026-04-18T08:03:27Z</time></trkpt><trkpt lat="43.11907442893666" lon="12.209451049537261"><ele>245.60000000000002</ele><time>2026-04-18T08:03:28Z</time></trkpt><trkpt lat="43.119034925725444" lon="12.209316740395462"><ele>245.4</ele><time>2026-04-18T08:03:29Z</time></trkpt><trkpt lat="43.11896213815643" lon="12.209191110278283"><ele>245.2</ele><time>2026-04-18T08:03:30Z</time></trkpt><trkpt lat="43.118903278820454" lon="12.209042482375082"><ele>245.0</ele><time>2026-04-18T08:03:31Z</time></trkpt><trkpt lat="43.11883686911463" lon="12.208884593473538"><ele>245.0</ele><time>2026-04-18T08:03:32Z</time></trkpt><trkpt lat="43.11876127668319" lon="12.208722914568014"><ele>245.0</ele><time>2026-04-18T08:03:33Z</time></trkpt><trkpt lat="43.11868494618593" lon="12.20855613402949"><ele>245.0</ele><time>2026-04-18T08:03:34Z</time></trkpt><trkpt lat="43.118606929586605" lon="12.208395681223324"><ele>245.0</ele><time>2026-04-18T08:03:35Z</time></trkpt><trkpt lat="43.11853915759612" lon="12.208257413263604"><ele>244.5</ele><time>2026-04-18T08:03:36Z</time></trkpt><trkpt lat="43.118473819865" lon="12.208129501589358"><ele>244.0</ele><time>2026-04-18T08:03:37Z</time></trkpt><trkpt lat="43.11840765792979" lon="12.20800243960566"><ele>243.5</ele><time>2026-04-18T08:03:38Z</time></trkpt><trkpt lat="43.11833901965574" lon="12.207869955044528"><ele>243.0</ele><time>2026-04-18T08:03:39Z</time></trkpt><trkpt lat="43.118269098437516" lon="12.207732451359218"><ele>243.5</ele><time>2026-04-18T08:03:40Z</time></trkpt><trkpt lat="43.11817829480487" lon="12.207606552143913"><ele>244.0</ele><time>2026-04-18T08:03:41Z</time></trkpt><trkpt lat="43.11807828493205" lon="12.207475363552247"><ele>244.5</ele><time>2026-04-18T08:03:42Z</time></trkpt><trkpt lat="43.11797285861818" lon="12.207349555347728"><ele>245.0</ele><time>2026-04-18T08:03:43Z</time></trkpt><trkpt lat="43.11787957791095" lon="12.207232961085095"><ele>245.0</ele><time>2026-04-18T08:03:44Z</time></trkpt><trkpt lat="43.11782019523254" lon="12.207124334105968"><ele>245.0</ele><time>2026-04-18T08:03:45Z</time></trkpt><trkpt lat="43.11772950149834" lon="12.207023097747053"><ele>245.0</ele><time>2026-04-18T08:03:46Z</time></trkpt><trkpt lat="43.11762102854966" lon="12.206930729553871"><ele>245.0</ele><time>2026-04-18T08:03:47Z</time></trkpt><trkpt lat="43.11749142548718" lon="12.20687475016091"><ele>245.75</ele><time>2026-04-18T08:03:48Z</time></trkpt><trkpt lat="43.11735810659384" lon="12.206813457297844"><ele>246.5</ele><time>2026-04-18T08:03:49Z</time></trkpt><trkpt lat="43.11721497848609" lon="12.206761647094526"><ele>247.25</ele><time>2026-04-18T08:03:50Z</time></trkpt><trkpt lat="43.11706912474854" lon="12.206717208809874"><ele>248.0</ele><time>2026-04-18T08:03:51Z</time></trkpt><trkpt lat="43.116928713726644" lon="12.206657313925886"><ele>248.0</ele><time>2026-04-18T08:03:52Z</time></trkpt><trkpt lat="43.11678453050539" lon="12.206612934381674"><ele>248.0</ele><time>2026-04-18T08:03:53Z</time></trkpt><trkpt lat="43.11663514846319" lon="12.206555869197063"><ele>248.0</ele><time>2026-04-18T08:03:54Z</time></trkpt><trkpt lat="43.11649480369091" lon="12.20649822376567"><ele>248.0</ele><time>2026-04-18T08:03:55Z</time></trkpt><trkpt lat="43.11637178546691" lon="12.206445798760214"><ele>248.16666666666669</ele><time>2026-04-18T08:03:56Z</time></trkpt><trkpt lat="43.116273626266235" lon="12.206398370416917"><ele>248.33333333333334</ele><time>2026-04-18T08:03:57Z</time></trkpt><trkpt lat="43.11619358133967" lon="12.20634930369378"><ele>248.5</ele><time>2026-04-18T08:03:58Z</time></trkpt><trkpt lat="43.116135739263655" lon="12.206303961479064"><ele>248.66666666666669</ele><time>2026-04-18T08:03:59Z</time></trkpt><trkpt lat="43.116080994014425" lon="12.206256814459488"><ele>248.83333333333334</ele><time>2026-04-18T08:04:00Z</time></trkpt><trkpt lat="43.11601577517245" lon="12.206181460282826"><ele>249.0</ele><time>2026-04-18T08:04:02Z</time></trkpt><trkpt lat="43.11595651102017" lon="12.206085077538567"><ele>249.0</ele><time>2026-04-18T08:04:04Z</time></trkpt><trkpt lat="43.11584232354266" lon="12.206104101045756"><ele>248.99999999999997</ele><time>2026-04-18T08:04:05Z</time></trkpt><trkpt lat="43.115790305344376" lon="12.206036960907136"><ele>248.99999999999997</ele><time>2026-04-18T08:04:06Z</time></trkpt><trkpt lat="43.115725863985624" lon="12.206003679831758"><ele>249.0</ele><time>2026-04-18T08:04:07Z</time></trkpt><trkpt lat="43.11564660881191" lon="12.205917019449705"><ele>249.0</ele><time>2026-04-18T08:04:09Z</time></trkpt><trkpt lat="43.11556021028508" lon="12.205829991302162"><ele>249.16666666666666</ele><time>2026-04-18T08:04:11Z</time></trkpt><trkpt lat="43.115507203729926" lon="12.205775704603266"><ele>249.33333333333331</ele><time>2026-04-18T08:04:12Z</time></trkpt><trkpt lat="43.11544758493991" lon="12.205721708943814"><ele>249.5</ele><time>2026-04-18T08:04:13Z</time></trkpt><trkpt lat="43.115382116812754" lon="12.20565388604904"><ele>249.66666666666666</ele><time>2026-04-18T08:04:14Z</time></trkpt><trkpt lat="43.11531745194246" lon="12.205592564678778"><ele>249.83333333333331</ele><time>2026-04-18T08:04:15Z</time></trkpt><trkpt lat="43.11526604172983" lon="12.205541963189548"><ele>250.0</ele><time>2026-04-18T08:04:16Z</time></trkpt><trkpt lat="43.11518219946401" lon="12.205460779381127"><ele>249.99999999999997</ele><time>2026-04-18T08:04:18Z</time></trkpt><trkpt lat="43.115073414159795" lon="12.205360653925812"><ele>250.0</ele><time>2026-04-18T08:04:20Z</time></trkpt><trkpt lat="43.11500743463037" lon="12.20530674845301"><ele>250.0</ele><time>2026-04-18T08:04:21Z</time></trkpt><trkpt lat="43.114940111449364" lon="12.205242545274915"><ele>250.0</ele><time>2026-04-18T08:04:22Z</time></trkpt><trkpt lat="43.11488787383555" lon="12.205188844698329"><ele>249.99999999999997</ele><time>2026-04-18T08:04:23Z</time></trkpt><trkpt lat="43.11481729907511" lon="12.205123647049755"><ele>250.0</ele><time>2026-04-18T08:04:25Z</time></trkpt><trkpt lat="43.11476486017721" lon="12.20507589198492"><ele>250.16666666666666</ele><time>2026-04-18T08:04:26Z</time></trkpt><trkpt lat="43.1146978361614" lon="12.2050207654618"><ele>250.33333333333331</ele><time>2026-04-18T08:04:27Z</time></trkpt><trkpt lat="43.114628557448206" lon="12.204935570587805"><ele>250.5</ele><time>2026-04-18T08:04:28Z</time></trkpt><trkpt lat="43.114571525525605" lon="12.204883012656722"><ele>250.66666666666669</ele><time>2026-04-18T08:04:29Z</time></trkpt><trkpt lat="43.11451589958432" lon="12.204831750465752"><ele>250.83333333333334</ele><time>2026-04-18T08:04:30Z</time></trkpt><trkpt lat="43.11445274181099" lon="12.204773547206374"><ele>251.0</ele><time>2026-04-18T08:04:31Z</time></trkpt><trkpt lat="43.114379378846095" lon="12.204705939390168"><ele>251.00000000000003</ele><time>2026-04-18T08:04:32Z</time></trkpt><trkpt lat="43.11429266812777" lon="12.204647690354957"><ele>251.0</ele><time>2026-04-18T08:04:33Z</time></trkpt><trkpt lat="43.11423579359127" lon="12.204584230035648"><ele>251.0</ele><time>2026-04-18T08:04:34Z</time></trkpt><trkpt lat="43.11416771269037" lon="12.204524871018686"><ele>251.0</ele><time>2026-04-18T08:04:35Z</time></trkpt><trkpt lat="43.114107318125434" lon="12.204466552952159"><ele>251.00000000000003</ele><time>2026-04-18T08:04:36Z</time></trkpt><trkpt lat="43.11404523479926" lon="12.204410026685721"><ele>251.0</ele><time>2026-04-18T08:04:37Z</time></trkpt><trkpt lat="43.113979510336236" lon="12.204349175222308"><ele>251.33333333333334</ele><time>2026-04-18T08:04:38Z</time></trkpt><trkpt lat="43.113935414988404" lon="12.204266109711602"><ele>251.66666666666669</ele><time>2026-04-18T08:04:39Z</time></trkpt><trkpt lat="43.11388974458564" lon="12.204201584962497"><ele>252.0</ele><time>2026-04-18T08:04:40Z</time></trkpt><trkpt lat="43.113852525123775" lon="12.204108815423343"><ele>252.33333333333331</ele><time>2026-04-18T08:04:41Z</time></trkpt><trkpt lat="43.11381627890123" lon="12.204009030128418"><ele>252.66666666666666</ele><time>2026-04-18T08:04:42Z</time></trkpt><trkpt lat="43.113775246383014" lon="12.203896973816724"><ele>253.0</ele><time>2026-04-18T08:04:43Z</time></trkpt><trkpt lat="43.11373567005589" lon="12.203796774846111"><ele>252.99999999999997</ele><time>2026-04-18T08:04:44Z</time></trkpt><trkpt lat="43.11370212954973" lon="12.203693603945739"><ele>253.0</ele><time>2026-04-18T08:04:45Z</time></trkpt><trkpt lat="43.1136907609421" lon="12.203603033605745"><ele>253.0</ele><time>2026-04-18T08:04:46Z</time></trkpt><trkpt lat="43.11368447833466" lon="12.203499455059625"><ele>253.0</ele><time>2026-04-18T08:04:47Z</time></trkpt><trkpt lat="43.11369127013414" lon="12.20339616875612"><ele>252.99999999999997</ele><time>2026-04-18T08:04:48Z</time></trkpt><trkpt lat="43.11370858831448" lon="12.203288907168012"><ele>253.0</ele><time>2026-04-18T08:04:49Z</time></trkpt><trkpt lat="43.11367981697927" lon="12.203128204999466"><ele>252.66666666666666</ele><time>2026-04-18T08:04:51Z</time></trkpt><trkpt lat="43.11362978382249" lon="12.203073842079082"><ele>252.33333333333331</ele><time>2026-04-18T08:04:52Z</time></trkpt><trkpt lat="43.113612949251426" lon="12.202984228351673"><ele>252.0</ele><time>2026-04-18T08:04:53Z</time></trkpt><trkpt lat="43.11357323373962" lon="12.202879476853443"><ele>251.66666666666669</ele><time>2026-04-18T08:04:54Z</time></trkpt><trkpt lat="43.11353495568957" lon="12.20276611938484"><ele>251.33333333333334</ele><time>2026-04-18T08:04:55Z</time></trkpt><trkpt lat="43.11350550345392" lon="12.20266999062956"><ele>251.0</ele><time>2026-04-18T08:04:56Z</time></trkpt><trkpt lat="43.11347996388588" lon="12.202585895865402"><ele>251.0</ele><time>2026-04-18T08:04:57Z</time></trkpt><trkpt lat="43.113447278148435" lon="12.202476906339708"><ele>251.00000000000003</ele><time>2026-04-18T08:04:58Z</time></trkpt><trkpt lat="43.11341285360148" lon="12.202347789159052"><ele>251.00000000000003</ele><time>2026-04-18T08:04:59Z</time></trkpt><trkpt lat="43.11338728779878" lon="12.202211969700462"><ele>251.0</ele><time>2026-04-18T08:05:00Z</time></trkpt><trkpt lat="43.11337641758025" lon="12.202087820382282"><ele>251.0</ele><time>2026-04-18T08:05:01Z</time></trkpt><trkpt lat="43.11337628924155" lon="12.20195075439345"><ele>251.20000000000002</ele><time>2026-04-18T08:05:02Z</time></trkpt><trkpt lat="43.11337610295035" lon="12.20177778353769"><ele>251.40000000000003</ele><time>2026-04-18T08:05:03Z</time></trkpt><trkpt lat="43.113375046804315" lon="12.20161825047111"><ele>251.6</ele><time>2026-04-18T08:05:04Z</time></trkpt><trkpt lat="43.1133726126099" lon="12.201487910462609"><ele>251.8</ele><time>2026-04-18T08:05:05Z</time></trkpt><trkpt lat="43.11336714882548" lon="12.20136333548533"><ele>252.0</ele><time>2026-04-18T08:05:06Z</time></trkpt><trkpt lat="43.11334492138228" lon="12.201241494814514"><ele>252.0</ele><time>2026-04-18T08:05:07Z</time></trkpt><trkpt lat="43.11332249789775" lon="12.201160818675953"><ele>252.0</ele><time>2026-04-18T08:05:08Z</time></trkpt><trkpt lat="43.11328563184413" lon="12.201025262879897"><ele>252.0</ele><time>2026-04-18T08:05:10Z</time></trkpt><trkpt lat="43.11334173173934" lon="12.200921981634927"><ele>252.0</ele><time>2026-04-18T08:05:13Z</time></trkpt><trkpt lat="43.11338328547251" lon="12.200839474677055"><ele>252.0</ele><time>2026-04-18T08:05:15Z</time></trkpt><trkpt lat="43.113425039069924" lon="12.20071917191854"><ele>252.0</ele><time>2026-04-18T08:05:17Z</time></trkpt><trkpt lat="43.11342800794999" lon="12.20061712475149"><ele>252.16666666666666</ele><time>2026-04-18T08:05:18Z</time></trkpt><trkpt lat="43.113396023088306" lon="12.200514260771868"><ele>252.33333333333331</ele><time>2026-04-18T08:05:19Z</time></trkpt><trkpt lat="43.113342315694716" lon="12.200422719184775"><ele>252.5</ele><time>2026-04-18T08:05:20Z</time></trkpt><trkpt lat="43.11329357957455" lon="12.200353421166456"><ele>252.66666666666666</ele><time>2026-04-18T08:05:21Z</time></trkpt><trkpt lat="43.113252378494764" lon="12.200243348841777"><ele>252.83333333333331</ele><time>2026-04-18T08:05:23Z</time></trkpt><trkpt lat="43.11330555990913" lon="12.200185181551504"><ele>253.0</ele><time>2026-04-18T08:05:25Z</time></trkpt><trkpt lat="43.11336050389721" lon="12.20014047118004"><ele>252.99999999999997</ele><time>2026-04-18T08:05:26Z</time></trkpt><trkpt lat="43.11343491197324" lon="12.200113996554208"><ele>253.0</ele><time>2026-04-18T08:05:27Z</time></trkpt><trkpt lat="43.113524631036945" lon="12.200083950528729"><ele>253.0</ele><time>2026-04-18T08:05:28Z</time></trkpt><trkpt lat="43.113624355691876" lon="12.200048850554127"><ele>253.0</ele><time>2026-04-18T08:05:29Z</time></trkpt><trkpt lat="43.113707011094796" lon="12.200018316081373"><ele>252.99999999999997</ele><time>2026-04-18T08:05:30Z</time></trkpt><trkpt lat="43.113779039235574" lon="12.199990703036729"><ele>253.0</ele><time>2026-04-18T08:05:31Z</time></trkpt><trkpt lat="43.1138384297721" lon="12.199961312329421"><ele>253.00000000000003</ele><time>2026-04-18T08:05:32Z</time></trkpt><trkpt lat="43.11391487975002" lon="12.199909715264447"><ele>253.0</ele><time>2026-04-18T08:05:33Z</time></trkpt><trkpt lat="43.11398060202395" lon="12.199860527330959"><ele>253.00000000000003</ele><time>2026-04-18T08:05:34Z</time></trkpt><trkpt lat="43.114038594408825" lon="12.199822159139813"><ele>253.00000000000003</ele><time>2026-04-18T08:05:35Z</time></trkpt><trkpt lat="43.11410007207834" lon="12.199788659619522"><ele>253.0</ele><time>2026-04-18T08:05:36Z</time></trkpt><trkpt lat="43.11417261693472" lon="12.199734854317418"><ele>253.00000000000003</ele><time>2026-04-18T08:05:37Z</time></trkpt><trkpt lat="43.11423778198599" lon="12.199728449494724"><ele>253.00000000000003</ele><time>2026-04-18T08:05:38Z</time></trkpt><trkpt lat="43.1143394741788" lon="12.19971615122054"><ele>253.60000000000002</ele><time>2026-04-18T08:05:40Z</time></trkpt><trkpt lat="43.11440962131794" lon="12.199725609452338"><ele>254.20000000000002</ele><time>2026-04-18T08:05:42Z</time></trkpt><trkpt lat="43.114360448175184" lon="12.199536998402774"><ele>254.8</ele><time>2026-04-18T08:06:24Z</time></trkpt><trkpt lat="43.11427326097111" lon="12.199483273563581"><ele>255.4</ele><time>2026-04-18T08:06:25Z</time></trkpt><trkpt lat="43.11418996424313" lon="12.199420110000359"><ele>256.0</ele><time>2026-04-18T08:06:26Z</time></trkpt><trkpt lat="43.11409851816904" lon="12.199323167083149"><ele>256.25</ele><time>2026-04-18T08:06:27Z</time></trkpt><trkpt lat="43.11398923182468" lon="12.199218030187046"><ele>256.5</ele><time>2026-04-18T08:06:28Z</time></trkpt><trkpt lat="43.1138745424394" lon="12.199111639905652"><ele>256.75</ele><time>2026-04-18T08:06:29Z</time></trkpt><trkpt lat="43.113757513141564" lon="12.198998393759837"><ele>257.0</ele><time>2026-04-18T08:06:30Z</time></trkpt><trkpt lat="43.11363493040399" lon="12.198879077634837"><ele>258.33333333333337</ele><time>2026-04-18T08:06:31Z</time></trkpt><trkpt lat="43.11351016199144" lon="12.19875665208506"><ele>259.6666666666667</ele><time>2026-04-18T08:06:32Z</time></trkpt><trkpt lat="43.113385125265516" lon="12.198632318153381"><ele>261.0</ele><time>2026-04-18T08:06:33Z</time></trkpt><trkpt lat="43.11326071396594" lon="12.198506062679108"><ele>261.0</ele><time>2026-04-18T08:06:34Z</time></trkpt><trkpt lat="43.113134955818424" lon="12.19838115157519"><ele>261.0</ele><time>2026-04-18T08:06:35Z</time></trkpt><trkpt lat="43.11301049633718" lon="12.198255331693566"><ele>261.0</ele><time>2026-04-18T08:06:36Z</time></trkpt><trkpt lat="43.112893677958624" lon="12.198140689129975"><ele>262.25</ele><time>2026-04-18T08:06:37Z</time></trkpt><trkpt lat="43.11279039812138" lon="12.198034970000348"><ele>263.5</ele><time>2026-04-18T08:06:38Z</time></trkpt><trkpt lat="43.11267463284626" lon="12.1979231179451"><ele>264.75</ele><time>2026-04-18T08:06:39Z</time></trkpt><trkpt lat="43.11254959478181" lon="12.197807409433718"><ele>266.0</ele><time>2026-04-18T08:06:40Z</time></trkpt><trkpt lat="43.112422747801325" lon="12.197689920146372"><ele>266.0</ele><time>2026-04-18T08:06:41Z</time></trkpt><trkpt lat="43.11230213387645" lon="12.197572132660275"><ele>266.0</ele><time>2026-04-18T08:06:42Z</time></trkpt><trkpt lat="43.112194689069845" lon="12.197462665367182"><ele>266.0</ele><time>2026-04-18T08:06:43Z</time></trkpt><trkpt lat="43.11210116079062" lon="12.19736389676193"><ele>266.0</ele><time>2026-04-18T08:06:44Z</time></trkpt><trkpt lat="43.11200424901974" lon="12.197268079753629"><ele>267.25</ele><time>2026-04-18T08:06:45Z</time></trkpt><trkpt lat="43.111899340464795" lon="12.197162629743737"><ele>268.5</ele><time>2026-04-18T08:06:46Z</time></trkpt><trkpt lat="43.11179942459425" lon="12.197060533306354"><ele>269.75</ele><time>2026-04-18T08:06:47Z</time></trkpt><trkpt lat="43.11170394226252" lon="12.196974686423891"><ele>271.0</ele><time>2026-04-18T08:06:48Z</time></trkpt><trkpt lat="43.111597479791904" lon="12.196897565095547"><ele>271.25</ele><time>2026-04-18T08:06:49Z</time></trkpt><trkpt lat="43.11147422125015" lon="12.19683793416059"><ele>271.5</ele><time>2026-04-18T08:06:50Z</time></trkpt><trkpt lat="43.11134104771238" lon="12.196800648239458"><ele>271.75</ele><time>2026-04-18T08:06:51Z</time></trkpt><trkpt lat="43.11121140527278" lon="12.196785960930535"><ele>272.0</ele><time>2026-04-18T08:06:52Z</time></trkpt><trkpt lat="43.11109043470426" lon="12.196783758103615"><ele>272.0</ele><time>2026-04-18T08:06:53Z</time></trkpt><trkpt lat="43.11097567392333" lon="12.19682176286236"><ele>272.0</ele><time>2026-04-18T08:06:54Z</time></trkpt><trkpt lat="43.11086378870661" lon="12.19688184565284"><ele>272.0</ele><time>2026-04-18T08:06:55Z</time></trkpt><trkpt lat="43.11074474402762" lon="12.196964796126421"><ele>272.0</ele><time>2026-04-18T08:06:56Z</time></trkpt><trkpt lat="43.11062254070042" lon="12.197064181662833"><ele>273.0</ele><time>2026-04-18T08:06:57Z</time></trkpt><trkpt lat="43.11050602326486" lon="12.197190999158314"><ele>274.0</ele><time>2026-04-18T08:06:58Z</time></trkpt><trkpt lat="43.11040631341842" lon="12.19734821431537"><ele>275.0</ele><time>2026-04-18T08:06:59Z</time></trkpt><trkpt lat="43.110330464157805" lon="12.197523826496802"><ele>275.0</ele><time>2026-04-18T08:07:00Z</time></trkpt><trkpt lat="43.110253614973836" lon="12.197700707215432"><ele>275.0</ele><time>2026-04-18T08:07:01Z</time></trkpt><trkpt lat="43.11016771968526" lon="12.197869246011116"><ele>275.0</ele><time>2026-04-18T08:07:02Z</time></trkpt><trkpt lat="43.11007919514157" lon="12.19803484253198"><ele>274.25</ele><time>2026-04-18T08:07:03Z</time></trkpt><trkpt lat="43.10998709133788" lon="12.198187269366903"><ele>273.5</ele><time>2026-04-18T08:07:04Z</time></trkpt><trkpt lat="43.10988552399686" lon="12.19832991490576"><ele>272.75</ele><time>2026-04-18T08:07:05Z</time></trkpt><trkpt lat="43.10975270608151" lon="12.19844765496249"><ele>272.0</ele><time>2026-04-18T08:07:06Z</time></trkpt><trkpt lat="43.10962797721355" lon="12.198584195257567"><ele>275.33333333333337</ele><time>2026-04-18T08:07:07Z</time></trkpt><trkpt lat="43.10949866480386" lon="12.198705620842906"><ele>278.6666666666667</ele><time>2026-04-18T08:07:08Z</time></trkpt><trkpt lat="43.109363292885845" lon="12.198819956098577"><ele>282.0</ele><time>2026-04-18T08:07:09Z</time></trkpt><trkpt lat="43.10921981020024" lon="12.198918978354277"><ele>280.6666666666667</ele><time>2026-04-18T08:07:10Z</time></trkpt><trkpt lat="43.10906491053086" lon="12.199006274319864"><ele>279.33333333333337</ele><time>2026-04-18T08:07:11Z</time></trkpt><trkpt lat="43.10890372444814" lon="12.199065940084918"><ele>278.0</ele><time>2026-04-18T08:07:12Z</time></trkpt><trkpt lat="43.10873707076259" lon="12.19911654766687"><ele>278.0</ele><time>2026-04-18T08:07:13Z</time></trkpt><trkpt lat="43.108576684758575" lon="12.19914655017399"><ele>278.0</ele><time>2026-04-18T08:07:14Z</time></trkpt><trkpt lat="43.10842242588955" lon="12.199171854801723"><ele>278.0</ele><time>2026-04-18T08:07:15Z</time></trkpt><trkpt lat="43.10826522295116" lon="12.19920064263655"><ele>280.33333333333337</ele><time>2026-04-18T08:07:16Z</time></trkpt><trkpt lat="43.108105373658844" lon="12.19923130861496"><ele>282.6666666666667</ele><time>2026-04-18T08:07:17Z</time></trkpt><trkpt lat="43.10793841986402" lon="12.199259605484906"><ele>285.0</ele><time>2026-04-18T08:07:18Z</time></trkpt><trkpt lat="43.10777094051076" lon="12.199293594650376"><ele>285.0</ele><time>2026-04-18T08:07:19Z</time></trkpt><trkpt lat="43.10759968412423" lon="12.19933165808767"><ele>285.0</ele><time>2026-04-18T08:07:20Z</time></trkpt><trkpt lat="43.107427424587144" lon="12.199369993069478"><ele>285.0</ele><time>2026-04-18T08:07:21Z</time></trkpt><trkpt lat="43.107254473536" lon="12.199403448111644"><ele>284.6666666666667</ele><time>2026-04-18T08:07:22Z</time></trkpt><trkpt lat="43.10708537881843" lon="12.199432363464023"><ele>284.33333333333337</ele><time>2026-04-18T08:07:23Z</time></trkpt><trkpt lat="43.10691314322603" lon="12.199462051974477"><ele>284.0</ele><time>2026-04-18T08:07:24Z</time></trkpt><trkpt lat="43.106740441520955" lon="12.199484537123944"><ele>283.6666666666667</ele><time>2026-04-18T08:07:25Z</time></trkpt><trkpt lat="43.106565004920846" lon="12.199494585055312"><ele>283.3333333333333</ele><time>2026-04-18T08:07:26Z</time></trkpt><trkpt lat="43.10638821301033" lon="12.199496944322554"><ele>283.0</ele><time>2026-04-18T08:07:27Z</time></trkpt><trkpt lat="43.10621586985206" lon="12.199492594863191"><ele>283.0</ele><time>2026-04-18T08:07:28Z</time></trkpt><trkpt lat="43.106048370592156" lon="12.199481634854797"><ele>283.0</ele><time>2026-04-18T08:07:29Z</time></trkpt><trkpt lat="43.10586939651385" lon="12.19946027905624"><ele>283.0</ele><time>2026-04-18T08:07:30Z</time></trkpt><trkpt lat="43.10569410919155" lon="12.19943584075843"><ele>282.66666666666663</ele><time>2026-04-18T08:07:31Z</time></trkpt><trkpt lat="43.10551690073417" lon="12.199405369227328"><ele>282.3333333333333</ele><time>2026-04-18T08:07:32Z</time></trkpt><trkpt lat="43.105338013093856" lon="12.199376538413343"><ele>282.0</ele><time>2026-04-18T08:07:33Z</time></trkpt><trkpt lat="43.105160588330385" lon="12.199347386465911"><ele>282.0</ele><time>2026-04-18T08:07:34Z</time></trkpt><trkpt lat="43.10498183431393" lon="12.199314019205802"><ele>282.0</ele><time>2026-04-18T08:07:35Z</time></trkpt><trkpt lat="43.10481288009743" lon="12.19926583896888"><ele>282.0</ele><time>2026-04-18T08:07:36Z</time></trkpt><trkpt lat="43.10463448422676" lon="12.199240900520524"><ele>282.6666666666667</ele><time>2026-04-18T08:07:37Z</time></trkpt><trkpt lat="43.10447186809937" lon="12.19920677429374"><ele>283.33333333333337</ele><time>2026-04-18T08:07:38Z</time></trkpt><trkpt lat="43.104311868608676" lon="12.199173863863875"><ele>284.0</ele><time>2026-04-18T08:07:39Z</time></trkpt><trkpt lat="43.10416186225417" lon="12.199136594377164"><ele>284.33333333333337</ele><time>2026-04-18T08:07:40Z</time></trkpt><trkpt lat="43.10399553305853" lon="12.199115833819594"><ele>284.6666666666667</ele><time>2026-04-18T08:07:41Z</time></trkpt><trkpt lat="43.10382526831157" lon="12.199087719355843"><ele>285.0</ele><time>2026-04-18T08:07:42Z</time></trkpt><trkpt lat="43.10366083831133" lon="12.19905939759516"><ele>285.0</ele><time>2026-04-18T08:07:43Z</time></trkpt><trkpt lat="43.10347489502053" lon="12.199018527315381"><ele>285.0</ele><time>2026-04-18T08:07:44Z</time></trkpt><trkpt lat="43.10329018109712" lon="12.198990845332302"><ele>285.0</ele><time>2026-04-18T08:07:45Z</time></trkpt><trkpt lat="43.10310661129203" lon="12.198962296267473"><ele>281.3333333333333</ele><time>2026-04-18T08:07:46Z</time></trkpt><trkpt lat="43.10292014516121" lon="12.198937068048851"><ele>277.66666666666663</ele><time>2026-04-18T08:07:47Z</time></trkpt><trkpt lat="43.10273697977392" lon="12.198934824045965"><ele>274.0</ele><time>2026-04-18T08:07:48Z</time></trkpt><trkpt lat="43.102561809344216" lon="12.198958204664425"><ele>274.0</ele><time>2026-04-18T08:07:49Z</time></trkpt><trkpt lat="43.102389367519315" lon="12.198992075343229"><ele>274.0</ele><time>2026-04-18T08:07:50Z</time></trkpt><trkpt lat="43.10221315390286" lon="12.199019257095742"><ele>274.0</ele><time>2026-04-18T08:07:51Z</time></trkpt><trkpt lat="43.10203832363518" lon="12.19904134761511"><ele>275.66666666666663</ele><time>2026-04-18T08:07:52Z</time></trkpt><trkpt lat="43.101869024831" lon="12.199062006372138"><ele>277.3333333333333</ele><time>2026-04-18T08:07:53Z</time></trkpt><trkpt lat="43.10170478024962" lon="12.199087879178565"><ele>279.0</ele><time>2026-04-18T08:07:54Z</time></trkpt><trkpt lat="43.10153802882547" lon="12.199116133877832"><ele>279.3333333333333</ele><time>2026-04-18T08:07:55Z</time></trkpt><trkpt lat="43.101371701177" lon="12.19914195512555"><ele>279.66666666666663</ele><time>2026-04-18T08:07:56Z</time></trkpt><trkpt lat="43.10120518807782" lon="12.199162337309907"><ele>280.0</ele><time>2026-04-18T08:07:57Z</time></trkpt><trkpt lat="43.101032573159976" lon="12.19918377387972"><ele>280.0</ele><time>2026-04-18T08:07:58Z</time></trkpt><trkpt lat="43.10086521317764" lon="12.199204659931121"><ele>280.0</ele><time>2026-04-18T08:07:59Z</time></trkpt><trkpt lat="43.10071133044524" lon="12.19923523867569"><ele>280.0</ele><time>2026-04-18T08:08:00Z</time></trkpt><trkpt lat="43.100567004455755" lon="12.199283698280324"><ele>279.66666666666663</ele><time>2026-04-18T08:08:01Z</time></trkpt><trkpt lat="43.100430131484075" lon="12.199347560759184"><ele>279.3333333333333</ele><time>2026-04-18T08:08:02Z</time></trkpt><trkpt lat="43.1002809789951" lon="12.199422423111592"><ele>279.0</ele><time>2026-04-18T08:08:03Z</time></trkpt><trkpt lat="43.10012488439577" lon="12.1994949321033"><ele>279.0</ele><time>2026-04-18T08:08:04Z</time></trkpt><trkpt lat="43.09997734976127" lon="12.199561383634164"><ele>279.0</ele><time>2026-04-18T08:08:05Z</time></trkpt><trkpt lat="43.099840934386755" lon="12.19963333768946"><ele>279.0</ele><time>2026-04-18T08:08:06Z</time></trkpt><trkpt lat="43.099696090568614" lon="12.199697511767832"><ele>279.3333333333333</ele><time>2026-04-18T08:08:07Z</time></trkpt><trkpt lat="43.09954876678935" lon="12.199753936926118"><ele>279.66666666666663</ele><time>2026-04-18T08:08:08Z</time></trkpt><trkpt lat="43.099395261597216" lon="12.199812756057367"><ele>280.0</ele><time>2026-04-18T08:08:09Z</time></trkpt><trkpt lat="43.099236919535706" lon="12.19985485283169"><ele>281.0</ele><time>2026-04-18T08:08:10Z</time></trkpt><trkpt lat="43.09907336152384" lon="12.19986820271251"><ele>282.0</ele><time>2026-04-18T08:08:11Z</time></trkpt><trkpt lat="43.098908525077576" lon="12.199861726548706"><ele>283.0</ele><time>2026-04-18T08:08:12Z</time></trkpt><trkpt lat="43.098742819208844" lon="12.199826761252798"><ele>281.0</ele><time>2026-04-18T08:08:13Z</time></trkpt><trkpt lat="43.098574197115106" lon="12.19981054003834"><ele>279.0</ele><time>2026-04-18T08:08:14Z</time></trkpt><trkpt lat="43.098407827921456" lon="12.199765331840833"><ele>277.0</ele><time>2026-04-18T08:08:15Z</time></trkpt><trkpt lat="43.09824833919684" lon="12.199729095310039"><ele>277.0</ele><time>2026-04-18T08:08:16Z</time></trkpt><trkpt lat="43.09809287731514" lon="12.19969438559613"><ele>277.0</ele><time>2026-04-18T08:08:17Z</time></trkpt><trkpt lat="43.09794207357678" lon="12.199679622379971"><ele>277.0</ele><time>2026-04-18T08:08:18Z</time></trkpt><trkpt lat="43.09779009301011" lon="12.199704453135533"><ele>277.0</ele><time>2026-04-18T08:08:19Z</time></trkpt><trkpt lat="43.09764313042721" lon="12.199787692536114"><ele>277.0</ele><time>2026-04-18T08:08:20Z</time></trkpt><trkpt lat="43.09749972224424" lon="12.199904801489291"><ele>277.0</ele><time>2026-04-18T08:08:21Z</time></trkpt><trkpt lat="43.097365228132" lon="12.20003991947643"><ele>279.0</ele><time>2026-04-18T08:08:22Z</time></trkpt><trkpt lat="43.09723781735113" lon="12.200170105478088"><ele>281.0</ele><time>2026-04-18T08:08:23Z</time></trkpt><trkpt lat="43.09711197821813" lon="12.200292803732665"><ele>283.0</ele><time>2026-04-18T08:08:24Z</time></trkpt><trkpt lat="43.09698648011907" lon="12.200412966304162"><ele>283.0</ele><time>2026-04-18T08:08:25Z</time></trkpt><trkpt lat="43.096848081885526" lon="12.200493627590525"><ele>283.0</ele><time>2026-04-18T08:08:26Z</time></trkpt><trkpt lat="43.09671192872419" lon="12.2005398688203"><ele>283.0</ele><time>2026-04-18T08:08:27Z</time></trkpt><trkpt lat="43.09656880846593" lon="12.200533750501966"><ele>283.0</ele><time>2026-04-18T08:08:28Z</time></trkpt><trkpt lat="43.09642651117755" lon="12.200471176884314"><ele>284.3333333333333</ele><time>2026-04-18T08:08:29Z</time></trkpt><trkpt lat="43.09629190991994" lon="12.200375631200632"><ele>285.6666666666667</ele><time>2026-04-18T08:08:30Z</time></trkpt><trkpt lat="43.09615135777898" lon="12.200273769520667"><ele>287.0</ele><time>2026-04-18T08:08:31Z</time></trkpt><trkpt lat="43.09601044621326" lon="12.200189061140355"><ele>287.0</ele><time>2026-04-18T08:08:32Z</time></trkpt><trkpt lat="43.09587544636244" lon="12.20008835344227"><ele>287.0</ele><time>2026-04-18T08:08:33Z</time></trkpt><trkpt lat="43.095734538222" lon="12.199987238277558"><ele>287.0</ele><time>2026-04-18T08:08:34Z</time></trkpt><trkpt lat="43.09559565946391" lon="12.199886579553462"><ele>288.33333333333337</ele><time>2026-04-18T08:08:35Z</time></trkpt><trkpt lat="43.09546047225366" lon="12.199787350738077"><ele>289.6666666666667</ele><time>2026-04-18T08:08:36Z</time></trkpt><trkpt lat="43.09532367346354" lon="12.199715532352203"><ele>291.0</ele><time>2026-04-18T08:08:37Z</time></trkpt><trkpt lat="43.09517591290286" lon="12.19966993993291"><ele>291.0</ele><time>2026-04-18T08:08:38Z</time></trkpt><trkpt lat="43.09502778075083" lon="12.199636067855094"><ele>291.0</ele><time>2026-04-18T08:08:38.999Z</time></trkpt><trkpt lat="43.09487557319" lon="12.199612947011097"><ele>291.0</ele><time>2026-04-18T08:08:39.999Z</time></trkpt><trkpt lat="43.09472617796304" lon="12.199579113472016"><ele>290.6666666666667</ele><time>2026-04-18T08:08:40.999Z</time></trkpt><trkpt lat="43.094568901861244" lon="12.199532603397461"><ele>290.33333333333337</ele><time>2026-04-18T08:08:41.999Z</time></trkpt><trkpt lat="43.09443489738171" lon="12.199451502589042"><ele>290.0</ele><time>2026-04-18T08:08:42.999Z</time></trkpt><trkpt lat="43.09429638112685" lon="12.199377797804514"><ele>290.0</ele><time>2026-04-18T08:08:43.999Z</time></trkpt><trkpt lat="43.09415866280548" lon="12.199312406123521"><ele>290.0</ele><time>2026-04-18T08:08:44.999Z</time></trkpt><trkpt lat="43.094034753522976" lon="12.199202229501854"><ele>290.0</ele><time>2026-04-18T08:08:45.999Z</time></trkpt><trkpt lat="43.09391050409207" lon="12.199114098525675"><ele>290.0</ele><time>2026-04-18T08:08:46.999Z</time></trkpt><trkpt lat="43.09378437358906" lon="12.199041631947557"><ele>288.75</ele><time>2026-04-18T08:08:47.999Z</time></trkpt><trkpt lat="43.09366321151641" lon="12.198942460697285"><ele>287.5</ele><time>2026-04-18T08:08:48.999Z</time></trkpt><trkpt lat="43.09353478704182" lon="12.198851627824288"><ele>286.25</ele><time>2026-04-18T08:08:49.999Z</time></trkpt><trkpt lat="43.09340326840231" lon="12.19876244168401"><ele>285.0</ele><time>2026-04-18T08:08:50.999Z</time></trkpt><trkpt lat="43.09326927612736" lon="12.198667173895846"><ele>284.6666666666667</ele><time>2026-04-18T08:08:51.999Z</time></trkpt><trkpt lat="43.09312899829674" lon="12.198582827513386"><ele>284.33333333333337</ele><time>2026-04-18T08:08:52.999Z</time></trkpt><trkpt lat="43.09297760610612" lon="12.198530482469408"><ele>284.0</ele><time>2026-04-18T08:08:53.999Z</time></trkpt><trkpt lat="43.09282887982422" lon="12.198506110599485"><ele>284.0</ele><time>2026-04-18T08:08:54.999Z</time></trkpt><trkpt lat="43.09269127630509" lon="12.198509745644511"><ele>284.0</ele><time>2026-04-18T08:08:56Z</time></trkpt><trkpt lat="43.092557888773705" lon="12.198503150016295"><ele>284.0</ele><time>2026-04-18T08:08:57Z</time></trkpt><trkpt lat="43.092424206623235" lon="12.198488881905291"><ele>284.0</ele><time>2026-04-18T08:08:58Z</time></trkpt><trkpt lat="43.09229960116604" lon="12.198413476819804"><ele>284.25</ele><time>2026-04-18T08:08:59Z</time></trkpt><trkpt lat="43.092186751802764" lon="12.198315674629578"><ele>284.5</ele><time>2026-04-18T08:09:00Z</time></trkpt><trkpt lat="43.09209007749174" lon="12.1981799753549"><ele>284.75</ele><time>2026-04-18T08:09:01Z</time></trkpt><trkpt lat="43.09201131311577" lon="12.1980109162455"><ele>285.0</ele><time>2026-04-18T08:09:02Z</time></trkpt><trkpt lat="43.09193695062701" lon="12.197836890163641"><ele>285.0</ele><time>2026-04-18T08:09:03Z</time></trkpt><trkpt lat="43.09185066690731" lon="12.197669154409809"><ele>285.0</ele><time>2026-04-18T08:09:04Z</time></trkpt><trkpt lat="43.09177332540966" lon="12.197521143096584"><ele>285.0</ele><time>2026-04-18T08:09:05Z</time></trkpt><trkpt lat="43.09167010685262" lon="12.197397177275171"><ele>285.0</ele><time>2026-04-18T08:09:06Z</time></trkpt><trkpt lat="43.09153197878837" lon="12.197309983732518"><ele>283.6666666666667</ele><time>2026-04-18T08:09:07Z</time></trkpt><trkpt lat="43.091380602361475" lon="12.197265596192107"><ele>282.33333333333337</ele><time>2026-04-18T08:09:08Z</time></trkpt><trkpt lat="43.09122559482146" lon="12.197268067989135"><ele>281.0</ele><time>2026-04-18T08:09:09Z</time></trkpt><trkpt lat="43.09107552900883" lon="12.197307346442837"><ele>283.0</ele><time>2026-04-18T08:09:10Z</time></trkpt><trkpt lat="43.090929233688065" lon="12.197362826948217"><ele>285.0</ele><time>2026-04-18T08:09:11Z</time></trkpt><trkpt lat="43.09078026399585" lon="12.197409035925864"><ele>287.0</ele><time>2026-04-18T08:09:12Z</time></trkpt><trkpt lat="43.09063547208237" lon="12.197441856491128"><ele>287.25</ele><time>2026-04-18T08:09:13Z</time></trkpt><trkpt lat="43.090486511311425" lon="12.197475999905794"><ele>287.5</ele><time>2026-04-18T08:09:14Z</time></trkpt><trkpt lat="43.090341923154845" lon="12.197516140822994"><ele>287.75</ele><time>2026-04-18T08:09:15Z</time></trkpt><trkpt lat="43.090208203886924" lon="12.197547973371774"><ele>288.0</ele><time>2026-04-18T08:09:16Z</time></trkpt><trkpt lat="43.090082595638535" lon="12.197571513225686"><ele>288.0</ele><time>2026-04-18T08:09:17Z</time></trkpt><trkpt lat="43.089954115217665" lon="12.197575259376519"><ele>288.0</ele><time>2026-04-18T08:09:18Z</time></trkpt><trkpt lat="43.08982742910942" lon="12.197535512439444"><ele>288.0</ele><time>2026-04-18T08:09:19Z</time></trkpt><trkpt lat="43.089721505816414" lon="12.197409122458614"><ele>288.0</ele><time>2026-04-18T08:09:20Z</time></trkpt><trkpt lat="43.089627946124416" lon="12.19727206683834"><ele>290.0</ele><time>2026-04-18T08:09:21Z</time></trkpt><trkpt lat="43.089565236950996" lon="12.19709525886222"><ele>292.0</ele><time>2026-04-18T08:09:22Z</time></trkpt><trkpt lat="43.089505176449315" lon="12.196909132997515"><ele>294.0</ele><time>2026-04-18T08:09:23Z</time></trkpt><trkpt lat="43.08942776101263" lon="12.196747801756137"><ele>296.0</ele><time>2026-04-18T08:09:24Z</time></trkpt><trkpt lat="43.089360052263345" lon="12.196596947118511"><ele>295.0</ele><time>2026-04-18T08:09:25Z</time></trkpt><trkpt lat="43.08927314475831" lon="12.19646189277324"><ele>294.0</ele><time>2026-04-18T08:09:26Z</time></trkpt><trkpt lat="43.089166197301516" lon="12.196350572896257"><ele>293.0</ele><time>2026-04-18T08:09:27Z</time></trkpt><trkpt lat="43.0890429092841" lon="12.19626496297658"><ele>292.0</ele><time>2026-04-18T08:09:28Z</time></trkpt><trkpt lat="43.088918834179964" lon="12.196196200439541"><ele>292.0</ele><time>2026-04-18T08:09:29Z</time></trkpt><trkpt lat="43.088802689518864" lon="12.196129009554227"><ele>292.0</ele><time>2026-04-18T08:09:30Z</time></trkpt><trkpt lat="43.0886843818098" lon="12.196063266289537"><ele>292.0</ele><time>2026-04-18T08:09:31Z</time></trkpt><trkpt lat="43.08857036745563" lon="12.195999396833061"><ele>292.0</ele><time>2026-04-18T08:09:32Z</time></trkpt><trkpt lat="43.088451453442424" lon="12.195938968449441"><ele>292.0</ele><time>2026-04-18T08:09:33Z</time></trkpt><trkpt lat="43.088327721140615" lon="12.195869307880345"><ele>292.0</ele><time>2026-04-18T08:09:34Z</time></trkpt><trkpt lat="43.0882080054957" lon="12.195800734110131"><ele>292.0</ele><time>2026-04-18T08:09:35Z</time></trkpt><trkpt lat="43.088095626009526" lon="12.195740272642468"><ele>292.0</ele><time>2026-04-18T08:09:36Z</time></trkpt><trkpt lat="43.08799412237993" lon="12.195683343314547"><ele>291.0</ele><time>2026-04-18T08:09:37Z</time></trkpt><trkpt lat="43.08789036817629" lon="12.195628923446135"><ele>290.0</ele><time>2026-04-18T08:09:38Z</time></trkpt><trkpt lat="43.087792469251774" lon="12.195567153280026"><ele>289.0</ele><time>2026-04-18T08:09:39Z</time></trkpt><trkpt lat="43.0877028229727" lon="12.195464979939098"><ele>288.0</ele><time>2026-04-18T08:09:40Z</time></trkpt><trkpt lat="43.08760451846295" lon="12.195378158889554"><ele>288.0</ele><time>2026-04-18T08:09:41Z</time></trkpt><trkpt lat="43.08755958955625" lon="12.195235680820609"><ele>288.0</ele><time>2026-04-18T08:09:42Z</time></trkpt><trkpt lat="43.08751874155578" lon="12.19510666241949"><ele>288.0</ele><time>2026-04-18T08:09:43Z</time></trkpt><trkpt lat="43.0874946155354" lon="12.19497602009925"><ele>288.0</ele><time>2026-04-18T08:09:44Z</time></trkpt><trkpt lat="43.0874900857941" lon="12.194847641570593"><ele>288.0</ele><time>2026-04-18T08:09:45Z</time></trkpt><trkpt lat="43.08749619697567" lon="12.194733148177116"><ele>287.25</ele><time>2026-04-18T08:09:46Z</time></trkpt><trkpt lat="43.087506496446984" lon="12.194599173040471"><ele>286.5</ele><time>2026-04-18T08:09:47Z</time></trkpt><trkpt lat="43.08751574059022" lon="12.194486867029529"><ele>285.75</ele><time>2026-04-18T08:09:48Z</time></trkpt><trkpt lat="43.087527659530735" lon="12.194346267877009"><ele>285.0</ele><time>2026-04-18T08:09:50Z</time></trkpt><trkpt lat="43.087352339800056" lon="12.194228068185813"><ele>288.1666666666667</ele><time>2026-04-18T08:09:52Z</time></trkpt><trkpt lat="43.08728286045905" lon="12.194226456443527"><ele>291.3333333333333</ele><time>2026-04-18T08:09:53Z</time></trkpt><trkpt lat="43.08721734077878" lon="12.19427269089534"><ele>294.5</ele><time>2026-04-18T08:09:54Z</time></trkpt><trkpt lat="43.087146709908154" lon="12.194353143369485"><ele>297.66666666666663</ele><time>2026-04-18T08:09:55Z</time></trkpt><trkpt lat="43.087070932699355" lon="12.194447765485569"><ele>300.8333333333333</ele><time>2026-04-18T08:09:56Z</time></trkpt><trkpt lat="43.0870033277654" lon="12.194566640037182"><ele>304.0</ele><time>2026-04-18T08:09:57Z</time></trkpt><trkpt lat="43.08693034161666" lon="12.194708380138097"><ele>303.0</ele><time>2026-04-18T08:09:58Z</time></trkpt><trkpt lat="43.08685483511939" lon="12.194853539873638"><ele>302.0</ele><time>2026-04-18T08:09:59Z</time></trkpt><trkpt lat="43.08677388440721" lon="12.195004884083739"><ele>301.0</ele><time>2026-04-18T08:10:00Z</time></trkpt><trkpt lat="43.086688551119224" lon="12.195162147743401"><ele>300.0</ele><time>2026-04-18T08:10:01Z</time></trkpt><trkpt lat="43.08659966008092" lon="12.195319475634719"><ele>304.25</ele><time>2026-04-18T08:10:02Z</time></trkpt><trkpt lat="43.08651080222113" lon="12.195477628392991"><ele>308.5</ele><time>2026-04-18T08:10:03Z</time></trkpt><trkpt lat="43.08642364523341" lon="12.195625643619222"><ele>312.75</ele><time>2026-04-18T08:10:04Z</time></trkpt><trkpt lat="43.08634138672587" lon="12.195766255606156"><ele>317.0</ele><time>2026-04-18T08:10:05Z</time></trkpt><trkpt lat="43.0862663662711" lon="12.195907298836495"><ele>317.0</ele><time>2026-04-18T08:10:06Z</time></trkpt><trkpt lat="43.08619087988287" lon="12.196044809323029"><ele>317.0</ele><time>2026-04-18T08:10:07Z</time></trkpt><trkpt lat="43.08611868324268" lon="12.196178705671096"><ele>317.0</ele><time>2026-04-18T08:10:08Z</time></trkpt><trkpt lat="43.086045835372374" lon="12.196312160621229"><ele>317.0</ele><time>2026-04-18T08:10:09Z</time></trkpt><trkpt lat="43.085972141260875" lon="12.196440241100463"><ele>318.25</ele><time>2026-04-18T08:10:10Z</time></trkpt><trkpt lat="43.08590006522078" lon="12.19657432324029"><ele>319.5</ele><time>2026-04-18T08:10:11Z</time></trkpt><trkpt lat="43.08582691773471" lon="12.196710702160056"><ele>320.75</ele><time>2026-04-18T08:10:12Z</time></trkpt><trkpt lat="43.08575212815829" lon="12.196851343599635"><ele>322.0</ele><time>2026-04-18T08:10:13Z</time></trkpt><trkpt lat="43.085673044931305" lon="12.196987161475155"><ele>322.0</ele><time>2026-04-18T08:10:14Z</time></trkpt><trkpt lat="43.085604057042346" lon="12.197094863810818"><ele>322.0</ele><time>2026-04-18T08:10:15Z</time></trkpt><trkpt lat="43.08554037374887" lon="12.197211698071428"><ele>322.0</ele><time>2026-04-18T08:10:16Z</time></trkpt><trkpt lat="43.08548766240019" lon="12.197316706470193"><ele>322.0</ele><time>2026-04-18T08:10:17Z</time></trkpt><trkpt lat="43.0854332294997" lon="12.197407801850186"><ele>322.0</ele><time>2026-04-18T08:10:18Z</time></trkpt><trkpt lat="43.08538514431984" lon="12.19748577076462"><ele>322.0</ele><time>2026-04-18T08:10:19Z</time></trkpt><trkpt lat="43.085331991789964" lon="12.197554520690899"><ele>322.0</ele><time>2026-04-18T08:10:20Z</time></trkpt><trkpt lat="43.08527246492617" lon="12.197628601237138"><ele>322.0</ele><time>2026-04-18T08:10:21Z</time></trkpt><trkpt lat="43.0852037394347" lon="12.19768866027491"><ele>322.0</ele><time>2026-04-18T08:10:22Z</time></trkpt><trkpt lat="43.08513747488788" lon="12.197742408970498"><ele>322.0</ele><time>2026-04-18T08:10:23Z</time></trkpt><trkpt lat="43.085072539850955" lon="12.197789636514745"><ele>322.0</ele><time>2026-04-18T08:10:24Z</time></trkpt><trkpt lat="43.08497132043222" lon="12.197842890343622"><ele>321.75</ele><time>2026-04-18T08:10:26Z</time></trkpt><trkpt lat="43.084856211230054" lon="12.197878880055883"><ele>321.5</ele><time>2026-04-18T08:10:28Z</time></trkpt><trkpt lat="43.08476693193615" lon="12.197947497578035"><ele>321.25</ele><time>2026-04-18T08:10:30Z</time></trkpt><trkpt lat="43.084558040725504" lon="12.198066579009426"><ele>321.0</ele><time>2026-04-18T08:10:33Z</time></trkpt><trkpt lat="43.08444749261927" lon="12.198023648353855"><ele>321.0</ele><time>2026-04-18T08:10:36Z</time></trkpt><trkpt lat="43.084317138192304" lon="12.197831227117968"><ele>321.0</ele><time>2026-04-18T08:10:38Z</time></trkpt><trkpt lat="43.084260024681335" lon="12.197950846356393"><ele>321.0</ele><time>2026-04-18T08:10:40Z</time></trkpt><trkpt lat="43.08434884698766" lon="12.19809736853153"><ele>321.0</ele><time>2026-04-18T08:10:41Z</time></trkpt><trkpt lat="43.08414492836841" lon="12.19738537926984"><ele>321.5</ele><time>2026-04-18T08:10:44.999Z</time></trkpt><trkpt lat="43.08405878748168" lon="12.1973365878634"><ele>322.0</ele><time>2026-04-18T08:10:46.999Z</time></trkpt><trkpt lat="43.08399594909749" lon="12.197347425405498"><ele>322.5</ele><time>2026-04-18T08:10:47.999Z</time></trkpt><trkpt lat="43.083897926311366" lon="12.197312580876437"><ele>323.0</ele><time>2026-04-18T08:10:49.999Z</time></trkpt><trkpt lat="43.08380190456836" lon="12.197240127284129"><ele>323.5</ele><time>2026-04-18T08:10:51.999Z</time></trkpt><trkpt lat="43.083742266303794" lon="12.19721206396827"><ele>324.0</ele><time>2026-04-18T08:10:52.999Z</time></trkpt><trkpt lat="43.08367741747948" lon="12.197160697617104"><ele>324.0</ele><time>2026-04-18T08:10:54.999Z</time></trkpt><trkpt lat="43.08365958279541" lon="12.1970060041742"><ele>324.0</ele><time>2026-04-18T08:11:05Z</time></trkpt><trkpt lat="43.08366402286893" lon="12.196853480250214"><ele>324.0</ele><time>2026-04-18T08:11:07Z</time></trkpt><trkpt lat="43.08370266017144" lon="12.196782500964"><ele>324.0</ele><time>2026-04-18T08:11:09Z</time></trkpt><trkpt lat="43.08380150456541" lon="12.196733050817617"><ele>324.0</ele><time>2026-04-18T08:11:11Z</time></trkpt><trkpt lat="43.08391913616638" lon="12.196716647903116"><ele>324.0</ele><time>2026-04-18T08:11:13Z</time></trkpt><trkpt lat="43.08401207574113" lon="12.196639244009917"><ele>324.0</ele><time>2026-04-18T08:11:15Z</time></trkpt><trkpt lat="43.08406754511655" lon="12.196477474022247"><ele>324.0</ele><time>2026-04-18T08:11:17Z</time></trkpt><trkpt lat="43.08410620799975" lon="12.196403467870985"><ele>324.0</ele><time>2026-04-18T08:11:18Z</time></trkpt><trkpt lat="43.08420372888638" lon="12.196365558996114"><ele>324.0</ele><time>2026-04-18T08:11:20Z</time></trkpt><trkpt lat="43.08428692061441" lon="12.196440539630705"><ele>326.79999999999995</ele><time>2026-04-18T08:11:22Z</time></trkpt><trkpt lat="43.084341501085376" lon="12.196551401030947"><ele>329.59999999999997</ele><time>2026-04-18T08:11:24Z</time></trkpt><trkpt lat="43.08439068866548" lon="12.196628205864368"><ele>332.4</ele><time>2026-04-18T08:11:25Z</time></trkpt><trkpt lat="43.08446745390065" lon="12.196663406935912"><ele>335.2</ele><time>2026-04-18T08:11:27Z</time></trkpt><trkpt lat="43.08458005928647" lon="12.196604766559858"><ele>338.0</ele><time>2026-04-18T08:11:29Z</time></trkpt><trkpt lat="43.08464328945266" lon="12.196541254327155"><ele>339.83333333333337</ele><time>2026-04-18T08:11:31Z</time></trkpt><trkpt lat="43.08466690599364" lon="12.196457594038817"><ele>341.6666666666667</ele><time>2026-04-18T08:11:32Z</time></trkpt><trkpt lat="43.08467084670659" lon="12.196366996677199"><ele>343.5</ele><time>2026-04-18T08:11:33Z</time></trkpt><trkpt lat="43.08465114029852" lon="12.196263649640262"><ele>345.3333333333333</ele><time>2026-04-18T08:11:34Z</time></trkpt><trkpt lat="43.08462369934637" lon="12.196182541154299"><ele>347.16666666666663</ele><time>2026-04-18T08:11:35Z</time></trkpt><trkpt lat="43.0845540282934" lon="12.196040263132867"><ele>349.0</ele><time>2026-04-18T08:11:37Z</time></trkpt><trkpt lat="43.084519015170834" lon="12.19594218774133"><ele>349.0</ele><time>2026-04-18T08:11:38Z</time></trkpt><trkpt lat="43.08448369581829" lon="12.195855207633217"><ele>349.0</ele><time>2026-04-18T08:11:39Z</time></trkpt><trkpt lat="43.084448101610185" lon="12.195782467971553"><ele>349.0</ele><time>2026-04-18T08:11:40Z</time></trkpt><trkpt lat="43.084389725144995" lon="12.195711417384825"><ele>349.0</ele><time>2026-04-18T08:11:41Z</time></trkpt><trkpt lat="43.08432372398597" lon="12.195636593548246"><ele>349.0</ele><time>2026-04-18T08:11:42Z</time></trkpt><trkpt lat="43.084263483101246" lon="12.195558947067017"><ele>349.0</ele><time>2026-04-18T08:11:43Z</time></trkpt><trkpt lat="43.08421170139992" lon="12.195456661332372"><ele>348.8333333333333</ele><time>2026-04-18T08:11:44Z</time></trkpt><trkpt lat="43.08414355323305" lon="12.19535368434931"><ele>348.66666666666663</ele><time>2026-04-18T08:11:45Z</time></trkpt><trkpt lat="43.08407553616686" lon="12.19525182305543"><ele>348.5</ele><time>2026-04-18T08:11:46Z</time></trkpt><trkpt lat="43.08401593718156" lon="12.195185437321035"><ele>348.3333333333333</ele><time>2026-04-18T08:11:47Z</time></trkpt><trkpt lat="43.083962996498265" lon="12.195111952987833"><ele>348.1666666666667</ele><time>2026-04-18T08:11:48Z</time></trkpt><trkpt lat="43.083911335777834" lon="12.195055602508045"><ele>348.0</ele><time>2026-04-18T08:11:49Z</time></trkpt><trkpt lat="43.08381772447126" lon="12.194970266232534"><ele>348.0</ele><time>2026-04-18T08:11:51Z</time></trkpt><trkpt lat="43.0837719291897" lon="12.194839711823239"><ele>348.0</ele><time>2026-04-18T08:11:53Z</time></trkpt><trkpt lat="43.083756603136194" lon="12.194726822688141"><ele>348.0</ele><time>2026-04-18T08:11:54Z</time></trkpt><trkpt lat="43.08375445031838" lon="12.19462371375453"><ele>348.0</ele><time>2026-04-18T08:11:55Z</time></trkpt><trkpt lat="43.08379789316653" lon="12.194462686434086"><ele>348.0</ele><time>2026-04-18T08:11:57Z</time></trkpt><trkpt lat="43.083824973072666" lon="12.194370978573772"><ele>349.6666666666667</ele><time>2026-04-18T08:11:59Z</time></trkpt><trkpt lat="43.083801804642015" lon="12.19423466565119"><ele>351.3333333333333</ele><time>2026-04-18T08:12:01Z</time></trkpt><trkpt lat="43.08381188498016" lon="12.194135068300055"><ele>353.0</ele><time>2026-04-18T08:12:02Z</time></trkpt><trkpt lat="43.08381818657915" lon="12.194019623816576"><ele>354.66666666666663</ele><time>2026-04-18T08:12:03Z</time></trkpt><trkpt lat="43.08382913671258" lon="12.193900152833892"><ele>356.3333333333333</ele><time>2026-04-18T08:12:04Z</time></trkpt><trkpt lat="43.083843486755924" lon="12.193809087463505"><ele>358.0</ele><time>2026-04-18T08:12:05Z</time></trkpt><trkpt lat="43.08385516365923" lon="12.193710049958849"><ele>360.0</ele><time>2026-04-18T08:12:06Z</time></trkpt><trkpt lat="43.083865752641685" lon="12.193596332295522"><ele>362.0</ele><time>2026-04-18T08:12:07Z</time></trkpt><trkpt lat="43.083871937880495" lon="12.193493461635372"><ele>364.0</ele><time>2026-04-18T08:12:08Z</time></trkpt><trkpt lat="43.083873815758885" lon="12.193339110648518"><ele>366.0</ele><time>2026-04-18T08:12:10Z</time></trkpt><trkpt lat="43.08385802666941" lon="12.193253809602068"><ele>368.0</ele><time>2026-04-18T08:12:11Z</time></trkpt><trkpt lat="43.08382808680413" lon="12.193172662198393"><ele>370.0</ele><time>2026-04-18T08:12:12Z</time></trkpt><trkpt lat="43.08379936687525" lon="12.193078629730914"><ele>371.8333333333333</ele><time>2026-04-18T08:12:13Z</time></trkpt><trkpt lat="43.08376884361018" lon="12.192991050722307"><ele>373.66666666666663</ele><time>2026-04-18T08:12:14Z</time></trkpt><trkpt lat="43.08374103714627" lon="12.192869221738688"><ele>375.5</ele><time>2026-04-18T08:12:16Z</time></trkpt><trkpt lat="43.0837162456729" lon="12.192787915791621"><ele>377.3333333333333</ele><time>2026-04-18T08:12:17Z</time></trkpt><trkpt lat="43.08365883511482" lon="12.192710846469549"><ele>379.1666666666667</ele><time>2026-04-18T08:12:19Z</time></trkpt><trkpt lat="43.08358734831701" lon="12.192591440510013"><ele>381.0</ele><time>2026-04-18T08:12:21Z</time></trkpt><trkpt lat="43.08355324014137" lon="12.192508863063766"><ele>381.0</ele><time>2026-04-18T08:12:23Z</time></trkpt><trkpt lat="43.0834913958702" lon="12.192364291147802"><ele>381.0</ele><time>2026-04-18T08:12:25Z</time></trkpt><trkpt lat="43.08343146996382" lon="12.1922271140088"><ele>381.0</ele><time>2026-04-18T08:12:27Z</time></trkpt><trkpt lat="43.0833706428933" lon="12.192161836019459"><ele>381.0</ele><time>2026-04-18T08:12:28Z</time></trkpt><trkpt lat="43.08331915654824" lon="12.192106848115085"><ele>381.0</ele><time>2026-04-18T08:12:29Z</time></trkpt><trkpt lat="43.08327231717216" lon="12.192046846083002"><ele>381.0</ele><time>2026-04-18T08:12:30Z</time></trkpt><trkpt lat="43.08317091599433" lon="12.191988581506688"><ele>383.0</ele><time>2026-04-18T08:12:32Z</time></trkpt><trkpt lat="43.08306017740775" lon="12.19192432248871"><ele>385.0</ele><time>2026-04-18T08:12:34Z</time></trkpt><trkpt lat="43.0829912547725" lon="12.191867384446926"><ele>387.0</ele><time>2026-04-18T08:12:36Z</time></trkpt><trkpt lat="43.08290619471058" lon="12.19180611292146"><ele>389.0</ele><time>2026-04-18T08:12:38Z</time></trkpt><trkpt lat="43.08280488774111" lon="12.191790435016575"><ele>391.0</ele><time>2026-04-18T08:12:40Z</time></trkpt><trkpt lat="43.08274950510331" lon="12.19174914336006"><ele>391.0</ele><time>2026-04-18T08:12:41Z</time></trkpt><trkpt lat="43.08265910498789" lon="12.191682108802755"><ele>391.0</ele><time>2026-04-18T08:12:43Z</time></trkpt><trkpt lat="43.08254909788122" lon="12.191609785906516"><ele>391.0</ele><time>2026-04-18T08:12:45Z</time></trkpt><trkpt lat="43.08245782387257" lon="12.191540926234367"><ele>391.0</ele><time>2026-04-18T08:12:47Z</time></trkpt><trkpt lat="43.08236808750762" lon="12.191510087194626"><ele>391.0</ele><time>2026-04-18T08:12:49Z</time></trkpt><trkpt lat="43.08228392278637" lon="12.191447634252304"><ele>391.6</ele><time>2026-04-18T08:12:51Z</time></trkpt><trkpt lat="43.08222530858968" lon="12.191330556588618"><ele>392.20000000000005</ele><time>2026-04-18T08:12:53Z</time></trkpt><trkpt lat="43.082214856307424" lon="12.191227312894437"><ele>392.79999999999995</ele><time>2026-04-18T08:12:56Z</time></trkpt><trkpt lat="43.08217187081343" lon="12.191131057354474"><ele>393.4</ele><time>2026-04-18T08:12:59Z</time></trkpt><trkpt lat="43.08211330338867" lon="12.191059458685388"><ele>394.0</ele><time>2026-04-18T08:13:02Z</time></trkpt><trkpt lat="43.08205804587573" lon="12.19091209937895"><ele>394.00000000000006</ele><time>2026-04-18T08:13:04Z</time></trkpt><trkpt lat="43.08203409890244" lon="12.190794141676252"><ele>394.0</ele><time>2026-04-18T08:13:06Z</time></trkpt><trkpt lat="43.08200213034945" lon="12.190718405495929"><ele>394.0</ele><time>2026-04-18T08:13:09Z</time></trkpt><trkpt lat="43.081934481825556" lon="12.190552438680061"><ele>394.0</ele><time>2026-04-18T08:13:17Z</time></trkpt><trkpt lat="43.08189130216396" lon="12.19045527068585"><ele>394.00000000000006</ele><time>2026-04-18T08:13:18Z</time></trkpt><trkpt lat="43.081862675313126" lon="12.190375755337884"><ele>394.0</ele><time>2026-04-18T08:13:19Z</time></trkpt><trkpt lat="43.0818097993183" lon="12.190249632550927"><ele>394.83333333333337</ele><time>2026-04-18T08:13:21Z</time></trkpt><trkpt lat="43.08178467728762" lon="12.190103471627861"><ele>395.6666666666667</ele><time>2026-04-18T08:13:23Z</time></trkpt><trkpt lat="43.08174359224302" lon="12.1900354463164"><ele>396.5</ele><time>2026-04-18T08:13:24Z</time></trkpt><trkpt lat="43.081690916806586" lon="12.189954067023635"><ele>397.33333333333337</ele><time>2026-04-18T08:13:25Z</time></trkpt><trkpt lat="43.08165982734264" lon="12.189839604627721"><ele>398.1666666666667</ele><time>2026-04-18T08:13:26Z</time></trkpt><trkpt lat="43.08162659893915" lon="12.189734119409332"><ele>399.0</ele><time>2026-04-18T08:13:27Z</time></trkpt><trkpt lat="43.08159369634799" lon="12.189628640106358"><ele>413.0</ele><time>2026-04-18T08:13:28Z</time></trkpt><trkpt lat="43.08157428730432" lon="12.189538229032005"><ele>413.0</ele><time>2026-04-18T08:13:29Z</time></trkpt><trkpt lat="43.08154306678531" lon="12.189460367279278"><ele>413.0</ele><time>2026-04-18T08:13:30Z</time></trkpt><trkpt lat="43.081549183616936" lon="12.18937217005121"><ele>413.0</ele><time>2026-04-18T08:13:32Z</time></trkpt></trkseg><trkseg><trkpt lat="43.08152176857021" lon="12.189468803624786"><ele>412.99999999999994</ele><time>2026-04-18T08:29:05Z</time></trkpt><trkpt lat="43.08151114943251" lon="12.189369460786443"><ele>413.0</ele><time>2026-04-18T08:29:41.998Z</time></trkpt><trkpt lat="43.081446405639674" lon="12.189306373696192"><ele>413.0</ele><time>2026-04-18T08:30:41Z</time></trkpt><trkpt lat="43.08138713567343" lon="12.189270527598433"><ele>413.0</ele><time>2026-04-18T08:30:42Z</time></trkpt><trkpt lat="43.08129884862878" lon="12.189211278277817"><ele>412.99999999999994</ele><time>2026-04-18T08:30:44Z</time></trkpt><trkpt lat="43.081217498716036" lon="12.189133664654621"><ele>413.0</ele><time>2026-04-18T08:30:46Z</time></trkpt><trkpt lat="43.081129228511585" lon="12.189077552496428"><ele>413.0</ele><time>2026-04-18T08:30:48Z</time></trkpt><trkpt lat="43.081058176507085" lon="12.189039202012028"><ele>413.0</ele><time>2026-04-18T08:30:50Z</time></trkpt><trkpt lat="43.08098281852795" lon="12.188992950663163"><ele>413.0</ele><time>2026-04-18T08:30:52Z</time></trkpt><trkpt lat="43.08091139430285" lon="12.188905797761395"><ele>413.0</ele><time>2026-04-18T08:30:54Z</time></trkpt><trkpt lat="43.08080725654569" lon="12.188848056676147"><ele>413.0</ele><time>2026-04-18T08:30:56Z</time></trkpt><trkpt lat="43.08071144415048" lon="12.188835943293837"><ele>415.4</ele><time>2026-04-18T08:30:58Z</time></trkpt><trkpt lat="43.08061102763207" lon="12.18881620915842"><ele>417.79999999999995</ele><time>2026-04-18T08:31:00Z</time></trkpt><trkpt lat="43.08050641227587" lon="12.18879357812364"><ele>420.2</ele><time>2026-04-18T08:31:02Z</time></trkpt><trkpt lat="43.08043275994493" lon="12.188710400044405"><ele>422.6</ele><time>2026-04-18T08:31:04Z</time></trkpt><trkpt lat="43.08033344772344" lon="12.188633358567726"><ele>425.0</ele><time>2026-04-18T08:31:06Z</time></trkpt><trkpt lat="43.08027463255384" lon="12.1885892402407"><ele>424.99999999999994</ele><time>2026-04-18T08:31:08Z</time></trkpt><trkpt lat="43.08020916223715" lon="12.188559442914515"><ele>425.0</ele><time>2026-04-18T08:31:10Z</time></trkpt><trkpt lat="43.08011345310146" lon="12.188557994509893"><ele>425.0</ele><time>2026-04-18T08:31:13Z</time></trkpt><trkpt lat="43.080047313212724" lon="12.188537038202547"><ele>425.0</ele><time>2026-04-18T08:31:18Z</time></trkpt><trkpt lat="43.07998957646189" lon="12.188472108898795"><ele>424.99999999999994</ele><time>2026-04-18T08:31:21Z</time></trkpt><trkpt lat="43.07997334470624" lon="12.188355431530056"><ele>425.0</ele><time>2026-04-18T08:31:24Z</time></trkpt><trkpt lat="43.079877061512185" lon="12.188267688675179"><ele>428.49999999999994</ele><time>2026-04-18T08:31:26Z</time></trkpt><trkpt lat="43.079803476717" lon="12.188174073837502"><ele>432.0</ele><time>2026-04-18T08:31:28Z</time></trkpt><trkpt lat="43.07974548099253" lon="12.188120032985836"><ele>435.5</ele><time>2026-04-18T08:31:30Z</time></trkpt><trkpt lat="43.07966027199667" lon="12.18807050019506"><ele>439.0</ele><time>2026-04-18T08:31:32Z</time></trkpt><trkpt lat="43.079577412369794" lon="12.188007424505981"><ele>442.49999999999994</ele><time>2026-04-18T08:31:34Z</time></trkpt><trkpt lat="43.07952765293126" lon="12.187921508846372"><ele>446.0</ele><time>2026-04-18T08:31:36Z</time></trkpt><trkpt lat="43.07948118707969" lon="12.18783050463015"><ele>446.0</ele><time>2026-04-18T08:31:38Z</time></trkpt><trkpt lat="43.07941647739238" lon="12.187852236146686"><ele>446.0</ele><time>2026-04-18T08:31:41Z</time></trkpt><trkpt lat="43.07933861765839" lon="12.187799653787485"><ele>446.0</ele><time>2026-04-18T08:31:45.998Z</time></trkpt><trkpt lat="43.0792802158515" lon="12.18776474395192"><ele>446.0</ele><time>2026-04-18T08:31:49.998Z</time></trkpt><trkpt lat="43.07921545634787" lon="12.187743086887194"><ele>446.0</ele><time>2026-04-18T08:31:51.998Z</time></trkpt><trkpt lat="43.07915277353034" lon="12.187696189434288"><ele>446.0</ele><time>2026-04-18T08:31:56.999Z</time></trkpt><trkpt lat="43.079074744218914" lon="12.187648917863228"><ele>446.0</ele><time>2026-04-18T08:32:26Z</time></trkpt><trkpt lat="43.078976747758716" lon="12.187622665665128"><ele>446.99999999999994</ele><time>2026-04-18T08:32:29Z</time></trkpt><trkpt lat="43.07890697905277" lon="12.187629585679714"><ele>448.0</ele><time>2026-04-18T08:32:31Z</time></trkpt><trkpt lat="43.07881552842217" lon="12.187592527774175"><ele>449.0</ele><time>2026-04-18T08:32:34Z</time></trkpt><trkpt lat="43.07871719037454" lon="12.187648323420875"><ele>450.0</ele><time>2026-04-18T08:32:36Z</time></trkpt><trkpt lat="43.078680925410936" lon="12.187572790521891"><ele>450.99999999999994</ele><time>2026-04-18T08:32:38Z</time></trkpt><trkpt lat="43.07859947982531" lon="12.187556023549414"><ele>452.0</ele><time>2026-04-18T08:32:40Z</time></trkpt><trkpt lat="43.07853880153962" lon="12.187499237355523"><ele>451.99999999999994</ele><time>2026-04-18T08:32:42Z</time></trkpt><trkpt lat="43.07845740525498" lon="12.187505921192415"><ele>452.0</ele><time>2026-04-18T08:32:45Z</time></trkpt><trkpt lat="43.07839561224676" lon="12.187447580288637"><ele>452.0</ele><time>2026-04-18T08:32:48Z</time></trkpt><trkpt lat="43.078337220685285" lon="12.187387564882187"><ele>452.0</ele><time>2026-04-18T08:32:50Z</time></trkpt><trkpt lat="43.07826468410892" lon="12.18735348749376"><ele>451.99999999999994</ele><time>2026-04-18T08:32:52Z</time></trkpt><trkpt lat="43.07819775579619" lon="12.187317260050998"><ele>452.0</ele><time>2026-04-18T08:32:54Z</time></trkpt><trkpt lat="43.078079462994445" lon="12.187302752778079"><ele>455.99999999999994</ele><time>2026-04-18T08:32:56Z</time></trkpt><trkpt lat="43.07800673852269" lon="12.187285147451043"><ele>460.0</ele><time>2026-04-18T08:32:58Z</time></trkpt><trkpt lat="43.07793032234133" lon="12.18724189196219"><ele>464.0</ele><time>2026-04-18T08:33:00Z</time></trkpt><trkpt lat="43.07789018353758" lon="12.187156289816613"><ele>468.0</ele><time>2026-04-18T08:33:02Z</time></trkpt><trkpt lat="43.07781666597428" lon="12.187124687652888"><ele>471.99999999999994</ele><time>2026-04-18T08:33:04Z</time></trkpt><trkpt lat="43.077698376129376" lon="12.18711689296709"><ele>476.0</ele><time>2026-04-18T08:33:06Z</time></trkpt><trkpt lat="43.07762769006891" lon="12.187031781155664"><ele>475.99999999999994</ele><time>2026-04-18T08:33:08Z</time></trkpt><trkpt lat="43.077540561328284" lon="12.186957761945866"><ele>476.0</ele><time>2026-04-18T08:33:11Z</time></trkpt><trkpt lat="43.07748545973343" lon="12.186912130752285"><ele>476.0</ele><time>2026-04-18T08:33:12Z</time></trkpt><trkpt lat="43.07738781509331" lon="12.186840232502902"><ele>476.0</ele><time>2026-04-18T08:33:14Z</time></trkpt><trkpt lat="43.07731411578417" lon="12.186759415314972"><ele>475.99999999999994</ele><time>2026-04-18T08:33:16.001Z</time></trkpt><trkpt lat="43.07731782794009" lon="12.18666546472741"><ele>476.0</ele><time>2026-04-18T08:33:18.001Z</time></trkpt><trkpt lat="43.07737823806716" lon="12.186627352381047"><ele>476.99999999999994</ele><time>2026-04-18T08:33:20.001Z</time></trkpt><trkpt lat="43.07742531700463" lon="12.186558867184104"><ele>478.0</ele><time>2026-04-18T08:33:22.001Z</time></trkpt><trkpt lat="43.07738884909554" lon="12.186417441425606"><ele>479.0</ele><time>2026-04-18T08:33:24.001Z</time></trkpt><trkpt lat="43.077359129684844" lon="12.186287155251197"><ele>480.0</ele><time>2026-04-18T08:33:26.001Z</time></trkpt><trkpt lat="43.07734605511226" lon="12.186161475675936"><ele>480.99999999999994</ele><time>2026-04-18T08:33:28.001Z</time></trkpt><trkpt lat="43.07738320885495" lon="12.186066402837497"><ele>482.0</ele><time>2026-04-18T08:33:33.001Z</time></trkpt><trkpt lat="43.077439889796274" lon="12.185965401774368"><ele>481.99999999999994</ele><time>2026-04-18T08:33:35.001Z</time></trkpt><trkpt lat="43.07750453098611" lon="12.185885472636134"><ele>482.0</ele><time>2026-04-18T08:33:37.001Z</time></trkpt><trkpt lat="43.077558943443556" lon="12.185780088403666"><ele>482.0</ele><time>2026-04-18T08:33:39.001Z</time></trkpt><trkpt lat="43.077583751546065" lon="12.18570068122333"><ele>482.0</ele><time>2026-04-18T08:33:42.001Z</time></trkpt><trkpt lat="43.0776199274803" lon="12.185567283404781"><ele>481.99999999999994</ele><time>2026-04-18T08:34:19Z</time></trkpt><trkpt lat="43.07767352212219" lon="12.185476943860701"><ele>482.0</ele><time>2026-04-18T08:34:21Z</time></trkpt><trkpt lat="43.07772726688344" lon="12.185367749694004"><ele>480.99999999999994</ele><time>2026-04-18T08:34:23.001Z</time></trkpt><trkpt lat="43.07782796687708" lon="12.185254429699926"><ele>480.0</ele><time>2026-04-18T08:34:25.001Z</time></trkpt><trkpt lat="43.077884994553926" lon="12.185202534239917"><ele>479.0</ele><time>2026-04-18T08:34:26.001Z</time></trkpt><trkpt lat="43.07796417295767" lon="12.185153834332958"><ele>478.0</ele><time>2026-04-18T08:34:28.001Z</time></trkpt><trkpt lat="43.07803477444925" lon="12.185102806033152"><ele>476.99999999999994</ele><time>2026-04-18T08:34:30.001Z</time></trkpt><trkpt lat="43.0780493671897" lon="12.185003123271654"><ele>476.0</ele><time>2026-04-18T08:34:32.001Z</time></trkpt><trkpt lat="43.07806697896841" lon="12.184894120674553"><ele>475.99999999999994</ele><time>2026-04-18T08:34:34.001Z</time></trkpt><trkpt lat="43.078118765035015" lon="12.184793841609755"><ele>476.0</ele><time>2026-04-18T08:34:36.001Z</time></trkpt><trkpt lat="43.078166786379434" lon="12.1847234876821"><ele>476.0</ele><time>2026-04-18T08:34:38.001Z</time></trkpt><trkpt lat="43.078238547457715" lon="12.184676240430202"><ele>476.0</ele><time>2026-04-18T08:34:40.001Z</time></trkpt><trkpt lat="43.078319716644934" lon="12.184620690786506"><ele>475.99999999999994</ele><time>2026-04-18T08:34:42.001Z</time></trkpt><trkpt lat="43.07837253680868" lon="12.184526757654654"><ele>476.0</ele><time>2026-04-18T08:34:44.001Z</time></trkpt><trkpt lat="43.078428663494265" lon="12.184452913950594"><ele>475.8333333333333</ele><time>2026-04-18T08:34:46.001Z</time></trkpt><trkpt lat="43.07845896539281" lon="12.18433781168189"><ele>475.66666666666663</ele><time>2026-04-18T08:34:48.001Z</time></trkpt><trkpt lat="43.078487941743795" lon="12.184247493312732"><ele>475.5</ele><time>2026-04-18T08:34:50.001Z</time></trkpt><trkpt lat="43.078511192260585" lon="12.18415847429023"><ele>475.33333333333337</ele><time>2026-04-18T08:34:52.001Z</time></trkpt><trkpt lat="43.07851725941809" lon="12.184049624498996"><ele>475.1666666666667</ele><time>2026-04-18T08:34:55.001Z</time></trkpt><trkpt lat="43.078476313474326" lon="12.183887406867829"><ele>475.0</ele><time>2026-04-18T08:34:58.001Z</time></trkpt><trkpt lat="43.07846601675676" lon="12.183791879663998"><ele>475.00000000000006</ele><time>2026-04-18T08:35:00.001Z</time></trkpt><trkpt lat="43.07841734130864" lon="12.183701126720917"><ele>475.0</ele><time>2026-04-18T08:35:02.001Z</time></trkpt><trkpt lat="43.07837399917015" lon="12.183587304600787"><ele>475.0</ele><time>2026-04-18T08:35:04.001Z</time></trkpt><trkpt lat="43.07834567524236" lon="12.183458318802392"><ele>475.0</ele><time>2026-04-18T08:35:06.001Z</time></trkpt><trkpt lat="43.07831602709744" lon="12.183351431036124"><ele>475.00000000000006</ele><time>2026-04-18T08:35:07.001Z</time></trkpt><trkpt lat="43.07829169150022" lon="12.183256951259494"><ele>475.0</ele><time>2026-04-18T08:35:08.001Z</time></trkpt><trkpt lat="43.078245123380455" lon="12.183167051953271"><ele>475.4</ele><time>2026-04-18T08:35:10.001Z</time></trkpt><trkpt lat="43.07818205018157" lon="12.183217245588196"><ele>475.8</ele><time>2026-04-18T08:35:13.001Z</time></trkpt><trkpt lat="43.07810360910757" lon="12.183300989999953"><ele>476.20000000000005</ele><time>2026-04-18T08:35:16.001Z</time></trkpt><trkpt lat="43.07803129714326" lon="12.183312686623003"><ele>476.6</ele><time>2026-04-18T08:35:18.001Z</time></trkpt><trkpt lat="43.07793125750465" lon="12.183303139016587"><ele>477.0</ele><time>2026-04-18T08:35:21.001Z</time></trkpt><trkpt lat="43.07781728782373" lon="12.18325003606775"><ele>477.0</ele><time>2026-04-18T08:35:23.001Z</time></trkpt><trkpt lat="43.07772422027952" lon="12.183197662996287"><ele>477.00000000000006</ele><time>2026-04-18T08:35:25.001Z</time></trkpt><trkpt lat="43.077613945948144" lon="12.18311780732439"><ele>477.00000000000006</ele><time>2026-04-18T08:35:28.001Z</time></trkpt><trkpt lat="43.07754772856936" lon="12.183042426935874"><ele>477.0</ele><time>2026-04-18T08:35:30.001Z</time></trkpt><trkpt lat="43.07747324756549" lon="12.182959015632093"><ele>477.0</ele><time>2026-04-18T08:35:32.001Z</time></trkpt><trkpt lat="43.07739848412097" lon="12.182844308840197"><ele>476.0</ele><time>2026-04-18T08:35:34.001Z</time></trkpt><trkpt lat="43.077376139969566" lon="12.182705700221666"><ele>475.00000000000006</ele><time>2026-04-18T08:35:36.001Z</time></trkpt><trkpt lat="43.077320722054345" lon="12.182616309957279"><ele>474.00000000000006</ele><time>2026-04-18T08:35:38.001Z</time></trkpt><trkpt lat="43.07726572587587" lon="12.182551876306684"><ele>473.0</ele><time>2026-04-18T08:35:41.001Z</time></trkpt><trkpt lat="43.07711900733328" lon="12.182586563827943"><ele>472.0</ele><time>2026-04-18T08:35:43.002Z</time></trkpt><trkpt lat="43.077041312128316" lon="12.18260073313282"><ele>472.0</ele><time>2026-04-18T08:35:44.002Z</time></trkpt><trkpt lat="43.076978289033974" lon="12.182589717976905"><ele>472.0</ele><time>2026-04-18T08:35:45.002Z</time></trkpt><trkpt lat="43.07690895393626" lon="12.182570346340514"><ele>472.0</ele><time>2026-04-18T08:35:46.002Z</time></trkpt><trkpt lat="43.07683940462232" lon="12.182551427540476"><ele>472.0</ele><time>2026-04-18T08:35:47.002Z</time></trkpt><trkpt lat="43.07676279194684" lon="12.18252230470791"><ele>472.0</ele><time>2026-04-18T08:35:48.002Z</time></trkpt><trkpt lat="43.076692374618226" lon="12.182478325483926"><ele>472.0</ele><time>2026-04-18T08:35:49.002Z</time></trkpt><trkpt lat="43.07662280741582" lon="12.182424809103988"><ele>472.0</ele><time>2026-04-18T08:35:50.002Z</time></trkpt><trkpt lat="43.07656069333387" lon="12.182383541136813"><ele>469.40000000000003</ele><time>2026-04-18T08:35:51.002Z</time></trkpt><trkpt lat="43.07650586489643" lon="12.18233819311745"><ele>466.80000000000007</ele><time>2026-04-18T08:35:52.002Z</time></trkpt><trkpt lat="43.07640495665559" lon="12.182288846628246"><ele>464.2</ele><time>2026-04-18T08:35:54.002Z</time></trkpt><trkpt lat="43.07630382838701" lon="12.182236396838416"><ele>461.6</ele><time>2026-04-18T08:35:56.002Z</time></trkpt><trkpt lat="43.07622123291154" lon="12.182098959609561"><ele>459.0</ele><time>2026-04-18T08:35:58.001Z</time></trkpt><trkpt lat="43.076192697835346" lon="12.182011416863297"><ele>459.0</ele><time>2026-04-18T08:35:59.001Z</time></trkpt><trkpt lat="43.07617068369286" lon="12.18186378194355"><ele>459.0</ele><time>2026-04-18T08:36:01.001Z</time></trkpt><trkpt lat="43.07620601390153" lon="12.181685717587124"><ele>459.0</ele><time>2026-04-18T08:36:03.001Z</time></trkpt><trkpt lat="43.0762413119686" lon="12.181580918749699"><ele>459.0</ele><time>2026-04-18T08:36:04.001Z</time></trkpt><trkpt lat="43.07628723844244" lon="12.181479988461987"><ele>459.0</ele><time>2026-04-18T08:36:05.001Z</time></trkpt><trkpt lat="43.0763365581527" lon="12.181400801858812"><ele>457.2</ele><time>2026-04-18T08:36:06.001Z</time></trkpt><trkpt lat="43.076398481087004" lon="12.181245124355067"><ele>455.4</ele><time>2026-04-18T08:36:08.001Z</time></trkpt><trkpt lat="43.07640499949996" lon="12.181130415204185"><ele>453.6</ele><time>2026-04-18T08:36:09.001Z</time></trkpt><trkpt lat="43.07641644610367" lon="12.181016441718379"><ele>451.8</ele><time>2026-04-18T08:36:10.001Z</time></trkpt><trkpt lat="43.07643642407837" lon="12.180909684845021"><ele>450.0</ele><time>2026-04-18T08:36:11.001Z</time></trkpt><trkpt lat="43.07646490449861" lon="12.180812366154457"><ele>450.0</ele><time>2026-04-18T08:36:12.001Z</time></trkpt><trkpt lat="43.0764962412573" lon="12.18071105331212"><ele>450.0</ele><time>2026-04-18T08:36:13.001Z</time></trkpt><trkpt lat="43.07654120581824" lon="12.180608786154774"><ele>450.0</ele><time>2026-04-18T08:36:14.001Z</time></trkpt><trkpt lat="43.076583224404224" lon="12.18043426274775"><ele>450.0</ele><time>2026-04-18T08:36:16.001Z</time></trkpt><trkpt lat="43.07658573356508" lon="12.180324253252047"><ele>450.0</ele><time>2026-04-18T08:36:17.001Z</time></trkpt><trkpt lat="43.07657360139194" lon="12.180204735914918"><ele>449.5</ele><time>2026-04-18T08:36:18.001Z</time></trkpt><trkpt lat="43.07656577790553" lon="12.180103894581274"><ele>449.0</ele><time>2026-04-18T08:36:19.001Z</time></trkpt><trkpt lat="43.076561464773974" lon="12.17998025311604"><ele>448.5</ele><time>2026-04-18T08:36:20.001Z</time></trkpt><trkpt lat="43.07657550919071" lon="12.179868385469113"><ele>448.0</ele><time>2026-04-18T08:36:21.001Z</time></trkpt><trkpt lat="43.07658972176608" lon="12.179770410515653"><ele>447.5</ele><time>2026-04-18T08:36:22.001Z</time></trkpt><trkpt lat="43.0765948594517" lon="12.179678865586755"><ele>447.0</ele><time>2026-04-18T08:36:23.001Z</time></trkpt><trkpt lat="43.07658504270356" lon="12.179583920474236"><ele>449.0</ele><time>2026-04-18T08:36:24.001Z</time></trkpt><trkpt lat="43.076545046011866" lon="12.179501753053833"><ele>451.0</ele><time>2026-04-18T08:36:25.001Z</time></trkpt><trkpt lat="43.076488895187936" lon="12.179428381462545"><ele>453.0</ele><time>2026-04-18T08:36:26.001Z</time></trkpt><trkpt lat="43.07641825450216" lon="12.179366014495692"><ele>455.0</ele><time>2026-04-18T08:36:27.001Z</time></trkpt><trkpt lat="43.07633388546157" lon="12.179301427908241"><ele>457.0</ele><time>2026-04-18T08:36:28.001Z</time></trkpt><trkpt lat="43.076265308736275" lon="12.179239351710343"><ele>459.0</ele><time>2026-04-18T08:36:29.001Z</time></trkpt><trkpt lat="43.076205422453505" lon="12.179179744474386"><ele>459.0</ele><time>2026-04-18T08:36:30.001Z</time></trkpt><trkpt lat="43.07615294558283" lon="12.179119674479585"><ele>459.0</ele><time>2026-04-18T08:36:31.001Z</time></trkpt><trkpt lat="43.076100914093495" lon="12.179043758199732"><ele>459.0</ele><time>2026-04-18T08:36:32.001Z</time></trkpt><trkpt lat="43.07605220187765" lon="12.178965470534267"><ele>459.0</ele><time>2026-04-18T08:36:33.001Z</time></trkpt><trkpt lat="43.076018666106144" lon="12.178882132548269"><ele>459.0</ele><time>2026-04-18T08:36:34.001Z</time></trkpt><trkpt lat="43.07598146411446" lon="12.178799627460442"><ele>459.0</ele><time>2026-04-18T08:36:35.001Z</time></trkpt><trkpt lat="43.07594269539719" lon="12.178697651151824"><ele>459.0</ele><time>2026-04-18T08:36:36.001Z</time></trkpt><trkpt lat="43.07592025378162" lon="12.178596269613433"><ele>460.8333333333333</ele><time>2026-04-18T08:36:37.001Z</time></trkpt><trkpt lat="43.07589031421713" lon="12.17850105047957"><ele>462.66666666666663</ele><time>2026-04-18T08:36:38.001Z</time></trkpt><trkpt lat="43.07584156798171" lon="12.178400246516832"><ele>464.5</ele><time>2026-04-18T08:36:39.001Z</time></trkpt><trkpt lat="43.075779855364885" lon="12.17830854137512"><ele>466.3333333333333</ele><time>2026-04-18T08:36:40.001Z</time></trkpt><trkpt lat="43.07571676514814" lon="12.17822541510897"><ele>468.16666666666663</ele><time>2026-04-18T08:36:41.001Z</time></trkpt><trkpt lat="43.07566083837154" lon="12.178147746224015"><ele>470.0</ele><time>2026-04-18T08:36:42.001Z</time></trkpt><trkpt lat="43.075602096556224" lon="12.178016108660435"><ele>465.3333333333333</ele><time>2026-04-18T08:36:44.001Z</time></trkpt><trkpt lat="43.07556489728722" lon="12.177864526891062"><ele>460.66666666666663</ele><time>2026-04-18T08:36:46.001Z</time></trkpt><trkpt lat="43.07556893073637" lon="12.1777710954426"><ele>456.0</ele><time>2026-04-18T08:36:47.001Z</time></trkpt><trkpt lat="43.07557971348687" lon="12.177665647466874"><ele>451.33333333333337</ele><time>2026-04-18T08:36:48.001Z</time></trkpt><trkpt lat="43.07560303278619" lon="12.177551410040897"><ele>446.6666666666667</ele><time>2026-04-18T08:36:49.001Z</time></trkpt><trkpt lat="43.075629258786826" lon="12.177437277849846"><ele>442.0</ele><time>2026-04-18T08:36:50.001Z</time></trkpt><trkpt lat="43.075632736957374" lon="12.177304256750269"><ele>441.40000000000003</ele><time>2026-04-18T08:36:51.001Z</time></trkpt><trkpt lat="43.07563163258042" lon="12.177156282194577"><ele>440.80000000000007</ele><time>2026-04-18T08:36:52.001Z</time></trkpt><trkpt lat="43.07563932447579" lon="12.1770162702789"><ele>440.2</ele><time>2026-04-18T08:36:53.001Z</time></trkpt><trkpt lat="43.07566461242957" lon="12.176885645991476"><ele>439.6</ele><time>2026-04-18T08:36:54.001Z</time></trkpt><trkpt lat="43.0756875831131" lon="12.17676283423832"><ele>439.0</ele><time>2026-04-18T08:36:55.001Z</time></trkpt><trkpt lat="43.075698288513564" lon="12.176646089535074"><ele>439.0</ele><time>2026-04-18T08:36:56.001Z</time></trkpt><trkpt lat="43.075718677312345" lon="12.176538119012307"><ele>439.0</ele><time>2026-04-18T08:36:57.001Z</time></trkpt><trkpt lat="43.07573806520768" lon="12.176437236644336"><ele>439.0</ele><time>2026-04-18T08:36:58.001Z</time></trkpt><trkpt lat="43.07575544146491" lon="12.176347304916204"><ele>439.0</ele><time>2026-04-18T08:36:59.001Z</time></trkpt><trkpt lat="43.07578520685884" lon="12.176175945165223"><ele>439.0</ele><time>2026-04-18T08:37:01.001Z</time></trkpt><trkpt lat="43.07579995859151" lon="12.176039634110394"><ele>440.33333333333337</ele><time>2026-04-18T08:37:03.001Z</time></trkpt><trkpt lat="43.075815576762636" lon="12.175925979538585"><ele>441.6666666666667</ele><time>2026-04-18T08:37:05.001Z</time></trkpt><trkpt lat="43.075742373630234" lon="12.175822654937983"><ele>443.0</ele><time>2026-04-18T08:37:08.001Z</time></trkpt><trkpt lat="43.07566461694122" lon="12.175812651586202"><ele>444.33333333333337</ele><time>2026-04-18T08:37:10.001Z</time></trkpt><trkpt lat="43.07564440811213" lon="12.175711167703982"><ele>445.6666666666667</ele><time>2026-04-18T08:37:13.001Z</time></trkpt><trkpt lat="43.075713095665996" lon="12.175641584462229"><ele>447.0</ele><time>2026-04-18T08:37:15.001Z</time></trkpt><trkpt lat="43.075779012195675" lon="12.175608288611858"><ele>448.1666666666667</ele><time>2026-04-18T08:37:16.001Z</time></trkpt><trkpt lat="43.07583593154921" lon="12.175567551930257"><ele>449.33333333333337</ele><time>2026-04-18T08:37:17.001Z</time></trkpt><trkpt lat="43.07589185257983" lon="12.175525096968846"><ele>450.5</ele><time>2026-04-18T08:37:18.001Z</time></trkpt><trkpt lat="43.07599903661739" lon="12.17544773682142"><ele>451.6666666666667</ele><time>2026-04-18T08:37:20.001Z</time></trkpt><trkpt lat="43.07607716597893" lon="12.175421167172008"><ele>452.83333333333337</ele><time>2026-04-18T08:37:21.001Z</time></trkpt><trkpt lat="43.076153222996766" lon="12.175410250926232"><ele>454.0</ele><time>2026-04-18T08:37:22.001Z</time></trkpt><trkpt lat="43.076233614906755" lon="12.175389011567743"><ele>454.00000000000006</ele><time>2026-04-18T08:37:23.001Z</time></trkpt><trkpt lat="43.076310150184" lon="12.175369664750463"><ele>454.0</ele><time>2026-04-18T08:37:24.001Z</time></trkpt><trkpt lat="43.07637473401957" lon="12.175346468630487"><ele>454.0</ele><time>2026-04-18T08:37:25.001Z</time></trkpt><trkpt lat="43.07644945605256" lon="12.175312832968093"><ele>454.0</ele><time>2026-04-18T08:37:26.001Z</time></trkpt><trkpt lat="43.0765789020418" lon="12.175285906682292"><ele>454.00000000000006</ele><time>2026-04-18T08:37:28.001Z</time></trkpt><trkpt lat="43.07666347546407" lon="12.17526776994677"><ele>454.0</ele><time>2026-04-18T08:37:29.001Z</time></trkpt><trkpt lat="43.07672995416541" lon="12.175265057646872"><ele>450.83333333333337</ele><time>2026-04-18T08:37:30.001Z</time></trkpt><trkpt lat="43.0768133282624" lon="12.17526770135664"><ele>447.6666666666667</ele><time>2026-04-18T08:37:31.001Z</time></trkpt><trkpt lat="43.07689734614831" lon="12.175274943420051"><ele>444.5</ele><time>2026-04-18T08:37:32.001Z</time></trkpt><trkpt lat="43.07697670499008" lon="12.175288775420153"><ele>441.33333333333337</ele><time>2026-04-18T08:37:33.001Z</time></trkpt><trkpt lat="43.07706468377741" lon="12.175293292099292"><ele>438.1666666666667</ele><time>2026-04-18T08:37:34.001Z</time></trkpt><trkpt lat="43.07713794918569" lon="12.175289078569023"><ele>435.0</ele><time>2026-04-18T08:37:35.001Z</time></trkpt><trkpt lat="43.077222264200394" lon="12.175263656470381"><ele>435.0</ele><time>2026-04-18T08:37:36.001Z</time></trkpt><trkpt lat="43.077311025506475" lon="12.175238200686623"><ele>435.0</ele><time>2026-04-18T08:37:37.001Z</time></trkpt><trkpt lat="43.07738131993012" lon="12.175213867394362"><ele>435.0</ele><time>2026-04-18T08:37:38.001Z</time></trkpt><trkpt lat="43.077458367972014" lon="12.175203474137664"><ele>435.0</ele><time>2026-04-18T08:37:39.001Z</time></trkpt><trkpt lat="43.07754787623943" lon="12.175194050045473"><ele>435.0</ele><time>2026-04-18T08:37:40.001Z</time></trkpt><trkpt lat="43.077629451750425" lon="12.175194902776273"><ele>435.0</ele><time>2026-04-18T08:37:41.001Z</time></trkpt><trkpt lat="43.077701692466" lon="12.175188925016737"><ele>433.0</ele><time>2026-04-18T08:37:42.001Z</time></trkpt><trkpt lat="43.077774185705316" lon="12.175168753241266"><ele>431.0</ele><time>2026-04-18T08:37:43.001Z</time></trkpt><trkpt lat="43.07783853139076" lon="12.175131702741252"><ele>429.0</ele><time>2026-04-18T08:37:44.001Z</time></trkpt><trkpt lat="43.077911999287956" lon="12.175087441706369"><ele>427.0</ele><time>2026-04-18T08:37:45.001Z</time></trkpt><trkpt lat="43.077980925683896" lon="12.175031165519032"><ele>425.0</ele><time>2026-04-18T08:37:46.001Z</time></trkpt><trkpt lat="43.078043724026" lon="12.17497621491994"><ele>423.0</ele><time>2026-04-18T08:37:47.001Z</time></trkpt><trkpt lat="43.078104253950904" lon="12.174923425708599"><ele>423.0</ele><time>2026-04-18T08:37:48.002Z</time></trkpt><trkpt lat="43.07817848425217" lon="12.174897440315107"><ele>423.0</ele><time>2026-04-18T08:37:49.002Z</time></trkpt><trkpt lat="43.078256634718294" lon="12.174878241214886"><ele>423.0</ele><time>2026-04-18T08:37:50.002Z</time></trkpt><trkpt lat="43.07832744799855" lon="12.174858401340547"><ele>423.0</ele><time>2026-04-18T08:37:51.002Z</time></trkpt><trkpt lat="43.07839380417196" lon="12.17484182225165"><ele>423.0</ele><time>2026-04-18T08:37:52.002Z</time></trkpt><trkpt lat="43.07845881630781" lon="12.174828026788813"><ele>423.0</ele><time>2026-04-18T08:37:53.002Z</time></trkpt><trkpt lat="43.07852228589336" lon="12.174806585243152"><ele>423.0</ele><time>2026-04-18T08:37:54.002Z</time></trkpt><trkpt lat="43.078639151911936" lon="12.174750967071656"><ele>420.4285714285714</ele><time>2026-04-18T08:37:56.002Z</time></trkpt><trkpt lat="43.078698066729416" lon="12.174710939074242"><ele>417.8571428571429</ele><time>2026-04-18T08:37:57.002Z</time></trkpt><trkpt lat="43.078764244840364" lon="12.174678098406586"><ele>415.2857142857143</ele><time>2026-04-18T08:37:58.002Z</time></trkpt><trkpt lat="43.07882959303532" lon="12.174661952040681"><ele>412.71428571428567</ele><time>2026-04-18T08:37:59.002Z</time></trkpt><trkpt lat="43.07890965615904" lon="12.174645296670915"><ele>410.1428571428571</ele><time>2026-04-18T08:38:00.002Z</time></trkpt><trkpt lat="43.07899290786688" lon="12.174640919573571"><ele>407.57142857142856</ele><time>2026-04-18T08:38:01.002Z</time></trkpt><trkpt lat="43.079070595534965" lon="12.174649589515747"><ele>405.0</ele><time>2026-04-18T08:38:02.002Z</time></trkpt><trkpt lat="43.07914823798476" lon="12.174668351756033"><ele>402.6666666666667</ele><time>2026-04-18T08:38:03.002Z</time></trkpt><trkpt lat="43.079226768482684" lon="12.174690831266801"><ele>400.33333333333337</ele><time>2026-04-18T08:38:04.002Z</time></trkpt><trkpt lat="43.07930767143572" lon="12.17472288661559"><ele>398.0</ele><time>2026-04-18T08:38:05.002Z</time></trkpt><trkpt lat="43.07937768646707" lon="12.17475948484975"><ele>395.6666666666667</ele><time>2026-04-18T08:38:06.002Z</time></trkpt><trkpt lat="43.0794385185087" lon="12.174795002592901"><ele>393.33333333333337</ele><time>2026-04-18T08:38:07.002Z</time></trkpt><trkpt lat="43.079519235382946" lon="12.174804902228368"><ele>391.0</ele><time>2026-04-18T08:38:08.002Z</time></trkpt><trkpt lat="43.07960331463137" lon="12.174786070794987"><ele>391.00000000000006</ele><time>2026-04-18T08:38:09.002Z</time></trkpt><trkpt lat="43.07968874035287" lon="12.17477062864248"><ele>391.0</ele><time>2026-04-18T08:38:10.002Z</time></trkpt><trkpt lat="43.07977772656785" lon="12.17476116077236"><ele>391.0</ele><time>2026-04-18T08:38:11.002Z</time></trkpt><trkpt lat="43.07985949280604" lon="12.174751388470575"><ele>391.0</ele><time>2026-04-18T08:38:12.001Z</time></trkpt><trkpt lat="43.07994020153711" lon="12.174733020526553"><ele>391.00000000000006</ele><time>2026-04-18T08:38:13.001Z</time></trkpt><trkpt lat="43.08002354853205" lon="12.174723514701283"><ele>391.0</ele><time>2026-04-18T08:38:14.001Z</time></trkpt><trkpt lat="43.080097103885834" lon="12.174722651531427"><ele>389.83333333333337</ele><time>2026-04-18T08:38:15.001Z</time></trkpt><trkpt lat="43.080171399327554" lon="12.174699242942463"><ele>388.6666666666667</ele><time>2026-04-18T08:38:16.001Z</time></trkpt><trkpt lat="43.08024306415202" lon="12.174667935679247"><ele>387.5</ele><time>2026-04-18T08:38:17.001Z</time></trkpt><trkpt lat="43.08030398206577" lon="12.174619226327962"><ele>386.33333333333337</ele><time>2026-04-18T08:38:18.001Z</time></trkpt><trkpt lat="43.08035651970267" lon="12.174566587013343"><ele>385.1666666666667</ele><time>2026-04-18T08:38:19.001Z</time></trkpt><trkpt lat="43.08042190595222" lon="12.17441909819936"><ele>384.0</ele><time>2026-04-18T08:38:21.001Z</time></trkpt><trkpt lat="43.08047627328919" lon="12.174302691802"><ele>384.0</ele><time>2026-04-18T08:38:23.001Z</time></trkpt><trkpt lat="43.080542864658696" lon="12.174267868758005"><ele>384.0</ele><time>2026-04-18T08:38:24.001Z</time></trkpt><trkpt lat="43.08061786580154" lon="12.174246759386907"><ele>384.0</ele><time>2026-04-18T08:38:25.001Z</time></trkpt><trkpt lat="43.08071104888111" lon="12.174230317631126"><ele>384.0</ele><time>2026-04-18T08:38:26.001Z</time></trkpt><trkpt lat="43.08080356502626" lon="12.174221498154834"><ele>384.0</ele><time>2026-04-18T08:38:27.001Z</time></trkpt><trkpt lat="43.080890200096285" lon="12.17422677090115"><ele>384.0</ele><time>2026-04-18T08:38:28.001Z</time></trkpt><trkpt lat="43.08099594299826" lon="12.174237390209568"><ele>383.2</ele><time>2026-04-18T08:38:29.001Z</time></trkpt><trkpt lat="43.081101492672275" lon="12.174272440284007"><ele>382.4</ele><time>2026-04-18T08:38:30.001Z</time></trkpt><trkpt lat="43.08119513009648" lon="12.174286348268435"><ele>381.6</ele><time>2026-04-18T08:38:31.001Z</time></trkpt><trkpt lat="43.08127884882731" lon="12.174270854741849"><ele>380.8</ele><time>2026-04-18T08:38:32.001Z</time></trkpt><trkpt lat="43.08136764998619" lon="12.17422798507396"><ele>380.0</ele><time>2026-04-18T08:38:33.001Z</time></trkpt><trkpt lat="43.081450658674036" lon="12.174187165810052"><ele>380.0</ele><time>2026-04-18T08:38:34.001Z</time></trkpt><trkpt lat="43.08152014504498" lon="12.174183089293319"><ele>380.0</ele><time>2026-04-18T08:38:35.001Z</time></trkpt><trkpt lat="43.08159625109406" lon="12.174178278539173"><ele>380.0</ele><time>2026-04-18T08:38:36.001Z</time></trkpt><trkpt lat="43.08166114518668" lon="12.17415084075011"><ele>380.0</ele><time>2026-04-18T08:38:37.001Z</time></trkpt><trkpt lat="43.081725763288" lon="12.17410126895949"><ele>380.0</ele><time>2026-04-18T08:38:38.001Z</time></trkpt><trkpt lat="43.0817857650983" lon="12.174034407952508"><ele>380.0</ele><time>2026-04-18T08:38:39.001Z</time></trkpt><trkpt lat="43.081844722787764" lon="12.173954360281028"><ele>380.0</ele><time>2026-04-18T08:38:40.001Z</time></trkpt><trkpt lat="43.08191039739988" lon="12.173881844656687"><ele>378.8</ele><time>2026-04-18T08:38:41.001Z</time></trkpt><trkpt lat="43.08198907807475" lon="12.173833908434922"><ele>377.6</ele><time>2026-04-18T08:38:42.001Z</time></trkpt><trkpt lat="43.082066996551475" lon="12.173802003058718"><ele>376.4</ele><time>2026-04-18T08:38:43.001Z</time></trkpt><trkpt lat="43.082163211768105" lon="12.17377562280138"><ele>375.2</ele><time>2026-04-18T08:38:44.001Z</time></trkpt><trkpt lat="43.08223752709733" lon="12.173761564462428"><ele>374.0</ele><time>2026-04-18T08:38:45.001Z</time></trkpt><trkpt lat="43.08234461601447" lon="12.17372836340318"><ele>375.2</ele><time>2026-04-18T08:38:47.001Z</time></trkpt><trkpt lat="43.082446796435526" lon="12.173701556325565"><ele>376.4</ele><time>2026-04-18T08:38:49.001Z</time></trkpt><trkpt lat="43.08251883261761" lon="12.173653945467645"><ele>377.6</ele><time>2026-04-18T08:38:50.001Z</time></trkpt><trkpt lat="43.08257771407745" lon="12.173578181866151"><ele>378.8</ele><time>2026-04-18T08:38:51.001Z</time></trkpt><trkpt lat="43.08264894532808" lon="12.173477028828565"><ele>380.0</ele><time>2026-04-18T08:38:52.001Z</time></trkpt><trkpt lat="43.082731143156956" lon="12.17338532097282"><ele>380.0</ele><time>2026-04-18T08:38:53.001Z</time></trkpt><trkpt lat="43.08280611536742" lon="12.1733164491916"><ele>380.0</ele><time>2026-04-18T08:38:54.001Z</time></trkpt><trkpt lat="43.08287141085478" lon="12.173258826571328"><ele>380.0</ele><time>2026-04-18T08:38:55.001Z</time></trkpt><trkpt lat="43.08293102149335" lon="12.17320965737387"><ele>380.0</ele><time>2026-04-18T08:38:56.001Z</time></trkpt><trkpt lat="43.08301058147427" lon="12.173161908086172"><ele>380.0</ele><time>2026-04-18T08:38:57.001Z</time></trkpt><trkpt lat="43.083074451137655" lon="12.173117999336364"><ele>380.0</ele><time>2026-04-18T08:38:58.001Z</time></trkpt><trkpt lat="43.083130610222376" lon="12.173076981856132"><ele>379.33333333333337</ele><time>2026-04-18T08:38:59.001Z</time></trkpt><trkpt lat="43.083171363161874" lon="12.173007286876832"><ele>378.6666666666667</ele><time>2026-04-18T08:39:00.001Z</time></trkpt><trkpt lat="43.08322917544924" lon="12.172945279292167"><ele>378.0</ele><time>2026-04-18T08:39:01.001Z</time></trkpt><trkpt lat="43.08328757099287" lon="12.172862657833019"><ele>377.3333333333333</ele><time>2026-04-18T08:39:02.001Z</time></trkpt><trkpt lat="43.083350316760956" lon="12.17275955278374"><ele>376.66666666666663</ele><time>2026-04-18T08:39:03.001Z</time></trkpt><trkpt lat="43.08342216008059" lon="12.172657881419251"><ele>376.0</ele><time>2026-04-18T08:39:04.001Z</time></trkpt><trkpt lat="43.08347336193974" lon="12.172589213232136"><ele>376.0</ele><time>2026-04-18T08:39:05.001Z</time></trkpt><trkpt lat="43.08352712502154" lon="12.17253140417118"><ele>376.0</ele><time>2026-04-18T08:39:06.001Z</time></trkpt><trkpt lat="43.08358449717217" lon="12.172471011693952"><ele>376.0</ele><time>2026-04-18T08:39:07.001Z</time></trkpt><trkpt lat="43.08363345580903" lon="12.172398419066923"><ele>376.0</ele><time>2026-04-18T08:39:08.001Z</time></trkpt><trkpt lat="43.083696693142386" lon="12.172331045311429"><ele>376.0</ele><time>2026-04-18T08:39:09.001Z</time></trkpt><trkpt lat="43.0837742629119" lon="12.172267204086037"><ele>376.0</ele><time>2026-04-18T08:39:10.001Z</time></trkpt><trkpt lat="43.08385098559555" lon="12.172221080909527"><ele>374.6</ele><time>2026-04-18T08:39:11.001Z</time></trkpt><trkpt lat="43.083946202899604" lon="12.172162007025925"><ele>373.20000000000005</ele><time>2026-04-18T08:39:12.001Z</time></trkpt><trkpt lat="43.08403706529122" lon="12.172099723654553"><ele>371.79999999999995</ele><time>2026-04-18T08:39:13.001Z</time></trkpt><trkpt lat="43.08412039742137" lon="12.17203248724511"><ele>370.4</ele><time>2026-04-18T08:39:14.001Z</time></trkpt><trkpt lat="43.08420717954848" lon="12.171944509945458"><ele>369.0</ele><time>2026-04-18T08:39:15.001Z</time></trkpt><trkpt lat="43.08428696676455" lon="12.171874569114808"><ele>369.0</ele><time>2026-04-18T08:39:16.001Z</time></trkpt><trkpt lat="43.084376997432905" lon="12.171812588731765"><ele>369.0</ele><time>2026-04-18T08:39:17.001Z</time></trkpt><trkpt lat="43.08445215164909" lon="12.171754743156677"><ele>369.0</ele><time>2026-04-18T08:39:18.001Z</time></trkpt><trkpt lat="43.08452404740376" lon="12.171700023129684"><ele>369.0</ele><time>2026-04-18T08:39:19.001Z</time></trkpt><trkpt lat="43.08458808279171" lon="12.171660358820112"><ele>369.0</ele><time>2026-04-18T08:39:20.001Z</time></trkpt><trkpt lat="43.08464894872928" lon="12.171624492541243"><ele>369.0</ele><time>2026-04-18T08:39:21.001Z</time></trkpt><trkpt lat="43.084733383859906" lon="12.171526882824269"><ele>367.8333333333333</ele><time>2026-04-18T08:39:23.001Z</time></trkpt><trkpt lat="43.08477284148914" lon="12.171443686420385"><ele>366.6666666666667</ele><time>2026-04-18T08:39:24.001Z</time></trkpt><trkpt lat="43.084797285857505" lon="12.17134418453719"><ele>365.5</ele><time>2026-04-18T08:39:25.001Z</time></trkpt><trkpt lat="43.084828972269676" lon="12.171232478596636"><ele>364.33333333333337</ele><time>2026-04-18T08:39:26.001Z</time></trkpt><trkpt lat="43.08484064903082" lon="12.171107770509225"><ele>363.1666666666667</ele><time>2026-04-18T08:39:27.001Z</time></trkpt><trkpt lat="43.08486981415382" lon="12.170954476509854"><ele>362.0</ele><time>2026-04-18T08:39:28.001Z</time></trkpt><trkpt lat="43.08489553864209" lon="12.17082792990572"><ele>362.0</ele><time>2026-04-18T08:39:29.001Z</time></trkpt><trkpt lat="43.08492266739912" lon="12.170715937031444"><ele>362.0</ele><time>2026-04-18T08:39:30.001Z</time></trkpt><trkpt lat="43.08495014318065" lon="12.17061974565308"><ele>362.0</ele><time>2026-04-18T08:39:31.001Z</time></trkpt><trkpt lat="43.08497277012349" lon="12.170521858529757"><ele>362.0</ele><time>2026-04-18T08:39:32.001Z</time></trkpt><trkpt lat="43.08497783059774" lon="12.170390712863728"><ele>362.0</ele><time>2026-04-18T08:39:34.001Z</time></trkpt><trkpt lat="43.08493363848775" lon="12.170267228621963"><ele>362.0</ele><time>2026-04-18T08:39:36.001Z</time></trkpt><trkpt lat="43.08479627725991" lon="12.170210785049761"><ele>359.83333333333337</ele><time>2026-04-18T08:39:38.001Z</time></trkpt><trkpt lat="43.08471357840391" lon="12.170225481652022"><ele>357.6666666666667</ele><time>2026-04-18T08:39:39.001Z</time></trkpt><trkpt lat="43.08461529451647" lon="12.17024703075874"><ele>355.5</ele><time>2026-04-18T08:39:40.001Z</time></trkpt><trkpt lat="43.084536104087285" lon="12.17026300390405"><ele>353.3333333333333</ele><time>2026-04-18T08:39:41.001Z</time></trkpt><trkpt lat="43.08445466602169" lon="12.170263008261628"><ele>351.16666666666663</ele><time>2026-04-18T08:39:42.001Z</time></trkpt><trkpt lat="43.08436843827086" lon="12.170259638918619"><ele>349.0</ele><time>2026-04-18T08:39:43.001Z</time></trkpt><trkpt lat="43.08429459658957" lon="12.170249663091415"><ele>349.0</ele><time>2026-04-18T08:39:44.001Z</time></trkpt><trkpt lat="43.08421204698617" lon="12.170239436817269"><ele>349.0</ele><time>2026-04-18T08:39:45.001Z</time></trkpt><trkpt lat="43.08412715387417" lon="12.170232106961931"><ele>349.0</ele><time>2026-04-18T08:39:46.001Z</time></trkpt><trkpt lat="43.08404551777147" lon="12.170232959362046"><ele>349.0</ele><time>2026-04-18T08:39:47.001Z</time></trkpt><trkpt lat="43.08396313536857" lon="12.170242456989872"><ele>349.0</ele><time>2026-04-18T08:39:48.001Z</time></trkpt><trkpt lat="43.083880620578405" lon="12.170261278104839"><ele>349.0</ele><time>2026-04-18T08:39:49.001Z</time></trkpt><trkpt lat="43.08379926908178" lon="12.170292708525833"><ele>346.4</ele><time>2026-04-18T08:39:50.001Z</time></trkpt><trkpt lat="43.08370835673445" lon="12.170334103724397"><ele>343.79999999999995</ele><time>2026-04-18T08:39:51.001Z</time></trkpt><trkpt lat="43.08361463767725" lon="12.170382798873241"><ele>341.20000000000005</ele><time>2026-04-18T08:39:52.001Z</time></trkpt><trkpt lat="43.083525876665774" lon="12.170431497774166"><ele>338.6</ele><time>2026-04-18T08:39:53.001Z</time></trkpt><trkpt lat="43.08344125176514" lon="12.170479166904988"><ele>336.0</ele><time>2026-04-18T08:39:54.001Z</time></trkpt><trkpt lat="43.08335418725946" lon="12.170531844760882"><ele>336.6</ele><time>2026-04-18T08:39:55.001Z</time></trkpt><trkpt lat="43.0832615598897" lon="12.170589303040208"><ele>337.20000000000005</ele><time>2026-04-18T08:39:56.001Z</time></trkpt><trkpt lat="43.08316342576548" lon="12.170646529686723"><ele>337.79999999999995</ele><time>2026-04-18T08:39:57.001Z</time></trkpt><trkpt lat="43.0830820477234" lon="12.170697635922641"><ele>338.4</ele><time>2026-04-18T08:39:58.001Z</time></trkpt><trkpt lat="43.08299618081954" lon="12.170750945341133"><ele>339.0</ele><time>2026-04-18T08:39:59.001Z</time></trkpt><trkpt lat="43.08291896245952" lon="12.170798919579804"><ele>339.0</ele><time>2026-04-18T08:40:00.001Z</time></trkpt><trkpt lat="43.082840601148355" lon="12.170848268695748"><ele>339.0</ele><time>2026-04-18T08:40:01.001Z</time></trkpt><trkpt lat="43.08275227010409" lon="12.170897177408202"><ele>339.0</ele><time>2026-04-18T08:40:02.001Z</time></trkpt><trkpt lat="43.08267024862412" lon="12.170933700189924"><ele>339.0</ele><time>2026-04-18T08:40:03.001Z</time></trkpt><trkpt lat="43.08259445830048" lon="12.170972066452121"><ele>339.0</ele><time>2026-04-18T08:40:04.001Z</time></trkpt><trkpt lat="43.08252113368001" lon="12.171015184754935"><ele>339.0</ele><time>2026-04-18T08:40:05.001Z</time></trkpt><trkpt lat="43.08245683673248" lon="12.17104204387286"><ele>339.2</ele><time>2026-04-18T08:40:06.001Z</time></trkpt><trkpt lat="43.08235407124515" lon="12.171078196627672"><ele>339.4</ele><time>2026-04-18T08:40:08.001Z</time></trkpt><trkpt lat="43.08225716367799" lon="12.171090858526503"><ele>339.6</ele><time>2026-04-18T08:40:10.002Z</time></trkpt><trkpt lat="43.082188143242625" lon="12.17101570773663"><ele>339.8</ele><time>2026-04-18T08:40:12.002Z</time></trkpt><trkpt lat="43.082190428772726" lon="12.170893885203073"><ele>340.0</ele><time>2026-04-18T08:40:14.002Z</time></trkpt><trkpt lat="43.08227204682877" lon="12.170760872310053"><ele>340.0</ele><time>2026-04-18T08:40:16.002Z</time></trkpt><trkpt lat="43.08233702152683" lon="12.170690532510424"><ele>340.0</ele><time>2026-04-18T08:40:17.002Z</time></trkpt><trkpt lat="43.082410105848034" lon="12.17061347069682"><ele>340.0</ele><time>2026-04-18T08:40:18.002Z</time></trkpt><trkpt lat="43.082471877454935" lon="12.170534405545217"><ele>340.0</ele><time>2026-04-18T08:40:19.002Z</time></trkpt><trkpt lat="43.08252804118852" lon="12.170458156674572"><ele>340.0</ele><time>2026-04-18T08:40:20.001Z</time></trkpt><trkpt lat="43.08258188695325" lon="12.170377404487274"><ele>340.0</ele><time>2026-04-18T08:40:21.001Z</time></trkpt><trkpt lat="43.08262511604139" lon="12.170283759589996"><ele>338.16666666666663</ele><time>2026-04-18T08:40:22.001Z</time></trkpt><trkpt lat="43.082653679256715" lon="12.170185047707541"><ele>336.3333333333333</ele><time>2026-04-18T08:40:23.001Z</time></trkpt><trkpt lat="43.082681454178" lon="12.170066466361908"><ele>334.5</ele><time>2026-04-18T08:40:24.001Z</time></trkpt><trkpt lat="43.08269723613768" lon="12.169943615506531"><ele>332.6666666666667</ele><time>2026-04-18T08:40:25.001Z</time></trkpt><trkpt lat="43.08270983262124" lon="12.169826261981491"><ele>330.83333333333337</ele><time>2026-04-18T08:40:26.001Z</time></trkpt><trkpt lat="43.082725620990686" lon="12.169714042685655"><ele>329.0</ele><time>2026-04-18T08:40:27.001Z</time></trkpt><trkpt lat="43.08274852960937" lon="12.169608246596974"><ele>327.83333333333337</ele><time>2026-04-18T08:40:28.001Z</time></trkpt><trkpt lat="43.082762191047884" lon="12.169507381652988"><ele>326.6666666666667</ele><time>2026-04-18T08:40:29.001Z</time></trkpt><trkpt lat="43.08276155509291" lon="12.169401748930877"><ele>325.5</ele><time>2026-04-18T08:40:30.001Z</time></trkpt><trkpt lat="43.0827421303423" lon="12.169291512789892"><ele>324.3333333333333</ele><time>2026-04-18T08:40:31.001Z</time></trkpt><trkpt lat="43.082711485812986" lon="12.169175046337767"><ele>323.16666666666663</ele><time>2026-04-18T08:40:32.001Z</time></trkpt><trkpt lat="43.08268207362606" lon="12.169058743378173"><ele>322.0</ele><time>2026-04-18T08:40:33.001Z</time></trkpt><trkpt lat="43.08265851513845" lon="12.168948563362797"><ele>321.0</ele><time>2026-04-18T08:40:34.001Z</time></trkpt><trkpt lat="43.082633510003305" lon="12.1688313844064"><ele>320.0</ele><time>2026-04-18T08:40:35.001Z</time></trkpt><trkpt lat="43.08261988978055" lon="12.168715675254873"><ele>319.0</ele><time>2026-04-18T08:40:36.001Z</time></trkpt><trkpt lat="43.08260610078106" lon="12.16861256298903"><ele>318.0</ele><time>2026-04-18T08:40:37.001Z</time></trkpt><trkpt lat="43.08259652777375" lon="12.168500862022407"><ele>317.0</ele><time>2026-04-18T08:40:38.001Z</time></trkpt><trkpt lat="43.082592871984026" lon="12.16839319427874"><ele>316.0</ele><time>2026-04-18T08:40:39.001Z</time></trkpt><trkpt lat="43.08259852932659" lon="12.168261874265909"><ele>315.6</ele><time>2026-04-18T08:40:40.001Z</time></trkpt><trkpt lat="43.08263107888133" lon="12.168136512037462"><ele>315.20000000000005</ele><time>2026-04-18T08:40:41.001Z</time></trkpt><trkpt lat="43.082675739664644" lon="12.167998842686623"><ele>314.79999999999995</ele><time>2026-04-18T08:40:42.001Z</time></trkpt><trkpt lat="43.08272112254893" lon="12.167856390196405"><ele>314.4</ele><time>2026-04-18T08:40:43.001Z</time></trkpt><trkpt lat="43.08276369836434" lon="12.167721446584698"><ele>314.0</ele><time>2026-04-18T08:40:44.001Z</time></trkpt><trkpt lat="43.08279961369379" lon="12.167594501732133"><ele>314.0</ele><time>2026-04-18T08:40:45.001Z</time></trkpt><trkpt lat="43.08283585750109" lon="12.167469022792181"><ele>314.0</ele><time>2026-04-18T08:40:46.001Z</time></trkpt><trkpt lat="43.08286965888486" lon="12.167354308496341"><ele>314.0</ele><time>2026-04-18T08:40:47.001Z</time></trkpt><trkpt lat="43.082905717131695" lon="12.167247989655062"><ele>314.0</ele><time>2026-04-18T08:40:48.001Z</time></trkpt><trkpt lat="43.08293789842289" lon="12.16715372552209"><ele>314.0</ele><time>2026-04-18T08:40:49.001Z</time></trkpt><trkpt lat="43.08297354753577" lon="12.167055699359354"><ele>314.0</ele><time>2026-04-18T08:40:50.001Z</time></trkpt><trkpt lat="43.08300523994924" lon="12.166962927390552"><ele>313.0</ele><time>2026-04-18T08:40:51.001Z</time></trkpt><trkpt lat="43.08303111956702" lon="12.166870492682827"><ele>312.0</ele><time>2026-04-18T08:40:52.001Z</time></trkpt><trkpt lat="43.08304906545635" lon="12.166772640948944"><ele>311.0</ele><time>2026-04-18T08:40:53.001Z</time></trkpt><trkpt lat="43.08305704341085" lon="12.166661672224764"><ele>310.0</ele><time>2026-04-18T08:40:54.001Z</time></trkpt><trkpt lat="43.08305167767082" lon="12.166550294867058"><ele>309.0</ele><time>2026-04-18T08:40:55.001Z</time></trkpt><trkpt lat="43.083052228484235" lon="12.166409259111063"><ele>308.0</ele><time>2026-04-18T08:40:56.001Z</time></trkpt><trkpt lat="43.08305021271449" lon="12.166268906323657"><ele>305.8</ele><time>2026-04-18T08:40:57.001Z</time></trkpt><trkpt lat="43.083055209393414" lon="12.16611060601215"><ele>303.6</ele><time>2026-04-18T08:40:58.001Z</time></trkpt><trkpt lat="43.08306445101481" lon="12.165968104171878"><ele>301.4</ele><time>2026-04-18T08:40:59.001Z</time></trkpt><trkpt lat="43.083073067296965" lon="12.165847214685773"><ele>299.2</ele><time>2026-04-18T08:41:00.001Z</time></trkpt><trkpt lat="43.083069448333795" lon="12.165734769396469"><ele>297.0</ele><time>2026-04-18T08:41:01.001Z</time></trkpt><trkpt lat="43.083060350113826" lon="12.16563638852898"><ele>296.5</ele><time>2026-04-18T08:41:02.001Z</time></trkpt><trkpt lat="43.083051227998915" lon="12.165548170282191"><ele>296.0</ele><time>2026-04-18T08:41:03.001Z</time></trkpt><trkpt lat="43.083022929942736" lon="12.165394022672505"><ele>295.5</ele><time>2026-04-18T08:41:05.001Z</time></trkpt><trkpt lat="43.08299070203347" lon="12.165247928443629"><ele>295.0</ele><time>2026-04-18T08:41:07.001Z</time></trkpt><trkpt lat="43.08297965190491" lon="12.1651628451688"><ele>294.5</ele><time>2026-04-18T08:41:08.001Z</time></trkpt><trkpt lat="43.08297819697755" lon="12.165073148705453"><ele>294.0</ele><time>2026-04-18T08:41:09.001Z</time></trkpt><trkpt lat="43.08298257793871" lon="12.164968054650938"><ele>293.4</ele><time>2026-04-18T08:41:10.001Z</time></trkpt><trkpt lat="43.08299874856872" lon="12.164854900454067"><ele>292.79999999999995</ele><time>2026-04-18T08:41:11.001Z</time></trkpt><trkpt lat="43.08301799378158" lon="12.164728804541383"><ele>292.20000000000005</ele><time>2026-04-18T08:41:12.001Z</time></trkpt><trkpt lat="43.08303780204553" lon="12.164574578735804"><ele>291.6</ele><time>2026-04-18T08:41:13.001Z</time></trkpt><trkpt lat="43.08305953663068" lon="12.164398320341745"><ele>291.0</ele><time>2026-04-18T08:41:14.001Z</time></trkpt><trkpt lat="43.08308006857255" lon="12.164220965551422"><ele>291.0</ele><time>2026-04-18T08:41:15.001Z</time></trkpt><trkpt lat="43.083092233335975" lon="12.164078575970208"><ele>291.0</ele><time>2026-04-18T08:41:16.001Z</time></trkpt><trkpt lat="43.08310946379008" lon="12.163949292694843"><ele>291.0</ele><time>2026-04-18T08:41:17.001Z</time></trkpt><trkpt lat="43.08312775109452" lon="12.163820361302742"><ele>291.0</ele><time>2026-04-18T08:41:18.001Z</time></trkpt><trkpt lat="43.08314256649672" lon="12.163705990349442"><ele>291.0</ele><time>2026-04-18T08:41:19.001Z</time></trkpt><trkpt lat="43.083155443599644" lon="12.163589187908004"><ele>290.1666666666667</ele><time>2026-04-18T08:41:20.001Z</time></trkpt><trkpt lat="43.08316129911303" lon="12.163484118307231"><ele>289.3333333333333</ele><time>2026-04-18T08:41:21.001Z</time></trkpt><trkpt lat="43.08315359363859" lon="12.16334773912074"><ele>288.5</ele><time>2026-04-18T08:41:23.001Z</time></trkpt><trkpt lat="43.0831070091617" lon="12.163237421140831"><ele>287.66666666666663</ele><time>2026-04-18T08:41:25.001Z</time></trkpt><trkpt lat="43.08302699168012" lon="12.163183915354965"><ele>286.8333333333333</ele><time>2026-04-18T08:41:27.001Z</time></trkpt><trkpt lat="43.082955268426424" lon="12.163247356318939"><ele>286.0</ele><time>2026-04-18T08:41:29.001Z</time></trkpt><trkpt lat="43.082887530256215" lon="12.163409402219939"><ele>286.0</ele><time>2026-04-18T08:41:31.001Z</time></trkpt><trkpt lat="43.082836084057206" lon="12.163558141101234"><ele>286.0</ele><time>2026-04-18T08:41:32.001Z</time></trkpt><trkpt lat="43.082768450408" lon="12.163707543469316"><ele>286.0</ele><time>2026-04-18T08:41:33.001Z</time></trkpt><trkpt lat="43.082687949261086" lon="12.1638369036338"><ele>286.0</ele><time>2026-04-18T08:41:34.001Z</time></trkpt><trkpt lat="43.08262527388764" lon="12.163915586983052"><ele>286.0</ele><time>2026-04-18T08:41:35.001Z</time></trkpt><trkpt lat="43.08255715020215" lon="12.1639676223504"><ele>286.0</ele><time>2026-04-18T08:41:36.001Z</time></trkpt><trkpt lat="43.08248038179451" lon="12.163999009833141"><ele>286.0</ele><time>2026-04-18T08:41:37.001Z</time></trkpt><trkpt lat="43.08239349465558" lon="12.164002442686389"><ele>286.0</ele><time>2026-04-18T08:41:38.001Z</time></trkpt><trkpt lat="43.08229327566" lon="12.163985359145174"><ele>286.0</ele><time>2026-04-18T08:41:39.001Z</time></trkpt><trkpt lat="43.082206953542425" lon="12.163955653236789"><ele>286.0</ele><time>2026-04-18T08:41:40.001Z</time></trkpt><trkpt lat="43.0821176141554" lon="12.163837954842021"><ele>287.66666666666663</ele><time>2026-04-18T08:41:42.001Z</time></trkpt><trkpt lat="43.08210191148748" lon="12.163745339379938"><ele>289.3333333333333</ele><time>2026-04-18T08:41:43.001Z</time></trkpt><trkpt lat="43.082091474907486" lon="12.163631365941175"><ele>291.0</ele><time>2026-04-18T08:41:44.001Z</time></trkpt><trkpt lat="43.082079630849734" lon="12.163518344935238"><ele>292.6666666666667</ele><time>2026-04-18T08:41:45.001Z</time></trkpt><trkpt lat="43.08204675628563" lon="12.16342765216166"><ele>294.33333333333337</ele><time>2026-04-18T08:41:46.001Z</time></trkpt><trkpt lat="43.081991005797434" lon="12.163355808061628"><ele>296.0</ele><time>2026-04-18T08:41:47.001Z</time></trkpt><trkpt lat="43.081923689639936" lon="12.163306665337295"><ele>296.0</ele><time>2026-04-18T08:41:48.001Z</time></trkpt><trkpt lat="43.08184257374418" lon="12.16327682888356"><ele>296.0</ele><time>2026-04-18T08:41:49.001Z</time></trkpt><trkpt lat="43.08174795670958" lon="12.163261815011575"><ele>296.0</ele><time>2026-04-18T08:41:50.001Z</time></trkpt><trkpt lat="43.08165204019993" lon="12.163247995754816"><ele>296.0</ele><time>2026-04-18T08:41:51.001Z</time></trkpt><trkpt lat="43.08156201052691" lon="12.163232610821085"><ele>296.0</ele><time>2026-04-18T08:41:52.001Z</time></trkpt><trkpt lat="43.08146791564906" lon="12.163242982301323"><ele>297.83333333333337</ele><time>2026-04-18T08:41:53.001Z</time></trkpt><trkpt lat="43.08136721535369" lon="12.163272580066288"><ele>299.6666666666667</ele><time>2026-04-18T08:41:54.001Z</time></trkpt><trkpt lat="43.081274631681026" lon="12.163282263403794"><ele>301.5</ele><time>2026-04-18T08:41:55.001Z</time></trkpt><trkpt lat="43.08118630407363" lon="12.163284642779905"><ele>303.3333333333333</ele><time>2026-04-18T08:41:56.001Z</time></trkpt><trkpt lat="43.08111149678838" lon="12.163286926893845"><ele>305.16666666666663</ele><time>2026-04-18T08:41:57.001Z</time></trkpt><trkpt lat="43.08104417283023" lon="12.163314257407148"><ele>307.0</ele><time>2026-04-18T08:41:58.001Z</time></trkpt><trkpt lat="43.08097336907384" lon="12.163368074237104"><ele>307.0</ele><time>2026-04-18T08:41:59.001Z</time></trkpt><trkpt lat="43.0808855056406" lon="12.163423806151703"><ele>307.0</ele><time>2026-04-18T08:42:00.001Z</time></trkpt><trkpt lat="43.08081131848002" lon="12.163426192681095"><ele>307.0</ele><time>2026-04-18T08:42:01.001Z</time></trkpt><trkpt lat="43.08071554589722" lon="12.163420186652262"><ele>307.0</ele><time>2026-04-18T08:42:02.001Z</time></trkpt><trkpt lat="43.08063090802639" lon="12.163423901104737"><ele>307.0</ele><time>2026-04-18T08:42:03.001Z</time></trkpt><trkpt lat="43.0805022880746" lon="12.163483999632353"><ele>308.8</ele><time>2026-04-18T08:42:05.001Z</time></trkpt><trkpt lat="43.08042999415976" lon="12.163511678203182"><ele>310.6</ele><time>2026-04-18T08:42:06.001Z</time></trkpt><trkpt lat="43.08033197834386" lon="12.163534070369163"><ele>312.40000000000003</ele><time>2026-04-18T08:42:07.001Z</time></trkpt><trkpt lat="43.08023871439286" lon="12.163563538223277"><ele>314.2</ele><time>2026-04-18T08:42:08.001Z</time></trkpt><trkpt lat="43.08013747324646" lon="12.163592056637295"><ele>316.0</ele><time>2026-04-18T08:42:09.001Z</time></trkpt><trkpt lat="43.080049718897435" lon="12.163639098353446"><ele>316.0</ele><time>2026-04-18T08:42:10.001Z</time></trkpt><trkpt lat="43.07993439804819" lon="12.16364544349744"><ele>316.0</ele><time>2026-04-18T08:42:12.001Z</time></trkpt><trkpt lat="43.07985551346796" lon="12.163646866993728"><ele>316.0</ele><time>2026-04-18T08:42:14.001Z</time></trkpt><trkpt lat="43.07978403705684" lon="12.163555251417987"><ele>316.0</ele><time>2026-04-18T08:42:16.002Z</time></trkpt><trkpt lat="43.079718440759784" lon="12.163452037368353"><ele>316.0</ele><time>2026-04-18T08:42:18.002Z</time></trkpt><trkpt lat="43.07965468454954" lon="12.16337850455504"><ele>316.6</ele><time>2026-04-18T08:42:20.002Z</time></trkpt><trkpt lat="43.07957981964063" lon="12.163281815362529"><ele>317.20000000000005</ele><time>2026-04-18T08:42:22.002Z</time></trkpt><trkpt lat="43.079507802969914" lon="12.16319067302381"><ele>317.79999999999995</ele><time>2026-04-18T08:42:24.001Z</time></trkpt><trkpt lat="43.079414603330015" lon="12.16314256190713"><ele>318.4</ele><time>2026-04-18T08:42:26.001Z</time></trkpt><trkpt lat="43.07932878881088" lon="12.163068951817529"><ele>319.0</ele><time>2026-04-18T08:42:28.001Z</time></trkpt><trkpt lat="43.07924168086945" lon="12.16297877345429"><ele>318.0</ele><time>2026-04-18T08:42:30.001Z</time></trkpt><trkpt lat="43.07916518300255" lon="12.162886031306671"><ele>317.0</ele><time>2026-04-18T08:42:32.001Z</time></trkpt><trkpt lat="43.07908630655649" lon="12.162756112985313"><ele>316.0</ele><time>2026-04-18T08:42:34.001Z</time></trkpt><trkpt lat="43.07903053325979" lon="12.162642639463048"><ele>315.0</ele><time>2026-04-18T08:42:36.001Z</time></trkpt><trkpt lat="43.078968845049125" lon="12.16254722309575"><ele>314.0</ele><time>2026-04-18T08:42:38.001Z</time></trkpt><trkpt lat="43.078893261627535" lon="12.16247149689035"><ele>314.0</ele><time>2026-04-18T08:42:40.001Z</time></trkpt><trkpt lat="43.0787824968996" lon="12.16243224747587"><ele>314.0</ele><time>2026-04-18T08:42:42.001Z</time></trkpt><trkpt lat="43.07868142907954" lon="12.162403260166249"><ele>314.0</ele><time>2026-04-18T08:42:44.001Z</time></trkpt><trkpt lat="43.07861157202969" lon="12.162356545114582"><ele>314.0</ele><time>2026-04-18T08:42:46.001Z</time></trkpt><trkpt lat="43.07859994286548" lon="12.162238896430733"><ele>314.0</ele><time>2026-04-18T08:42:48.001Z</time></trkpt><trkpt lat="43.078626928157234" lon="12.162114226512013"><ele>314.8</ele><time>2026-04-18T08:42:50.001Z</time></trkpt><trkpt lat="43.07859200011708" lon="12.161951654307355"><ele>315.59999999999997</ele><time>2026-04-18T08:42:53.001Z</time></trkpt><trkpt lat="43.07856562102907" lon="12.161870830934944"><ele>316.4</ele><time>2026-04-18T08:42:54.001Z</time></trkpt><trkpt lat="43.078535144242004" lon="12.161726668122231"><ele>317.2</ele><time>2026-04-18T08:42:56.001Z</time></trkpt><trkpt lat="43.07854998799354" lon="12.16158686377136"><ele>318.0</ele><time>2026-04-18T08:42:58.001Z</time></trkpt><trkpt lat="43.07860564639861" lon="12.161487702417993"><ele>318.5</ele><time>2026-04-18T08:43:00.001Z</time></trkpt><trkpt lat="43.0786165306339" lon="12.161342989839278"><ele>319.0</ele><time>2026-04-18T08:43:02.001Z</time></trkpt><trkpt lat="43.078615889964155" lon="12.161235054483086"><ele>319.5</ele><time>2026-04-18T08:43:03.001Z</time></trkpt><trkpt lat="43.07861897631947" lon="12.161141657143071"><ele>320.0</ele><time>2026-04-18T08:43:04.001Z</time></trkpt><trkpt lat="43.07862714168827" lon="12.161054924841512"><ele>320.5</ele><time>2026-04-18T08:43:05.001Z</time></trkpt><trkpt lat="43.078650789390494" lon="12.160949557260777"><ele>321.0</ele><time>2026-04-18T08:43:06.001Z</time></trkpt><trkpt lat="43.078677960389314" lon="12.160800976333315"><ele>321.5</ele><time>2026-04-18T08:43:08.001Z</time></trkpt><trkpt lat="43.078694439639705" lon="12.16064222430266"><ele>322.0</ele><time>2026-04-18T08:43:10.001Z</time></trkpt><trkpt lat="43.07872935612163" lon="12.160471561703707"><ele>322.5</ele><time>2026-04-18T08:43:12.001Z</time></trkpt><trkpt lat="43.07876240642906" lon="12.160344158247126"><ele>323.0</ele><time>2026-04-18T08:43:14.001Z</time></trkpt><trkpt lat="43.078706180907936" lon="12.160186490465287"><ele>323.0</ele><time>2026-04-18T08:43:16.001Z</time></trkpt><trkpt lat="43.078717253879525" lon="12.160035509060805"><ele>323.0</ele><time>2026-04-18T08:43:18.001Z</time></trkpt><trkpt lat="43.078768131092986" lon="12.159891541501729"><ele>323.0</ele><time>2026-04-18T08:43:20.001Z</time></trkpt><trkpt lat="43.078811229516205" lon="12.159817760723886"><ele>323.0</ele><time>2026-04-18T08:43:21.001Z</time></trkpt><trkpt lat="43.07887272617221" lon="12.159682512269985"><ele>323.0</ele><time>2026-04-18T08:43:23.001Z</time></trkpt><trkpt lat="43.078926939584086" lon="12.159550461237547"><ele>324.33333333333337</ele><time>2026-04-18T08:43:25.001Z</time></trkpt><trkpt lat="43.07893764894842" lon="12.159431301445201"><ele>325.6666666666667</ele><time>2026-04-18T08:43:27Z</time></trkpt><trkpt lat="43.0789340094929" lon="12.159341060731883"><ele>327.0</ele><time>2026-04-18T08:43:28Z</time></trkpt><trkpt lat="43.0789753556828" lon="12.159210925893792"><ele>328.3333333333333</ele><time>2026-04-18T08:43:30Z</time></trkpt><trkpt lat="43.07901859123661" lon="12.1591428717315"><ele>329.66666666666663</ele><time>2026-04-18T08:43:31Z</time></trkpt><trkpt lat="43.07906087947653" lon="12.159066912688916"><ele>331.0</ele><time>2026-04-18T08:43:32Z</time></trkpt><trkpt lat="43.079097538912194" lon="12.158996581901015"><ele>324.8</ele><time>2026-04-18T08:43:33Z</time></trkpt><trkpt lat="43.0791657971989" lon="12.158875633655564"><ele>318.6</ele><time>2026-04-18T08:43:35Z</time></trkpt><trkpt lat="43.07922030160173" lon="12.1587354378688"><ele>312.4</ele><time>2026-04-18T08:43:37Z</time></trkpt><trkpt lat="43.07923073153411" lon="12.15864787588199"><ele>306.2</ele><time>2026-04-18T08:43:38Z</time></trkpt><trkpt lat="43.07922167161637" lon="12.158459189641372"><ele>300.0</ele><time>2026-04-18T08:43:40Z</time></trkpt><trkpt lat="43.0792058774182" lon="12.158348637049594"><ele>300.0</ele><time>2026-04-18T08:43:41Z</time></trkpt><trkpt lat="43.07920114167828" lon="12.158233892349584"><ele>300.0</ele><time>2026-04-18T08:43:42Z</time></trkpt><trkpt lat="43.07920804496889" lon="12.158112136492067"><ele>300.0</ele><time>2026-04-18T08:43:43Z</time></trkpt><trkpt lat="43.07923026019884" lon="12.158001627663447"><ele>300.0</ele><time>2026-04-18T08:43:44Z</time></trkpt><trkpt lat="43.07923293670388" lon="12.157914382439179"><ele>300.0</ele><time>2026-04-18T08:43:45Z</time></trkpt><trkpt lat="43.079253636207426" lon="12.157789207026937"><ele>300.0</ele><time>2026-04-18T08:43:46Z</time></trkpt><trkpt lat="43.079261642532074" lon="12.157676935952404"><ele>299.8333333333333</ele><time>2026-04-18T08:43:47Z</time></trkpt><trkpt lat="43.0792751988055" lon="12.15756063224672"><ele>299.6666666666667</ele><time>2026-04-18T08:43:48Z</time></trkpt><trkpt lat="43.07929197094172" lon="12.15746114195902"><ele>299.5</ele><time>2026-04-18T08:43:49Z</time></trkpt><trkpt lat="43.07929542120237" lon="12.157365661551712"><ele>299.33333333333337</ele><time>2026-04-18T08:43:50Z</time></trkpt><trkpt lat="43.07930401317898" lon="12.157245068075637"><ele>299.1666666666667</ele><time>2026-04-18T08:43:51Z</time></trkpt><trkpt lat="43.079307206119545" lon="12.157138358814755"><ele>299.0</ele><time>2026-04-18T08:43:52Z</time></trkpt><trkpt lat="43.07932895089147" lon="12.157014078790079"><ele>299.0</ele><time>2026-04-18T08:43:53Z</time></trkpt><trkpt lat="43.07934410022604" lon="12.156925481530877"><ele>299.0</ele><time>2026-04-18T08:43:54Z</time></trkpt><trkpt lat="43.07937348783588" lon="12.156815234906578"><ele>299.0</ele><time>2026-04-18T08:43:55Z</time></trkpt><trkpt lat="43.079400031371804" lon="12.156712792907172"><ele>299.0</ele><time>2026-04-18T08:43:56Z</time></trkpt><trkpt lat="43.079419283374776" lon="12.156629438745282"><ele>299.0</ele><time>2026-04-18T08:43:57Z</time></trkpt><trkpt lat="43.0794366228641" lon="12.15654098069156"><ele>299.0</ele><time>2026-04-18T08:43:58Z</time></trkpt><trkpt lat="43.079451601176274" lon="12.156454139133782"><ele>299.0</ele><time>2026-04-18T08:43:59Z</time></trkpt><trkpt lat="43.07946506734" lon="12.156369384800836"><ele>297.2</ele><time>2026-04-18T08:44:00Z</time></trkpt><trkpt lat="43.079486630459954" lon="12.15622198412954"><ele>295.4</ele><time>2026-04-18T08:44:02Z</time></trkpt><trkpt lat="43.07949508785493" lon="12.156059885097365"><ele>293.6</ele><time>2026-04-18T08:44:04Z</time></trkpt><trkpt lat="43.07949870081516" lon="12.155918163218606"><ele>291.8</ele><time>2026-04-18T08:44:06Z</time></trkpt><trkpt lat="43.07949925562451" lon="12.155788568200993"><ele>290.0</ele><time>2026-04-18T08:44:08Z</time></trkpt><trkpt lat="43.07953347504224" lon="12.155680237096806"><ele>288.6</ele><time>2026-04-18T08:44:10Z</time></trkpt><trkpt lat="43.07948866926982" lon="12.15558048481625"><ele>287.2</ele><time>2026-04-18T08:44:13Z</time></trkpt><trkpt lat="43.07936751373114" lon="12.155565564597465"><ele>285.8</ele><time>2026-04-18T08:44:15Z</time></trkpt><trkpt lat="43.07929799831346" lon="12.155561298824654"><ele>284.4</ele><time>2026-04-18T08:44:16Z</time></trkpt><trkpt lat="43.079184564887484" lon="12.155504295277112"><ele>283.0</ele><time>2026-04-18T08:44:18Z</time></trkpt><trkpt lat="43.07912404172649" lon="12.155451572945378"><ele>284.16666666666663</ele><time>2026-04-18T08:44:19Z</time></trkpt><trkpt lat="43.07901524810236" lon="12.155392381942862"><ele>285.3333333333333</ele><time>2026-04-18T08:44:21.001Z</time></trkpt><trkpt lat="43.07894822839806" lon="12.155366485112484"><ele>286.5</ele><time>2026-04-18T08:44:22.001Z</time></trkpt><trkpt lat="43.07888561173156" lon="12.155349832863248"><ele>287.6666666666667</ele><time>2026-04-18T08:44:23.001Z</time></trkpt><trkpt lat="43.07876946190677" lon="12.155301323742565"><ele>288.83333333333337</ele><time>2026-04-18T08:44:25.001Z</time></trkpt><trkpt lat="43.0786948834491" lon="12.155287726097592"><ele>290.0</ele><time>2026-04-18T08:44:26.001Z</time></trkpt><trkpt lat="43.078599915086166" lon="12.155287178309603"><ele>290.0</ele><time>2026-04-18T08:44:27.001Z</time></trkpt><trkpt lat="43.07848534570778" lon="12.155306584326517"><ele>290.0</ele><time>2026-04-18T08:44:28.001Z</time></trkpt><trkpt lat="43.07839148382602" lon="12.155332351092705"><ele>290.0</ele><time>2026-04-18T08:44:29.001Z</time></trkpt><trkpt lat="43.07829638299799" lon="12.155372661767114"><ele>290.0</ele><time>2026-04-18T08:44:31.001Z</time></trkpt><trkpt lat="43.078178275985806" lon="12.155435221218504"><ele>290.0</ele><time>2026-04-18T08:44:33.001Z</time></trkpt><trkpt lat="43.078119752155224" lon="12.155474828927828"><ele>290.5</ele><time>2026-04-18T08:44:34.001Z</time></trkpt><trkpt lat="43.07805199800032" lon="12.15550107573034"><ele>291.0</ele><time>2026-04-18T08:44:35.001Z</time></trkpt><trkpt lat="43.07797359754083" lon="12.15554653966731"><ele>291.5</ele><time>2026-04-18T08:44:36.001Z</time></trkpt><trkpt lat="43.07790074150539" lon="12.155585024028564"><ele>292.0</ele><time>2026-04-18T08:44:37.001Z</time></trkpt><trkpt lat="43.07781642775975" lon="12.155620924008508"><ele>292.5</ele><time>2026-04-18T08:44:38.001Z</time></trkpt><trkpt lat="43.07773973107695" lon="12.155641424258764"><ele>293.0</ele><time>2026-04-18T08:44:39.001Z</time></trkpt><trkpt lat="43.07766134012769" lon="12.155645904506507"><ele>293.0</ele><time>2026-04-18T08:44:40.001Z</time></trkpt><trkpt lat="43.077578980468175" lon="12.15563746062979"><ele>293.0</ele><time>2026-04-18T08:44:41.001Z</time></trkpt><trkpt lat="43.07748509703177" lon="12.155631310136174"><ele>293.0</ele><time>2026-04-18T08:44:42.001Z</time></trkpt><trkpt lat="43.07739004749738" lon="12.155643584498579"><ele>293.0</ele><time>2026-04-18T08:44:43.001Z</time></trkpt><trkpt lat="43.07730801889994" lon="12.15566513694925"><ele>293.0</ele><time>2026-04-18T08:44:44.001Z</time></trkpt><trkpt lat="43.07723310803927" lon="12.155685430494678"><ele>293.0</ele><time>2026-04-18T08:44:45.001Z</time></trkpt><trkpt lat="43.077163065342084" lon="12.155681806146736"><ele>294.1666666666667</ele><time>2026-04-18T08:44:46.001Z</time></trkpt><trkpt lat="43.07708880598008" lon="12.155643695030362"><ele>295.33333333333337</ele><time>2026-04-18T08:44:47.001Z</time></trkpt><trkpt lat="43.07701418872864" lon="12.155588658215477"><ele>296.5</ele><time>2026-04-18T08:44:48.001Z</time></trkpt><trkpt lat="43.07693217773897" lon="12.155551831925496"><ele>297.6666666666667</ele><time>2026-04-18T08:44:49.001Z</time></trkpt><trkpt lat="43.076843331608835" lon="12.155525575748692"><ele>298.8333333333333</ele><time>2026-04-18T08:44:50.001Z</time></trkpt><trkpt lat="43.07675560791641" lon="12.155505915242076"><ele>300.0</ele><time>2026-04-18T08:44:51.001Z</time></trkpt><trkpt lat="43.07667051157786" lon="12.155490305963282"><ele>301.4</ele><time>2026-04-18T08:44:52.001Z</time></trkpt><trkpt lat="43.07658217740359" lon="12.155487670271672"><ele>302.8</ele><time>2026-04-18T08:44:53.001Z</time></trkpt><trkpt lat="43.07648575565932" lon="12.155493162956091"><ele>304.2</ele><time>2026-04-18T08:44:54.001Z</time></trkpt><trkpt lat="43.07637600354943" lon="12.155497834734136"><ele>305.6</ele><time>2026-04-18T08:44:55Z</time></trkpt><trkpt lat="43.07626969092757" lon="12.155498795141508"><ele>307.0</ele><time>2026-04-18T08:44:56Z</time></trkpt><trkpt lat="43.07617713512521" lon="12.15550427191913"><ele>307.0</ele><time>2026-04-18T08:44:57Z</time></trkpt><trkpt lat="43.07610308226942" lon="12.155542505147878"><ele>307.0</ele><time>2026-04-18T08:44:58Z</time></trkpt><trkpt lat="43.07603728295462" lon="12.155537436474846"><ele>307.0</ele><time>2026-04-18T08:44:59Z</time></trkpt><trkpt lat="43.075974043175954" lon="12.155562173680382"><ele>307.0</ele><time>2026-04-18T08:45:00Z</time></trkpt><trkpt lat="43.075893173491785" lon="12.155545252961296"><ele>307.0</ele><time>2026-04-18T08:45:01Z</time></trkpt><trkpt lat="43.07580337984547" lon="12.155490705055604"><ele>307.0</ele><time>2026-04-18T08:45:02Z</time></trkpt><trkpt lat="43.0757310460951" lon="12.155432199517477"><ele>307.8</ele><time>2026-04-18T08:45:03Z</time></trkpt><trkpt lat="43.07560589432926" lon="12.155382281274967"><ele>308.6</ele><time>2026-04-18T08:45:05Z</time></trkpt><trkpt lat="43.07554028199774" lon="12.155332375372241"><ele>309.40000000000003</ele><time>2026-04-18T08:45:06Z</time></trkpt><trkpt lat="43.07544853663617" lon="12.155267240904045"><ele>310.2</ele><time>2026-04-18T08:45:08Z</time></trkpt><trkpt lat="43.075375367785405" lon="12.155230871592446"><ele>311.0</ele><time>2026-04-18T08:45:09Z</time></trkpt><trkpt lat="43.07534323100038" lon="12.15509219785656"><ele>311.0</ele><time>2026-04-18T08:45:10Z</time></trkpt><trkpt lat="43.07528939208624" lon="12.154998016758029"><ele>311.0</ele><time>2026-04-18T08:45:11Z</time></trkpt><trkpt lat="43.07523597844626" lon="12.154913020653492"><ele>311.0</ele><time>2026-04-18T08:45:12Z</time></trkpt><trkpt lat="43.07517901788215" lon="12.154826856562847"><ele>311.0</ele><time>2026-04-18T08:45:13Z</time></trkpt><trkpt lat="43.075109866021585" lon="12.154742698551185"><ele>311.0</ele><time>2026-04-18T08:45:14Z</time></trkpt><trkpt lat="43.07504923959878" lon="12.15466677796221"><ele>311.0</ele><time>2026-04-18T08:45:15Z</time></trkpt><trkpt lat="43.07499811450351" lon="12.154606029799119"><ele>310.5</ele><time>2026-04-18T08:45:16Z</time></trkpt><trkpt lat="43.074947985876506" lon="12.154522095998079"><ele>310.0</ele><time>2026-04-18T08:45:17Z</time></trkpt><trkpt lat="43.074908589852" lon="12.154414130813066"><ele>309.5</ele><time>2026-04-18T08:45:18Z</time></trkpt><trkpt lat="43.074869611894215" lon="12.154334302969891"><ele>309.0</ele><time>2026-04-18T08:45:19Z</time></trkpt><trkpt lat="43.07477210788508" lon="12.154211386419282"><ele>308.5</ele><time>2026-04-18T08:45:21Z</time></trkpt><trkpt lat="43.074698682398115" lon="12.154175259583562"><ele>308.0</ele><time>2026-04-18T08:45:22Z</time></trkpt><trkpt lat="43.07463054227647" lon="12.154146976805597"><ele>308.0</ele><time>2026-04-18T08:45:23Z</time></trkpt><trkpt lat="43.074550909662356" lon="12.154129825293653"><ele>308.0</ele><time>2026-04-18T08:45:24Z</time></trkpt><trkpt lat="43.07448620331244" lon="12.154125587435656"><ele>308.0</ele><time>2026-04-18T08:45:25Z</time></trkpt><trkpt lat="43.07442186522526" lon="12.15412572066165"><ele>308.0</ele><time>2026-04-18T08:45:26Z</time></trkpt><trkpt lat="43.074285680201356" lon="12.154160521268015"><ele>308.0</ele><time>2026-04-18T08:45:28Z</time></trkpt><trkpt lat="43.07421376981466" lon="12.154213747100819"><ele>308.0</ele><time>2026-04-18T08:45:29Z</time></trkpt><trkpt lat="43.074158773195144" lon="12.154267390472679"><ele>308.5</ele><time>2026-04-18T08:45:30Z</time></trkpt><trkpt lat="43.0740794877151" lon="12.154319878734404"><ele>309.0</ele><time>2026-04-18T08:45:32Z</time></trkpt><trkpt lat="43.074016657527224" lon="12.154263141714049"><ele>309.5</ele><time>2026-04-18T08:45:35Z</time></trkpt><trkpt lat="43.07399949568426" lon="12.154145207274947"><ele>310.0</ele><time>2026-04-18T08:45:37Z</time></trkpt><trkpt lat="43.07400457294899" lon="12.154044944914126"><ele>310.5</ele><time>2026-04-18T08:45:38Z</time></trkpt><trkpt lat="43.07400626046083" lon="12.153902050295772"><ele>311.0</ele><time>2026-04-18T08:45:40Z</time></trkpt><trkpt lat="43.07392312139152" lon="12.153751244374476"><ele>309.40000000000003</ele><time>2026-04-18T08:45:42Z</time></trkpt><trkpt lat="43.07387220285492" lon="12.153685185175945"><ele>307.8</ele><time>2026-04-18T08:45:43Z</time></trkpt><trkpt lat="43.073813845792" lon="12.153628553707273"><ele>306.20000000000005</ele><time>2026-04-18T08:45:44Z</time></trkpt><trkpt lat="43.07372545357963" lon="12.153567808095245"><ele>304.6</ele><time>2026-04-18T08:45:46Z</time></trkpt><trkpt lat="43.073629973240955" lon="12.15353233910622"><ele>303.0</ele><time>2026-04-18T08:45:48Z</time></trkpt><trkpt lat="43.07352918572349" lon="12.153420102233586"><ele>303.0</ele><time>2026-04-18T08:45:50Z</time></trkpt><trkpt lat="43.07348591376163" lon="12.153354988202214"><ele>303.0</ele><time>2026-04-18T08:45:51Z</time></trkpt><trkpt lat="43.0734380501567" lon="12.153262259456145"><ele>303.0</ele><time>2026-04-18T08:45:52Z</time></trkpt><trkpt lat="43.07338711528241" lon="12.153166408797828"><ele>303.0</ele><time>2026-04-18T08:45:53Z</time></trkpt><trkpt lat="43.073344002165875" lon="12.153088639018351"><ele>303.0</ele><time>2026-04-18T08:45:54Z</time></trkpt><trkpt lat="43.07327765243891" lon="12.152974710761006"><ele>303.0</ele><time>2026-04-18T08:45:56Z</time></trkpt><trkpt lat="43.073210056476746" lon="12.152862869229645"><ele>303.0</ele><time>2026-04-18T08:45:58Z</time></trkpt><trkpt lat="43.073150440657834" lon="12.152731437786882"><ele>303.0</ele><time>2026-04-18T08:46:00Z</time></trkpt><trkpt lat="43.07312562652682" lon="12.152651685084184"><ele>303.0</ele><time>2026-04-18T08:46:01Z</time></trkpt><trkpt lat="43.07304895768434" lon="12.152547882078219"><ele>303.0</ele><time>2026-04-18T08:46:03Z</time></trkpt><trkpt lat="43.07298393814911" lon="12.152520872010138"><ele>303.0</ele><time>2026-04-18T08:46:04Z</time></trkpt><trkpt lat="43.072911306089345" lon="12.152516446194657"><ele>303.0</ele><time>2026-04-18T08:46:05Z</time></trkpt><trkpt lat="43.07284950082552" lon="12.152486236530889"><ele>303.0</ele><time>2026-04-18T08:46:06Z</time></trkpt><trkpt lat="43.07276559972827" lon="12.152429418623866"><ele>303.0</ele><time>2026-04-18T08:46:08Z</time></trkpt><trkpt lat="43.07275041373868" lon="12.152317651810446"><ele>303.0</ele><time>2026-04-18T08:46:12Z</time></trkpt><trkpt lat="43.07285863330921" lon="12.152254468769664"><ele>303.0</ele><time>2026-04-18T08:46:14Z</time></trkpt><trkpt lat="43.072900408861194" lon="12.152111793750251"><ele>303.0</ele><time>2026-04-18T08:46:16Z</time></trkpt><trkpt lat="43.07281604741475" lon="12.152000429554382"><ele>302.8</ele><time>2026-04-18T08:46:18Z</time></trkpt><trkpt lat="43.07273967976149" lon="12.151923617974989"><ele>302.6</ele><time>2026-04-18T08:46:20Z</time></trkpt><trkpt lat="43.07272403311252" lon="12.151727618138123"><ele>302.4</ele><time>2026-04-18T08:46:22Z</time></trkpt><trkpt lat="43.07271854104792" lon="12.151589968621531"><ele>302.2</ele><time>2026-04-18T08:46:23Z</time></trkpt><trkpt lat="43.072720457349746" lon="12.151457435385288"><ele>302.0</ele><time>2026-04-18T08:46:24Z</time></trkpt><trkpt lat="43.07270617800433" lon="12.151360278934904"><ele>302.33333333333337</ele><time>2026-04-18T08:46:25Z</time></trkpt><trkpt lat="43.072659686449754" lon="12.151272093918905"><ele>302.6666666666667</ele><time>2026-04-18T08:46:26Z</time></trkpt><trkpt lat="43.07255262777935" lon="12.15124975038687"><ele>303.0</ele><time>2026-04-18T08:46:27.001Z</time></trkpt><trkpt lat="43.072473135639626" lon="12.151240668062867"><ele>303.3333333333333</ele><time>2026-04-18T08:46:28.001Z</time></trkpt><trkpt lat="43.0723989886313" lon="12.1512956664456"><ele>303.66666666666663</ele><time>2026-04-18T08:46:29.001Z</time></trkpt><trkpt lat="43.07233334139553" lon="12.151324219741044"><ele>304.0</ele><time>2026-04-18T08:46:30.001Z</time></trkpt><trkpt lat="43.07230104844089" lon="12.151441600399343"><ele>305.8</ele><time>2026-04-18T08:46:31.001Z</time></trkpt><trkpt lat="43.07229669836973" lon="12.151595959010354"><ele>307.59999999999997</ele><time>2026-04-18T08:46:33.001Z</time></trkpt><trkpt lat="43.072274885338544" lon="12.1517149614479"><ele>309.4</ele><time>2026-04-18T08:46:35.001Z</time></trkpt><trkpt lat="43.07218761532292" lon="12.151747264256688"><ele>311.2</ele><time>2026-04-18T08:46:37.001Z</time></trkpt><trkpt lat="43.07211552935875" lon="12.151649874806026"><ele>313.0</ele><time>2026-04-18T08:46:39.001Z</time></trkpt><trkpt lat="43.07218621485707" lon="12.151495376516216"><ele>313.4</ele><time>2026-04-18T08:46:40.001Z</time></trkpt><trkpt lat="43.07214578840761" lon="12.151358696933926"><ele>313.8</ele><time>2026-04-18T08:46:42.001Z</time></trkpt><trkpt lat="43.07209849974873" lon="12.151283958333785"><ele>314.2</ele><time>2026-04-18T08:46:43.001Z</time></trkpt><trkpt lat="43.07198662723893" lon="12.151299070636089"><ele>314.6</ele><time>2026-04-18T08:46:44.001Z</time></trkpt><trkpt lat="43.07191425636793" lon="12.15128005664758"><ele>315.0</ele><time>2026-04-18T08:46:45.001Z</time></trkpt><trkpt lat="43.07185225170231" lon="12.151367453430053"><ele>315.0</ele><time>2026-04-18T08:46:46.001Z</time></trkpt><trkpt lat="43.07181185017313" lon="12.151459320562578"><ele>315.0</ele><time>2026-04-18T08:46:47Z</time></trkpt><trkpt lat="43.07178413642759" lon="12.151569767297424"><ele>315.0</ele><time>2026-04-18T08:46:48Z</time></trkpt><trkpt lat="43.07174901812246" lon="12.151661130762584"><ele>315.0</ele><time>2026-04-18T08:46:49Z</time></trkpt><trkpt lat="43.071679178571124" lon="12.151725811108857"><ele>315.0</ele><time>2026-04-18T08:46:50Z</time></trkpt><trkpt lat="43.07158168756071" lon="12.151777343474722"><ele>315.0</ele><time>2026-04-18T08:46:51Z</time></trkpt><trkpt lat="43.071495080946335" lon="12.15182243778842"><ele>318.5</ele><time>2026-04-18T08:46:52Z</time></trkpt><trkpt lat="43.07137247511786" lon="12.151876404991809"><ele>322.0</ele><time>2026-04-18T08:46:53Z</time></trkpt><trkpt lat="43.071268051271836" lon="12.15194560297479"><ele>325.5</ele><time>2026-04-18T08:46:54Z</time></trkpt><trkpt lat="43.07115739995317" lon="12.151991563582731"><ele>329.0</ele><time>2026-04-18T08:46:55Z</time></trkpt><trkpt lat="43.071042490186116" lon="12.15201973767781"><ele>329.0</ele><time>2026-04-18T08:46:56Z</time></trkpt><trkpt lat="43.070933048571966" lon="12.152050863942721"><ele>329.0</ele><time>2026-04-18T08:46:57Z</time></trkpt><trkpt lat="43.07082411107455" lon="12.152067155313683"><ele>329.0</ele><time>2026-04-18T08:46:58Z</time></trkpt><trkpt lat="43.07071681118587" lon="12.152052786663843"><ele>329.0</ele><time>2026-04-18T08:46:59Z</time></trkpt><trkpt lat="43.070593722035994" lon="12.152074524626514"><ele>333.0</ele><time>2026-04-18T08:47:00Z</time></trkpt><trkpt lat="43.070456103065275" lon="12.152078599278836"><ele>337.0</ele><time>2026-04-18T08:47:01Z</time></trkpt><trkpt lat="43.07029271536513" lon="12.152058770290887"><ele>341.0</ele><time>2026-04-18T08:47:02Z</time></trkpt><trkpt lat="43.070119965336914" lon="12.15205812580901"><ele>341.0</ele><time>2026-04-18T08:47:03Z</time></trkpt><trkpt lat="43.06997773382781" lon="12.152084010913523"><ele>341.0</ele><time>2026-04-18T08:47:04Z</time></trkpt><trkpt lat="43.06985064053801" lon="12.15208050295718"><ele>341.0</ele><time>2026-04-18T08:47:05Z</time></trkpt><trkpt lat="43.069737237083466" lon="12.152087261571774"><ele>341.0</ele><time>2026-04-18T08:47:06Z</time></trkpt><trkpt lat="43.06964814390438" lon="12.152051590465103"><ele>342.25</ele><time>2026-04-18T08:47:07Z</time></trkpt><trkpt lat="43.06955403824078" lon="12.152016465912814"><ele>343.5</ele><time>2026-04-18T08:47:08Z</time></trkpt><trkpt lat="43.06943934422764" lon="12.151966939925197"><ele>344.75</ele><time>2026-04-18T08:47:09Z</time></trkpt><trkpt lat="43.06932501127635" lon="12.151871550324078"><ele>346.0</ele><time>2026-04-18T08:47:10Z</time></trkpt><trkpt lat="43.069226166373916" lon="12.151789933749454"><ele>346.0</ele><time>2026-04-18T08:47:11Z</time></trkpt><trkpt lat="43.06914641488672" lon="12.151719324187379"><ele>346.0</ele><time>2026-04-18T08:47:12Z</time></trkpt><trkpt lat="43.069080110173964" lon="12.151661319364145"><ele>346.0</ele><time>2026-04-18T08:47:13Z</time></trkpt><trkpt lat="43.0690483502504" lon="12.151533434308153"><ele>346.0</ele><time>2026-04-18T08:47:15Z</time></trkpt><trkpt lat="43.06908004548083" lon="12.15145322403997"><ele>346.0</ele><time>2026-04-18T08:47:16Z</time></trkpt><trkpt lat="43.06919778997141" lon="12.151449079985742"><ele>346.0</ele><time>2026-04-18T08:47:18Z</time></trkpt><trkpt lat="43.06928230538376" lon="12.151487646377168"><ele>346.0</ele><time>2026-04-18T08:47:19Z</time></trkpt><trkpt lat="43.069380082621095" lon="12.15153343430833"><ele>346.0</ele><time>2026-04-18T08:47:20Z</time></trkpt><trkpt lat="43.06947023458252" lon="12.151566719469447"><ele>346.0</ele><time>2026-04-18T08:47:21Z</time></trkpt><trkpt lat="43.069534541957964" lon="12.151589641011736"><ele>346.0</ele><time>2026-04-18T08:47:22Z</time></trkpt><trkpt lat="43.06959886246905" lon="12.151602462837701"><ele>346.0</ele><time>2026-04-18T08:47:23Z</time></trkpt><trkpt lat="43.06971499453503" lon="12.151591831460902"><ele>348.0</ele><time>2026-04-18T08:47:25Z</time></trkpt><trkpt lat="43.069793508889475" lon="12.15144830287481"><ele>350.0</ele><time>2026-04-18T08:47:27Z</time></trkpt><trkpt lat="43.06973940936523" lon="12.151276119727415"><ele>352.0</ele><time>2026-04-18T08:47:29Z</time></trkpt><trkpt lat="43.06966428092602" lon="12.151259428232182"><ele>354.0</ele><time>2026-04-18T08:47:30Z</time></trkpt><trkpt lat="43.0695550859534" lon="12.151163312110057"><ele>354.0</ele><time>2026-04-18T08:47:32Z</time></trkpt><trkpt lat="43.069460982678805" lon="12.151147955886085"><ele>354.0</ele><time>2026-04-18T08:47:33Z</time></trkpt><trkpt lat="43.06937278916874" lon="12.151108489614765"><ele>354.0</ele><time>2026-04-18T08:47:34Z</time></trkpt><trkpt lat="43.0692742737847" lon="12.151089938170124"><ele>354.0</ele><time>2026-04-18T08:47:35Z</time></trkpt><trkpt lat="43.06918756089667" lon="12.151041509654968"><ele>354.0</ele><time>2026-04-18T08:47:36Z</time></trkpt><trkpt lat="43.069094561710514" lon="12.151025714302842"><ele>357.25</ele><time>2026-04-18T08:47:37Z</time></trkpt><trkpt lat="43.068970762425145" lon="12.151034188105807"><ele>360.5</ele><time>2026-04-18T08:47:38Z</time></trkpt><trkpt lat="43.06884820273886" lon="12.151045745962401"><ele>363.75</ele><time>2026-04-18T08:47:39Z</time></trkpt><trkpt lat="43.068731595132746" lon="12.151070375376811"><ele>367.0</ele><time>2026-04-18T08:47:40Z</time></trkpt><trkpt lat="43.06860653923498" lon="12.151090894383488"><ele>367.0</ele><time>2026-04-18T08:47:41Z</time></trkpt><trkpt lat="43.068474811329175" lon="12.151117355489063"><ele>367.0</ele><time>2026-04-18T08:47:42Z</time></trkpt><trkpt lat="43.068335039981264" lon="12.151156098784725"><ele>367.0</ele><time>2026-04-18T08:47:43Z</time></trkpt><trkpt lat="43.06819680112761" lon="12.151175193704681"><ele>367.0</ele><time>2026-04-18T08:47:44Z</time></trkpt><trkpt lat="43.068062009350704" lon="12.151196003812041"><ele>369.75</ele><time>2026-04-18T08:47:45Z</time></trkpt><trkpt lat="43.067934041188025" lon="12.151217402902622"><ele>372.5</ele><time>2026-04-18T08:47:46Z</time></trkpt><trkpt lat="43.06781893909403" lon="12.15123953732694"><ele>375.25</ele><time>2026-04-18T08:47:47Z</time></trkpt><trkpt lat="43.06769834464525" lon="12.151266580857667"><ele>378.0</ele><time>2026-04-18T08:47:48Z</time></trkpt><trkpt lat="43.067582677023566" lon="12.151277651102882"><ele>378.0</ele><time>2026-04-18T08:47:49Z</time></trkpt><trkpt lat="43.067463252793175" lon="12.151278136212081"><ele>378.0</ele><time>2026-04-18T08:47:50Z</time></trkpt><trkpt lat="43.067358970806225" lon="12.15128516522366"><ele>378.0</ele><time>2026-04-18T08:47:51Z</time></trkpt><trkpt lat="43.06727563281144" lon="12.151265548716275"><ele>378.0</ele><time>2026-04-18T08:47:52Z</time></trkpt><trkpt lat="43.06720715292076" lon="12.151264018602115"><ele>378.0</ele><time>2026-04-18T08:47:53Z</time></trkpt><trkpt lat="43.0671119810641" lon="12.151261892081559"><ele>376.25</ele><time>2026-04-18T08:47:55Z</time></trkpt><trkpt lat="43.067101764043585" lon="12.151477225693993"><ele>374.5</ele><time>2026-04-18T08:47:57Z</time></trkpt><trkpt lat="43.06708789152838" lon="12.15160950748379"><ele>372.75</ele><time>2026-04-18T08:47:59Z</time></trkpt><trkpt lat="43.0670789374221" lon="12.151757102678989"><ele>371.0</ele><time>2026-04-18T08:48:01Z</time></trkpt><trkpt lat="43.06702829087929" lon="12.151880180583595"><ele>370.0</ele><time>2026-04-18T08:48:03Z</time></trkpt><trkpt lat="43.06696334038232" lon="12.151991337477298"><ele>369.0</ele><time>2026-04-18T08:48:05Z</time></trkpt><trkpt lat="43.06691468216614" lon="12.152085406132416"><ele>368.0</ele><time>2026-04-18T08:48:06Z</time></trkpt><trkpt lat="43.06685567153001" lon="12.152196811996763"><ele>367.0</ele><time>2026-04-18T08:48:07Z</time></trkpt><trkpt lat="43.06679328949006" lon="12.152321144574326"><ele>366.0</ele><time>2026-04-18T08:48:08Z</time></trkpt><trkpt lat="43.066741407453975" lon="12.152454183918191"><ele>365.75</ele><time>2026-04-18T08:48:09Z</time></trkpt><trkpt lat="43.066696053352885" lon="12.152604813497668"><ele>365.5</ele><time>2026-04-18T08:48:10Z</time></trkpt><trkpt lat="43.06665643310742" lon="12.152863695358652"><ele>365.25</ele><time>2026-04-18T08:48:12Z</time></trkpt><trkpt lat="43.06664868763377" lon="12.1529802451589"><ele>365.0</ele><time>2026-04-18T08:48:13Z</time></trkpt><trkpt lat="43.066642303270655" lon="12.153090353254848"><ele>365.0</ele><time>2026-04-18T08:48:13.999Z</time></trkpt><trkpt lat="43.066636350326704" lon="12.153200585804496"><ele>365.0</ele><time>2026-04-18T08:48:14.999Z</time></trkpt><trkpt lat="43.06663280059717" lon="12.15330850643014"><ele>365.0</ele><time>2026-04-18T08:48:15.999Z</time></trkpt><trkpt lat="43.066631712488565" lon="12.153414931639492"><ele>365.0</ele><time>2026-04-18T08:48:16.999Z</time></trkpt><trkpt lat="43.0666461283755" lon="12.153515723231093"><ele>365.0</ele><time>2026-04-18T08:48:17.999Z</time></trkpt><trkpt lat="43.066678542246336" lon="12.153610618759302"><ele>365.0</ele><time>2026-04-18T08:48:18.999Z</time></trkpt><trkpt lat="43.0667233884658" lon="12.153695421151033"><ele>364.6666666666667</ele><time>2026-04-18T08:48:19.999Z</time></trkpt><trkpt lat="43.066761323730226" lon="12.153787208994522"><ele>364.33333333333337</ele><time>2026-04-18T08:48:20.999Z</time></trkpt><trkpt lat="43.06677350395876" lon="12.153894263935786"><ele>364.0</ele><time>2026-04-18T08:48:21.999Z</time></trkpt><trkpt lat="43.066754992732896" lon="12.154026630651606"><ele>363.6666666666667</ele><time>2026-04-18T08:48:22.999Z</time></trkpt><trkpt lat="43.066700128015974" lon="12.154124097304106"><ele>363.3333333333333</ele><time>2026-04-18T08:48:23.999Z</time></trkpt><trkpt lat="43.066620557351406" lon="12.154183987220083"><ele>363.0</ele><time>2026-04-18T08:48:24.999Z</time></trkpt><trkpt lat="43.06651849559265" lon="12.154211035579936"><ele>360.2</ele><time>2026-04-18T08:48:25.999Z</time></trkpt><trkpt lat="43.0664241999476" lon="12.15424547798205"><ele>357.4</ele><time>2026-04-18T08:48:26.999Z</time></trkpt><trkpt lat="43.06631607662503" lon="12.154285596768764"><ele>354.59999999999997</ele><time>2026-04-18T08:48:27.999Z</time></trkpt><trkpt lat="43.06622461789516" lon="12.154335755347553"><ele>351.79999999999995</ele><time>2026-04-18T08:48:28.999Z</time></trkpt><trkpt lat="43.06614529511911" lon="12.154363070527479"><ele>349.0</ele><time>2026-04-18T08:48:29.999Z</time></trkpt><trkpt lat="43.06606081062388" lon="12.154388019661797"><ele>349.0</ele><time>2026-04-18T08:48:30.999Z</time></trkpt><trkpt lat="43.065986987851446" lon="12.154437394453012"><ele>349.0</ele><time>2026-04-18T08:48:31.999Z</time></trkpt><trkpt lat="43.065915032033736" lon="12.154497655562595"><ele>349.0</ele><time>2026-04-18T08:48:33.001Z</time></trkpt><trkpt lat="43.065858328349364" lon="12.154585071428093"><ele>349.0</ele><time>2026-04-18T08:48:34.001Z</time></trkpt><trkpt lat="43.06581745778863" lon="12.154708403480228"><ele>349.0</ele><time>2026-04-18T08:48:35.001Z</time></trkpt><trkpt lat="43.06579860320498" lon="12.154851643416608"><ele>350.25</ele><time>2026-04-18T08:48:36.001Z</time></trkpt><trkpt lat="43.06579688303566" lon="12.154996219070238"><ele>351.5</ele><time>2026-04-18T08:48:37.001Z</time></trkpt><trkpt lat="43.06579796496856" lon="12.155127530194113"><ele>352.75</ele><time>2026-04-18T08:48:38.001Z</time></trkpt><trkpt lat="43.0657958536372" lon="12.15528224729475"><ele>354.0</ele><time>2026-04-18T08:48:40.001Z</time></trkpt><trkpt lat="43.0657955240028" lon="12.15553956941773"><ele>354.0</ele><time>2026-04-18T08:48:42Z</time></trkpt><trkpt lat="43.065795344506654" lon="12.155633715545909"><ele>354.0</ele><time>2026-04-18T08:48:43Z</time></trkpt><trkpt lat="43.06579626684838" lon="12.155793979026594"><ele>354.0</ele><time>2026-04-18T08:48:45Z</time></trkpt><trkpt lat="43.06577616759512" lon="12.15596860984879"><ele>354.0</ele><time>2026-04-18T08:48:47Z</time></trkpt><trkpt lat="43.065767120727465" lon="12.156088337096001"><ele>354.0</ele><time>2026-04-18T08:48:48Z</time></trkpt><trkpt lat="43.065746480550644" lon="12.156222439042326"><ele>354.5</ele><time>2026-04-18T08:48:49Z</time></trkpt><trkpt lat="43.06568039865905" lon="12.156348590115229"><ele>355.0</ele><time>2026-04-18T08:48:50Z</time></trkpt><trkpt lat="43.06560575307026" lon="12.15648386088015"><ele>355.5</ele><time>2026-04-18T08:48:51Z</time></trkpt><trkpt lat="43.06552358996078" lon="12.15659865637099"><ele>356.0</ele><time>2026-04-18T08:48:52Z</time></trkpt><trkpt lat="43.06545105167176" lon="12.156731611117284"><ele>356.0</ele><time>2026-04-18T08:48:53Z</time></trkpt><trkpt lat="43.06539054851956" lon="12.156880164322382"><ele>356.0</ele><time>2026-04-18T08:48:54Z</time></trkpt><trkpt lat="43.06533011733296" lon="12.157029726982248"><ele>356.0</ele><time>2026-04-18T08:48:55Z</time></trkpt><trkpt lat="43.06527586917856" lon="12.157170546415974"><ele>356.0</ele><time>2026-04-18T08:48:56Z</time></trkpt><trkpt lat="43.06523244062546" lon="12.157299621979732"><ele>356.33333333333337</ele><time>2026-04-18T08:48:57Z</time></trkpt><trkpt lat="43.06519469853696" lon="12.157407182265834"><ele>356.6666666666667</ele><time>2026-04-18T08:48:58Z</time></trkpt><trkpt lat="43.065183674247876" lon="12.15750650330953"><ele>357.0</ele><time>2026-04-18T08:48:59Z</time></trkpt><trkpt lat="43.06519629377326" lon="12.157631265465376"><ele>357.3333333333333</ele><time>2026-04-18T08:49:00Z</time></trkpt><trkpt lat="43.065234977891144" lon="12.157760653103521"><ele>357.66666666666663</ele><time>2026-04-18T08:49:01Z</time></trkpt><trkpt lat="43.0652845771924" lon="12.15785097489843"><ele>358.0</ele><time>2026-04-18T08:49:02Z</time></trkpt><trkpt lat="43.06532513599422" lon="12.157999330614722"><ele>358.0</ele><time>2026-04-18T08:49:03Z</time></trkpt><trkpt lat="43.06533199721686" lon="12.158115971470506"><ele>358.0</ele><time>2026-04-18T08:49:04Z</time></trkpt><trkpt lat="43.065305859563324" lon="12.158253357209984"><ele>358.0</ele><time>2026-04-18T08:49:05Z</time></trkpt><trkpt lat="43.06523627202809" lon="12.15831870422151"><ele>358.0</ele><time>2026-04-18T08:49:06Z</time></trkpt><trkpt lat="43.06513910909506" lon="12.15830010829981"><ele>358.0</ele><time>2026-04-18T08:49:07Z</time></trkpt><trkpt lat="43.06506435186434" lon="12.158344300783856"><ele>358.0</ele><time>2026-04-18T08:49:08Z</time></trkpt><trkpt lat="43.064973822421116" lon="12.158389934814487"><ele>358.0</ele><time>2026-04-18T08:49:09Z</time></trkpt><trkpt lat="43.06488676724724" lon="12.158475496751915"><ele>358.0</ele><time>2026-04-18T08:49:10Z</time></trkpt><trkpt lat="43.06481221559043" lon="12.158575612718845"><ele>358.0</ele><time>2026-04-18T08:49:11Z</time></trkpt><trkpt lat="43.064730379929614" lon="12.158678352869515"><ele>358.0</ele><time>2026-04-18T08:49:12Z</time></trkpt><trkpt lat="43.0646414918643" lon="12.158768362216989"><ele>358.0</ele><time>2026-04-18T08:49:13Z</time></trkpt><trkpt lat="43.06457916876615" lon="12.158903208915167"><ele>358.0</ele><time>2026-04-18T08:49:14Z</time></trkpt><trkpt lat="43.06443132424908" lon="12.158841927121312"><ele>358.0</ele><time>2026-04-18T08:49:15Z</time></trkpt><trkpt lat="43.06433235218499" lon="12.158831375306365"><ele>358.0</ele><time>2026-04-18T08:49:16Z</time></trkpt><trkpt lat="43.06423198837788" lon="12.158830909944099"><ele>358.0</ele><time>2026-04-18T08:49:17Z</time></trkpt><trkpt lat="43.06412949949088" lon="12.158828885705717"><ele>358.0</ele><time>2026-04-18T08:49:18Z</time></trkpt><trkpt lat="43.064015945230715" lon="12.158791332410765"><ele>358.0</ele><time>2026-04-18T08:49:19Z</time></trkpt><trkpt lat="43.063914279778714" lon="12.158788584707718"><ele>358.0</ele><time>2026-04-18T08:49:20Z</time></trkpt><trkpt lat="43.06381245834419" lon="12.158797173929168"><ele>358.0</ele><time>2026-04-18T08:49:21Z</time></trkpt><trkpt lat="43.0637402177193" lon="12.158825624171607"><ele>357.5</ele><time>2026-04-18T08:49:22Z</time></trkpt><trkpt lat="43.06367155909411" lon="12.158838782412802"><ele>357.0</ele><time>2026-04-18T08:49:23Z</time></trkpt><trkpt lat="43.06360872299937" lon="12.158862239879985"><ele>356.5</ele><time>2026-04-18T08:49:24Z</time></trkpt><trkpt lat="43.063543875819434" lon="12.158902110748487"><ele>356.0</ele><time>2026-04-18T08:49:25Z</time></trkpt><trkpt lat="43.06346988077789" lon="12.158952986076619"><ele>355.5</ele><time>2026-04-18T08:49:26Z</time></trkpt><trkpt lat="43.063384404915105" lon="12.159005568392322"><ele>355.0</ele><time>2026-04-18T08:49:27Z</time></trkpt><trkpt lat="43.06328811584652" lon="12.159063877921586"><ele>354.2</ele><time>2026-04-18T08:49:28Z</time></trkpt><trkpt lat="43.063193038244684" lon="12.159113051836183"><ele>353.4</ele><time>2026-04-18T08:49:29Z</time></trkpt><trkpt lat="43.06310460178714" lon="12.159156650164551"><ele>352.6</ele><time>2026-04-18T08:49:30Z</time></trkpt><trkpt lat="43.063003927860656" lon="12.159170479930381"><ele>351.8</ele><time>2026-04-18T08:49:31Z</time></trkpt><trkpt lat="43.06291653051502" lon="12.159219138839545"><ele>351.0</ele><time>2026-04-18T08:49:32Z</time></trkpt><trkpt lat="43.06282559321135" lon="12.15925023645899"><ele>351.0</ele><time>2026-04-18T08:49:33Z</time></trkpt><trkpt lat="43.06271992856014" lon="12.15928680964191"><ele>351.0</ele><time>2026-04-18T08:49:34Z</time></trkpt><trkpt lat="43.06261009033922" lon="12.159320606486322"><ele>351.0</ele><time>2026-04-18T08:49:35Z</time></trkpt><trkpt lat="43.06250811719798" lon="12.159362126710283"><ele>351.0</ele><time>2026-04-18T08:49:36Z</time></trkpt><trkpt lat="43.06241042724827" lon="12.159413811281153"><ele>351.0</ele><time>2026-04-18T08:49:37Z</time></trkpt><trkpt lat="43.06231828367664" lon="12.159473393758146"><ele>350.0</ele><time>2026-04-18T08:49:38Z</time></trkpt><trkpt lat="43.06221942118598" lon="12.159548721620725"><ele>349.0</ele><time>2026-04-18T08:49:39Z</time></trkpt><trkpt lat="43.062125424167355" lon="12.159629389034105"><ele>348.0</ele><time>2026-04-18T08:49:40Z</time></trkpt><trkpt lat="43.062044469542634" lon="12.159696747234513"><ele>347.0</ele><time>2026-04-18T08:49:41Z</time></trkpt><trkpt lat="43.061959673941" lon="12.159748619583468"><ele>346.0</ele><time>2026-04-18T08:49:42Z</time></trkpt><trkpt lat="43.06186472635718" lon="12.159796805467778"><ele>346.0</ele><time>2026-04-18T08:49:43Z</time></trkpt><trkpt lat="43.061768045451096" lon="12.159835967929814"><ele>346.0</ele><time>2026-04-18T08:49:44Z</time></trkpt><trkpt lat="43.06168165415107" lon="12.159866509722658"><ele>346.0</ele><time>2026-04-18T08:49:45Z</time></trkpt><trkpt lat="43.061602220599816" lon="12.159903170311342"><ele>346.0</ele><time>2026-04-18T08:49:46Z</time></trkpt><trkpt lat="43.06152637839747" lon="12.159942479171962"><ele>346.0</ele><time>2026-04-18T08:49:47Z</time></trkpt><trkpt lat="43.06145123706718" lon="12.159946932333888"><ele>346.0</ele><time>2026-04-18T08:49:48Z</time></trkpt><trkpt lat="43.06137413319231" lon="12.159979057538662"><ele>344.8</ele><time>2026-04-18T08:49:49Z</time></trkpt><trkpt lat="43.0613008450051" lon="12.160026102470738"><ele>343.6</ele><time>2026-04-18T08:49:50Z</time></trkpt><trkpt lat="43.06122470617139" lon="12.160102033106595"><ele>342.4</ele><time>2026-04-18T08:49:51Z</time></trkpt><trkpt lat="43.0611602044497" lon="12.160175368641582"><ele>341.2</ele><time>2026-04-18T08:49:52Z</time></trkpt><trkpt lat="43.06109194126615" lon="12.16026617356763"><ele>340.0</ele><time>2026-04-18T08:49:53Z</time></trkpt><trkpt lat="43.06099316017692" lon="12.160311212171303"><ele>340.0</ele><time>2026-04-18T08:49:53.999Z</time></trkpt><trkpt lat="43.060905110378556" lon="12.160295211572597"><ele>340.0</ele><time>2026-04-18T08:49:54.999Z</time></trkpt><trkpt lat="43.06081513228576" lon="12.160259325229164"><ele>340.0</ele><time>2026-04-18T08:49:55.999Z</time></trkpt><trkpt lat="43.06072601065447" lon="12.160234751646291"><ele>340.0</ele><time>2026-04-18T08:49:56.999Z</time></trkpt><trkpt lat="43.060655204728256" lon="12.160221951965639"><ele>340.0</ele><time>2026-04-18T08:49:57.999Z</time></trkpt><trkpt lat="43.06055966704348" lon="12.16025362681178"><ele>340.0</ele><time>2026-04-18T08:49:58.999Z</time></trkpt><trkpt lat="43.06047980233137" lon="12.160275238269211"><ele>339.66666666666663</ele><time>2026-04-18T08:49:59.999Z</time></trkpt><trkpt lat="43.06040077310481" lon="12.16028128032053"><ele>339.3333333333333</ele><time>2026-04-18T08:50:00.999Z</time></trkpt><trkpt lat="43.06031836726093" lon="12.160315392672477"><ele>339.0</ele><time>2026-04-18T08:50:01.999Z</time></trkpt><trkpt lat="43.06024526769441" lon="12.160380614591627"><ele>338.6666666666667</ele><time>2026-04-18T08:50:02.999Z</time></trkpt><trkpt lat="43.06016676177297" lon="12.160413926856211"><ele>338.33333333333337</ele><time>2026-04-18T08:50:03.999Z</time></trkpt><trkpt lat="43.060102804628315" lon="12.160458752090602"><ele>338.0</ele><time>2026-04-18T08:50:04.999Z</time></trkpt><trkpt lat="43.06002959125485" lon="12.160497665450478"><ele>338.5</ele><time>2026-04-18T08:50:05.999Z</time></trkpt><trkpt lat="43.05994343814599" lon="12.16052115798283"><ele>339.0</ele><time>2026-04-18T08:50:06.999Z</time></trkpt><trkpt lat="43.05985773154631" lon="12.160505684575844"><ele>339.5</ele><time>2026-04-18T08:50:07.999Z</time></trkpt><trkpt lat="43.059794345313435" lon="12.160417340492108"><ele>340.0</ele><time>2026-04-18T08:50:08.999Z</time></trkpt><trkpt lat="43.05975292581092" lon="12.160320119170143"><ele>340.5</ele><time>2026-04-18T08:50:09.999Z</time></trkpt><trkpt lat="43.05968420237321" lon="12.160250897650668"><ele>341.0</ele><time>2026-04-18T08:50:10.999Z</time></trkpt><trkpt lat="43.05960153362522" lon="12.160181892805248"><ele>341.0</ele><time>2026-04-18T08:50:11.999Z</time></trkpt><trkpt lat="43.059503233401486" lon="12.160145914123534"><ele>341.0</ele><time>2026-04-18T08:50:12.999Z</time></trkpt><trkpt lat="43.05942876676405" lon="12.160123280605353"><ele>341.0</ele><time>2026-04-18T08:50:13.999Z</time></trkpt><trkpt lat="43.059355208570054" lon="12.160121026471005"><ele>341.0</ele><time>2026-04-18T08:50:14.999Z</time></trkpt><trkpt lat="43.059269608077514" lon="12.160126111133183"><ele>341.0</ele><time>2026-04-18T08:50:15.999Z</time></trkpt><trkpt lat="43.05916735716069" lon="12.160167930238678"><ele>341.0</ele><time>2026-04-18T08:50:16.999Z</time></trkpt><trkpt lat="43.05906747850092" lon="12.160213854624914"><ele>341.0</ele><time>2026-04-18T08:50:17.999Z</time></trkpt><trkpt lat="43.05894086198112" lon="12.160272485586976"><ele>341.0</ele><time>2026-04-18T08:50:18.999Z</time></trkpt><trkpt lat="43.05881295205635" lon="12.160333201014454"><ele>341.0</ele><time>2026-04-18T08:50:19.999Z</time></trkpt><trkpt lat="43.05867956708166" lon="12.160385656009852"><ele>341.0</ele><time>2026-04-18T08:50:20.999Z</time></trkpt><trkpt lat="43.05854635502581" lon="12.160423859696541"><ele>341.0</ele><time>2026-04-18T08:50:21.999Z</time></trkpt><trkpt lat="43.058440922112766" lon="12.160443419919606"><ele>341.0</ele><time>2026-04-18T08:50:22.999Z</time></trkpt><trkpt lat="43.058320420314004" lon="12.160467472383248"><ele>341.0</ele><time>2026-04-18T08:50:23.999Z</time></trkpt><trkpt lat="43.05822711922149" lon="12.160484480712471"><ele>341.0</ele><time>2026-04-18T08:50:24.999Z</time></trkpt><trkpt lat="43.05813823106081" lon="12.160504013900939"><ele>341.0</ele><time>2026-04-18T08:50:25.999Z</time></trkpt><trkpt lat="43.05806135378903" lon="12.160529273592225"><ele>341.4</ele><time>2026-04-18T08:50:26.999Z</time></trkpt><trkpt lat="43.0579665911564" lon="12.16055893710805"><ele>341.8</ele><time>2026-04-18T08:50:28.999Z</time></trkpt><trkpt lat="43.05789498956713" lon="12.160590307912782"><ele>342.2</ele><time>2026-04-18T08:50:38.999Z</time></trkpt><trkpt lat="43.05781353571448" lon="12.160623448489336"><ele>342.59999999999997</ele><time>2026-04-18T08:50:40.999Z</time></trkpt><trkpt lat="43.05782446207501" lon="12.160819919027828"><ele>343.0</ele><time>2026-04-18T08:50:42.999Z</time></trkpt><trkpt lat="43.05785437179478" lon="12.160977691887938"><ele>344.16666666666663</ele><time>2026-04-18T08:50:44.999Z</time></trkpt><trkpt lat="43.05787420772017" lon="12.161071776054323"><ele>345.3333333333333</ele><time>2026-04-18T08:50:45.999Z</time></trkpt><trkpt lat="43.057892969285525" lon="12.161168742199061"><ele>346.5</ele><time>2026-04-18T08:50:46.999Z</time></trkpt><trkpt lat="43.05790785401992" lon="12.16128324409831"><ele>347.6666666666667</ele><time>2026-04-18T08:50:47.999Z</time></trkpt><trkpt lat="43.057922456137256" lon="12.161368787689494"><ele>348.83333333333337</ele><time>2026-04-18T08:50:48.999Z</time></trkpt><trkpt lat="43.0579212747736" lon="12.16153047941533"><ele>350.0</ele><time>2026-04-18T08:50:50.999Z</time></trkpt><trkpt lat="43.05788488281218" lon="12.161675847897628"><ele>351.6</ele><time>2026-04-18T08:50:52.999Z</time></trkpt><trkpt lat="43.057883517192046" lon="12.161810944219718"><ele>353.2</ele><time>2026-04-18T08:50:54.999Z</time></trkpt><trkpt lat="43.05792330352622" lon="12.161945621798528"><ele>354.79999999999995</ele><time>2026-04-18T08:50:56.999Z</time></trkpt><trkpt lat="43.05794490143699" lon="12.16204511795962"><ele>356.4</ele><time>2026-04-18T08:50:57.999Z</time></trkpt><trkpt lat="43.05796171716378" lon="12.162146996596608"><ele>358.0</ele><time>2026-04-18T08:50:58.999Z</time></trkpt><trkpt lat="43.05797730532231" lon="12.16227458323513"><ele>358.00000000000006</ele><time>2026-04-18T08:50:59.999Z</time></trkpt><trkpt lat="43.05799527023748" lon="12.162361550530271"><ele>358.0</ele><time>2026-04-18T08:51:00.999Z</time></trkpt><trkpt lat="43.058013123263414" lon="12.162459581838583"><ele>358.0</ele><time>2026-04-18T08:51:01.999Z</time></trkpt><trkpt lat="43.058036446815635" lon="12.16254424134208"><ele>358.0</ele><time>2026-04-18T08:51:02.999Z</time></trkpt><trkpt lat="43.05805606370246" lon="12.162648563827817"><ele>358.0</ele><time>2026-04-18T08:51:03.999Z</time></trkpt><trkpt lat="43.0580715172707" lon="12.162745722908856"><ele>358.00000000000006</ele><time>2026-04-18T08:51:04.999Z</time></trkpt><trkpt lat="43.05809603409792" lon="12.16283710179745"><ele>358.0</ele><time>2026-04-18T08:51:05.999Z</time></trkpt><trkpt lat="43.05812601805467" lon="12.162936030171803"><ele>358.8333333333333</ele><time>2026-04-18T08:51:06.999Z</time></trkpt><trkpt lat="43.05814802360958" lon="12.163026327991089"><ele>359.66666666666663</ele><time>2026-04-18T08:51:07.999Z</time></trkpt><trkpt lat="43.05817719258542" lon="12.163203243580208"><ele>360.5</ele><time>2026-04-18T08:51:09.999Z</time></trkpt><trkpt lat="43.058177134509485" lon="12.16329045732868"><ele>361.3333333333333</ele><time>2026-04-18T08:51:10.999Z</time></trkpt><trkpt lat="43.05816357780965" lon="12.163387273157507"><ele>362.1666666666667</ele><time>2026-04-18T08:51:11.999Z</time></trkpt><trkpt lat="43.0581523337828" lon="12.163520620299503"><ele>363.0</ele><time>2026-04-18T08:51:13.999Z</time></trkpt><trkpt lat="43.05816198581758" lon="12.163617642366944"><ele>364.3333333333333</ele><time>2026-04-18T08:51:14.999Z</time></trkpt><trkpt lat="43.05818266725775" lon="12.163714477469032"><ele>365.6666666666667</ele><time>2026-04-18T08:51:15.999Z</time></trkpt><trkpt lat="43.0581927221479" lon="12.163806013482693"><ele>367.0</ele><time>2026-04-18T08:51:16.999Z</time></trkpt><trkpt lat="43.05818279305099" lon="12.163895671414378"><ele>368.33333333333337</ele><time>2026-04-18T08:51:17.999Z</time></trkpt><trkpt lat="43.05816744387586" lon="12.164032773511133"><ele>369.6666666666667</ele><time>2026-04-18T08:51:19.999Z</time></trkpt><trkpt lat="43.0582029231134" lon="12.164114447217356"><ele>371.0</ele><time>2026-04-18T08:51:20.999Z</time></trkpt><trkpt lat="43.05827300842277" lon="12.164192801990993"><ele>374.6666666666667</ele><time>2026-04-18T08:51:22.999Z</time></trkpt><trkpt lat="43.058345075533936" lon="12.164227128449609"><ele>378.33333333333337</ele><time>2026-04-18T08:51:24.999Z</time></trkpt><trkpt lat="43.058459503539346" lon="12.164198599804998"><ele>382.0</ele><time>2026-04-18T08:51:26.999Z</time></trkpt><trkpt lat="43.05852795366339" lon="12.164179165069706"><ele>385.6666666666667</ele><time>2026-04-18T08:51:27.999Z</time></trkpt><trkpt lat="43.05859599740146" lon="12.164161127318582"><ele>389.3333333333333</ele><time>2026-04-18T08:51:28.999Z</time></trkpt><trkpt lat="43.05871093832427" lon="12.164138938562287"><ele>393.0</ele><time>2026-04-18T08:51:30.999Z</time></trkpt><trkpt lat="43.058802217278895" lon="12.16412851016721"><ele>393.0</ele><time>2026-04-18T08:51:32.999Z</time></trkpt><trkpt lat="43.05886158782886" lon="12.164164607352262"><ele>393.0</ele><time>2026-04-18T08:51:34.999Z</time></trkpt><trkpt lat="43.058955660490504" lon="12.164253088972973"><ele>393.0</ele><time>2026-04-18T08:51:36.999Z</time></trkpt><trkpt lat="43.05899873014643" lon="12.16432378274442"><ele>393.0</ele><time>2026-04-18T08:51:37.999Z</time></trkpt><trkpt lat="43.05903989062622" lon="12.16439256340774"><ele>393.0</ele><time>2026-04-18T08:51:38.999Z</time></trkpt><trkpt lat="43.05905692653132" lon="12.164518138462611"><ele>393.0</ele><time>2026-04-18T08:51:40.999Z</time></trkpt><trkpt lat="43.059056558824615" lon="12.164628077927722"><ele>393.00000000000006</ele><time>2026-04-18T08:51:42.999Z</time></trkpt><trkpt lat="43.05903412423028" lon="12.164712276956019"><ele>393.0</ele><time>2026-04-18T08:51:44.999Z</time></trkpt><trkpt lat="43.05900479299445" lon="12.16479530048134"><ele>393.0</ele><time>2026-04-18T08:51:46.999Z</time></trkpt><trkpt lat="43.058942382018856" lon="12.164900960548415"><ele>393.0</ele><time>2026-04-18T08:51:48.999Z</time></trkpt><trkpt lat="43.058902687981366" lon="12.164982776856354"><ele>393.0</ele><time>2026-04-18T08:51:49.999Z</time></trkpt><trkpt lat="43.058877749527184" lon="12.16506785021885"><ele>393.00000000000006</ele><time>2026-04-18T08:51:50.999Z</time></trkpt><trkpt lat="43.05887473831565" lon="12.165169138299055"><ele>393.0</ele><time>2026-04-18T08:51:51.999Z</time></trkpt><trkpt lat="43.058882556046534" lon="12.165285809531921"><ele>395.4</ele><time>2026-04-18T08:51:52.999Z</time></trkpt><trkpt lat="43.058913421757545" lon="12.165379496561503"><ele>397.79999999999995</ele><time>2026-04-18T08:51:53.999Z</time></trkpt><trkpt lat="43.05894886976839" lon="12.16554598037922"><ele>400.2</ele><time>2026-04-18T08:51:55.999Z</time></trkpt><trkpt lat="43.058939794241624" lon="12.165635083392045"><ele>402.6</ele><time>2026-04-18T08:51:56.999Z</time></trkpt><trkpt lat="43.058951882754286" lon="12.165792332049941"><ele>405.0</ele><time>2026-04-18T08:51:58.999Z</time></trkpt><trkpt lat="43.05894676080119" lon="12.165885733256305"><ele>407.8</ele><time>2026-04-18T08:52:00.999Z</time></trkpt><trkpt lat="43.05894441716346" lon="12.165992575332952"><ele>410.6</ele><time>2026-04-18T08:52:02.999Z</time></trkpt><trkpt lat="43.05892623578253" lon="12.16612382942564"><ele>413.4</ele><time>2026-04-18T08:52:04.999Z</time></trkpt><trkpt lat="43.05892548807503" lon="12.166272834284973"><ele>416.2</ele><time>2026-04-18T08:52:06.999Z</time></trkpt><trkpt lat="43.05892834306887" lon="12.16638948812267"><ele>419.0</ele><time>2026-04-18T08:52:08.999Z</time></trkpt><trkpt lat="43.058953541559745" lon="12.166574233325232"><ele>421.2</ele><time>2026-04-18T08:52:10.999Z</time></trkpt><trkpt lat="43.05897231196192" lon="12.166730574946392"><ele>423.4</ele><time>2026-04-18T08:52:12.999Z</time></trkpt><trkpt lat="43.05889320595075" lon="12.166810454055343"><ele>425.6</ele><time>2026-04-18T08:52:14.999Z</time></trkpt><trkpt lat="43.058843731941884" lon="12.16691727112566"><ele>427.8</ele><time>2026-04-18T08:52:16.999Z</time></trkpt><trkpt lat="43.05880196896084" lon="12.166981949916268"><ele>430.0</ele><time>2026-04-18T08:52:18.999Z</time></trkpt><trkpt lat="43.05875159591367" lon="12.167081153522927"><ele>430.00000000000006</ele><time>2026-04-18T08:52:20.999Z</time></trkpt><trkpt lat="43.05874268511912" lon="12.167197297303268"><ele>430.0</ele><time>2026-04-18T08:52:22.999Z</time></trkpt><trkpt lat="43.058737954791965" lon="12.167286791405605"><ele>430.0</ele><time>2026-04-18T08:52:23.999Z</time></trkpt><trkpt lat="43.05874250895215" lon="12.167409122712124"><ele>430.0</ele><time>2026-04-18T08:52:25.999Z</time></trkpt><trkpt lat="43.058779687911056" lon="12.167522683470578"><ele>430.00000000000006</ele><time>2026-04-18T08:52:27.999Z</time></trkpt><trkpt lat="43.05882945810797" lon="12.167642278370112"><ele>430.0</ele><time>2026-04-18T08:52:29.999Z</time></trkpt><trkpt lat="43.058886243478625" lon="12.167796449814148"><ele>431.85714285714283</ele><time>2026-04-18T08:52:31.999Z</time></trkpt><trkpt lat="43.058925054374015" lon="12.167900956041876"><ele>433.7142857142857</ele><time>2026-04-18T08:52:32.999Z</time></trkpt><trkpt lat="43.05895324255329" lon="12.167983257784183"><ele>435.57142857142856</ele><time>2026-04-18T08:52:33.999Z</time></trkpt><trkpt lat="43.0589837293028" lon="12.168067492909252"><ele>437.42857142857144</ele><time>2026-04-18T08:52:34.999Z</time></trkpt><trkpt lat="43.05900684805155" lon="12.168157498274773"><ele>439.28571428571433</ele><time>2026-04-18T08:52:35.999Z</time></trkpt><trkpt lat="43.059034960862135" lon="12.168253268821706"><ele>441.14285714285717</ele><time>2026-04-18T08:52:36.999Z</time></trkpt><trkpt lat="43.0590584316812" lon="12.168336072054142"><ele>443.0</ele><time>2026-04-18T08:52:37.999Z</time></trkpt><trkpt lat="43.059087911866264" lon="12.168429227860502"><ele>445.8333333333333</ele><time>2026-04-18T08:52:38.999Z</time></trkpt><trkpt lat="43.059117834381624" lon="12.168517848114643"><ele>448.66666666666663</ele><time>2026-04-18T08:52:39.999Z</time></trkpt><trkpt lat="43.059152338835176" lon="12.168616787784941"><ele>451.5</ele><time>2026-04-18T08:52:40.999Z</time></trkpt><trkpt lat="43.05919382370041" lon="12.168738561020911"><ele>454.33333333333337</ele><time>2026-04-18T08:52:42.999Z</time></trkpt><trkpt lat="43.05922018716734" lon="12.168836304438164"><ele>457.1666666666667</ele><time>2026-04-18T08:52:44.999Z</time></trkpt><trkpt lat="43.05925001659978" lon="12.168928488780555"><ele>460.0</ele><time>2026-04-18T08:52:46.999Z</time></trkpt><trkpt lat="43.05930124717294" lon="12.16906483786693"><ele>463.1666666666667</ele><time>2026-04-18T08:52:48.999Z</time></trkpt><trkpt lat="43.05930523966362" lon="12.16917655704516"><ele>466.33333333333337</ele><time>2026-04-18T08:52:50.999Z</time></trkpt><trkpt lat="43.05926343764496" lon="12.169264906356476"><ele>469.5</ele><time>2026-04-18T08:52:52.999Z</time></trkpt><trkpt lat="43.059152343207685" lon="12.169259818719695"><ele>472.66666666666663</ele><time>2026-04-18T08:52:54.999Z</time></trkpt><trkpt lat="43.059071478745516" lon="12.169257673523726"><ele>475.8333333333333</ele><time>2026-04-18T08:52:55.999Z</time></trkpt><trkpt lat="43.05900310544585" lon="12.169256313305134"><ele>479.0</ele><time>2026-04-18T08:52:56.999Z</time></trkpt><trkpt lat="43.05892258150143" lon="12.169288304431628"><ele>479.2</ele><time>2026-04-18T08:52:57.999Z</time></trkpt><trkpt lat="43.05883085556871" lon="12.169329846522068"><ele>479.4</ele><time>2026-04-18T08:52:58.999Z</time></trkpt><trkpt lat="43.058735625885454" lon="12.16936701893623"><ele>479.6</ele><time>2026-04-18T08:52:59.999Z</time></trkpt><trkpt lat="43.05863983842941" lon="12.169413557506553"><ele>479.8</ele><time>2026-04-18T08:53:00.999Z</time></trkpt><trkpt lat="43.058527202780276" lon="12.169482209834928"><ele>480.0</ele><time>2026-04-18T08:53:01.999Z</time></trkpt><trkpt lat="43.058437762929664" lon="12.169549945795234"><ele>480.0</ele><time>2026-04-18T08:53:02.999Z</time></trkpt><trkpt lat="43.05834293467457" lon="12.169596052379845"><ele>480.0</ele><time>2026-04-18T08:53:03.999Z</time></trkpt><trkpt lat="43.05823880891191" lon="12.169593546208956"><ele>480.0</ele><time>2026-04-18T08:53:04.999Z</time></trkpt><trkpt lat="43.058155025171956" lon="12.169610283270158"><ele>480.0</ele><time>2026-04-18T08:53:05.999Z</time></trkpt><trkpt lat="43.058076467209894" lon="12.169633334057051"><ele>480.0</ele><time>2026-04-18T08:53:06.999Z</time></trkpt><trkpt lat="43.05801270465846" lon="12.169652043673613"><ele>480.0</ele><time>2026-04-18T08:53:07.999Z</time></trkpt><trkpt lat="43.05790586465371" lon="12.169720451419275"><ele>479.5</ele><time>2026-04-18T08:53:09.999Z</time></trkpt><trkpt lat="43.05787119682427" lon="12.169798134733817"><ele>479.0</ele><time>2026-04-18T08:53:10.999Z</time></trkpt><trkpt lat="43.057887216751254" lon="12.16989342924638"><ele>478.5</ele><time>2026-04-18T08:53:11.999Z</time></trkpt><trkpt lat="43.0578905450233" lon="12.16998177348742"><ele>478.0</ele><time>2026-04-18T08:53:12.999Z</time></trkpt><trkpt lat="43.05801290216396" lon="12.170074776266446"><ele>477.5</ele><time>2026-04-18T08:53:14.999Z</time></trkpt><trkpt lat="43.05809103508438" lon="12.17010555315007"><ele>477.0</ele><time>2026-04-18T08:53:15.999Z</time></trkpt><trkpt lat="43.05817177584769" lon="12.170124749182097"><ele>480.8333333333333</ele><time>2026-04-18T08:53:16.999Z</time></trkpt><trkpt lat="43.05826134731919" lon="12.170165180314296"><ele>484.66666666666663</ele><time>2026-04-18T08:53:17.999Z</time></trkpt><trkpt lat="43.0583549800115" lon="12.170167570424635"><ele>488.5</ele><time>2026-04-18T08:53:18.999Z</time></trkpt><trkpt lat="43.05842144304686" lon="12.17017866930438"><ele>492.3333333333333</ele><time>2026-04-18T08:53:19.999Z</time></trkpt><trkpt lat="43.05852813064412" lon="12.170147504512425"><ele>496.16666666666663</ele><time>2026-04-18T08:53:21.999Z</time></trkpt><trkpt lat="43.058602500828556" lon="12.170124606989507"><ele>500.0</ele><time>2026-04-18T08:53:22.999Z</time></trkpt><trkpt lat="43.05868395162632" lon="12.170127761683574"><ele>500.16666666666663</ele><time>2026-04-18T08:53:23.999Z</time></trkpt><trkpt lat="43.05877026675898" lon="12.170154766559326"><ele>500.3333333333333</ele><time>2026-04-18T08:53:24.999Z</time></trkpt><trkpt lat="43.05884896750929" lon="12.170196064752677"><ele>500.5</ele><time>2026-04-18T08:53:25.999Z</time></trkpt><trkpt lat="43.05892862268003" lon="12.170252648908239"><ele>500.66666666666663</ele><time>2026-04-18T08:53:26.999Z</time></trkpt><trkpt lat="43.05899471082469" lon="12.170325786396955"><ele>500.8333333333333</ele><time>2026-04-18T08:53:27.999Z</time></trkpt><trkpt lat="43.059032870761335" lon="12.170404475307205"><ele>501.0</ele><time>2026-04-18T08:53:28.999Z</time></trkpt><trkpt lat="43.059045204609696" lon="12.170572792536785"><ele>501.0</ele><time>2026-04-18T08:53:30.999Z</time></trkpt><trkpt lat="43.05901756379091" lon="12.170668075246025"><ele>501.0</ele><time>2026-04-18T08:53:32.999Z</time></trkpt><trkpt lat="43.058961022672634" lon="12.170728057030217"><ele>501.0</ele><time>2026-04-18T08:57:33Z</time></trkpt><trkpt lat="43.05884596180555" lon="12.17076606680877"><ele>501.0</ele><time>2026-04-18T08:57:35Z</time></trkpt><trkpt lat="43.05875853423636" lon="12.170807025462665"><ele>501.0</ele><time>2026-04-18T08:57:36Z</time></trkpt><trkpt lat="43.058667942873925" lon="12.170857422265632"><ele>503.8</ele><time>2026-04-18T08:57:37Z</time></trkpt><trkpt lat="43.058566515446614" lon="12.170916273222362"><ele>506.6</ele><time>2026-04-18T08:57:38Z</time></trkpt><trkpt lat="43.058455826635004" lon="12.170973442111691"><ele>509.4</ele><time>2026-04-18T08:57:39Z</time></trkpt><trkpt lat="43.058347158837215" lon="12.171026650279616"><ele>512.2</ele><time>2026-04-18T08:57:40Z</time></trkpt><trkpt lat="43.05826099010983" lon="12.17106698281623"><ele>515.0</ele><time>2026-04-18T08:57:41Z</time></trkpt><trkpt lat="43.05817161998163" lon="12.17106724652851"><ele>515.75</ele><time>2026-04-18T08:57:42Z</time></trkpt><trkpt lat="43.058072843354076" lon="12.17105989031227"><ele>516.5</ele><time>2026-04-18T08:57:43Z</time></trkpt><trkpt lat="43.0579627945073" lon="12.17105410961474"><ele>517.25</ele><time>2026-04-18T08:57:44Z</time></trkpt><trkpt lat="43.05783562512517" lon="12.171066532107064"><ele>518.0</ele><time>2026-04-18T08:57:45Z</time></trkpt><trkpt lat="43.05770476932499" lon="12.171070946720931"><ele>518.0</ele><time>2026-04-18T08:57:46Z</time></trkpt><trkpt lat="43.05757869069526" lon="12.171076258094665"><ele>518.0</ele><time>2026-04-18T08:57:47Z</time></trkpt><trkpt lat="43.057454862454186" lon="12.171095788896393"><ele>518.0</ele><time>2026-04-18T08:57:48Z</time></trkpt><trkpt lat="43.05733720814316" lon="12.171085643188414"><ele>518.0</ele><time>2026-04-18T08:57:49Z</time></trkpt><trkpt lat="43.05721442514326" lon="12.17109634238428"><ele>518.75</ele><time>2026-04-18T08:57:50Z</time></trkpt><trkpt lat="43.057092297138034" lon="12.1711079402263"><ele>519.5</ele><time>2026-04-18T08:57:51Z</time></trkpt><trkpt lat="43.05696579952987" lon="12.171141376823387"><ele>520.25</ele><time>2026-04-18T08:57:52Z</time></trkpt><trkpt lat="43.0568250923566" lon="12.17115783413726"><ele>521.0</ele><time>2026-04-18T08:57:53Z</time></trkpt><trkpt lat="43.056686112143915" lon="12.171169497518074"><ele>522.0</ele><time>2026-04-18T08:57:54Z</time></trkpt><trkpt lat="43.056539234909685" lon="12.171181111542035"><ele>523.0</ele><time>2026-04-18T08:57:55Z</time></trkpt><trkpt lat="43.05639665872547" lon="12.171170235700988"><ele>524.0</ele><time>2026-04-18T08:57:56Z</time></trkpt><trkpt lat="43.056257143937025" lon="12.17118074107412"><ele>525.0</ele><time>2026-04-18T08:57:57Z</time></trkpt><trkpt lat="43.05611880594838" lon="12.1712026371216"><ele>525.0</ele><time>2026-04-18T08:57:58Z</time></trkpt><trkpt lat="43.05598337527023" lon="12.17123864804926"><ele>525.0</ele><time>2026-04-18T08:57:59Z</time></trkpt><trkpt lat="43.0558547718974" lon="12.171275595984008"><ele>525.0</ele><time>2026-04-18T08:58:00Z</time></trkpt><trkpt lat="43.05572774190499" lon="12.171333574434462"><ele>525.0</ele><time>2026-04-18T08:58:01Z</time></trkpt><trkpt lat="43.05560604219437" lon="12.171407989444413"><ele>526.0</ele><time>2026-04-18T08:58:02Z</time></trkpt><trkpt lat="43.055476657235765" lon="12.17146929579971"><ele>527.0</ele><time>2026-04-18T08:58:03Z</time></trkpt><trkpt lat="43.0553447792322" lon="12.171534385138525"><ele>528.0</ele><time>2026-04-18T08:58:04Z</time></trkpt><trkpt lat="43.055199248284296" lon="12.171581881150264"><ele>529.0</ele><time>2026-04-18T08:58:05Z</time></trkpt><trkpt lat="43.05506599984765" lon="12.171641225309543"><ele>529.6666666666667</ele><time>2026-04-18T08:58:06Z</time></trkpt><trkpt lat="43.054929777009804" lon="12.17173264700187"><ele>530.3333333333334</ele><time>2026-04-18T08:58:07Z</time></trkpt><trkpt lat="43.05478250427947" lon="12.171811416750757"><ele>531.0</ele><time>2026-04-18T08:58:08Z</time></trkpt><trkpt lat="43.054654693491244" lon="12.171902256917528"><ele>531.0</ele><time>2026-04-18T08:58:09Z</time></trkpt><trkpt lat="43.05452961724462" lon="12.171965895640176"><ele>531.0</ele><time>2026-04-18T08:58:10Z</time></trkpt><trkpt lat="43.05441475856182" lon="12.172043549076427"><ele>531.0</ele><time>2026-04-18T08:58:11Z</time></trkpt><trkpt lat="43.05432180064764" lon="12.172131093776477"><ele>531.0</ele><time>2026-04-18T08:58:12Z</time></trkpt><trkpt lat="43.05421731496307" lon="12.172201993385126"><ele>532.25</ele><time>2026-04-18T08:58:13Z</time></trkpt><trkpt lat="43.05411059227613" lon="12.172270300076725"><ele>533.5</ele><time>2026-04-18T08:58:14Z</time></trkpt><trkpt lat="43.05400225714653" lon="12.17235104751915"><ele>534.75</ele><time>2026-04-18T08:58:15Z</time></trkpt><trkpt lat="43.053892049538106" lon="12.172429588464025"><ele>536.0</ele><time>2026-04-18T08:58:16Z</time></trkpt><trkpt lat="43.05376844742454" lon="12.17249753108306"><ele>536.0</ele><time>2026-04-18T08:58:17Z</time></trkpt><trkpt lat="43.0536660965617" lon="12.172595790466325"><ele>536.0</ele><time>2026-04-18T08:58:18Z</time></trkpt><trkpt lat="43.05354796170501" lon="12.172678350942578"><ele>536.0</ele><time>2026-04-18T08:58:19Z</time></trkpt><trkpt lat="43.05342483989213" lon="12.172764529070529"><ele>536.0</ele><time>2026-04-18T08:58:20Z</time></trkpt><trkpt lat="43.053308950922045" lon="12.172860615136923"><ele>536.0</ele><time>2026-04-18T08:58:21Z</time></trkpt><trkpt lat="43.05319406321946" lon="12.172955266468456"><ele>536.0</ele><time>2026-04-18T08:58:22Z</time></trkpt><trkpt lat="43.05307675416083" lon="12.173051364128064"><ele>536.0</ele><time>2026-04-18T08:58:23Z</time></trkpt><trkpt lat="43.052973830957804" lon="12.173136603760277"><ele>536.0</ele><time>2026-04-18T08:58:24Z</time></trkpt><trkpt lat="43.05286114630775" lon="12.173209268011417"><ele>539.25</ele><time>2026-04-18T08:58:25Z</time></trkpt><trkpt lat="43.052743829214926" lon="12.173287102102515"><ele>542.5</ele><time>2026-04-18T08:58:26Z</time></trkpt><trkpt lat="43.052620418358224" lon="12.173363426892085"><ele>545.75</ele><time>2026-04-18T08:58:27Z</time></trkpt><trkpt lat="43.05250107624767" lon="12.17343266221867"><ele>549.0</ele><time>2026-04-18T08:58:28Z</time></trkpt><trkpt lat="43.052397451759695" lon="12.173496701788656"><ele>550.8</ele><time>2026-04-18T08:58:29Z</time></trkpt><trkpt lat="43.05231983906184" lon="12.173537936667328"><ele>552.5999999999999</ele><time>2026-04-18T08:58:30Z</time></trkpt><trkpt lat="43.0522297676435" lon="12.17356298510406"><ele>554.4</ele><time>2026-04-18T08:58:31Z</time></trkpt><trkpt lat="43.05213537192514" lon="12.173566428264412"><ele>556.1999999999999</ele><time>2026-04-18T08:58:32Z</time></trkpt><trkpt lat="43.05202430585273" lon="12.173553490644132"><ele>558.0</ele><time>2026-04-18T08:58:33Z</time></trkpt><trkpt lat="43.05190178762852" lon="12.173541101696667"><ele>558.0</ele><time>2026-04-18T08:58:34Z</time></trkpt><trkpt lat="43.05177671277641" lon="12.173532325310202"><ele>558.0</ele><time>2026-04-18T08:58:35Z</time></trkpt><trkpt lat="43.05165262209038" lon="12.173517355842835"><ele>558.0</ele><time>2026-04-18T08:58:36Z</time></trkpt><trkpt lat="43.051534370766085" lon="12.173499002996165"><ele>558.0</ele><time>2026-04-18T08:58:37Z</time></trkpt><trkpt lat="43.0514382472537" lon="12.173470989238513"><ele>558.1666666666666</ele><time>2026-04-18T08:58:38Z</time></trkpt><trkpt lat="43.051345110774044" lon="12.173445407568751"><ele>558.3333333333334</ele><time>2026-04-18T08:58:39Z</time></trkpt><trkpt lat="43.051269772187155" lon="12.173429630945535"><ele>558.5</ele><time>2026-04-18T08:58:40Z</time></trkpt><trkpt lat="43.05119491703704" lon="12.173428943504996"><ele>558.6666666666667</ele><time>2026-04-18T08:58:41Z</time></trkpt><trkpt lat="43.05109217811098" lon="12.173452327119747"><ele>558.8333333333334</ele><time>2026-04-18T08:58:43Z</time></trkpt><trkpt lat="43.051034622994564" lon="12.173496293175749"><ele>559.0</ele><time>2026-04-18T08:58:45Z</time></trkpt><trkpt lat="43.05094648074689" lon="12.17358947737402"><ele>559.0</ele><time>2026-04-18T08:58:47Z</time></trkpt><trkpt lat="43.05089837249257" lon="12.173649528993467"><ele>559.0</ele><time>2026-04-18T08:58:48Z</time></trkpt><trkpt lat="43.0507969244206" lon="12.1737748418237"><ele>559.0</ele><time>2026-04-18T08:58:50Z</time></trkpt><trkpt lat="43.05074270991033" lon="12.17384850105109"><ele>559.0</ele><time>2026-04-18T08:58:51Z</time></trkpt><trkpt lat="43.050691199538775" lon="12.173927120886349"><ele>559.0</ele><time>2026-04-18T08:58:52Z</time></trkpt><trkpt lat="43.050634769491815" lon="12.174009269511775"><ele>559.0</ele><time>2026-04-18T08:58:53Z</time></trkpt><trkpt lat="43.05057401598807" lon="12.174091474204316"><ele>558.4</ele><time>2026-04-18T08:58:54Z</time></trkpt><trkpt lat="43.050528552360596" lon="12.174180584348434"><ele>557.8</ele><time>2026-04-18T08:58:55Z</time></trkpt><trkpt lat="43.05042856827176" lon="12.174301645097604"><ele>557.2</ele><time>2026-04-18T08:58:57Z</time></trkpt><trkpt lat="43.05035290156367" lon="12.174355838946793"><ele>556.6</ele><time>2026-04-18T08:58:58Z</time></trkpt><trkpt lat="43.050275531666735" lon="12.174389839358724"><ele>556.0</ele><time>2026-04-18T08:58:59Z</time></trkpt><trkpt lat="43.050185323126286" lon="12.174419616541032"><ele>556.0</ele><time>2026-04-18T08:59:00Z</time></trkpt><trkpt lat="43.050094138747575" lon="12.174448457293893"><ele>556.0</ele><time>2026-04-18T08:59:01Z</time></trkpt><trkpt lat="43.05000815929398" lon="12.17447806430553"><ele>556.0</ele><time>2026-04-18T08:59:02Z</time></trkpt><trkpt lat="43.049901858554726" lon="12.174521010829244"><ele>556.0</ele><time>2026-04-18T08:59:03.001Z</time></trkpt><trkpt lat="43.049825386689896" lon="12.17454995389692"><ele>556.0</ele><time>2026-04-18T08:59:04.001Z</time></trkpt><trkpt lat="43.04974966779501" lon="12.174587507799814"><ele>554.6666666666667</ele><time>2026-04-18T08:59:05.001Z</time></trkpt><trkpt lat="43.04967032510237" lon="12.1746218220585"><ele>553.3333333333334</ele><time>2026-04-18T08:59:06.001Z</time></trkpt><trkpt lat="43.04959550381326" lon="12.174653472504414"><ele>552.0</ele><time>2026-04-18T08:59:07.001Z</time></trkpt><trkpt lat="43.049532595776206" lon="12.174680087676059"><ele>550.6666666666666</ele><time>2026-04-18T08:59:08.001Z</time></trkpt><trkpt lat="43.04944268850276" lon="12.174730410929449"><ele>549.3333333333333</ele><time>2026-04-18T08:59:10.001Z</time></trkpt><trkpt lat="43.049410417161575" lon="12.174811735132865"><ele>548.0</ele><time>2026-04-18T08:59:12Z</time></trkpt><trkpt lat="43.04943199808072" lon="12.174954065627661"><ele>548.0</ele><time>2026-04-18T08:59:14Z</time></trkpt><trkpt lat="43.04945634300181" lon="12.175056044630098"><ele>548.0</ele><time>2026-04-18T08:59:15Z</time></trkpt><trkpt lat="43.04947869190867" lon="12.175171788251916"><ele>548.0</ele><time>2026-04-18T08:59:16Z</time></trkpt><trkpt lat="43.04949077111004" lon="12.175269960945297"><ele>548.0</ele><time>2026-04-18T08:59:17Z</time></trkpt><trkpt lat="43.049490928569206" lon="12.175421751435925"><ele>548.0</ele><time>2026-04-18T08:59:19Z</time></trkpt><trkpt lat="43.04946784437408" lon="12.175574334130058"><ele>548.0</ele><time>2026-04-18T08:59:21Z</time></trkpt><trkpt lat="43.049451356669536" lon="12.175658009728089"><ele>548.0</ele><time>2026-04-18T08:59:22Z</time></trkpt><trkpt lat="43.049424947910936" lon="12.175745572764514"><ele>548.0</ele><time>2026-04-18T08:59:23Z</time></trkpt><trkpt lat="43.04938317498087" lon="12.175829481184893"><ele>548.0</ele><time>2026-04-18T08:59:24Z</time></trkpt><trkpt lat="43.049337486062036" lon="12.17590752644915"><ele>548.0</ele><time>2026-04-18T08:59:25Z</time></trkpt><trkpt lat="43.049296305761764" lon="12.175983696908364"><ele>548.0</ele><time>2026-04-18T08:59:26Z</time></trkpt><trkpt lat="43.049247718116355" lon="12.176124808902507"><ele>548.0</ele><time>2026-04-18T08:59:28Z</time></trkpt><trkpt lat="43.04922282354617" lon="12.17624745741743"><ele>548.0</ele><time>2026-04-18T08:59:30Z</time></trkpt><trkpt lat="43.049171219639916" lon="12.176377798614503"><ele>548.0</ele><time>2026-04-18T08:59:32Z</time></trkpt><trkpt lat="43.04908890932033" lon="12.176455244944176"><ele>548.0</ele><time>2026-04-18T08:59:34Z</time></trkpt><trkpt lat="43.0489832405205" lon="12.176504079854334"><ele>548.0</ele><time>2026-04-18T08:59:36Z</time></trkpt><trkpt lat="43.04887489298851" lon="12.176534102496447"><ele>544.5</ele><time>2026-04-18T08:59:38Z</time></trkpt><trkpt lat="43.048760566658544" lon="12.176540634150001"><ele>541.0</ele><time>2026-04-18T08:59:40Z</time></trkpt><trkpt lat="43.04869772788721" lon="12.176533292498252"><ele>537.5</ele><time>2026-04-18T08:59:41Z</time></trkpt><trkpt lat="43.048575939548215" lon="12.176497793404979"><ele>534.0</ele><time>2026-04-18T08:59:43Z</time></trkpt><trkpt lat="43.04851368884649" lon="12.176464788635194"><ele>530.5</ele><time>2026-04-18T08:59:44Z</time></trkpt><trkpt lat="43.04845903335929" lon="12.17641892496149"><ele>527.0</ele><time>2026-04-18T08:59:45Z</time></trkpt><trkpt lat="43.04836624501268" lon="12.176318425397866"><ele>522.6</ele><time>2026-04-18T08:59:47Z</time></trkpt><trkpt lat="43.04828298958038" lon="12.176218370758184"><ele>518.2</ele><time>2026-04-18T08:59:49Z</time></trkpt><trkpt lat="43.0482125533268" lon="12.176149630733418"><ele>513.8</ele><time>2026-04-18T08:59:51Z</time></trkpt><trkpt lat="43.048119748705105" lon="12.176138919723979"><ele>509.4</ele><time>2026-04-18T08:59:53Z</time></trkpt><trkpt lat="43.04801761963412" lon="12.176193865528445"><ele>505.0</ele><time>2026-04-18T08:59:55Z</time></trkpt><trkpt lat="43.04791926203649" lon="12.176285286321287"><ele>505.0</ele><time>2026-04-18T08:59:57Z</time></trkpt><trkpt lat="43.04782674221724" lon="12.176397893347424"><ele>505.0</ele><time>2026-04-18T08:59:59Z</time></trkpt><trkpt lat="43.0477675128289" lon="12.176522877510656"><ele>505.0</ele><time>2026-04-18T09:00:01Z</time></trkpt><trkpt lat="43.04773465394178" lon="12.17660240332306"><ele>505.0</ele><time>2026-04-18T09:00:02Z</time></trkpt><trkpt lat="43.04770354164534" lon="12.176688107062995"><ele>505.0</ele><time>2026-04-18T09:00:03Z</time></trkpt><trkpt lat="43.04766554749211" lon="12.176851661289382"><ele>505.2</ele><time>2026-04-18T09:00:05Z</time></trkpt><trkpt lat="43.04762657742257" lon="12.177001826500756"><ele>505.4</ele><time>2026-04-18T09:00:07Z</time></trkpt><trkpt lat="43.04756158561173" lon="12.17713220354542"><ele>505.6</ele><time>2026-04-18T09:00:09Z</time></trkpt><trkpt lat="43.047511534537115" lon="12.177185073365065"><ele>505.8</ele><time>2026-04-18T09:00:10Z</time></trkpt><trkpt lat="43.04740804134914" lon="12.17725888018426"><ele>506.0</ele><time>2026-04-18T09:00:12Z</time></trkpt><trkpt lat="43.04729610412761" lon="12.177302512699397"><ele>503.20000000000005</ele><time>2026-04-18T09:00:14Z</time></trkpt><trkpt lat="43.047187196077985" lon="12.177337937175754"><ele>500.40000000000003</ele><time>2026-04-18T09:00:16Z</time></trkpt><trkpt lat="43.04708213600782" lon="12.17737960246473"><ele>497.6</ele><time>2026-04-18T09:00:18Z</time></trkpt><trkpt lat="43.046993455558955" lon="12.177413200756007"><ele>494.8</ele><time>2026-04-18T09:00:20Z</time></trkpt><trkpt lat="43.046892576947265" lon="12.177474850945202"><ele>492.0</ele><time>2026-04-18T09:00:22Z</time></trkpt><trkpt lat="43.04678117226095" lon="12.177556632038232"><ele>492.0</ele><time>2026-04-18T09:00:24Z</time></trkpt><trkpt lat="43.04673117916651" lon="12.177609205947755"><ele>492.0</ele><time>2026-04-18T09:00:25Z</time></trkpt><trkpt lat="43.0466179850493" lon="12.177705470784007"><ele>492.0</ele><time>2026-04-18T09:00:27Z</time></trkpt><trkpt lat="43.046547283717615" lon="12.177742353463172"><ele>492.0</ele><time>2026-04-18T09:00:28Z</time></trkpt><trkpt lat="43.046473320079485" lon="12.177788235154573"><ele>492.0</ele><time>2026-04-18T09:00:29Z</time></trkpt><trkpt lat="43.0463886969252" lon="12.1778104193976"><ele>492.0</ele><time>2026-04-18T09:00:30Z</time></trkpt><trkpt lat="43.046306368585874" lon="12.177835763615033"><ele>491.1666666666667</ele><time>2026-04-18T09:00:31Z</time></trkpt><trkpt lat="43.04622886975575" lon="12.177862089364131"><ele>490.33333333333337</ele><time>2026-04-18T09:00:32Z</time></trkpt><trkpt lat="43.04614899449319" lon="12.177894138638873"><ele>489.5</ele><time>2026-04-18T09:00:33Z</time></trkpt><trkpt lat="43.04607447458255" lon="12.177927628550657"><ele>488.6666666666667</ele><time>2026-04-18T09:00:34Z</time></trkpt><trkpt lat="43.04599515012731" lon="12.177966561239273"><ele>487.83333333333337</ele><time>2026-04-18T09:00:35Z</time></trkpt><trkpt lat="43.04592888552966" lon="12.178007494565426"><ele>487.0</ele><time>2026-04-18T09:00:36Z</time></trkpt><trkpt lat="43.045872302109025" lon="12.178051032434807"><ele>487.0</ele><time>2026-04-18T09:00:37Z</time></trkpt><trkpt lat="43.04581644493244" lon="12.178098423520028"><ele>487.00000000000006</ele><time>2026-04-18T09:00:38Z</time></trkpt><trkpt lat="43.04574650804823" lon="12.178186376644812"><ele>487.00000000000006</ele><time>2026-04-18T09:00:40Z</time></trkpt><trkpt lat="43.04567491397357" lon="12.178270468143197"><ele>487.0</ele><time>2026-04-18T09:00:42Z</time></trkpt><trkpt lat="43.04559780442977" lon="12.178352997955171"><ele>487.0</ele><time>2026-04-18T09:00:44Z</time></trkpt><trkpt lat="43.04549674777464" lon="12.178412658352398"><ele>487.40000000000003</ele><time>2026-04-18T09:00:46Z</time></trkpt><trkpt lat="43.04539285628818" lon="12.178450825819274"><ele>487.80000000000007</ele><time>2026-04-18T09:00:48Z</time></trkpt><trkpt lat="43.04530372096864" lon="12.178483824659445"><ele>488.2</ele><time>2026-04-18T09:00:50Z</time></trkpt><trkpt lat="43.04520741499876" lon="12.178525005623559"><ele>488.6</ele><time>2026-04-18T09:00:52Z</time></trkpt><trkpt lat="43.04510631790373" lon="12.178548486401"><ele>489.0</ele><time>2026-04-18T09:00:54Z</time></trkpt><trkpt lat="43.04502978395233" lon="12.17858256114248"><ele>489.0</ele><time>2026-04-18T09:00:56Z</time></trkpt><trkpt lat="43.04496295627299" lon="12.178607947228784"><ele>489.00000000000006</ele><time>2026-04-18T09:00:58Z</time></trkpt><trkpt lat="43.04489760398581" lon="12.178646667985113"><ele>489.0</ele><time>2026-04-18T09:01:00Z</time></trkpt><trkpt lat="43.04482590421233" lon="12.178686133288926"><ele>489.0</ele><time>2026-04-18T09:01:02Z</time></trkpt><trkpt lat="43.044756718253296" lon="12.178725676981061"><ele>489.00000000000006</ele><time>2026-04-18T09:01:04Z</time></trkpt><trkpt lat="43.04469885300565" lon="12.17876295750577"><ele>489.0</ele><time>2026-04-18T09:01:06Z</time></trkpt><trkpt lat="43.044637599750345" lon="12.17881296136675"><ele>489.0</ele><time>2026-04-18T09:01:08Z</time></trkpt><trkpt lat="43.04454613326367" lon="12.178822120261772"><ele>487.4</ele><time>2026-04-18T09:01:10Z</time></trkpt><trkpt lat="43.04445905339318" lon="12.178855046132425"><ele>485.79999999999995</ele><time>2026-04-18T09:01:12Z</time></trkpt><trkpt lat="43.044353927707874" lon="12.178970726149206"><ele>484.20000000000005</ele><time>2026-04-18T09:01:14Z</time></trkpt><trkpt lat="43.04429423913624" lon="12.179045601647537"><ele>482.6</ele><time>2026-04-18T09:01:15Z</time></trkpt><trkpt lat="43.04423053414602" lon="12.179103013850424"><ele>481.0</ele><time>2026-04-18T09:01:16Z</time></trkpt><trkpt lat="43.04416379002505" lon="12.179145157788565"><ele>479.83333333333337</ele><time>2026-04-18T09:01:17Z</time></trkpt><trkpt lat="43.0441015787076" lon="12.179182300145987"><ele>478.6666666666667</ele><time>2026-04-18T09:01:18Z</time></trkpt><trkpt lat="43.04403385813466" lon="12.179226668550546"><ele>477.5</ele><time>2026-04-18T09:01:19Z</time></trkpt><trkpt lat="43.04395206782269" lon="12.179265653556923"><ele>476.33333333333337</ele><time>2026-04-18T09:01:20Z</time></trkpt><trkpt lat="43.04386019327627" lon="12.179279587412955"><ele>475.1666666666667</ele><time>2026-04-18T09:01:21Z</time></trkpt><trkpt lat="43.04375801694689" lon="12.179280788299506"><ele>474.0</ele><time>2026-04-18T09:01:22Z</time></trkpt><trkpt lat="43.04366843024586" lon="12.179292632181356"><ele>474.0</ele><time>2026-04-18T09:01:23Z</time></trkpt><trkpt lat="43.043586126320186" lon="12.179302472548232"><ele>474.0</ele><time>2026-04-18T09:01:24Z</time></trkpt><trkpt lat="43.04351044383718" lon="12.179316027692446"><ele>474.0</ele><time>2026-04-18T09:01:25Z</time></trkpt><trkpt lat="43.043440469599055" lon="12.179325580610708"><ele>474.0</ele><time>2026-04-18T09:01:26Z</time></trkpt><trkpt lat="43.04337419811808" lon="12.179334300062738"><ele>474.0</ele><time>2026-04-18T09:01:27Z</time></trkpt><trkpt lat="43.043248518824846" lon="12.179327292987526"><ele>474.0</ele><time>2026-04-18T09:01:29Z</time></trkpt><trkpt lat="43.043147836314496" lon="12.179297499797375"><ele>471.5</ele><time>2026-04-18T09:01:31Z</time></trkpt><trkpt lat="43.04308687576142" lon="12.179271182183124"><ele>469.0</ele><time>2026-04-18T09:01:33Z</time></trkpt><trkpt lat="43.0430148752447" lon="12.179348737007734"><ele>466.5</ele><time>2026-04-18T09:03:24Z</time></trkpt><trkpt lat="43.04294141826534" lon="12.179390337127158"><ele>464.0</ele><time>2026-04-18T09:03:26Z</time></trkpt><trkpt lat="43.042903593310335" lon="12.179246385547623"><ele>461.5</ele><time>2026-04-18T09:03:27Z</time></trkpt><trkpt lat="43.04283606828124" lon="12.17924722236076"><ele>459.0</ele><time>2026-04-18T09:03:30Z</time></trkpt><trkpt lat="43.04276360885534" lon="12.179239014785528"><ele>459.0</ele><time>2026-04-18T09:03:33Z</time></trkpt><trkpt lat="43.04268033064167" lon="12.179633476058285"><ele>459.0</ele><time>2026-04-18T09:03:36Z</time></trkpt><trkpt lat="43.04262592643718" lon="12.179747879395448"><ele>459.0</ele><time>2026-04-18T09:03:39Z</time></trkpt><trkpt lat="43.042560772903855" lon="12.179840126701698"><ele>461.0</ele><time>2026-04-18T09:03:41Z</time></trkpt><trkpt lat="43.042486986158515" lon="12.179914014651406"><ele>463.0</ele><time>2026-04-18T09:03:43Z</time></trkpt><trkpt lat="43.04242138178494" lon="12.180032037670655"><ele>465.0</ele><time>2026-04-18T09:03:45Z</time></trkpt><trkpt lat="43.04234274569275" lon="12.18011887992375"><ele>467.0</ele><time>2026-04-18T09:03:47Z</time></trkpt><trkpt lat="43.042257641993764" lon="12.18019447218506"><ele>469.0</ele><time>2026-04-18T09:03:49Z</time></trkpt><trkpt lat="43.04217815703653" lon="12.18026051726681"><ele>465.00000000000006</ele><time>2026-04-18T09:03:51Z</time></trkpt><trkpt lat="43.042118855657115" lon="12.180319698804182"><ele>461.0</ele><time>2026-04-18T09:03:53Z</time></trkpt><trkpt lat="43.042070713992686" lon="12.180425169979848"><ele>457.0</ele><time>2026-04-18T09:03:55Z</time></trkpt><trkpt lat="43.041992486272285" lon="12.18048488382174"><ele>453.0</ele><time>2026-04-18T09:03:57Z</time></trkpt><trkpt lat="43.041956909641065" lon="12.18059259609309"><ele>449.00000000000006</ele><time>2026-04-18T09:03:59Z</time></trkpt><trkpt lat="43.04192632792947" lon="12.180693307407982"><ele>445.0</ele><time>2026-04-18T09:04:01Z</time></trkpt><trkpt lat="43.041935235018634" lon="12.180793962084419"><ele>445.00000000000006</ele><time>2026-04-18T09:04:03Z</time></trkpt><trkpt lat="43.04196158692985" lon="12.180923069103478"><ele>445.0</ele><time>2026-04-18T09:04:06Z</time></trkpt><trkpt lat="43.041984109810116" lon="12.181046759972745"><ele>445.0</ele><time>2026-04-18T09:04:08Z</time></trkpt><trkpt lat="43.04202576756522" lon="12.181126204245523"><ele>445.0</ele><time>2026-04-18T09:04:10Z</time></trkpt><trkpt lat="43.04207830153034" lon="12.181226136194557"><ele>445.00000000000006</ele><time>2026-04-18T09:04:12Z</time></trkpt><trkpt lat="43.042138150742474" lon="12.1813299404974"><ele>445.0</ele><time>2026-04-18T09:04:14Z</time></trkpt><trkpt lat="43.042196665970685" lon="12.181457709353024"><ele>442.83333333333337</ele><time>2026-04-18T09:04:16Z</time></trkpt><trkpt lat="43.042225768859296" lon="12.181575503177456"><ele>440.6666666666667</ele><time>2026-04-18T09:04:19Z</time></trkpt><trkpt lat="43.04221646205941" lon="12.181686159319142"><ele>438.5</ele><time>2026-04-18T09:04:22Z</time></trkpt><trkpt lat="43.04220276570778" lon="12.181808613486984"><ele>436.33333333333337</ele><time>2026-04-18T09:04:24Z</time></trkpt><trkpt lat="43.04219854081868" lon="12.181917328641134"><ele>434.1666666666667</ele><time>2026-04-18T09:04:26Z</time></trkpt><trkpt lat="43.04220875640721" lon="12.182007362326953"><ele>432.0</ele><time>2026-04-18T09:04:28Z</time></trkpt><trkpt lat="43.04220201043394" lon="12.182120381746087"><ele>432.0</ele><time>2026-04-18T09:04:31Z</time></trkpt><trkpt lat="43.04215062791727" lon="12.182241615852583"><ele>432.00000000000006</ele><time>2026-04-18T09:04:33Z</time></trkpt><trkpt lat="43.042093178449484" lon="12.182361356348723"><ele>432.00000000000006</ele><time>2026-04-18T09:04:35Z</time></trkpt><trkpt lat="43.042033829620046" lon="12.182411443699925"><ele>432.0</ele><time>2026-04-18T09:04:37Z</time></trkpt><trkpt lat="43.04198448987126" lon="12.182495430662819"><ele>432.0</ele><time>2026-04-18T09:04:39Z</time></trkpt><trkpt lat="43.041944949948686" lon="12.18263606975943"><ele>432.3333333333333</ele><time>2026-04-18T09:04:41Z</time></trkpt><trkpt lat="43.04193453058785" lon="12.182736283460647"><ele>432.66666666666663</ele><time>2026-04-18T09:04:42Z</time></trkpt><trkpt lat="43.04192208085292" lon="12.182823260603667"><ele>433.0</ele><time>2026-04-18T09:04:43Z</time></trkpt><trkpt lat="43.04186310660482" lon="12.18293597357031"><ele>433.3333333333333</ele><time>2026-04-18T09:04:45Z</time></trkpt><trkpt lat="43.04182607303897" lon="12.183012506213567"><ele>433.66666666666663</ele><time>2026-04-18T09:04:46Z</time></trkpt><trkpt lat="43.04177960246995" lon="12.183105182795796"><ele>434.0</ele><time>2026-04-18T09:04:48Z</time></trkpt><trkpt lat="43.04173300677138" lon="12.183218104050118"><ele>434.49999999999994</ele><time>2026-04-18T09:04:52Z</time></trkpt><trkpt lat="43.04169185109148" lon="12.183292181221866"><ele>435.0</ele><time>2026-04-18T09:04:59Z</time></trkpt><trkpt lat="43.041638188548475" lon="12.183355466269827"><ele>435.5</ele><time>2026-04-18T09:05:05Z</time></trkpt><trkpt lat="43.04159207062676" lon="12.183493455264829"><ele>436.0</ele><time>2026-04-18T09:05:07Z</time></trkpt><trkpt lat="43.04156943092184" lon="12.183608892325564"><ele>436.49999999999994</ele><time>2026-04-18T09:05:08Z</time></trkpt><trkpt lat="43.04153800143179" lon="12.183713098913705"><ele>437.0</ele><time>2026-04-18T09:05:09Z</time></trkpt><trkpt lat="43.04151842416268" lon="12.18380767415289"><ele>436.8</ele><time>2026-04-18T09:05:10Z</time></trkpt><trkpt lat="43.04148677448905" lon="12.183935668812518"><ele>436.6</ele><time>2026-04-18T09:05:12Z</time></trkpt><trkpt lat="43.041452282909496" lon="12.184018361812715"><ele>436.40000000000003</ele><time>2026-04-18T09:05:15Z</time></trkpt><trkpt lat="43.041397103256145" lon="12.184075549320783"><ele>436.20000000000005</ele><time>2026-04-18T09:06:25Z</time></trkpt><trkpt lat="43.04130131700214" lon="12.184104848331113"><ele>436.0</ele><time>2026-04-18T09:06:27Z</time></trkpt><trkpt lat="43.04118696810219" lon="12.184111812231823"><ele>436.00000000000006</ele><time>2026-04-18T09:06:29Z</time></trkpt><trkpt lat="43.041064891212805" lon="12.184134537346043"><ele>436.0</ele><time>2026-04-18T09:06:31Z</time></trkpt><trkpt lat="43.04099351900425" lon="12.184147577491219"><ele>436.0</ele><time>2026-04-18T09:06:32Z</time></trkpt><trkpt lat="43.04091992336176" lon="12.184170311415885"><ele>436.0</ele><time>2026-04-18T09:06:33Z</time></trkpt><trkpt lat="43.040842633249504" lon="12.184190761926931"><ele>436.00000000000006</ele><time>2026-04-18T09:06:34Z</time></trkpt><trkpt lat="43.04075466320678" lon="12.184210298367624"><ele>436.0</ele><time>2026-04-18T09:06:35Z</time></trkpt><trkpt lat="43.0406755106479" lon="12.184224207110276"><ele>435.83333333333337</ele><time>2026-04-18T09:06:36Z</time></trkpt><trkpt lat="43.04059986538914" lon="12.184246983994797"><ele>435.6666666666667</ele><time>2026-04-18T09:06:37Z</time></trkpt><trkpt lat="43.04052321516406" lon="12.184275021250759"><ele>435.5</ele><time>2026-04-18T09:06:38Z</time></trkpt><trkpt lat="43.04045992458157" lon="12.184291203716905"><ele>435.33333333333337</ele><time>2026-04-18T09:06:39Z</time></trkpt><trkpt lat="43.04035558923131" lon="12.184337835211402"><ele>435.1666666666667</ele><time>2026-04-18T09:06:41Z</time></trkpt><trkpt lat="43.04027686763402" lon="12.184381589803627"><ele>435.0</ele><time>2026-04-18T09:06:43Z</time></trkpt><trkpt lat="43.04017556385888" lon="12.18444030121386"><ele>435.0</ele><time>2026-04-18T09:06:45Z</time></trkpt><trkpt lat="43.04007650232173" lon="12.184458704524662"><ele>435.0</ele><time>2026-04-18T09:06:47Z</time></trkpt><trkpt lat="43.04001543330699" lon="12.184487889590377"><ele>435.0</ele><time>2026-04-18T09:06:48Z</time></trkpt><trkpt lat="43.03994033109098" lon="12.184508807004171"><ele>435.0</ele><time>2026-04-18T09:06:50Z</time></trkpt><trkpt lat="43.03987293696103" lon="12.184506819690224"><ele>435.0</ele><time>2026-04-18T09:06:52Z</time></trkpt><trkpt lat="43.03979276011935" lon="12.18452476685119"><ele>435.0</ele><time>2026-04-18T09:06:54Z</time></trkpt><trkpt lat="43.03967467589902" lon="12.184584916312446"><ele>435.2</ele><time>2026-04-18T09:06:56Z</time></trkpt><trkpt lat="43.03960246344705" lon="12.184653111480925"><ele>435.4</ele><time>2026-04-18T09:06:57Z</time></trkpt><trkpt lat="43.039533822265724" lon="12.184717287440797"><ele>435.6</ele><time>2026-04-18T09:06:58Z</time></trkpt><trkpt lat="43.03947453544388" lon="12.184770030811457"><ele>435.8</ele><time>2026-04-18T09:06:59Z</time></trkpt><trkpt lat="43.0393596417172" lon="12.18483530113967"><ele>436.0</ele><time>2026-04-18T09:07:01Z</time></trkpt><trkpt lat="43.0392650516865" lon="12.184870647704315"><ele>436.0</ele><time>2026-04-18T09:07:03Z</time></trkpt><trkpt lat="43.03915660122483" lon="12.18489161883193"><ele>436.0</ele><time>2026-04-18T09:07:05Z</time></trkpt><trkpt lat="43.039055284882416" lon="12.184933484897211"><ele>436.0</ele><time>2026-04-18T09:07:07Z</time></trkpt><trkpt lat="43.03892848055501" lon="12.184962505882565"><ele>436.0</ele><time>2026-04-18T09:07:09Z</time></trkpt><trkpt lat="43.03885583650288" lon="12.184985516825218"><ele>436.0</ele><time>2026-04-18T09:07:10Z</time></trkpt><trkpt lat="43.038788023777045" lon="12.185009635432761"><ele>436.33333333333337</ele><time>2026-04-18T09:07:11Z</time></trkpt><trkpt lat="43.038724704867676" lon="12.185029056176683"><ele>436.6666666666667</ele><time>2026-04-18T09:07:12Z</time></trkpt><trkpt lat="43.03866075447517" lon="12.185043662766134"><ele>437.0</ele><time>2026-04-18T09:07:13Z</time></trkpt><trkpt lat="43.03853703297498" lon="12.185058029202045"><ele>437.33333333333337</ele><time>2026-04-18T09:07:15Z</time></trkpt><trkpt lat="43.03845849155496" lon="12.18506078799877"><ele>437.6666666666667</ele><time>2026-04-18T09:07:16Z</time></trkpt><trkpt lat="43.0383854338327" lon="12.185061225972895"><ele>438.0</ele><time>2026-04-18T09:07:17Z</time></trkpt><trkpt lat="43.03832051315076" lon="12.185051886888223"><ele>437.6666666666667</ele><time>2026-04-18T09:07:18Z</time></trkpt><trkpt lat="43.03825419632501" lon="12.185044224285564"><ele>437.33333333333337</ele><time>2026-04-18T09:07:19Z</time></trkpt><trkpt lat="43.03818925641203" lon="12.18505156150619"><ele>437.0</ele><time>2026-04-18T09:07:20Z</time></trkpt><trkpt lat="43.03812401441116" lon="12.185073834118066"><ele>436.6666666666667</ele><time>2026-04-18T09:07:21Z</time></trkpt><trkpt lat="43.03804099597129" lon="12.185107250236069"><ele>436.33333333333337</ele><time>2026-04-18T09:07:22Z</time></trkpt><trkpt lat="43.0379467129941" lon="12.185134169408828"><ele>436.0</ele><time>2026-04-18T09:07:23Z</time></trkpt><trkpt lat="43.037854293478915" lon="12.18516467926191"><ele>436.0</ele><time>2026-04-18T09:07:24Z</time></trkpt><trkpt lat="43.037779851293955" lon="12.185188032141806"><ele>436.0</ele><time>2026-04-18T09:07:25Z</time></trkpt><trkpt lat="43.03766402029736" lon="12.185200357959246"><ele>436.0</ele><time>2026-04-18T09:07:27Z</time></trkpt><trkpt lat="43.03756515108721" lon="12.185224250460992"><ele>436.0</ele><time>2026-04-18T09:07:29Z</time></trkpt><trkpt lat="43.037471306239105" lon="12.185260501808656"><ele>436.0</ele><time>2026-04-18T09:07:31Z</time></trkpt><trkpt lat="43.03740071104339" lon="12.185289389810086"><ele>434.83333333333337</ele><time>2026-04-18T09:07:33Z</time></trkpt><trkpt lat="43.037320836922305" lon="12.185307832373512"><ele>433.6666666666667</ele><time>2026-04-18T09:07:35Z</time></trkpt><trkpt lat="43.0372444709237" lon="12.185324157455682"><ele>432.5</ele><time>2026-04-18T09:07:36Z</time></trkpt><trkpt lat="43.03716504102973" lon="12.185359372501333"><ele>431.33333333333337</ele><time>2026-04-18T09:07:38Z</time></trkpt><trkpt lat="43.037093731819546" lon="12.185389013448866"><ele>430.1666666666667</ele><time>2026-04-18T09:07:40Z</time></trkpt><trkpt lat="43.03701836825255" lon="12.185428736961763"><ele>429.0</ele><time>2026-04-18T09:07:42Z</time></trkpt><trkpt lat="43.03694424663519" lon="12.18541611206938"><ele>429.0</ele><time>2026-04-18T09:07:43Z</time></trkpt><trkpt lat="43.03688758946808" lon="12.18532655473014"><ele>429.0</ele><time>2026-04-18T09:07:45Z</time></trkpt><trkpt lat="43.036816670985" lon="12.185451419270699"><ele>429.0</ele><time>2026-04-18T09:07:46Z</time></trkpt><trkpt lat="43.036734744029026" lon="12.185497769206565"><ele>429.0</ele><time>2026-04-18T09:07:47Z</time></trkpt><trkpt lat="43.03662515310979" lon="12.185506857597444"><ele>429.0</ele><time>2026-04-18T09:07:49Z</time></trkpt><trkpt lat="43.03652600163378" lon="12.185542272031194"><ele>429.0</ele><time>2026-04-18T09:07:51Z</time></trkpt><trkpt lat="43.03643386492008" lon="12.185575519412133"><ele>429.0</ele><time>2026-04-18T09:07:53Z</time></trkpt><trkpt lat="43.036361526161194" lon="12.18557138571114"><ele>429.0</ele><time>2026-04-18T09:07:55Z</time></trkpt><trkpt lat="43.03629702482529" lon="12.185574021080502"><ele>429.0</ele><time>2026-04-18T09:07:57Z</time></trkpt><trkpt lat="43.03622201919737" lon="12.185621832039756"><ele>429.0</ele><time>2026-04-18T09:08:00Z</time></trkpt><trkpt lat="43.03614705695259" lon="12.185688507341936"><ele>429.0</ele><time>2026-04-18T09:08:03Z</time></trkpt><trkpt lat="43.036066471003934" lon="12.185751391272303"><ele>429.0</ele><time>2026-04-18T09:08:06Z</time></trkpt><trkpt lat="43.036007468797024" lon="12.185793677706558"><ele>429.0</ele><time>2026-04-18T09:08:08Z</time></trkpt><trkpt lat="43.03594439674534" lon="12.185848346018044"><ele>429.0</ele><time>2026-04-18T09:08:11Z</time></trkpt><trkpt lat="43.035875151978516" lon="12.185907158172844"><ele>429.0</ele><time>2026-04-18T09:08:14Z</time></trkpt><trkpt lat="43.03580812436969" lon="12.185944698051074"><ele>429.0</ele><time>2026-04-18T09:08:16Z</time></trkpt><trkpt lat="43.035741931631755" lon="12.18598943674456"><ele>429.0</ele><time>2026-04-18T09:08:18Z</time></trkpt><trkpt lat="43.03568092800202" lon="12.18604113584265"><ele>429.0</ele><time>2026-04-18T09:08:20Z</time></trkpt><trkpt lat="43.03560108885126" lon="12.18610862157278"><ele>427.3333333333333</ele><time>2026-04-18T09:08:22Z</time></trkpt><trkpt lat="43.03552171878548" lon="12.186224151370531"><ele>425.66666666666663</ele><time>2026-04-18T09:08:24Z</time></trkpt><trkpt lat="43.03547992666019" lon="12.18629916009427"><ele>424.0</ele><time>2026-04-18T09:08:25Z</time></trkpt><trkpt lat="43.03543016887763" lon="12.186364827105155"><ele>422.3333333333333</ele><time>2026-04-18T09:08:26Z</time></trkpt><trkpt lat="43.035385622031214" lon="12.186429848845155"><ele>420.66666666666663</ele><time>2026-04-18T09:08:27Z</time></trkpt><trkpt lat="43.03532342678495" lon="12.18651749075289"><ele>419.0</ele><time>2026-04-18T09:08:29Z</time></trkpt><trkpt lat="43.03524301687103" lon="12.186528520274951"><ele>418.99999999999994</ele><time>2026-04-18T09:08:32Z</time></trkpt><trkpt lat="43.03516659005221" lon="12.186555547945874"><ele>419.0</ele><time>2026-04-18T09:08:35Z</time></trkpt><trkpt lat="43.03506488065981" lon="12.186585154908181"><ele>419.0</ele><time>2026-04-18T09:08:37Z</time></trkpt><trkpt lat="43.035001331057416" lon="12.186617182167037"><ele>419.0</ele><time>2026-04-18T09:08:38Z</time></trkpt><trkpt lat="43.03488112544414" lon="12.18665914801122"><ele>418.99999999999994</ele><time>2026-04-18T09:08:40Z</time></trkpt><trkpt lat="43.03482029389146" lon="12.186684092682423"><ele>419.0</ele><time>2026-04-18T09:08:41Z</time></trkpt><trkpt lat="43.03474218787889" lon="12.18670848054057"><ele>420.4</ele><time>2026-04-18T09:08:43Z</time></trkpt><trkpt lat="43.034671524508916" lon="12.186685192728694"><ele>421.79999999999995</ele><time>2026-04-18T09:08:45Z</time></trkpt><trkpt lat="43.03457227602302" lon="12.186699375476094"><ele>423.20000000000005</ele><time>2026-04-18T09:08:47Z</time></trkpt><trkpt lat="43.03449900300318" lon="12.186692587904396"><ele>424.6</ele><time>2026-04-18T09:08:48Z</time></trkpt><trkpt lat="43.03440822661704" lon="12.186600320408745"><ele>426.0</ele><time>2026-04-18T09:08:50Z</time></trkpt><trkpt lat="43.03429875670633" lon="12.186564098285611"><ele>426.0</ele><time>2026-04-18T09:08:52Z</time></trkpt><trkpt lat="43.0341840628992" lon="12.18652491638046"><ele>426.0</ele><time>2026-04-18T09:08:54Z</time></trkpt><trkpt lat="43.03407926232421" lon="12.1865483012806"><ele>426.0</ele><time>2026-04-18T09:08:56Z</time></trkpt><trkpt lat="43.033984480967135" lon="12.186630014690977"><ele>426.0</ele><time>2026-04-18T09:08:58Z</time></trkpt><trkpt lat="43.03389366648431" lon="12.186696995905333"><ele>426.0</ele><time>2026-04-18T09:09:00Z</time></trkpt><trkpt lat="43.03380578160835" lon="12.186761709329145"><ele>425.1666666666667</ele><time>2026-04-18T09:09:02Z</time></trkpt><trkpt lat="43.033724226924214" lon="12.186792113550622"><ele>424.33333333333337</ele><time>2026-04-18T09:09:04Z</time></trkpt><trkpt lat="43.033649564356836" lon="12.186836884992873"><ele>423.5</ele><time>2026-04-18T09:09:06Z</time></trkpt><trkpt lat="43.03357668584543" lon="12.186869690235302"><ele>422.6666666666667</ele><time>2026-04-18T09:09:08Z</time></trkpt><trkpt lat="43.033490930190474" lon="12.186907065269356"><ele>421.83333333333337</ele><time>2026-04-18T09:09:10Z</time></trkpt><trkpt lat="43.03341452682519" lon="12.186932647684982"><ele>421.0</ele><time>2026-04-18T09:09:12Z</time></trkpt><trkpt lat="43.03334792793328" lon="12.186967243087143"><ele>418.6</ele><time>2026-04-18T09:09:14Z</time></trkpt><trkpt lat="43.03326704682314" lon="12.18699639392982"><ele>416.20000000000005</ele><time>2026-04-18T09:09:16Z</time></trkpt><trkpt lat="43.03322896110202" lon="12.187082918089114"><ele>413.79999999999995</ele><time>2026-04-18T09:09:18Z</time></trkpt><trkpt lat="43.03321552756336" lon="12.187198825491093"><ele>411.4</ele><time>2026-04-18T09:09:20Z</time></trkpt><trkpt lat="43.033150462636236" lon="12.187304443925505"><ele>409.0</ele><time>2026-04-18T09:09:22Z</time></trkpt><trkpt lat="43.033052646076" lon="12.187382393192538"><ele>409.00000000000006</ele><time>2026-04-18T09:09:24Z</time></trkpt><trkpt lat="43.0330153834271" lon="12.187509857208394"><ele>409.0</ele><time>2026-04-18T09:09:26Z</time></trkpt><trkpt lat="43.03298180995335" lon="12.187636276182197"><ele>409.0</ele><time>2026-04-18T09:09:28Z</time></trkpt><trkpt lat="43.03293783354374" lon="12.18773577455217"><ele>409.0</ele><time>2026-04-18T09:09:30Z</time></trkpt><trkpt lat="43.03289010717679" lon="12.18780630905939"><ele>409.00000000000006</ele><time>2026-04-18T09:09:32Z</time></trkpt><trkpt lat="43.03281225575302" lon="12.187869017396569"><ele>409.0</ele><time>2026-04-18T09:09:33.999Z</time></trkpt><trkpt lat="43.03271547516088" lon="12.187851524254251"><ele>409.00000000000006</ele><time>2026-04-18T09:09:35.999Z</time></trkpt><trkpt lat="43.03264131189285" lon="12.187777843548574"><ele>409.0</ele><time>2026-04-18T09:09:37.999Z</time></trkpt><trkpt lat="43.032568552335306" lon="12.187703362698809"><ele>409.0</ele><time>2026-04-18T09:09:39.999Z</time></trkpt><trkpt lat="43.032489192285546" lon="12.18763347406559"><ele>409.0</ele><time>2026-04-18T09:09:41.999Z</time></trkpt><trkpt lat="43.03242644965804" lon="12.187584483086106"><ele>409.00000000000006</ele><time>2026-04-18T09:09:44Z</time></trkpt><trkpt lat="43.03234196068972" lon="12.18755468775628"><ele>409.0</ele><time>2026-04-18T09:09:47Z</time></trkpt><trkpt lat="43.03228845508252" lon="12.187652813407832"><ele>405.0</ele><time>2026-04-18T09:09:50Z</time></trkpt><trkpt lat="43.03228686534699" lon="12.187777273251147"><ele>401.0</ele><time>2026-04-18T09:09:52Z</time></trkpt><trkpt lat="43.03223654153947" lon="12.187868467893828"><ele>397.0</ele><time>2026-04-18T09:09:54Z</time></trkpt><trkpt lat="43.03214702203786" lon="12.187940002577863"><ele>393.0</ele><time>2026-04-18T09:09:56Z</time></trkpt><trkpt lat="43.03206721712123" lon="12.188013976047147"><ele>389.0</ele><time>2026-04-18T09:09:58Z</time></trkpt><trkpt lat="43.03199632849409" lon="12.18808579159211"><ele>388.99999999999994</ele><time>2026-04-18T09:10:00Z</time></trkpt><trkpt lat="43.0319301303432" lon="12.188113025630429"><ele>389.0</ele><time>2026-04-18T09:10:02Z</time></trkpt><trkpt lat="43.03183400961854" lon="12.188169438631089"><ele>389.0</ele><time>2026-04-18T09:10:04Z</time></trkpt><trkpt lat="43.03172301673715" lon="12.188196086349581"><ele>389.0</ele><time>2026-04-18T09:10:06Z</time></trkpt><trkpt lat="43.03164436678363" lon="12.188192411310158"><ele>388.99999999999994</ele><time>2026-04-18T09:10:08Z</time></trkpt><trkpt lat="43.03156612054425" lon="12.18815165599528"><ele>389.0</ele><time>2026-04-18T09:10:11Z</time></trkpt><trkpt lat="43.03146686693097" lon="12.188140247504549"><ele>388.16666666666663</ele><time>2026-04-18T09:10:13Z</time></trkpt><trkpt lat="43.03138940736112" lon="12.18813596083039"><ele>387.3333333333333</ele><time>2026-04-18T09:10:15Z</time></trkpt><trkpt lat="43.03131236858619" lon="12.188134793240126"><ele>386.5</ele><time>2026-04-18T09:10:16Z</time></trkpt><trkpt lat="43.031227706778985" lon="12.188123026028398"><ele>385.66666666666663</ele><time>2026-04-18T09:10:17Z</time></trkpt><trkpt lat="43.03115883284765" lon="12.18811248322397"><ele>384.8333333333333</ele><time>2026-04-18T09:10:18Z</time></trkpt><trkpt lat="43.03105192273696" lon="12.188107805898886"><ele>384.0</ele><time>2026-04-18T09:10:20Z</time></trkpt><trkpt lat="43.030926774870565" lon="12.18816522720026"><ele>383.6666666666667</ele><time>2026-04-18T09:10:22Z</time></trkpt><trkpt lat="43.03087376867412" lon="12.188216925628957"><ele>383.3333333333333</ele><time>2026-04-18T09:10:23Z</time></trkpt><trkpt lat="43.03081554209117" lon="12.188270418689504"><ele>383.0</ele><time>2026-04-18T09:10:24Z</time></trkpt><trkpt lat="43.030754363086295" lon="12.188333749190175"><ele>382.66666666666663</ele><time>2026-04-18T09:10:25Z</time></trkpt><trkpt lat="43.03070227499544" lon="12.188383445341314"><ele>382.3333333333333</ele><time>2026-04-18T09:10:26Z</time></trkpt><trkpt lat="43.030616767994644" lon="12.188467093762679"><ele>382.0</ele><time>2026-04-18T09:10:28Z</time></trkpt><trkpt lat="43.03053196103711" lon="12.188542621896987"><ele>382.0</ele><time>2026-04-18T09:10:30Z</time></trkpt><trkpt lat="43.0304365653462" lon="12.1885555465979"><ele>382.0</ele><time>2026-04-18T09:10:32Z</time></trkpt><trkpt lat="43.030368302092334" lon="12.188564781705283"><ele>382.0</ele><time>2026-04-18T09:10:34Z</time></trkpt><trkpt lat="43.03030082899798" lon="12.188477618357977"><ele>382.0</ele><time>2026-04-18T09:10:39Z</time></trkpt><trkpt lat="43.03025793577" lon="12.188310658410868"><ele>382.0</ele><time>2026-04-18T09:10:42Z</time></trkpt><trkpt lat="43.030223999597304" lon="12.188186382885233"><ele>382.0</ele><time>2026-04-18T09:10:44Z</time></trkpt><trkpt lat="43.03023856155673" lon="12.188281001570767"><ele>382.0</ele><time>2026-04-18T09:10:51Z</time></trkpt><trkpt lat="43.030285508602056" lon="12.188354464250628"><ele>382.0</ele><time>2026-04-18T09:10:54Z</time></trkpt><trkpt lat="43.030309299280674" lon="12.188456021988898"><ele>382.0</ele><time>2026-04-18T09:11:01Z</time></trkpt><trkpt lat="43.03034184236008" lon="12.188556514592099"><ele>382.0</ele><time>2026-04-18T09:11:03Z</time></trkpt><trkpt lat="43.030331203355395" lon="12.188688812787552"><ele>382.0</ele><time>2026-04-18T09:11:05Z</time></trkpt><trkpt lat="43.030341283635124" lon="12.188824799072476"><ele>382.0</ele><time>2026-04-18T09:11:07Z</time></trkpt><trkpt lat="43.03033200636323" lon="12.188952157154825"><ele>382.0</ele><time>2026-04-18T09:11:09Z</time></trkpt><trkpt lat="43.030221972941625" lon="12.189043649565866"><ele>382.0</ele><time>2026-04-18T09:11:11Z</time></trkpt><trkpt lat="43.03016599374534" lon="12.189110949127345"><ele>382.0</ele><time>2026-04-18T09:11:12Z</time></trkpt><trkpt lat="43.030107477141726" lon="12.189167672641588"><ele>382.0</ele><time>2026-04-18T09:11:13Z</time></trkpt><trkpt lat="43.03006564144032" lon="12.189243540665911"><ele>382.0</ele><time>2026-04-18T09:11:14Z</time></trkpt><trkpt lat="43.02992924934789" lon="12.189327017593394"><ele>378.5</ele><time>2026-04-18T09:11:16Z</time></trkpt><trkpt lat="43.02985154673693" lon="12.189365580050495"><ele>375.0</ele><time>2026-04-18T09:11:17Z</time></trkpt><trkpt lat="43.02977708379227" lon="12.18938704933588"><ele>371.5</ele><time>2026-04-18T09:11:18Z</time></trkpt><trkpt lat="43.02969928484477" lon="12.189406839498362"><ele>368.0</ele><time>2026-04-18T09:11:19Z</time></trkpt><trkpt lat="43.02962068553626" lon="12.189391024215213"><ele>364.5</ele><time>2026-04-18T09:11:20Z</time></trkpt><trkpt lat="43.02954781338449" lon="12.189371792054128"><ele>361.0</ele><time>2026-04-18T09:11:21Z</time></trkpt><trkpt lat="43.02946952735205" lon="12.189338482555344"><ele>361.0</ele><time>2026-04-18T09:11:22Z</time></trkpt><trkpt lat="43.029394758357235" lon="12.189272538356997"><ele>361.0</ele><time>2026-04-18T09:11:23Z</time></trkpt><trkpt lat="43.029310532603645" lon="12.189238762367134"><ele>361.0</ele><time>2026-04-18T09:11:24Z</time></trkpt><trkpt lat="43.02923640880138" lon="12.18918269390991"><ele>361.0</ele><time>2026-04-18T09:11:25Z</time></trkpt><trkpt lat="43.02917316209204" lon="12.189125895770172"><ele>361.0</ele><time>2026-04-18T09:11:26Z</time></trkpt><trkpt lat="43.02913109306741" lon="12.189050441329904"><ele>361.0</ele><time>2026-04-18T09:11:27Z</time></trkpt><trkpt lat="43.02904083389465" lon="12.188970556224177"><ele>357.0</ele><time>2026-04-18T09:11:29Z</time></trkpt><trkpt lat="43.0289735300439" lon="12.188951715433861"><ele>353.0</ele><time>2026-04-18T09:11:32Z</time></trkpt><trkpt lat="43.02895751685882" lon="12.189127620693757"><ele>349.0</ele><time>2026-04-18T09:11:33Z</time></trkpt><trkpt lat="43.0289793463766" lon="12.189253091998768"><ele>345.0</ele><time>2026-04-18T09:11:34Z</time></trkpt><trkpt lat="43.029006270739536" lon="12.189380525240185"><ele>341.0</ele><time>2026-04-18T09:11:35Z</time></trkpt><trkpt lat="43.029032455099205" lon="12.189495939151918"><ele>341.0</ele><time>2026-04-18T09:11:36Z</time></trkpt><trkpt lat="43.029057496197964" lon="12.189594904628173"><ele>341.0</ele><time>2026-04-18T09:11:37Z</time></trkpt><trkpt lat="43.02908258653392" lon="12.18968685144354"><ele>341.0</ele><time>2026-04-18T09:11:38Z</time></trkpt><trkpt lat="43.02911889023986" lon="12.18981274071218"><ele>341.0</ele><time>2026-04-18T09:11:39.999Z</time></trkpt><trkpt lat="43.02912688315992" lon="12.18994253880618"><ele>341.0</ele><time>2026-04-18T09:11:41.999Z</time></trkpt><trkpt lat="43.029077611802215" lon="12.190072577025173"><ele>341.0</ele><time>2026-04-18T09:11:43.999Z</time></trkpt><trkpt lat="43.02899791083717" lon="12.190138916841647"><ele>340.0</ele><time>2026-04-18T09:11:45.999Z</time></trkpt><trkpt lat="43.028901198143934" lon="12.190197437506848"><ele>339.0</ele><time>2026-04-18T09:11:47.999Z</time></trkpt><trkpt lat="43.02878793532866" lon="12.19016930367234"><ele>338.0</ele><time>2026-04-18T09:11:49.999Z</time></trkpt><trkpt lat="43.02872401725025" lon="12.190153348422804"><ele>337.0</ele><time>2026-04-18T09:11:50.999Z</time></trkpt><trkpt lat="43.0286034511256" lon="12.190118660002547"><ele>336.0</ele><time>2026-04-18T09:11:52.999Z</time></trkpt><trkpt lat="43.02853669476135" lon="12.190116360895093"><ele>336.0</ele><time>2026-04-18T09:11:53.999Z</time></trkpt><trkpt lat="43.02842403755105" lon="12.190079930328803"><ele>336.0</ele><time>2026-04-18T09:11:56Z</time></trkpt><trkpt lat="43.02829479797271" lon="12.19011578320573"><ele>336.0</ele><time>2026-04-18T09:11:58Z</time></trkpt><trkpt lat="43.02820831241801" lon="12.19009632887923"><ele>336.0</ele><time>2026-04-18T09:12:00Z</time></trkpt><trkpt lat="43.02813545226236" lon="12.190073403989516"><ele>336.0</ele><time>2026-04-18T09:12:01Z</time></trkpt><trkpt lat="43.02805101834283" lon="12.190003764339027"><ele>333.5</ele><time>2026-04-18T09:12:03Z</time></trkpt><trkpt lat="43.02798172151998" lon="12.189997782022699"><ele>331.0</ele><time>2026-04-18T09:12:05Z</time></trkpt><trkpt lat="43.02791461461875" lon="12.190060863729395"><ele>328.5</ele><time>2026-04-18T09:12:07Z</time></trkpt><trkpt lat="43.02780188343354" lon="12.190046826031287"><ele>326.0</ele><time>2026-04-18T09:12:10Z</time></trkpt><trkpt lat="43.02774456855594" lon="12.19001103449335"><ele>323.5</ele><time>2026-04-18T09:12:11Z</time></trkpt><trkpt lat="43.027678619520906" lon="12.189983868500596"><ele>321.0</ele><time>2026-04-18T09:12:12Z</time></trkpt><trkpt lat="43.02760142189361" lon="12.189948827405786"><ele>321.0</ele><time>2026-04-18T09:12:13Z</time></trkpt><trkpt lat="43.027538758404596" lon="12.189906323897517"><ele>321.0</ele><time>2026-04-18T09:12:14Z</time></trkpt><trkpt lat="43.02747904616987" lon="12.189861353253207"><ele>321.0</ele><time>2026-04-18T09:12:15Z</time></trkpt><trkpt lat="43.02740164785993" lon="12.189832302997436"><ele>321.0</ele><time>2026-04-18T09:12:16Z</time></trkpt><trkpt lat="43.02733163508983" lon="12.189811981481059"><ele>321.0</ele><time>2026-04-18T09:12:17Z</time></trkpt><trkpt lat="43.02721219550185" lon="12.189760547540304"><ele>321.0</ele><time>2026-04-18T09:12:19Z</time></trkpt><trkpt lat="43.02714124973552" lon="12.189721995964938"><ele>318.6666666666667</ele><time>2026-04-18T09:12:20Z</time></trkpt><trkpt lat="43.027063431923494" lon="12.1897010231613"><ele>316.3333333333333</ele><time>2026-04-18T09:12:21Z</time></trkpt><trkpt lat="43.026989179172034" lon="12.18968694829158"><ele>314.0</ele><time>2026-04-18T09:12:22Z</time></trkpt><trkpt lat="43.02690804466595" lon="12.189706283326322"><ele>311.66666666666663</ele><time>2026-04-18T09:12:23Z</time></trkpt><trkpt lat="43.02684095890951" lon="12.189696143773864"><ele>309.3333333333333</ele><time>2026-04-18T09:12:24Z</time></trkpt><trkpt lat="43.02675073918463" lon="12.189697585054002"><ele>307.0</ele><time>2026-04-18T09:12:26Z</time></trkpt><trkpt lat="43.026669334995276" lon="12.189779691975085"><ele>307.6</ele><time>2026-04-18T09:12:28Z</time></trkpt><trkpt lat="43.02664726119945" lon="12.189861937989948"><ele>308.2</ele><time>2026-04-18T09:12:29Z</time></trkpt><trkpt lat="43.0265491159002" lon="12.189913884604294"><ele>308.8</ele><time>2026-04-18T09:12:31Z</time></trkpt><trkpt lat="43.02643409503795" lon="12.189895097994077"><ele>309.4</ele><time>2026-04-18T09:12:33Z</time></trkpt><trkpt lat="43.02634057169452" lon="12.189893086618943"><ele>310.0</ele><time>2026-04-18T09:12:35Z</time></trkpt><trkpt lat="43.0262822144246" lon="12.189818950996356"><ele>307.5</ele><time>2026-04-18T09:12:37Z</time></trkpt><trkpt lat="43.0262631977483" lon="12.189706231158809"><ele>305.0</ele><time>2026-04-18T09:12:39Z</time></trkpt><trkpt lat="43.02624798853153" lon="12.189595351177704"><ele>302.5</ele><time>2026-04-18T09:12:41Z</time></trkpt><trkpt lat="43.026203704480416" lon="12.189533462120577"><ele>300.0</ele><time>2026-04-18T09:12:42Z</time></trkpt><trkpt lat="43.02615446795364" lon="12.18947404151563"><ele>297.5</ele><time>2026-04-18T09:12:44Z</time></trkpt><trkpt lat="43.02609462492793" lon="12.189410238493297"><ele>295.0</ele><time>2026-04-18T09:13:06Z</time></trkpt><trkpt lat="43.02600159021757" lon="12.189436675644387"><ele>295.0</ele><time>2026-04-18T09:13:08Z</time></trkpt><trkpt lat="43.0259323935656" lon="12.189494951874345"><ele>295.0</ele><time>2026-04-18T09:13:09Z</time></trkpt><trkpt lat="43.02585731701514" lon="12.189560592127613"><ele>295.0</ele><time>2026-04-18T09:13:10Z</time></trkpt><trkpt lat="43.02578617673806" lon="12.189628809267532"><ele>295.0</ele><time>2026-04-18T09:13:11Z</time></trkpt><trkpt lat="43.0257187777374" lon="12.189693539179144"><ele>295.0</ele><time>2026-04-18T09:13:12Z</time></trkpt><trkpt lat="43.02565574841103" lon="12.189750114135217"><ele>295.0</ele><time>2026-04-18T09:13:13Z</time></trkpt><trkpt lat="43.02558132919668" lon="12.189775132729807"><ele>294.42857142857144</ele><time>2026-04-18T09:13:14Z</time></trkpt><trkpt lat="43.02550986512385" lon="12.189821954319132"><ele>293.8571428571429</ele><time>2026-04-18T09:13:15Z</time></trkpt><trkpt lat="43.025463788307796" lon="12.189900429866196"><ele>293.2857142857143</ele><time>2026-04-18T09:13:16Z</time></trkpt><trkpt lat="43.02542844719565" lon="12.189972338332508"><ele>292.7142857142857</ele><time>2026-04-18T09:13:17Z</time></trkpt><trkpt lat="43.02541661606953" lon="12.190064048368537"><ele>292.1428571428571</ele><time>2026-04-18T09:13:18Z</time></trkpt><trkpt lat="43.02541877354715" lon="12.190166533621996"><ele>291.57142857142856</ele><time>2026-04-18T09:13:19Z</time></trkpt><trkpt lat="43.025431769877386" lon="12.190258984200693"><ele>291.0</ele><time>2026-04-18T09:13:20Z</time></trkpt><trkpt lat="43.02542407140812" lon="12.190361363856736"><ele>291.0</ele><time>2026-04-18T09:13:21Z</time></trkpt><trkpt lat="43.02543119685425" lon="12.190462138062331"><ele>291.0</ele><time>2026-04-18T09:13:22Z</time></trkpt><trkpt lat="43.02545051728059" lon="12.19054923816102"><ele>291.0</ele><time>2026-04-18T09:13:23Z</time></trkpt><trkpt lat="43.02544207394143" lon="12.190640117726305"><ele>291.0</ele><time>2026-04-18T09:13:24Z</time></trkpt><trkpt lat="43.0254490310419" lon="12.190726251883206"><ele>291.0</ele><time>2026-04-18T09:13:25Z</time></trkpt><trkpt lat="43.02544929761086" lon="12.190853819113551"><ele>291.0</ele><time>2026-04-18T09:13:27Z</time></trkpt><trkpt lat="43.02543850718694" lon="12.190960036464457"><ele>291.0</ele><time>2026-04-18T09:13:38Z</time></trkpt><trkpt lat="43.025598524522934" lon="12.190985058881564"><ele>291.1666666666667</ele><time>2026-04-18T09:13:39Z</time></trkpt><trkpt lat="43.02569233132636" lon="12.190989534660783"><ele>291.3333333333333</ele><time>2026-04-18T09:13:40Z</time></trkpt><trkpt lat="43.02576778561931" lon="12.191025669692197"><ele>291.5</ele><time>2026-04-18T09:13:41Z</time></trkpt><trkpt lat="43.02587988390122" lon="12.191085376045985"><ele>291.66666666666663</ele><time>2026-04-18T09:13:43Z</time></trkpt><trkpt lat="43.025938680424204" lon="12.191122991231822"><ele>291.8333333333333</ele><time>2026-04-18T09:13:44Z</time></trkpt><trkpt lat="43.02600100199086" lon="12.191180653202386"><ele>292.0</ele><time>2026-04-18T09:13:44.999Z</time></trkpt><trkpt lat="43.02606861409163" lon="12.191263215202099"><ele>292.0</ele><time>2026-04-18T09:13:45.999Z</time></trkpt><trkpt lat="43.02614212582548" lon="12.191348715172765"><ele>292.0</ele><time>2026-04-18T09:13:46.999Z</time></trkpt><trkpt lat="43.026206916366924" lon="12.191450946504649"><ele>292.0</ele><time>2026-04-18T09:13:47.999Z</time></trkpt><trkpt lat="43.02626446267296" lon="12.191554401535528"><ele>292.0</ele><time>2026-04-18T09:13:48.999Z</time></trkpt><trkpt lat="43.0263161811736" lon="12.191651856593625"><ele>292.0</ele><time>2026-04-18T09:13:49.999Z</time></trkpt><trkpt lat="43.02637099650971" lon="12.191746238767795"><ele>291.8</ele><time>2026-04-18T09:13:50.999Z</time></trkpt><trkpt lat="43.02643798726395" lon="12.191848521708451"><ele>291.6</ele><time>2026-04-18T09:13:51.999Z</time></trkpt><trkpt lat="43.026529253780836" lon="12.191932941351073"><ele>291.40000000000003</ele><time>2026-04-18T09:13:52.999Z</time></trkpt><trkpt lat="43.02663092161068" lon="12.191991587315677"><ele>291.2</ele><time>2026-04-18T09:13:54Z</time></trkpt><trkpt lat="43.02672097960818" lon="12.192050289324019"><ele>291.0</ele><time>2026-04-18T09:13:55Z</time></trkpt><trkpt lat="43.02680219940547" lon="12.19212370934803"><ele>291.0</ele><time>2026-04-18T09:13:56Z</time></trkpt><trkpt lat="43.02687185941681" lon="12.192202657278058"><ele>291.0</ele><time>2026-04-18T09:13:57Z</time></trkpt><trkpt lat="43.02694221596569" lon="12.192285161344232"><ele>291.0</ele><time>2026-04-18T09:13:58Z</time></trkpt><trkpt lat="43.02701076109719" lon="12.19237583832519"><ele>291.0</ele><time>2026-04-18T09:13:59Z</time></trkpt><trkpt lat="43.02707935205958" lon="12.192486918026342"><ele>291.0</ele><time>2026-04-18T09:14:00Z</time></trkpt><trkpt lat="43.02714137038483" lon="12.192628417010253"><ele>289.0</ele><time>2026-04-18T09:14:01Z</time></trkpt><trkpt lat="43.0271820532541" lon="12.192753361015415"><ele>287.0</ele><time>2026-04-18T09:14:02Z</time></trkpt><trkpt lat="43.027213621903044" lon="12.192850345363764"><ele>285.0</ele><time>2026-04-18T09:14:03Z</time></trkpt><trkpt lat="43.027273444334334" lon="12.193013498374173"><ele>283.0</ele><time>2026-04-18T09:14:05Z</time></trkpt><trkpt lat="43.02730045248187" lon="12.193107041497061"><ele>281.0</ele><time>2026-04-18T09:14:06Z</time></trkpt><trkpt lat="43.02731671610623" lon="12.193206696775585"><ele>280.33333333333337</ele><time>2026-04-18T09:14:07Z</time></trkpt><trkpt lat="43.02731909241597" lon="12.193305301170925"><ele>279.6666666666667</ele><time>2026-04-18T09:14:08Z</time></trkpt><trkpt lat="43.027311112409194" lon="12.193408877320916"><ele>279.0</ele><time>2026-04-18T09:14:09Z</time></trkpt><trkpt lat="43.02730298199005" lon="12.193523013204869"><ele>278.3333333333333</ele><time>2026-04-18T09:14:10Z</time></trkpt><trkpt lat="43.02730221413765" lon="12.193644973316683"><ele>277.66666666666663</ele><time>2026-04-18T09:14:11Z</time></trkpt><trkpt lat="43.027309882621395" lon="12.19378441859109"><ele>277.0</ele><time>2026-04-18T09:14:12Z</time></trkpt><trkpt lat="43.027325820267265" lon="12.193918881831314"><ele>276.6</ele><time>2026-04-18T09:14:13Z</time></trkpt><trkpt lat="43.02735388873602" lon="12.194044733928235"><ele>276.2</ele><time>2026-04-18T09:14:14Z</time></trkpt><trkpt lat="43.02739274817647" lon="12.194173381151295"><ele>275.8</ele><time>2026-04-18T09:14:15Z</time></trkpt><trkpt lat="43.027441670606734" lon="12.194300332746447"><ele>275.4</ele><time>2026-04-18T09:14:16Z</time></trkpt><trkpt lat="43.02751065676776" lon="12.194433897003078"><ele>275.0</ele><time>2026-04-18T09:14:17Z</time></trkpt><trkpt lat="43.02760098330639" lon="12.194562635055844"><ele>275.0</ele><time>2026-04-18T09:14:18Z</time></trkpt><trkpt lat="43.02769534702886" lon="12.194683628317705"><ele>275.0</ele><time>2026-04-18T09:14:19Z</time></trkpt><trkpt lat="43.02778020834437" lon="12.19479714736873"><ele>275.0</ele><time>2026-04-18T09:14:20Z</time></trkpt><trkpt lat="43.02786678827166" lon="12.194911737984427"><ele>275.0</ele><time>2026-04-18T09:14:21Z</time></trkpt><trkpt lat="43.02796777823974" lon="12.195011282993342"><ele>274.6</ele><time>2026-04-18T09:14:22Z</time></trkpt><trkpt lat="43.02808092436076" lon="12.195090676059108"><ele>274.2</ele><time>2026-04-18T09:14:23Z</time></trkpt><trkpt lat="43.02818611747369" lon="12.19516325765895"><ele>273.8</ele><time>2026-04-18T09:14:24Z</time></trkpt><trkpt lat="43.028279110241876" lon="12.195235164338483"><ele>273.4</ele><time>2026-04-18T09:14:25Z</time></trkpt><trkpt lat="43.02836490631677" lon="12.195293306065448"><ele>273.0</ele><time>2026-04-18T09:14:26Z</time></trkpt><trkpt lat="43.02845508459885" lon="12.195363001692002"><ele>271.5</ele><time>2026-04-18T09:14:27Z</time></trkpt><trkpt lat="43.02854399651532" lon="12.195447074069147"><ele>270.0</ele><time>2026-04-18T09:14:28Z</time></trkpt><trkpt lat="43.028645602045984" lon="12.19555911351517"><ele>268.5</ele><time>2026-04-18T09:14:29Z</time></trkpt><trkpt lat="43.028741676819614" lon="12.195698772285963"><ele>267.0</ele><time>2026-04-18T09:14:30Z</time></trkpt><trkpt lat="43.028835418146386" lon="12.195843442282545"><ele>265.5</ele><time>2026-04-18T09:14:31Z</time></trkpt><trkpt lat="43.028923905300246" lon="12.195982887861186"><ele>264.0</ele><time>2026-04-18T09:14:32Z</time></trkpt><trkpt lat="43.02900198896837" lon="12.196116847373759"><ele>262.5</ele><time>2026-04-18T09:14:33Z</time></trkpt><trkpt lat="43.02908518766593" lon="12.196256622591934"><ele>261.0</ele><time>2026-04-18T09:14:34Z</time></trkpt><trkpt lat="43.02917716994088" lon="12.196399418773249"><ele>259.75</ele><time>2026-04-18T09:14:35Z</time></trkpt><trkpt lat="43.02926115772492" lon="12.196531507230123"><ele>258.5</ele><time>2026-04-18T09:14:36Z</time></trkpt><trkpt lat="43.02933983631952" lon="12.19666132689381"><ele>257.25</ele><time>2026-04-18T09:14:37Z</time></trkpt><trkpt lat="43.02942519830912" lon="12.196795447740337"><ele>256.0</ele><time>2026-04-18T09:14:38Z</time></trkpt><trkpt lat="43.029513476633056" lon="12.196929182937517"><ele>256.0</ele><time>2026-04-18T09:14:39Z</time></trkpt><trkpt lat="43.02959851388211" lon="12.197060514911671"><ele>256.0</ele><time>2026-04-18T09:14:40Z</time></trkpt><trkpt lat="43.029681605206456" lon="12.197189019896378"><ele>256.0</ele><time>2026-04-18T09:14:41Z</time></trkpt><trkpt lat="43.02977143855606" lon="12.197318691240328"><ele>256.0</ele><time>2026-04-18T09:14:42Z</time></trkpt><trkpt lat="43.02986547007378" lon="12.197451691353448"><ele>255.5</ele><time>2026-04-18T09:14:43Z</time></trkpt><trkpt lat="43.029955699269124" lon="12.197596261965119"><ele>255.0</ele><time>2026-04-18T09:14:44Z</time></trkpt><trkpt lat="43.03005257961374" lon="12.197741105997506"><ele>254.5</ele><time>2026-04-18T09:14:45Z</time></trkpt><trkpt lat="43.03015891040486" lon="12.19788611082835"><ele>254.0</ele><time>2026-04-18T09:14:46Z</time></trkpt><trkpt lat="43.03026610352094" lon="12.198036274429054"><ele>253.33333333333334</ele><time>2026-04-18T09:14:47Z</time></trkpt><trkpt lat="43.030373413067686" lon="12.1981877795076"><ele>252.66666666666669</ele><time>2026-04-18T09:14:48Z</time></trkpt><trkpt lat="43.03048276917994" lon="12.19833643216518"><ele>252.0</ele><time>2026-04-18T09:14:49Z</time></trkpt><trkpt lat="43.030592042051" lon="12.198486534258702"><ele>252.0</ele><time>2026-04-18T09:14:50Z</time></trkpt><trkpt lat="43.03069841857118" lon="12.198643092313452"><ele>252.0</ele><time>2026-04-18T09:14:51Z</time></trkpt><trkpt lat="43.030803047941546" lon="12.198802917781695"><ele>252.0</ele><time>2026-04-18T09:14:52Z</time></trkpt><trkpt lat="43.03091164683849" lon="12.198959296102128"><ele>252.0</ele><time>2026-04-18T09:14:53Z</time></trkpt><trkpt lat="43.03102668237801" lon="12.19911344110925"><ele>252.0</ele><time>2026-04-18T09:14:54Z</time></trkpt><trkpt lat="43.031138958698136" lon="12.19925884026608"><ele>252.0</ele><time>2026-04-18T09:14:55Z</time></trkpt><trkpt lat="43.031240835229816" lon="12.199387640852152"><ele>252.0</ele><time>2026-04-18T09:14:56Z</time></trkpt><trkpt lat="43.031336593436386" lon="12.19949665597795"><ele>252.0</ele><time>2026-04-18T09:14:57Z</time></trkpt><trkpt lat="43.031437061816156" lon="12.199605662574202"><ele>252.0</ele><time>2026-04-18T09:14:58Z</time></trkpt><trkpt lat="43.03154225036318" lon="12.199713522786226"><ele>252.0</ele><time>2026-04-18T09:14:59Z</time></trkpt><trkpt lat="43.031654255492604" lon="12.199822079422967"><ele>252.25</ele><time>2026-04-18T09:15:00Z</time></trkpt><trkpt lat="43.031770366090896" lon="12.199928489539076"><ele>252.5</ele><time>2026-04-18T09:15:01Z</time></trkpt><trkpt lat="43.03188442409096" lon="12.200030812536202"><ele>252.75</ele><time>2026-04-18T09:15:02Z</time></trkpt><trkpt lat="43.0319879072358" lon="12.200125959854617"><ele>253.0</ele><time>2026-04-18T09:15:03Z</time></trkpt><trkpt lat="43.032087295213266" lon="12.20021454787876"><ele>253.0</ele><time>2026-04-18T09:15:04Z</time></trkpt><trkpt lat="43.032183324690955" lon="12.200298953941022"><ele>253.0</ele><time>2026-04-18T09:15:05Z</time></trkpt><trkpt lat="43.0322733141853" lon="12.200381098000342"><ele>253.0</ele><time>2026-04-18T09:15:06Z</time></trkpt><trkpt lat="43.03235757913162" lon="12.200462373401106"><ele>253.0</ele><time>2026-04-18T09:15:07Z</time></trkpt><trkpt lat="43.032439459365094" lon="12.200539750520727"><ele>253.0</ele><time>2026-04-18T09:15:08Z</time></trkpt><trkpt lat="43.03251797242535" lon="12.200610729773226"><ele>252.66666666666666</ele><time>2026-04-18T09:15:09Z</time></trkpt><trkpt lat="43.03259470749765" lon="12.200672623283989"><ele>252.33333333333331</ele><time>2026-04-18T09:15:10Z</time></trkpt><trkpt lat="43.032659199652436" lon="12.200731998762075"><ele>252.0</ele><time>2026-04-18T09:15:11Z</time></trkpt><trkpt lat="43.032722195440094" lon="12.200790833959125"><ele>251.66666666666669</ele><time>2026-04-18T09:15:12Z</time></trkpt><trkpt lat="43.032783867815795" lon="12.200834862363566"><ele>251.33333333333334</ele><time>2026-04-18T09:15:13Z</time></trkpt><trkpt lat="43.03287473383505" lon="12.200906811871105"><ele>251.0</ele><time>2026-04-18T09:15:15Z</time></trkpt><trkpt lat="43.0329417245069" lon="12.200954244696884"><ele>251.00000000000003</ele><time>2026-04-18T09:15:17Z</time></trkpt><trkpt lat="43.03300486122726" lon="12.200989783322976"><ele>251.0</ele><time>2026-04-18T09:15:19Z</time></trkpt><trkpt lat="43.033064671498444" lon="12.20101846561798"><ele>251.0</ele><time>2026-04-18T09:15:20Z</time></trkpt><trkpt lat="43.0331454141208" lon="12.201069179771673"><ele>251.0</ele><time>2026-04-18T09:15:21Z</time></trkpt><trkpt lat="43.0332399706518" lon="12.201120742505097"><ele>251.00000000000003</ele><time>2026-04-18T09:15:22Z</time></trkpt><trkpt lat="43.03334905474712" lon="12.201182186034474"><ele>251.0</ele><time>2026-04-18T09:15:23Z</time></trkpt><trkpt lat="43.033467030286886" lon="12.201245712095211"><ele>251.0</ele><time>2026-04-18T09:15:24Z</time></trkpt><trkpt lat="43.03358788165586" lon="12.201316852994028"><ele>251.0</ele><time>2026-04-18T09:15:25Z</time></trkpt><trkpt lat="43.03370645241984" lon="12.201385081607834"><ele>251.0</ele><time>2026-04-18T09:15:26Z</time></trkpt><trkpt lat="43.033824968605586" lon="12.201454840913582"><ele>251.0</ele><time>2026-04-18T09:15:27Z</time></trkpt><trkpt lat="43.03394777671947" lon="12.201519674619428"><ele>250.75</ele><time>2026-04-18T09:15:28Z</time></trkpt><trkpt lat="43.03407048676465" lon="12.201587226318743"><ele>250.5</ele><time>2026-04-18T09:15:29Z</time></trkpt><trkpt lat="43.03419456174127" lon="12.20166844403646"><ele>250.25</ele><time>2026-04-18T09:15:30Z</time></trkpt><trkpt lat="43.034325075281174" lon="12.201741978748716"><ele>250.0</ele><time>2026-04-18T09:15:31Z</time></trkpt><trkpt lat="43.034463100274536" lon="12.201820393211888"><ele>249.0</ele><time>2026-04-18T09:15:32Z</time></trkpt><trkpt lat="43.03460241377266" lon="12.20191860205659"><ele>248.0</ele><time>2026-04-18T09:15:33Z</time></trkpt><trkpt lat="43.03473834517647" lon="12.202020534752926"><ele>247.0</ele><time>2026-04-18T09:15:34Z</time></trkpt><trkpt lat="43.03486914540609" lon="12.202123385636744"><ele>247.5</ele><time>2026-04-18T09:15:35Z</time></trkpt><trkpt lat="43.0349880260242" lon="12.202222492548133"><ele>248.0</ele><time>2026-04-18T09:15:36Z</time></trkpt><trkpt lat="43.03510529870611" lon="12.202311290521353"><ele>248.5</ele><time>2026-04-18T09:15:37Z</time></trkpt><trkpt lat="43.03521472475916" lon="12.202397261631951"><ele>249.0</ele><time>2026-04-18T09:15:38Z</time></trkpt><trkpt lat="43.03531661172153" lon="12.202482169191624"><ele>248.2</ele><time>2026-04-18T09:15:39Z</time></trkpt><trkpt lat="43.035414215698474" lon="12.202559914595247"><ele>247.39999999999998</ele><time>2026-04-18T09:15:40Z</time></trkpt><trkpt lat="43.03549886159958" lon="12.202635401829887"><ele>246.6</ele><time>2026-04-18T09:15:41Z</time></trkpt><trkpt lat="43.035580444228735" lon="12.202699652200003"><ele>245.8</ele><time>2026-04-18T09:15:42Z</time></trkpt><trkpt lat="43.03565461172729" lon="12.202762668509562"><ele>245.0</ele><time>2026-04-18T09:15:43Z</time></trkpt><trkpt lat="43.03578439342572" lon="12.20284990571721"><ele>245.2</ele><time>2026-04-18T09:15:44Z</time></trkpt><trkpt lat="43.03586087388415" lon="12.20290762926148"><ele>245.4</ele><time>2026-04-18T09:15:45Z</time></trkpt><trkpt lat="43.03595813038767" lon="12.202974494581792"><ele>245.60000000000002</ele><time>2026-04-18T09:15:46Z</time></trkpt><trkpt lat="43.03606619828601" lon="12.203040094509902"><ele>245.8</ele><time>2026-04-18T09:15:47Z</time></trkpt><trkpt lat="43.03616309442748" lon="12.203097591809783"><ele>246.0</ele><time>2026-04-18T09:15:48Z</time></trkpt><trkpt lat="43.036259763986145" lon="12.203150896887534"><ele>244.75</ele><time>2026-04-18T09:15:49Z</time></trkpt><trkpt lat="43.036368768595054" lon="12.203192522383693"><ele>243.5</ele><time>2026-04-18T09:15:50Z</time></trkpt><trkpt lat="43.03648895106155" lon="12.203237765229494"><ele>242.25</ele><time>2026-04-18T09:15:50.999Z</time></trkpt><trkpt lat="43.03661384799804" lon="12.203281901812277"><ele>241.0</ele><time>2026-04-18T09:15:51.999Z</time></trkpt><trkpt lat="43.036740693829685" lon="12.203329151687205"><ele>241.0</ele><time>2026-04-18T09:15:52.999Z</time></trkpt><trkpt lat="43.03686857985722" lon="12.203378067796361"><ele>241.0</ele><time>2026-04-18T09:15:53.999Z</time></trkpt><trkpt lat="43.037007721620824" lon="12.20342078626973"><ele>241.0</ele><time>2026-04-18T09:15:54.999Z</time></trkpt><trkpt lat="43.0371368081523" lon="12.203469759762092"><ele>241.0</ele><time>2026-04-18T09:15:55.999Z</time></trkpt><trkpt lat="43.0372671984944" lon="12.20352519588899"><ele>241.0</ele><time>2026-04-18T09:15:56.999Z</time></trkpt><trkpt lat="43.0374075090003" lon="12.203578033358069"><ele>241.0</ele><time>2026-04-18T09:15:57.999Z</time></trkpt><trkpt lat="43.037544915424114" lon="12.203636128451988"><ele>241.0</ele><time>2026-04-18T09:15:58.999Z</time></trkpt><trkpt lat="43.037680275944794" lon="12.20368782140065"><ele>241.0</ele><time>2026-04-18T09:15:59.999Z</time></trkpt><trkpt lat="43.03782645923622" lon="12.203750391422595"><ele>240.66666666666666</ele><time>2026-04-18T09:16:00.999Z</time></trkpt><trkpt lat="43.03797807936029" lon="12.203812565386299"><ele>240.33333333333331</ele><time>2026-04-18T09:16:01.999Z</time></trkpt><trkpt lat="43.03813445284535" lon="12.203876256871629"><ele>240.0</ele><time>2026-04-18T09:16:02.999Z</time></trkpt><trkpt lat="43.03829066268855" lon="12.203940482277089"><ele>239.66666666666669</ele><time>2026-04-18T09:16:03.999Z</time></trkpt><trkpt lat="43.03845230901733" lon="12.204000186414758"><ele>239.33333333333334</ele><time>2026-04-18T09:16:04.999Z</time></trkpt><trkpt lat="43.038606852730005" lon="12.204063474391846"><ele>239.0</ele><time>2026-04-18T09:16:06Z</time></trkpt><trkpt lat="43.038761082962026" lon="12.204128582615304"><ele>239.0</ele><time>2026-04-18T09:16:07Z</time></trkpt><trkpt lat="43.03891384167148" lon="12.20419223813336"><ele>239.0</ele><time>2026-04-18T09:16:08Z</time></trkpt><trkpt lat="43.0390699888228" lon="12.204254330729329"><ele>239.0</ele><time>2026-04-18T09:16:09Z</time></trkpt><trkpt lat="43.03922188267282" lon="12.204318629096411"><ele>239.33333333333334</ele><time>2026-04-18T09:16:10Z</time></trkpt><trkpt lat="43.03937389926815" lon="12.20438156354112"><ele>239.66666666666669</ele><time>2026-04-18T09:16:11Z</time></trkpt><trkpt lat="43.03952822210878" lon="12.204445438669968"><ele>240.0</ele><time>2026-04-18T09:16:12Z</time></trkpt><trkpt lat="43.03968154323967" lon="12.204506524816797"><ele>240.0</ele><time>2026-04-18T09:16:13Z</time></trkpt><trkpt lat="43.03983233386115" lon="12.204565115462973"><ele>240.0</ele><time>2026-04-18T09:16:14Z</time></trkpt><trkpt lat="43.039982645831074" lon="12.20462411191549"><ele>240.0</ele><time>2026-04-18T09:16:15Z</time></trkpt><trkpt lat="43.04012053989391" lon="12.204680924064416"><ele>240.33333333333331</ele><time>2026-04-18T09:16:16Z</time></trkpt><trkpt lat="43.04026311816988" lon="12.204739641615276"><ele>240.66666666666666</ele><time>2026-04-18T09:16:17Z</time></trkpt><trkpt lat="43.04040858524576" lon="12.204794093526091"><ele>241.0</ele><time>2026-04-18T09:16:18Z</time></trkpt><trkpt lat="43.04055776685147" lon="12.204861369182657"><ele>240.25</ele><time>2026-04-18T09:16:19Z</time></trkpt><trkpt lat="43.04070159859183" lon="12.204919768203618"><ele>239.5</ele><time>2026-04-18T09:16:20Z</time></trkpt><trkpt lat="43.04084034628177" lon="12.204971459499628"><ele>238.75</ele><time>2026-04-18T09:16:21Z</time></trkpt><trkpt lat="43.04097710709299" lon="12.205023646721008"><ele>238.0</ele><time>2026-04-18T09:16:22Z</time></trkpt><trkpt lat="43.04111317428735" lon="12.205079146426538"><ele>238.0</ele><time>2026-04-18T09:16:23Z</time></trkpt><trkpt lat="43.04124963222102" lon="12.205140339208556"><ele>238.0</ele><time>2026-04-18T09:16:24Z</time></trkpt><trkpt lat="43.04138943474801" lon="12.20520044116161"><ele>238.0</ele><time>2026-04-18T09:16:25Z</time></trkpt><trkpt lat="43.04153717494794" lon="12.20526084616099"><ele>238.0</ele><time>2026-04-18T09:16:26Z</time></trkpt><trkpt lat="43.04168872359189" lon="12.205325645637535"><ele>237.0</ele><time>2026-04-18T09:16:27Z</time></trkpt><trkpt lat="43.04184277444116" lon="12.205405892700853"><ele>236.0</ele><time>2026-04-18T09:16:28Z</time></trkpt><trkpt lat="43.04199824227454" lon="12.205499137406338"><ele>235.0</ele><time>2026-04-18T09:16:29Z</time></trkpt><trkpt lat="43.042153555737166" lon="12.205594586999506"><ele>235.0</ele><time>2026-04-18T09:16:30Z</time></trkpt><trkpt lat="43.042298893116275" lon="12.205682675902892"><ele>235.0</ele><time>2026-04-18T09:16:31Z</time></trkpt><trkpt lat="43.04244221346706" lon="12.205770238689986"><ele>235.0</ele><time>2026-04-18T09:16:32Z</time></trkpt><trkpt lat="43.04258507401822" lon="12.20586101480192"><ele>234.33333333333331</ele><time>2026-04-18T09:16:33Z</time></trkpt><trkpt lat="43.042731623353255" lon="12.205952025250625"><ele>233.66666666666669</ele><time>2026-04-18T09:16:34Z</time></trkpt><trkpt lat="43.042884710454786" lon="12.206042680403487"><ele>233.0</ele><time>2026-04-18T09:16:35Z</time></trkpt><trkpt lat="43.04303322603456" lon="12.206129092455404"><ele>233.0</ele><time>2026-04-18T09:16:36Z</time></trkpt><trkpt lat="43.04317372024323" lon="12.206210485800616"><ele>233.0</ele><time>2026-04-18T09:16:37Z</time></trkpt><trkpt lat="43.04330690755483" lon="12.206286073214422"><ele>233.0</ele><time>2026-04-18T09:16:38Z</time></trkpt><trkpt lat="43.043436780466614" lon="12.206359840407718"><ele>233.0</ele><time>2026-04-18T09:16:39Z</time></trkpt><trkpt lat="43.04356377145941" lon="12.206433482372017"><ele>232.5</ele><time>2026-04-18T09:16:40Z</time></trkpt><trkpt lat="43.04368611010434" lon="12.20651108144603"><ele>232.0</ele><time>2026-04-18T09:16:41Z</time></trkpt><trkpt lat="43.04381363917775" lon="12.20660132048006"><ele>231.5</ele><time>2026-04-18T09:16:42Z</time></trkpt><trkpt lat="43.043952442074506" lon="12.20668436155783"><ele>231.0</ele><time>2026-04-18T09:16:43Z</time></trkpt><trkpt lat="43.044099424182505" lon="12.206751541874171"><ele>231.0</ele><time>2026-04-18T09:16:44Z</time></trkpt><trkpt lat="43.04423821530875" lon="12.206852961860129"><ele>231.0</ele><time>2026-04-18T09:16:45Z</time></trkpt><trkpt lat="43.044382119217694" lon="12.20693644145991"><ele>231.0</ele><time>2026-04-18T09:16:46Z</time></trkpt><trkpt lat="43.04453137527581" lon="12.207019840644431"><ele>231.0</ele><time>2026-04-18T09:16:47Z</time></trkpt><trkpt lat="43.0446771192961" lon="12.207104034099494"><ele>231.0</ele><time>2026-04-18T09:16:48Z</time></trkpt><trkpt lat="43.04481282597922" lon="12.207181714404795"><ele>231.0</ele><time>2026-04-18T09:16:49Z</time></trkpt><trkpt lat="43.044944579866396" lon="12.207257522158606"><ele>231.0</ele><time>2026-04-18T09:16:50Z</time></trkpt><trkpt lat="43.0450845746966" lon="12.207342338713417"><ele>231.0</ele><time>2026-04-18T09:16:51Z</time></trkpt><trkpt lat="43.045224506539164" lon="12.207432876405235"><ele>231.0</ele><time>2026-04-18T09:16:52Z</time></trkpt><trkpt lat="43.045370547904575" lon="12.207520103202672"><ele>231.0</ele><time>2026-04-18T09:16:53Z</time></trkpt><trkpt lat="43.04551870126677" lon="12.207606134785685"><ele>231.0</ele><time>2026-04-18T09:16:54Z</time></trkpt><trkpt lat="43.0456678682028" lon="12.20769527847557"><ele>231.0</ele><time>2026-04-18T09:16:55Z</time></trkpt><trkpt lat="43.04581883486729" lon="12.2077870869774"><ele>231.0</ele><time>2026-04-18T09:16:56Z</time></trkpt><trkpt lat="43.04597341516679" lon="12.207879053906835"><ele>232.0</ele><time>2026-04-18T09:16:57Z</time></trkpt><trkpt lat="43.04612081314842" lon="12.207962662933634"><ele>233.0</ele><time>2026-04-18T09:16:58Z</time></trkpt><trkpt lat="43.04626309709503" lon="12.208042730721116"><ele>234.0</ele><time>2026-04-18T09:16:59Z</time></trkpt><trkpt lat="43.04639670219866" lon="12.208123919467234"><ele>234.0</ele><time>2026-04-18T09:17:00Z</time></trkpt><trkpt lat="43.04652696346373" lon="12.208204764158188"><ele>234.0</ele><time>2026-04-18T09:17:01Z</time></trkpt><trkpt lat="43.046659308903266" lon="12.208287280725948"><ele>234.0</ele><time>2026-04-18T09:17:02Z</time></trkpt><trkpt lat="43.04679276886394" lon="12.208374505338925"><ele>234.0</ele><time>2026-04-18T09:17:03Z</time></trkpt><trkpt lat="43.046924520181975" lon="12.208470825839747"><ele>234.33333333333331</ele><time>2026-04-18T09:17:04Z</time></trkpt><trkpt lat="43.04705658717726" lon="12.208572532462819"><ele>234.66666666666666</ele><time>2026-04-18T09:17:05Z</time></trkpt><trkpt lat="43.04718718696554" lon="12.208679518991547"><ele>235.0</ele><time>2026-04-18T09:17:06Z</time></trkpt><trkpt lat="43.04732075251746" lon="12.208789354434048"><ele>235.0</ele><time>2026-04-18T09:17:07Z</time></trkpt><trkpt lat="43.04745325429859" lon="12.208897685813758"><ele>235.0</ele><time>2026-04-18T09:17:08Z</time></trkpt><trkpt lat="43.04758862328403" lon="12.209008556404598"><ele>235.0</ele><time>2026-04-18T09:17:09Z</time></trkpt><trkpt lat="43.047721610671495" lon="12.20911803978487"><ele>235.0</ele><time>2026-04-18T09:17:10Z</time></trkpt><trkpt lat="43.04785046111594" lon="12.209222914542412"><ele>235.0</ele><time>2026-04-18T09:17:11Z</time></trkpt><trkpt lat="43.04797549821234" lon="12.209318632588866"><ele>235.0</ele><time>2026-04-18T09:17:12Z</time></trkpt><trkpt lat="43.048096419838345" lon="12.209409411577687"><ele>235.0</ele><time>2026-04-18T09:17:13Z</time></trkpt><trkpt lat="43.0482111391013" lon="12.209499941929057"><ele>235.25</ele><time>2026-04-18T09:17:14Z</time></trkpt><trkpt lat="43.048324591509285" lon="12.209587397423418"><ele>235.5</ele><time>2026-04-18T09:17:15Z</time></trkpt><trkpt lat="43.048441059351674" lon="12.209679134291877"><ele>235.75</ele><time>2026-04-18T09:17:16Z</time></trkpt><trkpt lat="43.04856392627034" lon="12.209780174776824"><ele>236.0</ele><time>2026-04-18T09:17:17Z</time></trkpt><trkpt lat="43.048699751675734" lon="12.209891115528968"><ele>235.33333333333334</ele><time>2026-04-18T09:17:18Z</time></trkpt><trkpt lat="43.048849469838416" lon="12.210007748214101"><ele>234.66666666666669</ele><time>2026-04-18T09:17:19Z</time></trkpt><trkpt lat="43.04899630029313" lon="12.210123698129486"><ele>234.0</ele><time>2026-04-18T09:17:20Z</time></trkpt><trkpt lat="43.049133245814325" lon="12.210231482730416"><ele>233.75</ele><time>2026-04-18T09:17:21Z</time></trkpt><trkpt lat="43.04925245347993" lon="12.210328520125543"><ele>233.5</ele><time>2026-04-18T09:17:22Z</time></trkpt><trkpt lat="43.04935673143619" lon="12.2104120712336"><ele>233.25</ele><time>2026-04-18T09:17:23Z</time></trkpt><trkpt lat="43.049455359131805" lon="12.210493012412476"><ele>233.0</ele><time>2026-04-18T09:17:24Z</time></trkpt><trkpt lat="43.049555266321605" lon="12.210574607809212"><ele>232.5</ele><time>2026-04-18T09:17:25Z</time></trkpt><trkpt lat="43.04964889466544" lon="12.210660494528996"><ele>232.0</ele><time>2026-04-18T09:17:26Z</time></trkpt><trkpt lat="43.04974868574971" lon="12.210753305225603"><ele>231.5</ele><time>2026-04-18T09:17:27Z</time></trkpt><trkpt lat="43.049846207716904" lon="12.210848436348885"><ele>231.0</ele><time>2026-04-18T09:17:28Z</time></trkpt><trkpt lat="43.049937716914016" lon="12.210946298786855"><ele>231.25</ele><time>2026-04-18T09:17:29Z</time></trkpt><trkpt lat="43.050030499868406" lon="12.211050442390762"><ele>231.5</ele><time>2026-04-18T09:17:30Z</time></trkpt><trkpt lat="43.050122883235275" lon="12.211149880092126"><ele>231.75</ele><time>2026-04-18T09:17:31Z</time></trkpt><trkpt lat="43.0502140991415" lon="12.211243541309061"><ele>232.0</ele><time>2026-04-18T09:17:32Z</time></trkpt><trkpt lat="43.050306895794805" lon="12.211336144569731"><ele>232.0</ele><time>2026-04-18T09:17:33Z</time></trkpt><trkpt lat="43.05039122096617" lon="12.211425489504906"><ele>232.0</ele><time>2026-04-18T09:17:34Z</time></trkpt><trkpt lat="43.05047756306275" lon="12.211518797972774"><ele>232.0</ele><time>2026-04-18T09:17:35Z</time></trkpt><trkpt lat="43.050564620432915" lon="12.211619112296177"><ele>232.0</ele><time>2026-04-18T09:17:36Z</time></trkpt><trkpt lat="43.05067079541229" lon="12.211728724063892"><ele>231.5</ele><time>2026-04-18T09:17:37Z</time></trkpt><trkpt lat="43.050778667257035" lon="12.211845390388985"><ele>231.0</ele><time>2026-04-18T09:17:38Z</time></trkpt><trkpt lat="43.05088913804178" lon="12.211963270186384"><ele>230.5</ele><time>2026-04-18T09:17:39Z</time></trkpt><trkpt lat="43.05101049164189" lon="12.21208927237685"><ele>230.0</ele><time>2026-04-18T09:17:40Z</time></trkpt><trkpt lat="43.05113057149239" lon="12.212219437837287"><ele>229.75</ele><time>2026-04-18T09:17:41Z</time></trkpt><trkpt lat="43.05124785034108" lon="12.212349791060912"><ele>229.5</ele><time>2026-04-18T09:17:42Z</time></trkpt><trkpt lat="43.051364564090406" lon="12.212481069017462"><ele>229.25</ele><time>2026-04-18T09:17:43Z</time></trkpt><trkpt lat="43.051478528289415" lon="12.212603777913651"><ele>229.0</ele><time>2026-04-18T09:17:44Z</time></trkpt><trkpt lat="43.05159300482179" lon="12.212730011000911"><ele>228.75</ele><time>2026-04-18T09:17:45Z</time></trkpt><trkpt lat="43.05170946752085" lon="12.212849905512936"><ele>228.5</ele><time>2026-04-18T09:17:46Z</time></trkpt><trkpt lat="43.05182676506928" lon="12.21297282630118"><ele>228.25</ele><time>2026-04-18T09:17:47Z</time></trkpt><trkpt lat="43.05194102664198" lon="12.213098125684542"><ele>228.0</ele><time>2026-04-18T09:17:48Z</time></trkpt><trkpt lat="43.052055063124634" lon="12.213225517519433"><ele>228.0</ele><time>2026-04-18T09:17:49Z</time></trkpt><trkpt lat="43.05217523308678" lon="12.213350528190704"><ele>228.0</ele><time>2026-04-18T09:17:50Z</time></trkpt><trkpt lat="43.052297072402084" lon="12.213471290959662"><ele>228.0</ele><time>2026-04-18T09:17:51Z</time></trkpt><trkpt lat="43.05241909432825" lon="12.21359150396157"><ele>228.0</ele><time>2026-04-18T09:17:52Z</time></trkpt><trkpt lat="43.05254622298023" lon="12.213721028340505"><ele>228.0</ele><time>2026-04-18T09:17:53Z</time></trkpt><trkpt lat="43.05266630011767" lon="12.21385798137719"><ele>228.0</ele><time>2026-04-18T09:17:54Z</time></trkpt><trkpt lat="43.052795572929135" lon="12.213993310734262"><ele>228.0</ele><time>2026-04-18T09:17:55Z</time></trkpt><trkpt lat="43.05292178428668" lon="12.214131257648503"><ele>228.0</ele><time>2026-04-18T09:17:56Z</time></trkpt><trkpt lat="43.053048398641984" lon="12.214266969883363"><ele>228.0</ele><time>2026-04-18T09:17:56.999Z</time></trkpt><trkpt lat="43.053175825448356" lon="12.214410232463981"><ele>229.66666666666669</ele><time>2026-04-18T09:17:57.999Z</time></trkpt><trkpt lat="43.05330552125854" lon="12.214547631408779"><ele>231.33333333333334</ele><time>2026-04-18T09:17:58.999Z</time></trkpt><trkpt lat="43.05344287904301" lon="12.214682287892513"><ele>233.0</ele><time>2026-04-18T09:17:59.999Z</time></trkpt><trkpt lat="43.0535807201518" lon="12.214807371691624"><ele>232.33333333333334</ele><time>2026-04-18T09:18:00.999Z</time></trkpt><trkpt lat="43.05373097717613" lon="12.214925386463182"><ele>231.66666666666669</ele><time>2026-04-18T09:18:01.999Z</time></trkpt><trkpt lat="43.05387827629634" lon="12.215030055431255"><ele>231.0</ele><time>2026-04-18T09:18:02.999Z</time></trkpt><trkpt lat="43.05401128807661" lon="12.215121889940306"><ele>230.5</ele><time>2026-04-18T09:18:03.999Z</time></trkpt><trkpt lat="43.054134482586484" lon="12.215215604061818"><ele>230.0</ele><time>2026-04-18T09:18:04.999Z</time></trkpt><trkpt lat="43.054257204134686" lon="12.215312672117028"><ele>229.5</ele><time>2026-04-18T09:18:05.999Z</time></trkpt><trkpt lat="43.05437206617988" lon="12.215423159207026"><ele>229.0</ele><time>2026-04-18T09:18:06.999Z</time></trkpt><trkpt lat="43.05447849300666" lon="12.215552233821162"><ele>229.2</ele><time>2026-04-18T09:18:07.999Z</time></trkpt><trkpt lat="43.05456642358507" lon="12.215687898958038"><ele>229.39999999999998</ele><time>2026-04-18T09:18:08.999Z</time></trkpt><trkpt lat="43.05463698333479" lon="12.215810195856616"><ele>229.6</ele><time>2026-04-18T09:18:09.999Z</time></trkpt><trkpt lat="43.05470088734159" lon="12.215916985100169"><ele>229.8</ele><time>2026-04-18T09:18:10.999Z</time></trkpt><trkpt lat="43.054760742339255" lon="12.216013178437901"><ele>230.0</ele><time>2026-04-18T09:18:11.999Z</time></trkpt><trkpt lat="43.0548055643443" lon="12.216101767350798"><ele>230.0</ele><time>2026-04-18T09:18:12.999Z</time></trkpt><trkpt lat="43.05486565171927" lon="12.216232815241582"><ele>230.0</ele><time>2026-04-18T09:18:15Z</time></trkpt><trkpt lat="43.054879930876886" lon="12.216324167508143"><ele>230.0</ele><time>2026-04-18T09:18:17Z</time></trkpt><trkpt lat="43.05504537585769" lon="12.216264475406518"><ele>230.0</ele><time>2026-04-18T09:18:21Z</time></trkpt><trkpt lat="43.055095339576035" lon="12.21616807461492"><ele>230.0</ele><time>2026-04-18T09:18:22Z</time></trkpt><trkpt lat="43.055149694357226" lon="12.216060751542235"><ele>230.75</ele><time>2026-04-18T09:18:23Z</time></trkpt><trkpt lat="43.055224225687176" lon="12.215943942119859"><ele>231.5</ele><time>2026-04-18T09:18:24Z</time></trkpt><trkpt lat="43.05531099488728" lon="12.215804787894516"><ele>232.25</ele><time>2026-04-18T09:18:25Z</time></trkpt><trkpt lat="43.05540023509432" lon="12.215655129028617"><ele>233.0</ele><time>2026-04-18T09:18:26Z</time></trkpt><trkpt lat="43.0554965272633" lon="12.215498456170023"><ele>233.33333333333334</ele><time>2026-04-18T09:18:27Z</time></trkpt><trkpt lat="43.055600418785865" lon="12.21532545040565"><ele>233.66666666666669</ele><time>2026-04-18T09:18:28Z</time></trkpt><trkpt lat="43.05570829517304" lon="12.215159176766258"><ele>234.0</ele><time>2026-04-18T09:18:29Z</time></trkpt><trkpt lat="43.055814810075844" lon="12.214980412012526"><ele>234.0</ele><time>2026-04-18T09:18:30Z</time></trkpt><trkpt lat="43.055926992757485" lon="12.214806973886988"><ele>234.0</ele><time>2026-04-18T09:18:31Z</time></trkpt><trkpt lat="43.056030662547236" lon="12.214628088763916"><ele>234.0</ele><time>2026-04-18T09:18:32Z</time></trkpt><trkpt lat="43.05612945453579" lon="12.214470711978578"><ele>234.0</ele><time>2026-04-18T09:18:33Z</time></trkpt><trkpt lat="43.056218966953764" lon="12.214326892972327"><ele>234.0</ele><time>2026-04-18T09:18:34Z</time></trkpt><trkpt lat="43.05630235116067" lon="12.214192366382761"><ele>234.0</ele><time>2026-04-18T09:18:35Z</time></trkpt><trkpt lat="43.056373366629" lon="12.214072501494611"><ele>234.0</ele><time>2026-04-18T09:18:36Z</time></trkpt><trkpt lat="43.05644242130568" lon="12.213961368992857"><ele>233.79999999999998</ele><time>2026-04-18T09:18:37Z</time></trkpt><trkpt lat="43.056510544829685" lon="12.21386095818321"><ele>233.59999999999997</ele><time>2026-04-18T09:18:38Z</time></trkpt><trkpt lat="43.05657827135257" lon="12.213762027346439"><ele>233.4</ele><time>2026-04-18T09:18:39Z</time></trkpt><trkpt lat="43.05666253429251" lon="12.213698580960244"><ele>233.2</ele><time>2026-04-18T09:18:40Z</time></trkpt><trkpt lat="43.056748240762204" lon="12.213632621904525"><ele>233.0</ele><time>2026-04-18T09:18:41Z</time></trkpt><trkpt lat="43.05684117080603" lon="12.213564936173423"><ele>233.0</ele><time>2026-04-18T09:18:42Z</time></trkpt><trkpt lat="43.05692940059065" lon="12.21354373056644"><ele>233.0</ele><time>2026-04-18T09:18:43Z</time></trkpt><trkpt lat="43.056998521461026" lon="12.213523331175281"><ele>233.0</ele><time>2026-04-18T09:18:44Z</time></trkpt><trkpt lat="43.05701704224669" lon="12.213248074293332"><ele>233.0</ele><time>2026-04-18T09:18:46Z</time></trkpt><trkpt lat="43.05704793704955" lon="12.213145927209766"><ele>233.0</ele><time>2026-04-18T09:18:47Z</time></trkpt><trkpt lat="43.05707273091472" lon="12.21302902695386"><ele>233.2</ele><time>2026-04-18T09:18:48Z</time></trkpt><trkpt lat="43.05709139541671" lon="12.212902160279018"><ele>233.4</ele><time>2026-04-18T09:18:49Z</time></trkpt><trkpt lat="43.05714702544527" lon="12.21277783968881"><ele>233.59999999999997</ele><time>2026-04-18T09:18:50Z</time></trkpt><trkpt lat="43.05719404938346" lon="12.212648908518718"><ele>233.79999999999998</ele><time>2026-04-18T09:18:51Z</time></trkpt><trkpt lat="43.057244929994596" lon="12.212514743937158"><ele>234.0</ele><time>2026-04-18T09:18:52Z</time></trkpt><trkpt lat="43.0572991467554" lon="12.212372157597056"><ele>233.75</ele><time>2026-04-18T09:18:53Z</time></trkpt><trkpt lat="43.05735597835478" lon="12.212222694612022"><ele>233.5</ele><time>2026-04-18T09:18:54Z</time></trkpt><trkpt lat="43.05739977352719" lon="12.212062140738631"><ele>233.25</ele><time>2026-04-18T09:18:55Z</time></trkpt><trkpt lat="43.0574654275147" lon="12.211911796565527"><ele>233.0</ele><time>2026-04-18T09:18:56Z</time></trkpt><trkpt lat="43.05751240453787" lon="12.211744458792436"><ele>233.0</ele><time>2026-04-18T09:18:57Z</time></trkpt><trkpt lat="43.05755489117023" lon="12.211574793293986"><ele>233.0</ele><time>2026-04-18T09:18:58Z</time></trkpt><trkpt lat="43.05759643579549" lon="12.211398867941556"><ele>233.0</ele><time>2026-04-18T09:18:59Z</time></trkpt><trkpt lat="43.05763741018155" lon="12.211213167499789"><ele>233.0</ele><time>2026-04-18T09:19:00Z</time></trkpt><trkpt lat="43.05767314733148" lon="12.211027309069358"><ele>233.0</ele><time>2026-04-18T09:19:01Z</time></trkpt><trkpt lat="43.05770273447785" lon="12.210835172646288"><ele>233.0</ele><time>2026-04-18T09:19:02Z</time></trkpt><trkpt lat="43.05771928956463" lon="12.21063064040885"><ele>233.0</ele><time>2026-04-18T09:19:03Z</time></trkpt><trkpt lat="43.057756012448735" lon="12.210431521464816"><ele>233.0</ele><time>2026-04-18T09:19:04Z</time></trkpt><trkpt lat="43.057782766276546" lon="12.21022807375092"><ele>233.25</ele><time>2026-04-18T09:19:05Z</time></trkpt><trkpt lat="43.05780958314469" lon="12.210024146418238"><ele>233.5</ele><time>2026-04-18T09:19:06Z</time></trkpt><trkpt lat="43.05781954413963" lon="12.209820597722858"><ele>233.75</ele><time>2026-04-18T09:19:07Z</time></trkpt><trkpt lat="43.057848884379155" lon="12.209634104027451"><ele>234.0</ele><time>2026-04-18T09:19:08Z</time></trkpt><trkpt lat="43.057885028859566" lon="12.209471857384141"><ele>234.25</ele><time>2026-04-18T09:19:09Z</time></trkpt><trkpt lat="43.05789445961355" lon="12.209306935934917"><ele>234.5</ele><time>2026-04-18T09:19:10Z</time></trkpt><trkpt lat="43.057952534291" lon="12.209149383916815"><ele>234.75</ele><time>2026-04-18T09:19:11Z</time></trkpt><trkpt lat="43.05802247310657" lon="12.208992046229787"><ele>235.0</ele><time>2026-04-18T09:19:12Z</time></trkpt><trkpt lat="43.05812868217288" lon="12.208873863231897"><ele>235.0</ele><time>2026-04-18T09:19:13Z</time></trkpt><trkpt lat="43.05821744423265" lon="12.208721115951047"><ele>235.0</ele><time>2026-04-18T09:19:14Z</time></trkpt><trkpt lat="43.05832107688526" lon="12.20859383763097"><ele>235.0</ele><time>2026-04-18T09:19:15Z</time></trkpt><trkpt lat="43.0584127831099" lon="12.208465007328387"><ele>235.0</ele><time>2026-04-18T09:19:16Z</time></trkpt><trkpt lat="43.05850152285348" lon="12.208332375641328"><ele>235.25</ele><time>2026-04-18T09:19:17Z</time></trkpt><trkpt lat="43.05858254071987" lon="12.208184031371077"><ele>235.5</ele><time>2026-04-18T09:19:18Z</time></trkpt><trkpt lat="43.05865299377367" lon="12.208023182182565"><ele>235.75</ele><time>2026-04-18T09:19:19Z</time></trkpt><trkpt lat="43.05870477365241" lon="12.207850882614617"><ele>236.0</ele><time>2026-04-18T09:19:20Z</time></trkpt><trkpt lat="43.05874850331932" lon="12.20767458319387"><ele>236.25</ele><time>2026-04-18T09:19:21Z</time></trkpt><trkpt lat="43.05879622365228" lon="12.207499995287511"><ele>236.5</ele><time>2026-04-18T09:19:22Z</time></trkpt><trkpt lat="43.05885279471466" lon="12.207322281929823"><ele>236.75</ele><time>2026-04-18T09:19:23Z</time></trkpt><trkpt lat="43.05890828823871" lon="12.207142438453467"><ele>237.0</ele><time>2026-04-18T09:19:24Z</time></trkpt><trkpt lat="43.05896565969834" lon="12.206955149837645"><ele>237.0</ele><time>2026-04-18T09:19:25Z</time></trkpt><trkpt lat="43.05903587285825" lon="12.20678226032449"><ele>237.0</ele><time>2026-04-18T09:19:26Z</time></trkpt><trkpt lat="43.0590731445205" lon="12.206585858682876"><ele>237.0</ele><time>2026-04-18T09:19:27Z</time></trkpt><trkpt lat="43.05913867263055" lon="12.206402157010869"><ele>237.0</ele><time>2026-04-18T09:19:28Z</time></trkpt><trkpt lat="43.05919004408997" lon="12.206202453626885"><ele>237.33333333333331</ele><time>2026-04-18T09:19:29Z</time></trkpt><trkpt lat="43.05924198744605" lon="12.205999659659641"><ele>237.66666666666666</ele><time>2026-04-18T09:19:30Z</time></trkpt><trkpt lat="43.05929382460854" lon="12.205795969610303"><ele>238.0</ele><time>2026-04-18T09:19:31Z</time></trkpt><trkpt lat="43.059342682536496" lon="12.20559303026292"><ele>238.25</ele><time>2026-04-18T09:19:32Z</time></trkpt><trkpt lat="43.05939043374136" lon="12.205391435359637"><ele>238.5</ele><time>2026-04-18T09:19:33Z</time></trkpt><trkpt lat="43.05943311091216" lon="12.205206657712042"><ele>238.75</ele><time>2026-04-18T09:19:34Z</time></trkpt><trkpt lat="43.05947322484995" lon="12.205030937450823"><ele>239.0</ele><time>2026-04-18T09:19:35Z</time></trkpt><trkpt lat="43.05951074050397" lon="12.204865843952827"><ele>239.75</ele><time>2026-04-18T09:19:36Z</time></trkpt><trkpt lat="43.0595316415521" lon="12.204679281418587"><ele>240.5</ele><time>2026-04-18T09:19:37Z</time></trkpt><trkpt lat="43.05958361946997" lon="12.204496020271327"><ele>241.25</ele><time>2026-04-18T09:19:38Z</time></trkpt><trkpt lat="43.05961896368109" lon="12.204311271585057"><ele>242.0</ele><time>2026-04-18T09:19:39Z</time></trkpt><trkpt lat="43.059656270548764" lon="12.20411626411578"><ele>242.33333333333334</ele><time>2026-04-18T09:19:40Z</time></trkpt><trkpt lat="43.05969445180108" lon="12.203916686000971"><ele>242.66666666666669</ele><time>2026-04-18T09:19:41Z</time></trkpt><trkpt lat="43.05972986398333" lon="12.203718461115868"><ele>243.0</ele><time>2026-04-18T09:19:42Z</time></trkpt><trkpt lat="43.059765741590596" lon="12.203515393800163"><ele>243.0</ele><time>2026-04-18T09:19:43Z</time></trkpt><trkpt lat="43.05980080780363" lon="12.203316919087642"><ele>243.0</ele><time>2026-04-18T09:19:44Z</time></trkpt><trkpt lat="43.05983703412168" lon="12.20311187803116"><ele>243.0</ele><time>2026-04-18T09:19:45Z</time></trkpt><trkpt lat="43.05987299052931" lon="12.202912258496708"><ele>243.0</ele><time>2026-04-18T09:19:46Z</time></trkpt><trkpt lat="43.05990591612745" lon="12.202731374947987"><ele>243.0</ele><time>2026-04-18T09:19:47Z</time></trkpt><trkpt lat="43.05993756250827" lon="12.20255751844759"><ele>243.0</ele><time>2026-04-18T09:19:48Z</time></trkpt><trkpt lat="43.059968168555415" lon="12.202389377712837"><ele>243.0</ele><time>2026-04-18T09:19:49Z</time></trkpt><trkpt lat="43.05999801970209" lon="12.202225384038988"><ele>243.5</ele><time>2026-04-18T09:19:50Z</time></trkpt><trkpt lat="43.06002629456497" lon="12.202070050007116"><ele>244.0</ele><time>2026-04-18T09:19:51Z</time></trkpt><trkpt lat="43.060056307141984" lon="12.20190516938674"><ele>244.5</ele><time>2026-04-18T09:19:52Z</time></trkpt><trkpt lat="43.06009063495965" lon="12.201737017692775"><ele>245.0</ele><time>2026-04-18T09:19:53Z</time></trkpt><trkpt lat="43.060130149624335" lon="12.20155598685884"><ele>244.75</ele><time>2026-04-18T09:19:54Z</time></trkpt><trkpt lat="43.06018709171015" lon="12.201386661263172"><ele>244.5</ele><time>2026-04-18T09:19:55Z</time></trkpt><trkpt lat="43.06026310580331" lon="12.201218256276592"><ele>244.25</ele><time>2026-04-18T09:19:56Z</time></trkpt><trkpt lat="43.06034577543193" lon="12.201047863896662"><ele>244.0</ele><time>2026-04-18T09:19:57Z</time></trkpt><trkpt lat="43.060416163133574" lon="12.200891882284381"><ele>244.0</ele><time>2026-04-18T09:19:58Z</time></trkpt><trkpt lat="43.06047054834347" lon="12.200746708275805"><ele>243.99999999999997</ele><time>2026-04-18T09:19:59Z</time></trkpt><trkpt lat="43.06051604190814" lon="12.200602291220756"><ele>243.99999999999997</ele><time>2026-04-18T09:20:00Z</time></trkpt><trkpt lat="43.060557377855524" lon="12.20045831340405"><ele>244.0</ele><time>2026-04-18T09:20:01Z</time></trkpt><trkpt lat="43.06058971426458" lon="12.200329911025449"><ele>244.0</ele><time>2026-04-18T09:20:02Z</time></trkpt><trkpt lat="43.06061928402136" lon="12.200209546673003"><ele>244.2</ele><time>2026-04-18T09:20:02.999Z</time></trkpt><trkpt lat="43.06064345913022" lon="12.20010631124928"><ele>244.39999999999998</ele><time>2026-04-18T09:20:03.999Z</time></trkpt><trkpt lat="43.060663865669376" lon="12.200019168308968"><ele>244.6</ele><time>2026-04-18T09:20:04.999Z</time></trkpt><trkpt lat="43.06068887473434" lon="12.199912371316065"><ele>244.8</ele><time>2026-04-18T09:20:06.999Z</time></trkpt><trkpt lat="43.060582368082336" lon="12.199791473843511"><ele>245.0</ele><time>2026-04-18T09:20:26Z</time></trkpt><trkpt lat="43.06048578999426" lon="12.199779773582723"><ele>245.00000000000003</ele><time>2026-04-18T09:20:28Z</time></trkpt><trkpt lat="43.06041704211525" lon="12.19976812865054"><ele>245.0</ele><time>2026-04-18T09:20:29Z</time></trkpt><trkpt lat="43.0603365450214" lon="12.199758855483823"><ele>245.0</ele><time>2026-04-18T09:20:30Z</time></trkpt><trkpt lat="43.06024515436136" lon="12.199747243561177"><ele>245.0</ele><time>2026-04-18T09:20:31Z</time></trkpt><trkpt lat="43.06014175097936" lon="12.19972687255271"><ele>245.00000000000003</ele><time>2026-04-18T09:20:32Z</time></trkpt><trkpt lat="43.06004445505027" lon="12.199708811962752"><ele>245.0</ele><time>2026-04-18T09:20:33Z</time></trkpt><trkpt lat="43.05996480494589" lon="12.19969292581735"><ele>244.83333333333334</ele><time>2026-04-18T09:20:34Z</time></trkpt><trkpt lat="43.05989112148074" lon="12.199678677600499"><ele>244.66666666666669</ele><time>2026-04-18T09:20:35Z</time></trkpt><trkpt lat="43.05982397130814" lon="12.199668902319507"><ele>244.5</ele><time>2026-04-18T09:20:36Z</time></trkpt><trkpt lat="43.059759543269436" lon="12.199655817714513"><ele>244.33333333333331</ele><time>2026-04-18T09:20:37Z</time></trkpt><trkpt lat="43.05963065096007" lon="12.199612003926065"><ele>244.16666666666666</ele><time>2026-04-18T09:20:39Z</time></trkpt><trkpt lat="43.059545729582425" lon="12.199590432436679"><ele>244.0</ele><time>2026-04-18T09:20:40Z</time></trkpt><trkpt lat="43.05944778729064" lon="12.199560581850514"><ele>243.99999999999997</ele><time>2026-04-18T09:20:41Z</time></trkpt><trkpt lat="43.05936351876797" lon="12.19953466545796"><ele>244.0</ele><time>2026-04-18T09:20:42Z</time></trkpt><trkpt lat="43.05929570856008" lon="12.199510675571464"><ele>244.0</ele><time>2026-04-18T09:20:43Z</time></trkpt><trkpt lat="43.059232421601315" lon="12.19949883015941"><ele>244.0</ele><time>2026-04-18T09:20:44Z</time></trkpt><trkpt lat="43.059174596008624" lon="12.199454874042884"><ele>243.99999999999997</ele><time>2026-04-18T09:20:45Z</time></trkpt><trkpt lat="43.05908486334713" lon="12.199412619990456"><ele>244.0</ele><time>2026-04-18T09:20:47Z</time></trkpt><trkpt lat="43.05903639857261" lon="12.199307938138766"><ele>244.25</ele><time>2026-04-18T09:20:49Z</time></trkpt><trkpt lat="43.0590081854833" lon="12.199216206963559"><ele>244.5</ele><time>2026-04-18T09:20:51Z</time></trkpt><trkpt lat="43.058948114994806" lon="12.199168609195356"><ele>244.75</ele><time>2026-04-18T09:20:52Z</time></trkpt><trkpt lat="43.05870405709781" lon="12.199328057844163"><ele>245.0</ele><time>2026-04-18T09:20:54Z</time></trkpt><trkpt lat="43.0586323891556" lon="12.199348079715481"><ele>245.00000000000003</ele><time>2026-04-18T09:20:55Z</time></trkpt><trkpt lat="43.058515561316945" lon="12.199375602196042"><ele>245.0</ele><time>2026-04-18T09:20:57Z</time></trkpt><trkpt lat="43.058448730354826" lon="12.19939187362607"><ele>245.0</ele><time>2026-04-18T09:20:58Z</time></trkpt><trkpt lat="43.05836463190579" lon="12.199417486917746"><ele>245.0</ele><time>2026-04-18T09:20:59Z</time></trkpt><trkpt lat="43.05829572138348" lon="12.199436697687938"><ele>245.00000000000003</ele><time>2026-04-18T09:21:00Z</time></trkpt><trkpt lat="43.05819713365726" lon="12.19947175595149"><ele>245.0</ele><time>2026-04-18T09:21:02Z</time></trkpt><trkpt lat="43.05808682750089" lon="12.19950907951164"><ele>245.83333333333334</ele><time>2026-04-18T09:21:04Z</time></trkpt><trkpt lat="43.05801628937929" lon="12.199538746287736"><ele>246.66666666666669</ele><time>2026-04-18T09:21:05Z</time></trkpt><trkpt lat="43.057953364361985" lon="12.199566652038282"><ele>247.5</ele><time>2026-04-18T09:21:06Z</time></trkpt><trkpt lat="43.057848484306284" lon="12.199614586931382"><ele>248.33333333333331</ele><time>2026-04-18T09:21:08Z</time></trkpt><trkpt lat="43.05777487876591" lon="12.199646277062087"><ele>249.16666666666666</ele><time>2026-04-18T09:21:10Z</time></trkpt><trkpt lat="43.057713156371925" lon="12.19969389383474"><ele>250.0</ele><time>2026-04-18T09:21:12Z</time></trkpt><trkpt lat="43.05778034299723" lon="12.199646062423481"><ele>250.0</ele><time>2026-04-18T09:21:41Z</time></trkpt><trkpt lat="43.057842883625604" lon="12.19961544697013"><ele>250.0</ele><time>2026-04-18T09:21:42Z</time></trkpt><trkpt lat="43.05791526314136" lon="12.199584616018656"><ele>250.0</ele><time>2026-04-18T09:21:43Z</time></trkpt><trkpt lat="43.05798773031557" lon="12.199554009129866"><ele>250.0</ele><time>2026-04-18T09:21:44Z</time></trkpt><trkpt lat="43.0580929463434" lon="12.199512382007294"><ele>250.0</ele><time>2026-04-18T09:21:46Z</time></trkpt><trkpt lat="43.05822898323221" lon="12.199463315572046"><ele>249.16666666666666</ele><time>2026-04-18T09:21:48Z</time></trkpt><trkpt lat="43.0583298134302" lon="12.199432611729753"><ele>248.33333333333331</ele><time>2026-04-18T09:21:50Z</time></trkpt><trkpt lat="43.05844072001181" lon="12.199398925534064"><ele>247.5</ele><time>2026-04-18T09:21:52.001Z</time></trkpt><trkpt lat="43.05851376110545" lon="12.199377290225357"><ele>246.66666666666669</ele><time>2026-04-18T09:21:53.001Z</time></trkpt><trkpt lat="43.058583303287364" lon="12.199342693899826"><ele>245.83333333333334</ele><time>2026-04-18T09:21:54.001Z</time></trkpt><trkpt lat="43.05865330090334" lon="12.199342381907353"><ele>245.0</ele><time>2026-04-18T09:21:55.001Z</time></trkpt><trkpt lat="43.058744354082954" lon="12.199321031243432"><ele>245.00000000000003</ele><time>2026-04-18T09:21:57.001Z</time></trkpt><trkpt lat="43.058812731036454" lon="12.199303254270275"><ele>245.0</ele><time>2026-04-18T09:21:58.001Z</time></trkpt><trkpt lat="43.058878681404" lon="12.199294813808073"><ele>245.0</ele><time>2026-04-18T09:21:59.001Z</time></trkpt><trkpt lat="43.05896104441168" lon="12.199295197970049"><ele>245.0</ele><time>2026-04-18T09:22:01.001Z</time></trkpt><trkpt lat="43.05903590647062" lon="12.199239839197345"><ele>245.00000000000003</ele><time>2026-04-18T09:22:04.001Z</time></trkpt><trkpt lat="43.059073894946664" lon="12.199096638327491"><ele>245.0</ele><time>2026-04-18T09:22:06.001Z</time></trkpt><trkpt lat="43.05909193752741" lon="12.198999676073575"><ele>245.0</ele><time>2026-04-18T09:22:07.001Z</time></trkpt><trkpt lat="43.05910738798596" lon="12.198887076053923"><ele>245.0</ele><time>2026-04-18T09:22:08.001Z</time></trkpt><trkpt lat="43.05912519799111" lon="12.198753777568546"><ele>245.0</ele><time>2026-04-18T09:22:08.999Z</time></trkpt><trkpt lat="43.059142753696335" lon="12.19861789233843"><ele>245.0</ele><time>2026-04-18T09:22:09.999Z</time></trkpt><trkpt lat="43.05916003022946" lon="12.19846927466652"><ele>245.0</ele><time>2026-04-18T09:22:11Z</time></trkpt><trkpt lat="43.05917606066877" lon="12.198326392590975"><ele>245.0</ele><time>2026-04-18T09:22:12Z</time></trkpt><trkpt lat="43.0591923296455" lon="12.198178056578566"><ele>245.0</ele><time>2026-04-18T09:22:13Z</time></trkpt><trkpt lat="43.05921114884444" lon="12.198031606679233"><ele>245.0</ele><time>2026-04-18T09:22:14Z</time></trkpt><trkpt lat="43.05922884100292" lon="12.197895263474432"><ele>245.0</ele><time>2026-04-18T09:22:15Z</time></trkpt><trkpt lat="43.05924604487902" lon="12.197752872022994"><ele>245.0</ele><time>2026-04-18T09:22:16Z</time></trkpt><trkpt lat="43.05929155953868" lon="12.197619220931989"><ele>245.6</ele><time>2026-04-18T09:22:17Z</time></trkpt><trkpt lat="43.059307198209524" lon="12.197475062519391"><ele>246.2</ele><time>2026-04-18T09:22:18Z</time></trkpt><trkpt lat="43.05932080734938" lon="12.19734053757148"><ele>246.8</ele><time>2026-04-18T09:22:19Z</time></trkpt><trkpt lat="43.05933558127208" lon="12.197191120616333"><ele>247.4</ele><time>2026-04-18T09:22:20Z</time></trkpt><trkpt lat="43.05934839784607" lon="12.197044423932082"><ele>248.0</ele><time>2026-04-18T09:22:21Z</time></trkpt><trkpt lat="43.059360201408616" lon="12.196897238308082"><ele>248.4</ele><time>2026-04-18T09:22:22Z</time></trkpt><trkpt lat="43.05937158097246" lon="12.196754552199128"><ele>248.8</ele><time>2026-04-18T09:22:23Z</time></trkpt><trkpt lat="43.05938259201365" lon="12.196612184292935"><ele>249.2</ele><time>2026-04-18T09:22:24Z</time></trkpt><trkpt lat="43.05939368151262" lon="12.196467794406171"><ele>249.6</ele><time>2026-04-18T09:22:25Z</time></trkpt><trkpt lat="43.05940475724561" lon="12.196323583632738"><ele>250.0</ele><time>2026-04-18T09:22:26Z</time></trkpt><trkpt lat="43.05941446576656" lon="12.196184178272848"><ele>250.83333333333331</ele><time>2026-04-18T09:22:27Z</time></trkpt><trkpt lat="43.05942341320933" lon="12.196049767780288"><ele>251.66666666666666</ele><time>2026-04-18T09:22:28Z</time></trkpt><trkpt lat="43.05943178360001" lon="12.195928515278302"><ele>252.5</ele><time>2026-04-18T09:22:29Z</time></trkpt><trkpt lat="43.059441460183955" lon="12.195816070286678"><ele>253.33333333333331</ele><time>2026-04-18T09:22:30Z</time></trkpt><trkpt lat="43.05944968279312" lon="12.195716055271582"><ele>254.16666666666666</ele><time>2026-04-18T09:22:31Z</time></trkpt><trkpt lat="43.05945315190464" lon="12.195577720784554"><ele>255.0</ele><time>2026-04-18T09:22:33Z</time></trkpt><trkpt lat="43.05944032444814" lon="12.195490894642807"><ele>255.0</ele><time>2026-04-18T09:22:35Z</time></trkpt><trkpt lat="43.05946990079769" lon="12.195338130590244"><ele>255.0</ele><time>2026-04-18T09:22:38Z</time></trkpt><trkpt lat="43.059475300429234" lon="12.195223756927621"><ele>255.0</ele><time>2026-04-18T09:22:39Z</time></trkpt><trkpt lat="43.05947980914814" lon="12.195095841514608"><ele>255.0</ele><time>2026-04-18T09:22:40Z</time></trkpt><trkpt lat="43.05948388891185" lon="12.194967847588527"><ele>255.0</ele><time>2026-04-18T09:22:41Z</time></trkpt><trkpt lat="43.05947225061105" lon="12.194828414192648"><ele>255.0</ele><time>2026-04-18T09:22:42Z</time></trkpt><trkpt lat="43.05947810293235" lon="12.194685193582814"><ele>255.0</ele><time>2026-04-18T09:22:43Z</time></trkpt><trkpt lat="43.059480580842546" lon="12.194568785076145"><ele>255.0</ele><time>2026-04-18T09:22:44Z</time></trkpt><trkpt lat="43.05948428529126" lon="12.194463437245139"><ele>255.0</ele><time>2026-04-18T09:22:45Z</time></trkpt><trkpt lat="43.05948868864201" lon="12.194352340137414"><ele>255.0</ele><time>2026-04-18T09:22:46Z</time></trkpt><trkpt lat="43.059492402229175" lon="12.194253447112855"><ele>255.0</ele><time>2026-04-18T09:22:47Z</time></trkpt><trkpt lat="43.059496193783886" lon="12.194152418862501"><ele>255.0</ele><time>2026-04-18T09:22:48Z</time></trkpt><trkpt lat="43.059514653705605" lon="12.194039357038227"><ele>255.0</ele><time>2026-04-18T09:22:49Z</time></trkpt><trkpt lat="43.05951918992194" lon="12.19392607472292"><ele>255.0</ele><time>2026-04-18T09:22:50Z</time></trkpt><trkpt lat="43.059514859425754" lon="12.193806792908163"><ele>255.0</ele><time>2026-04-18T09:22:51Z</time></trkpt><trkpt lat="43.05954681500375" lon="12.193690854939904"><ele>255.0</ele><time>2026-04-18T09:22:52Z</time></trkpt><trkpt lat="43.05954643046458" lon="12.19357768474886"><ele>255.0</ele><time>2026-04-18T09:22:53Z</time></trkpt><trkpt lat="43.05956880821972" lon="12.19348015051831"><ele>255.0</ele><time>2026-04-18T09:22:54Z</time></trkpt><trkpt lat="43.059567557089906" lon="12.193330433796604"><ele>255.0</ele><time>2026-04-18T09:22:56Z</time></trkpt><trkpt lat="43.05959403204014" lon="12.19321998116588"><ele>255.0</ele><time>2026-04-18T09:22:58Z</time></trkpt><trkpt lat="43.05959764775343" lon="12.193126606246977"><ele>255.0</ele><time>2026-04-18T09:23:02Z</time></trkpt><trkpt lat="43.059938450546724" lon="12.193136125841571"><ele>255.8</ele><time>2026-04-18T09:23:33Z</time></trkpt><trkpt lat="43.060022984302215" lon="12.193083470254859"><ele>256.6</ele><time>2026-04-18T09:23:35.001Z</time></trkpt><trkpt lat="43.0601323885289" lon="12.192967891449221"><ele>257.4</ele><time>2026-04-18T09:23:37.001Z</time></trkpt><trkpt lat="43.06017426221934" lon="12.192889476455422"><ele>258.2</ele><time>2026-04-18T09:23:38.001Z</time></trkpt><trkpt lat="43.06023234840426" lon="12.192818923377603"><ele>259.0</ele><time>2026-04-18T09:23:39.001Z</time></trkpt><trkpt lat="43.06030001375688" lon="12.192777686843367"><ele>259.0</ele><time>2026-04-18T09:23:40.001Z</time></trkpt><trkpt lat="43.06038649947827" lon="12.192733858823349"><ele>259.0</ele><time>2026-04-18T09:23:41.001Z</time></trkpt><trkpt lat="43.06048381044978" lon="12.19268607996141"><ele>259.0</ele><time>2026-04-18T09:23:42.001Z</time></trkpt><trkpt lat="43.06057431285244" lon="12.192646580868821"><ele>259.0</ele><time>2026-04-18T09:23:43.001Z</time></trkpt><trkpt lat="43.060660536098574" lon="12.192599646902016"><ele>259.0</ele><time>2026-04-18T09:23:44.001Z</time></trkpt><trkpt lat="43.06074332838282" lon="12.192560418833612"><ele>259.2</ele><time>2026-04-18T09:23:45.001Z</time></trkpt><trkpt lat="43.060826135523584" lon="12.192514532818736"><ele>259.4</ele><time>2026-04-18T09:23:46.001Z</time></trkpt><trkpt lat="43.06090954154763" lon="12.19247535945903"><ele>259.6</ele><time>2026-04-18T09:23:47.001Z</time></trkpt><trkpt lat="43.06100366019825" lon="12.192459728496496"><ele>259.8</ele><time>2026-04-18T09:23:48.001Z</time></trkpt><trkpt lat="43.061103744668266" lon="12.192448892956147"><ele>260.0</ele><time>2026-04-18T09:23:49.001Z</time></trkpt><trkpt lat="43.061210303652686" lon="12.192427554251386"><ele>260.0</ele><time>2026-04-18T09:23:50.001Z</time></trkpt><trkpt lat="43.06131941834327" lon="12.192400233444914"><ele>260.0</ele><time>2026-04-18T09:23:51.001Z</time></trkpt><trkpt lat="43.06139977617011" lon="12.19239915228906"><ele>260.0</ele><time>2026-04-18T09:23:52.001Z</time></trkpt><trkpt lat="43.06151375234507" lon="12.192395584300945"><ele>260.0</ele><time>2026-04-18T09:23:53.001Z</time></trkpt><trkpt lat="43.06160621579786" lon="12.19240451276387"><ele>260.0</ele><time>2026-04-18T09:23:54.001Z</time></trkpt><trkpt lat="43.06167351189414" lon="12.192401600841542"><ele>261.0</ele><time>2026-04-18T09:23:55.001Z</time></trkpt><trkpt lat="43.06170168892003" lon="12.192286439730005"><ele>262.0</ele><time>2026-04-18T09:23:57.001Z</time></trkpt><trkpt lat="43.06167653489099" lon="12.19213600470519"><ele>263.0</ele><time>2026-04-18T09:24:00.001Z</time></trkpt><trkpt lat="43.061746510115285" lon="12.191999798726291"><ele>264.0</ele><time>2026-04-18T09:24:02.001Z</time></trkpt><trkpt lat="43.0617977815381" lon="12.191913388491677"><ele>265.0</ele><time>2026-04-18T09:24:03.001Z</time></trkpt><trkpt lat="43.061844524921256" lon="12.191759103678569"><ele>265.0</ele><time>2026-04-18T09:24:05.001Z</time></trkpt><trkpt lat="43.061883308304026" lon="12.191617493726634"><ele>265.0</ele><time>2026-04-18T09:24:07.001Z</time></trkpt><trkpt lat="43.061858023326245" lon="12.191444619265901"><ele>265.0</ele><time>2026-04-18T09:24:09.001Z</time></trkpt><trkpt lat="43.061846600560436" lon="12.191347248098273"><ele>265.0</ele><time>2026-04-18T09:24:10.001Z</time></trkpt><trkpt lat="43.06185782685865" lon="12.19124257796611"><ele>265.0</ele><time>2026-04-18T09:24:11.001Z</time></trkpt><trkpt lat="43.061883309197086" lon="12.191159273170303"><ele>264.6</ele><time>2026-04-18T09:24:12.001Z</time></trkpt><trkpt lat="43.061916618676655" lon="12.191021600524667"><ele>264.2</ele><time>2026-04-18T09:24:14.001Z</time></trkpt><trkpt lat="43.06194665830988" lon="12.19090184454569"><ele>263.8</ele><time>2026-04-18T09:24:16Z</time></trkpt><trkpt lat="43.061951238964525" lon="12.190789708780963"><ele>263.4</ele><time>2026-04-18T09:24:18Z</time></trkpt><trkpt lat="43.06190260844983" lon="12.190684329014989"><ele>263.0</ele><time>2026-04-18T09:24:20Z</time></trkpt><trkpt lat="43.061842419021005" lon="12.19056496743835"><ele>263.0</ele><time>2026-04-18T09:24:22Z</time></trkpt><trkpt lat="43.061856418918254" lon="12.190389233095656"><ele>263.0</ele><time>2026-04-18T09:24:24Z</time></trkpt><trkpt lat="43.061881934713206" lon="12.190280669214177"><ele>263.0</ele><time>2026-04-18T09:24:25Z</time></trkpt><trkpt lat="43.061910541477886" lon="12.19015573829374"><ele>263.0</ele><time>2026-04-18T09:24:26Z</time></trkpt><trkpt lat="43.06193425507449" lon="12.190033124323348"><ele>263.0</ele><time>2026-04-18T09:24:27Z</time></trkpt><trkpt lat="43.06194155361925" lon="12.189921848505131"><ele>264.0</ele><time>2026-04-18T09:24:28Z</time></trkpt><trkpt lat="43.061952209609075" lon="12.189792482959636"><ele>265.0</ele><time>2026-04-18T09:24:29Z</time></trkpt><trkpt lat="43.06197531980909" lon="12.189646526082539"><ele>266.0</ele><time>2026-04-18T09:24:30Z</time></trkpt><trkpt lat="43.062004102431644" lon="12.189488759370246"><ele>267.0</ele><time>2026-04-18T09:24:31Z</time></trkpt><trkpt lat="43.06203934053263" lon="12.189343123261104"><ele>268.0</ele><time>2026-04-18T09:24:32Z</time></trkpt><trkpt lat="43.06206853222504" lon="12.189202750576996"><ele>268.0</ele><time>2026-04-18T09:24:33Z</time></trkpt><trkpt lat="43.06207853896281" lon="12.189069399155308"><ele>268.0</ele><time>2026-04-18T09:24:34Z</time></trkpt><trkpt lat="43.06208483636128" lon="12.188925621344678"><ele>268.0</ele><time>2026-04-18T09:24:35Z</time></trkpt><trkpt lat="43.062099268899466" lon="12.188790478148444"><ele>268.0</ele><time>2026-04-18T09:24:36Z</time></trkpt><trkpt lat="43.06213044020809" lon="12.18865303578882"><ele>268.0</ele><time>2026-04-18T09:24:37Z</time></trkpt><trkpt lat="43.06218804012486" lon="12.18852977851045"><ele>268.6</ele><time>2026-04-18T09:24:38Z</time></trkpt><trkpt lat="43.062248671219656" lon="12.188392006093986"><ele>269.20000000000005</ele><time>2026-04-18T09:24:39Z</time></trkpt><trkpt lat="43.062326356918845" lon="12.188254792652451"><ele>269.8</ele><time>2026-04-18T09:24:40Z</time></trkpt><trkpt lat="43.06239568635743" lon="12.18813356409917"><ele>270.40000000000003</ele><time>2026-04-18T09:24:41Z</time></trkpt><trkpt lat="43.06243008275462" lon="12.188032512286354"><ele>271.0</ele><time>2026-04-18T09:24:42Z</time></trkpt><trkpt lat="43.062459889866204" lon="12.187917911174637"><ele>273.2</ele><time>2026-04-18T09:24:43Z</time></trkpt><trkpt lat="43.062484344251864" lon="12.187786464697243"><ele>275.40000000000003</ele><time>2026-04-18T09:24:44Z</time></trkpt><trkpt lat="43.06249098766183" lon="12.187659328999757"><ele>277.6</ele><time>2026-04-18T09:24:45Z</time></trkpt><trkpt lat="43.06248300007348" lon="12.187526348773744"><ele>279.8</ele><time>2026-04-18T09:24:46Z</time></trkpt><trkpt lat="43.06246509960518" lon="12.187382334931005"><ele>282.0</ele><time>2026-04-18T09:24:47Z</time></trkpt><trkpt lat="43.06243823597923" lon="12.187241301260679"><ele>282.0</ele><time>2026-04-18T09:24:48Z</time></trkpt><trkpt lat="43.06242022668294" lon="12.187128130518012"><ele>282.0</ele><time>2026-04-18T09:24:49Z</time></trkpt><trkpt lat="43.062421334910425" lon="12.18699492201642"><ele>282.0</ele><time>2026-04-18T09:24:51Z</time></trkpt><trkpt lat="43.06249090872012" lon="12.186914839530333"><ele>282.0</ele><time>2026-04-18T09:24:53Z</time></trkpt><trkpt lat="43.062612519345386" lon="12.186966087862254"><ele>282.0</ele><time>2026-04-18T09:24:55Z</time></trkpt><trkpt lat="43.06267852675605" lon="12.187019375204905"><ele>283.4</ele><time>2026-04-18T09:24:56Z</time></trkpt><trkpt lat="43.062775759508305" lon="12.187051069902429"><ele>284.79999999999995</ele><time>2026-04-18T09:24:58Z</time></trkpt><trkpt lat="43.06283682031351" lon="12.18700885748137"><ele>286.2</ele><time>2026-04-18T09:25:00Z</time></trkpt><trkpt lat="43.06290865923263" lon="12.186834307067738"><ele>287.59999999999997</ele><time>2026-04-18T09:25:02Z</time></trkpt><trkpt lat="43.06292839212846" lon="12.186739316092996"><ele>289.0</ele><time>2026-04-18T09:25:03Z</time></trkpt><trkpt lat="43.062936507214204" lon="12.186653461232497"><ele>289.0</ele><time>2026-04-18T09:25:04Z</time></trkpt><trkpt lat="43.06293552691154" lon="12.186565332633245"><ele>289.0</ele><time>2026-04-18T09:25:05Z</time></trkpt><trkpt lat="43.06292239515091" lon="12.186476466208076"><ele>289.0</ele><time>2026-04-18T09:25:06Z</time></trkpt><trkpt lat="43.06290216583628" lon="12.186383289581011"><ele>289.0</ele><time>2026-04-18T09:25:07Z</time></trkpt><trkpt lat="43.0628647754696" lon="12.186302481458393"><ele>289.0</ele><time>2026-04-18T09:25:08Z</time></trkpt><trkpt lat="43.06285324286932" lon="12.18621748698469"><ele>289.0</ele><time>2026-04-18T09:25:09Z</time></trkpt><trkpt lat="43.062849761986904" lon="12.186105999152316"><ele>289.0</ele><time>2026-04-18T09:25:10Z</time></trkpt><trkpt lat="43.06286131184528" lon="12.185997987923509"><ele>290.16666666666663</ele><time>2026-04-18T09:25:11Z</time></trkpt><trkpt lat="43.06287376788191" lon="12.185910936675853"><ele>291.3333333333333</ele><time>2026-04-18T09:25:12Z</time></trkpt><trkpt lat="43.06287660128497" lon="12.185820139516597"><ele>292.5</ele><time>2026-04-18T09:25:13Z</time></trkpt><trkpt lat="43.062829781547265" lon="12.185673549304825"><ele>293.6666666666667</ele><time>2026-04-18T09:25:15Z</time></trkpt><trkpt lat="43.06276594563399" lon="12.185526316204037"><ele>294.83333333333337</ele><time>2026-04-18T09:25:17Z</time></trkpt><trkpt lat="43.0627589418075" lon="12.185427932658426"><ele>296.0</ele><time>2026-04-18T09:25:18Z</time></trkpt><trkpt lat="43.062788419090815" lon="12.185325136203096"><ele>296.83333333333337</ele><time>2026-04-18T09:25:19Z</time></trkpt><trkpt lat="43.0628211743731" lon="12.185229803317554"><ele>297.6666666666667</ele><time>2026-04-18T09:25:20Z</time></trkpt><trkpt lat="43.06282679429894" lon="12.185110601147462"><ele>298.5</ele><time>2026-04-18T09:25:21Z</time></trkpt><trkpt lat="43.062841896159824" lon="12.184996717757018"><ele>299.3333333333333</ele><time>2026-04-18T09:25:22Z</time></trkpt><trkpt lat="43.06286976437749" lon="12.184901087073897"><ele>300.16666666666663</ele><time>2026-04-18T09:25:23Z</time></trkpt><trkpt lat="43.06290691870074" lon="12.184789415867954"><ele>301.0</ele><time>2026-04-18T09:25:24Z</time></trkpt><trkpt lat="43.06291165461725" lon="12.184680808102401"><ele>301.8</ele><time>2026-04-18T09:25:25Z</time></trkpt><trkpt lat="43.06290588722431" lon="12.184581060574354"><ele>302.6</ele><time>2026-04-18T09:25:26Z</time></trkpt><trkpt lat="43.06288773884694" lon="12.18446271940494"><ele>303.4</ele><time>2026-04-18T09:25:27Z</time></trkpt><trkpt lat="43.062865054963034" lon="12.184356540103378"><ele>304.2</ele><time>2026-04-18T09:25:28Z</time></trkpt><trkpt lat="43.06285639178258" lon="12.184259832984214"><ele>305.0</ele><time>2026-04-18T09:25:29Z</time></trkpt><trkpt lat="43.06277467607064" lon="12.18409624386593"><ele>305.4</ele><time>2026-04-18T09:25:31Z</time></trkpt><trkpt lat="43.06271815576751" lon="12.183988977371872"><ele>305.8</ele><time>2026-04-18T09:25:32Z</time></trkpt><trkpt lat="43.06266287703879" lon="12.183869937544902"><ele>306.2</ele><time>2026-04-18T09:25:33.001Z</time></trkpt><trkpt lat="43.062612122009995" lon="12.183755177709727"><ele>306.6</ele><time>2026-04-18T09:25:34.001Z</time></trkpt><trkpt lat="43.06255606921949" lon="12.183643806122811"><ele>307.0</ele><time>2026-04-18T09:25:35.001Z</time></trkpt><trkpt lat="43.062521422217436" lon="12.183565466762422"><ele>307.0</ele><time>2026-04-18T09:25:36.001Z</time></trkpt><trkpt lat="43.06249985146031" lon="12.18342892522723"><ele>307.0</ele><time>2026-04-18T09:25:38.001Z</time></trkpt><trkpt lat="43.06252493925277" lon="12.183300549122295"><ele>307.0</ele><time>2026-04-18T09:25:40.001Z</time></trkpt><trkpt lat="43.062574919784666" lon="12.18320520437564"><ele>307.0</ele><time>2026-04-18T09:26:01.001Z</time></trkpt><trkpt lat="43.062649794027905" lon="12.183113585198194"><ele>307.0</ele><time>2026-04-18T09:26:03.001Z</time></trkpt><trkpt lat="43.06273069425234" lon="12.183058290984924"><ele>307.16666666666663</ele><time>2026-04-18T09:26:04.001Z</time></trkpt><trkpt lat="43.06282281203966" lon="12.183005635798807"><ele>307.3333333333333</ele><time>2026-04-18T09:26:05.001Z</time></trkpt><trkpt lat="43.06289739539175" lon="12.182971354049409"><ele>307.5</ele><time>2026-04-18T09:26:06.001Z</time></trkpt><trkpt lat="43.062962342344235" lon="12.182922159185889"><ele>307.6666666666667</ele><time>2026-04-18T09:26:07.001Z</time></trkpt><trkpt lat="43.06300391716959" lon="12.182853611569255"><ele>307.83333333333337</ele><time>2026-04-18T09:26:08.001Z</time></trkpt><trkpt lat="43.06304472834455" lon="12.182762324811183"><ele>308.0</ele><time>2026-04-18T09:26:09.001Z</time></trkpt><trkpt lat="43.063092895599546" lon="12.18266012056749"><ele>308.0</ele><time>2026-04-18T09:26:10.001Z</time></trkpt><trkpt lat="43.06314737120431" lon="12.182560859167147"><ele>308.0</ele><time>2026-04-18T09:26:11.001Z</time></trkpt><trkpt lat="43.06319489039719" lon="12.182498637352797"><ele>308.0</ele><time>2026-04-18T09:26:12.001Z</time></trkpt><trkpt lat="43.06325882548153" lon="12.182449337498191"><ele>308.0</ele><time>2026-04-18T09:26:14.001Z</time></trkpt><trkpt lat="43.06331927287273" lon="12.182402191606988"><ele>308.0</ele><time>2026-04-18T09:26:17.001Z</time></trkpt><trkpt lat="43.06335275937099" lon="12.182312050702777"><ele>308.0</ele><time>2026-04-18T09:26:19.001Z</time></trkpt><trkpt lat="43.06337135869063" lon="12.182225598427639"><ele>308.0</ele><time>2026-04-18T09:26:20.001Z</time></trkpt><trkpt lat="43.063443033317235" lon="12.182062060704602"><ele>309.1666666666667</ele><time>2026-04-18T09:26:21.999Z</time></trkpt><trkpt lat="43.06349964104321" lon="12.181960026579029"><ele>310.33333333333337</ele><time>2026-04-18T09:26:22.999Z</time></trkpt><trkpt lat="43.0635599426444" lon="12.181887159747822"><ele>311.5</ele><time>2026-04-18T09:26:23.999Z</time></trkpt><trkpt lat="43.06363748991235" lon="12.181807261653907"><ele>312.6666666666667</ele><time>2026-04-18T09:26:24.999Z</time></trkpt><trkpt lat="43.06370886329008" lon="12.181739127523139"><ele>313.8333333333333</ele><time>2026-04-18T09:26:25.999Z</time></trkpt><trkpt lat="43.06378331081778" lon="12.181669918258837"><ele>315.0</ele><time>2026-04-18T09:26:26.999Z</time></trkpt><trkpt lat="43.06387136581089" lon="12.18158452541567"><ele>315.4</ele><time>2026-04-18T09:26:27.999Z</time></trkpt><trkpt lat="43.06394787194144" lon="12.181503843654635"><ele>315.8</ele><time>2026-04-18T09:26:28.999Z</time></trkpt><trkpt lat="43.06402030636101" lon="12.181461144214486"><ele>316.2</ele><time>2026-04-18T09:26:29.999Z</time></trkpt><trkpt lat="43.06413995677047" lon="12.181406483417524"><ele>316.6</ele><time>2026-04-18T09:26:31.999Z</time></trkpt><trkpt lat="43.064232857269744" lon="12.181397646959342"><ele>317.0</ele><time>2026-04-18T09:26:32.999Z</time></trkpt><trkpt lat="43.064313413238345" lon="12.181407538139506"><ele>319.0</ele><time>2026-04-18T09:26:33.999Z</time></trkpt><trkpt lat="43.064401065689374" lon="12.181403917637587"><ele>321.0</ele><time>2026-04-18T09:26:34.999Z</time></trkpt><trkpt lat="43.06447949774078" lon="12.181390704339226"><ele>323.0</ele><time>2026-04-18T09:26:35.999Z</time></trkpt><trkpt lat="43.064584042043485" lon="12.18138424233155"><ele>325.0</ele><time>2026-04-18T09:26:37.999Z</time></trkpt><trkpt lat="43.06466508528461" lon="12.181386460177746"><ele>327.0</ele><time>2026-04-18T09:26:40Z</time></trkpt><trkpt lat="43.06478119748205" lon="12.181385297248301"><ele>327.0</ele><time>2026-04-18T09:26:42Z</time></trkpt><trkpt lat="43.06484798760346" lon="12.181377688956559"><ele>327.0</ele><time>2026-04-18T09:26:43Z</time></trkpt><trkpt lat="43.06496454655258" lon="12.18134753943357"><ele>327.0</ele><time>2026-04-18T09:26:45Z</time></trkpt><trkpt lat="43.06504655683474" lon="12.181327480772016"><ele>327.0</ele><time>2026-04-18T09:26:46Z</time></trkpt><trkpt lat="43.06512266040097" lon="12.181335381844422"><ele>327.0</ele><time>2026-04-18T09:26:47Z</time></trkpt><trkpt lat="43.06523034738247" lon="12.181368203750026"><ele>328.0</ele><time>2026-04-18T09:26:49Z</time></trkpt><trkpt lat="43.0653307447541" lon="12.18142214670159"><ele>329.0</ele><time>2026-04-18T09:26:51Z</time></trkpt><trkpt lat="43.06539199102756" lon="12.181456247666773"><ele>330.0</ele><time>2026-04-18T09:26:52Z</time></trkpt><trkpt lat="43.06546489978001" lon="12.181482874118583"><ele>331.0</ele><time>2026-04-18T09:26:53Z</time></trkpt><trkpt lat="43.065546993408994" lon="12.181511406144079"><ele>332.0</ele><time>2026-04-18T09:26:54Z</time></trkpt><trkpt lat="43.065637258677434" lon="12.181541541412052"><ele>333.0</ele><time>2026-04-18T09:26:55Z</time></trkpt><trkpt lat="43.065715869577566" lon="12.181587918308873"><ele>331.0</ele><time>2026-04-18T09:26:56Z</time></trkpt><trkpt lat="43.065783473699156" lon="12.181629125156503"><ele>329.0</ele><time>2026-04-18T09:26:57Z</time></trkpt><trkpt lat="43.06586304821135" lon="12.181673305098812"><ele>327.0</ele><time>2026-04-18T09:26:59Z</time></trkpt><trkpt lat="43.06593206899436" lon="12.181704507673407"><ele>325.0</ele><time>2026-04-18T09:27:02Z</time></trkpt><trkpt lat="43.06601844029231" lon="12.181746720527643"><ele>323.0</ele><time>2026-04-18T09:27:04Z</time></trkpt><trkpt lat="43.06609826523468" lon="12.181788738889736"><ele>321.0</ele><time>2026-04-18T09:27:05Z</time></trkpt><trkpt lat="43.0661893539598" lon="12.181834394827035"><ele>321.0</ele><time>2026-04-18T09:27:06Z</time></trkpt><trkpt lat="43.066270803950076" lon="12.181864395035603"><ele>321.0</ele><time>2026-04-18T09:27:07Z</time></trkpt><trkpt lat="43.06634370728165" lon="12.181897076000743"><ele>321.0</ele><time>2026-04-18T09:27:08Z</time></trkpt><trkpt lat="43.06642964485132" lon="12.18193403734114"><ele>321.0</ele><time>2026-04-18T09:27:09Z</time></trkpt><trkpt lat="43.06651757587714" lon="12.181944843386633"><ele>321.0</ele><time>2026-04-18T09:27:10Z</time></trkpt><trkpt lat="43.06661886982941" lon="12.181963068985992"><ele>321.0</ele><time>2026-04-18T09:27:12Z</time></trkpt><trkpt lat="43.06668584812524" lon="12.181995344390678"><ele>323.0</ele><time>2026-04-18T09:27:13Z</time></trkpt><trkpt lat="43.06677754697878" lon="12.182034825638489"><ele>325.0</ele><time>2026-04-18T09:27:15Z</time></trkpt><trkpt lat="43.066851222542475" lon="12.182063642586671"><ele>327.0</ele><time>2026-04-18T09:27:17Z</time></trkpt><trkpt lat="43.06683481739557" lon="12.181973835502609"><ele>329.0</ele><time>2026-04-18T09:27:20Z</time></trkpt><trkpt lat="43.06679609871656" lon="12.18188877916502"><ele>331.0</ele><time>2026-04-18T09:27:48.001Z</time></trkpt><trkpt lat="43.06678706119492" lon="12.181979840375533"><ele>333.0</ele><time>2026-04-18T09:27:54.001Z</time></trkpt><trkpt lat="43.06685548150687" lon="12.182026396482668"><ele>333.0</ele><time>2026-04-18T09:28:00.001Z</time></trkpt><trkpt lat="43.06691213571325" lon="12.182150486800955"><ele>333.0</ele><time>2026-04-18T09:28:02.001Z</time></trkpt><trkpt lat="43.06689070096791" lon="12.182287980323233"><ele>333.0</ele><time>2026-04-18T09:28:04.001Z</time></trkpt><trkpt lat="43.06686638743133" lon="12.18242499924946"><ele>333.0</ele><time>2026-04-18T09:28:06.001Z</time></trkpt><trkpt lat="43.066828512997226" lon="12.182543644193865"><ele>333.0</ele><time>2026-04-18T09:28:08.001Z</time></trkpt><trkpt lat="43.06678149905064" lon="12.182670711236117"><ele>331.8333333333333</ele><time>2026-04-18T09:28:10.001Z</time></trkpt><trkpt lat="43.06675597914664" lon="12.182750211345121"><ele>330.6666666666667</ele><time>2026-04-18T09:28:11.001Z</time></trkpt><trkpt lat="43.066743255832776" lon="12.18283850040461"><ele>329.5</ele><time>2026-04-18T09:28:12.001Z</time></trkpt><trkpt lat="43.066704315013354" lon="12.1829803454779"><ele>328.33333333333337</ele><time>2026-04-18T09:28:14.001Z</time></trkpt><trkpt lat="43.0666520549471" lon="12.183091871923901"><ele>327.1666666666667</ele><time>2026-04-18T09:28:16.001Z</time></trkpt><trkpt lat="43.06659030164956" lon="12.18316768700024"><ele>326.0</ele><time>2026-04-18T09:28:18.001Z</time></trkpt><trkpt lat="43.06658755339832" lon="12.18329733924528"><ele>323.33333333333337</ele><time>2026-04-18T09:28:20.001Z</time></trkpt><trkpt lat="43.0665784121956" lon="12.183386586588377"><ele>320.6666666666667</ele><time>2026-04-18T09:28:21.001Z</time></trkpt><trkpt lat="43.06653563473462" lon="12.183526579995418"><ele>318.0</ele><time>2026-04-18T09:28:23.001Z</time></trkpt><trkpt lat="43.06650969212321" lon="12.18360543649462"><ele>315.3333333333333</ele><time>2026-04-18T09:28:24.001Z</time></trkpt><trkpt lat="43.06646449225127" lon="12.183743781235584"><ele>312.66666666666663</ele><time>2026-04-18T09:28:26.001Z</time></trkpt><trkpt lat="43.06642953586827" lon="12.183852893830965"><ele>310.0</ele><time>2026-04-18T09:28:27.999Z</time></trkpt><trkpt lat="43.06641551632466" lon="12.183981618354137"><ele>308.8</ele><time>2026-04-18T09:28:29.999Z</time></trkpt><trkpt lat="43.06637191445832" lon="12.184105391854107"><ele>307.6</ele><time>2026-04-18T09:28:31.999Z</time></trkpt><trkpt lat="43.066314852982984" lon="12.184242382311425"><ele>306.4</ele><time>2026-04-18T09:28:33.999Z</time></trkpt><trkpt lat="43.06625280458856" lon="12.184374523158017"><ele>305.2</ele><time>2026-04-18T09:28:35.999Z</time></trkpt><trkpt lat="43.066218645069874" lon="12.184493185029243"><ele>304.0</ele><time>2026-04-18T09:28:38Z</time></trkpt><trkpt lat="43.06617110550263" lon="12.184634555880177"><ele>304.0</ele><time>2026-04-18T09:28:40Z</time></trkpt><trkpt lat="43.06613335546584" lon="12.18476480697639"><ele>304.0</ele><time>2026-04-18T09:28:42Z</time></trkpt><trkpt lat="43.06610393154604" lon="12.18489052193121"><ele>304.0</ele><time>2026-04-18T09:28:44Z</time></trkpt><trkpt lat="43.06608406132896" lon="12.184991148339579"><ele>304.0</ele><time>2026-04-18T09:28:46Z</time></trkpt><trkpt lat="43.06610719768246" lon="12.18509707848497"><ele>304.0</ele><time>2026-04-18T09:28:48Z</time></trkpt><trkpt lat="43.06611130860258" lon="12.185009467561729"><ele>304.0</ele><time>2026-04-18T09:29:08Z</time></trkpt><trkpt lat="43.066095794354275" lon="12.184920675865488"><ele>304.0</ele><time>2026-04-18T09:31:01Z</time></trkpt><trkpt lat="43.0661175771746" lon="12.18483870617066"><ele>304.0</ele><time>2026-04-18T09:31:04Z</time></trkpt><trkpt lat="43.06615177113434" lon="12.18473284294891"><ele>304.0</ele><time>2026-04-18T09:31:06Z</time></trkpt><trkpt lat="43.06620259141403" lon="12.184553372701751"><ele>304.0</ele><time>2026-04-18T09:31:08Z</time></trkpt><trkpt lat="43.066234040553866" lon="12.184471515298291"><ele>304.0</ele><time>2026-04-18T09:31:09.001Z</time></trkpt><trkpt lat="43.066288795325896" lon="12.184333351798383"><ele>304.0</ele><time>2026-04-18T09:31:11.001Z</time></trkpt><trkpt lat="43.066348442371485" lon="12.184188694092306"><ele>304.0</ele><time>2026-04-18T09:31:13.001Z</time></trkpt><trkpt lat="43.066376096013784" lon="12.184109053453552"><ele>304.0</ele><time>2026-04-18T09:31:14.001Z</time></trkpt><trkpt lat="43.0664029168827" lon="12.184014634245026"><ele>304.0</ele><time>2026-04-18T09:31:15.001Z</time></trkpt><trkpt lat="43.06642561214044" lon="12.183910062124204"><ele>304.0</ele><time>2026-04-18T09:31:16.001Z</time></trkpt><trkpt lat="43.06645016037575" lon="12.183747002408312"><ele>305.2</ele><time>2026-04-18T09:31:18.001Z</time></trkpt><trkpt lat="43.06649980358027" lon="12.18359349212166"><ele>306.4</ele><time>2026-04-18T09:31:20.001Z</time></trkpt><trkpt lat="43.06652697397844" lon="12.183504278287408"><ele>307.6</ele><time>2026-04-18T09:31:21.001Z</time></trkpt><trkpt lat="43.06655543277419" lon="12.183407056349925"><ele>308.8</ele><time>2026-04-18T09:31:22.001Z</time></trkpt><trkpt lat="43.06659079969615" lon="12.183258383437026"><ele>310.0</ele><time>2026-04-18T09:31:24.001Z</time></trkpt><trkpt lat="43.06660504371788" lon="12.183115883683428"><ele>313.2</ele><time>2026-04-18T09:31:26.001Z</time></trkpt><trkpt lat="43.066668578732035" lon="12.183041901771185"><ele>316.4</ele><time>2026-04-18T09:31:28.001Z</time></trkpt><trkpt lat="43.066730106450365" lon="12.18290466721819"><ele>319.6</ele><time>2026-04-18T09:31:30.001Z</time></trkpt><trkpt lat="43.066752605883174" lon="12.182785377654497"><ele>322.8</ele><time>2026-04-18T09:31:31.001Z</time></trkpt><trkpt lat="43.06677755963777" lon="12.182671613688637"><ele>326.0</ele><time>2026-04-18T09:31:32.001Z</time></trkpt><trkpt lat="43.066809438296545" lon="12.182575540759562"><ele>326.0</ele><time>2026-04-18T09:31:33.001Z</time></trkpt><trkpt lat="43.06684397904289" lon="12.182483596487065"><ele>326.0</ele><time>2026-04-18T09:31:34.001Z</time></trkpt><trkpt lat="43.06687826450554" lon="12.18238002496446"><ele>326.0</ele><time>2026-04-18T09:31:35.001Z</time></trkpt><trkpt lat="43.06689519136236" lon="12.182287947840477"><ele>326.0</ele><time>2026-04-18T09:31:36.001Z</time></trkpt><trkpt lat="43.06689863661229" lon="12.182153015452176"><ele>326.0</ele><time>2026-04-18T09:31:38.001Z</time></trkpt><trkpt lat="43.06684063732377" lon="12.182063820213433"><ele>326.0</ele><time>2026-04-18T09:31:40.001Z</time></trkpt><trkpt lat="43.06672808970923" lon="12.18202226811643"><ele>325.0</ele><time>2026-04-18T09:31:42.001Z</time></trkpt><trkpt lat="43.06662463320246" lon="12.18197883018802"><ele>324.0</ele><time>2026-04-18T09:31:44.001Z</time></trkpt><trkpt lat="43.06651812723098" lon="12.181928120443649"><ele>323.0</ele><time>2026-04-18T09:31:46.001Z</time></trkpt><trkpt lat="43.06642695404279" lon="12.181918386391214"><ele>322.0</ele><time>2026-04-18T09:31:48.001Z</time></trkpt><trkpt lat="43.0663286184128" lon="12.181889363614"><ele>321.0</ele><time>2026-04-18T09:31:50.001Z</time></trkpt><trkpt lat="43.066269285011806" lon="12.181860303134322"><ele>321.0</ele><time>2026-04-18T09:31:51.001Z</time></trkpt><trkpt lat="43.06616303907343" lon="12.181812326978466"><ele>321.0</ele><time>2026-04-18T09:31:53.001Z</time></trkpt><trkpt lat="43.06606467208065" lon="12.181778958559052"><ele>321.0</ele><time>2026-04-18T09:31:55.001Z</time></trkpt><trkpt lat="43.06598133517219" lon="12.181767024188185"><ele>321.0</ele><time>2026-04-18T09:31:57.001Z</time></trkpt><trkpt lat="43.06588827990849" lon="12.181746869296289"><ele>321.0</ele><time>2026-04-18T09:31:59.001Z</time></trkpt><trkpt lat="43.06578484284098" lon="12.181698145765578"><ele>320.2</ele><time>2026-04-18T09:32:01.001Z</time></trkpt><trkpt lat="43.06567575723828" lon="12.181653776428124"><ele>319.40000000000003</ele><time>2026-04-18T09:32:03.001Z</time></trkpt><trkpt lat="43.0655825037946" lon="12.181601158866776"><ele>318.6</ele><time>2026-04-18T09:32:05.001Z</time></trkpt><trkpt lat="43.06548421899426" lon="12.181535459465302"><ele>317.8</ele><time>2026-04-18T09:32:07.001Z</time></trkpt><trkpt lat="43.065415433122304" lon="12.181492232687301"><ele>317.0</ele><time>2026-04-18T09:32:09.001Z</time></trkpt><trkpt lat="43.065327346946845" lon="12.18141604998753"><ele>319.0</ele><time>2026-04-18T09:32:11.001Z</time></trkpt><trkpt lat="43.065271511777155" lon="12.18136733375894"><ele>321.0</ele><time>2026-04-18T09:32:12.001Z</time></trkpt><trkpt lat="43.065177628088044" lon="12.181347999455095"><ele>323.0</ele><time>2026-04-18T09:32:14.001Z</time></trkpt><trkpt lat="43.06506188212138" lon="12.18132786488151"><ele>325.0</ele><time>2026-04-18T09:32:16.001Z</time></trkpt><trkpt lat="43.06499101391379" lon="12.181327819131756"><ele>327.0</ele><time>2026-04-18T09:32:17.001Z</time></trkpt><trkpt lat="43.06488704403967" lon="12.181334596588929"><ele>327.0</ele><time>2026-04-18T09:32:19.001Z</time></trkpt><trkpt lat="43.06476671800453" lon="12.181366640516462"><ele>327.0</ele><time>2026-04-18T09:32:21.002Z</time></trkpt><trkpt lat="43.064671792163814" lon="12.181391483200118"><ele>327.0</ele><time>2026-04-18T09:32:23.002Z</time></trkpt><trkpt lat="43.064578249580734" lon="12.18139504543274"><ele>327.0</ele><time>2026-04-18T09:32:25.002Z</time></trkpt><trkpt lat="43.06451354436231" lon="12.18138743416825"><ele>327.0</ele><time>2026-04-18T09:32:26.002Z</time></trkpt><trkpt lat="43.06443238587681" lon="12.181383820287676"><ele>327.0</ele><time>2026-04-18T09:32:27.002Z</time></trkpt><trkpt lat="43.064355994342485" lon="12.18138986602616"><ele>327.0</ele><time>2026-04-18T09:32:28.002Z</time></trkpt><trkpt lat="43.064288767443465" lon="12.181392988562681"><ele>327.0</ele><time>2026-04-18T09:32:29.002Z</time></trkpt><trkpt lat="43.064210426396706" lon="12.181392041498777"><ele>327.0</ele><time>2026-04-18T09:32:30.002Z</time></trkpt><trkpt lat="43.064142487417584" lon="12.181389514716255"><ele>327.0</ele><time>2026-04-18T09:32:31.002Z</time></trkpt><trkpt lat="43.06401916215762" lon="12.181422642725328"><ele>327.0</ele><time>2026-04-18T09:32:33.002Z</time></trkpt><trkpt lat="43.06396112919737" lon="12.181465143212174"><ele>325.0</ele><time>2026-04-18T09:32:34.002Z</time></trkpt><trkpt lat="43.06386595466289" lon="12.18156610735763"><ele>323.0</ele><time>2026-04-18T09:32:36.002Z</time></trkpt><trkpt lat="43.063814508177686" lon="12.18162722736792"><ele>321.0</ele><time>2026-04-18T09:32:37.002Z</time></trkpt><trkpt lat="43.06374240184261" lon="12.181701742835271"><ele>319.0</ele><time>2026-04-18T09:32:38.002Z</time></trkpt><trkpt lat="43.06366929845228" lon="12.181772836242464"><ele>317.0</ele><time>2026-04-18T09:32:39.001Z</time></trkpt><trkpt lat="43.06360695813181" lon="12.181836819761639"><ele>315.0</ele><time>2026-04-18T09:32:40.001Z</time></trkpt><trkpt lat="43.06355249013436" lon="12.181901198623729"><ele>315.0</ele><time>2026-04-18T09:32:41.001Z</time></trkpt><trkpt lat="43.06349587255883" lon="12.181969487860773"><ele>315.0</ele><time>2026-04-18T09:32:42.001Z</time></trkpt><trkpt lat="43.06344316879382" lon="12.18205331026591"><ele>315.0</ele><time>2026-04-18T09:32:43.001Z</time></trkpt><trkpt lat="43.06340270883785" lon="12.182139348361753"><ele>315.0</ele><time>2026-04-18T09:32:44.001Z</time></trkpt><trkpt lat="43.06337480306745" lon="12.18221718010015"><ele>315.0</ele><time>2026-04-18T09:32:45Z</time></trkpt><trkpt lat="43.06334560683461" lon="12.182296927830661"><ele>315.0</ele><time>2026-04-18T09:32:46Z</time></trkpt><trkpt lat="43.063314325312476" lon="12.182396908056143"><ele>315.0</ele><time>2026-04-18T09:32:48Z</time></trkpt><trkpt lat="43.063245619241016" lon="12.18244679895102"><ele>313.6</ele><time>2026-04-18T09:32:51Z</time></trkpt><trkpt lat="43.06317336887943" lon="12.182487387843738"><ele>312.2</ele><time>2026-04-18T09:32:58Z</time></trkpt><trkpt lat="43.063123370689716" lon="12.182571623190826"><ele>310.8</ele><time>2026-04-18T09:33:06Z</time></trkpt><trkpt lat="43.0630597973748" lon="12.182686365843157"><ele>309.4</ele><time>2026-04-18T09:33:08Z</time></trkpt><trkpt lat="43.06298198470668" lon="12.182826960403503"><ele>308.0</ele><time>2026-04-18T09:33:10Z</time></trkpt><trkpt lat="43.06293714205189" lon="12.18289153536176"><ele>308.0</ele><time>2026-04-18T09:33:11Z</time></trkpt><trkpt lat="43.06283692291698" lon="12.182980536533156"><ele>308.0</ele><time>2026-04-18T09:33:13Z</time></trkpt><trkpt lat="43.06274384512203" lon="12.183039857560813"><ele>308.0</ele><time>2026-04-18T09:33:15.001Z</time></trkpt><trkpt lat="43.0626811305315" lon="12.183074999915853"><ele>308.0</ele><time>2026-04-18T09:33:16.001Z</time></trkpt><trkpt lat="43.062623573831125" lon="12.183110106787511"><ele>308.0</ele><time>2026-04-18T09:33:17.001Z</time></trkpt><trkpt lat="43.062568469026125" lon="12.183169487173693"><ele>308.0</ele><time>2026-04-18T09:33:19.001Z</time></trkpt><trkpt lat="43.062530566435306" lon="12.183247800705756"><ele>308.0</ele><time>2026-04-18T09:33:23.001Z</time></trkpt><trkpt lat="43.0624862372883" lon="12.18314617028647"><ele>308.0</ele><time>2026-04-18T09:33:26.001Z</time></trkpt><trkpt lat="43.06245195750986" lon="12.18297454983959"><ele>308.0</ele><time>2026-04-18T09:33:28.001Z</time></trkpt><trkpt lat="43.062429633115364" lon="12.182818926312128"><ele>308.0</ele><time>2026-04-18T09:33:30.001Z</time></trkpt><trkpt lat="43.062438563451174" lon="12.182728057568655"><ele>308.0</ele><time>2026-04-18T09:33:31.001Z</time></trkpt><trkpt lat="43.06246270756011" lon="12.182628323926473"><ele>308.0</ele><time>2026-04-18T09:33:32.001Z</time></trkpt><trkpt lat="43.06249114578304" lon="12.182485489219049"><ele>308.0</ele><time>2026-04-18T09:33:34.001Z</time></trkpt><trkpt lat="43.06253880100652" lon="12.182342878453584"><ele>308.0</ele><time>2026-04-18T09:33:36.001Z</time></trkpt><trkpt lat="43.06260622482886" lon="12.182246498407505"><ele>308.0</ele><time>2026-04-18T09:33:38.001Z</time></trkpt><trkpt lat="43.06264526952255" lon="12.182101323352475"><ele>308.0</ele><time>2026-04-18T09:33:40.001Z</time></trkpt><trkpt lat="43.06264196390051" lon="12.182005562514382"><ele>308.1666666666667</ele><time>2026-04-18T09:33:42.001Z</time></trkpt><trkpt lat="43.06266317983286" lon="12.18187810973149"><ele>308.33333333333337</ele><time>2026-04-18T09:33:44.001Z</time></trkpt><trkpt lat="43.062684034001634" lon="12.181789356714262"><ele>308.5</ele><time>2026-04-18T09:33:46.001Z</time></trkpt><trkpt lat="43.06269036992563" lon="12.181685783864152"><ele>308.6666666666667</ele><time>2026-04-18T09:33:49.001Z</time></trkpt><trkpt lat="43.062698596694744" lon="12.181598723019697"><ele>308.8333333333333</ele><time>2026-04-18T09:33:52.001Z</time></trkpt><trkpt lat="43.06264678322298" lon="12.18153062134334"><ele>309.0</ele><time>2026-04-18T09:33:54.001Z</time></trkpt><trkpt lat="43.062564834526" lon="12.181582792167593"><ele>309.0</ele><time>2026-04-18T09:33:56.001Z</time></trkpt><trkpt lat="43.06248055316042" lon="12.181675952650536"><ele>309.0</ele><time>2026-04-18T09:33:58.001Z</time></trkpt><trkpt lat="43.06241370578194" lon="12.181714979777128"><ele>309.0</ele><time>2026-04-18T09:33:59.001Z</time></trkpt><trkpt lat="43.06235297387151" lon="12.181767357659057"><ele>309.0</ele><time>2026-04-18T09:34:00.001Z</time></trkpt><trkpt lat="43.06229642810415" lon="12.18181975919004"><ele>309.0</ele><time>2026-04-18T09:34:01.001Z</time></trkpt><trkpt lat="43.06223035481775" lon="12.181830142697919"><ele>309.0</ele><time>2026-04-18T09:34:03.001Z</time></trkpt><trkpt lat="43.062208930591055" lon="12.181706440640456"><ele>309.2</ele><time>2026-04-18T09:34:07.001Z</time></trkpt><trkpt lat="43.062247233108" lon="12.181595639811585"><ele>309.4</ele><time>2026-04-18T09:34:09.001Z</time></trkpt><trkpt lat="43.06230657390585" lon="12.18154058937411"><ele>309.6</ele><time>2026-04-18T09:34:11.001Z</time></trkpt><trkpt lat="43.06236137221384" lon="12.181467091573673"><ele>309.8</ele><time>2026-04-18T09:34:13.001Z</time></trkpt><trkpt lat="43.06243585863657" lon="12.181390100537758"><ele>310.0</ele><time>2026-04-18T09:34:15.001Z</time></trkpt><trkpt lat="43.06252205251267" lon="12.181278032388104"><ele>311.0</ele><time>2026-04-18T09:34:17.001Z</time></trkpt><trkpt lat="43.06255480599213" lon="12.181192979625274"><ele>312.0</ele><time>2026-04-18T09:34:18.001Z</time></trkpt><trkpt lat="43.06258426017148" lon="12.181103234694255"><ele>313.0</ele><time>2026-04-18T09:34:19.001Z</time></trkpt><trkpt lat="43.06260973568033" lon="12.181009538291583"><ele>314.0</ele><time>2026-04-18T09:34:20.001Z</time></trkpt><trkpt lat="43.0626349260912" lon="12.180904505877821"><ele>315.0</ele><time>2026-04-18T09:34:21.001Z</time></trkpt><trkpt lat="43.06266376738512" lon="12.180791967306433"><ele>316.0</ele><time>2026-04-18T09:34:22.001Z</time></trkpt><trkpt lat="43.06269682822226" lon="12.180676894143406"><ele>316.28571428571433</ele><time>2026-04-18T09:34:23.001Z</time></trkpt><trkpt lat="43.062725077985746" lon="12.180588322731838"><ele>316.57142857142856</ele><time>2026-04-18T09:34:24.001Z</time></trkpt><trkpt lat="43.0627543637061" lon="12.180500710053812"><ele>316.8571428571429</ele><time>2026-04-18T09:34:25.001Z</time></trkpt><trkpt lat="43.0627905773465" lon="12.180395201426592"><ele>317.14285714285717</ele><time>2026-04-18T09:34:26.001Z</time></trkpt><trkpt lat="43.06283184727471" lon="12.18031776028156"><ele>317.42857142857144</ele><time>2026-04-18T09:34:27.001Z</time></trkpt><trkpt lat="43.06287097871648" lon="12.180227111607795"><ele>317.7142857142857</ele><time>2026-04-18T09:34:28.001Z</time></trkpt><trkpt lat="43.062901912500706" lon="12.180134438326272"><ele>318.0</ele><time>2026-04-18T09:34:29.001Z</time></trkpt><trkpt lat="43.06292359599978" lon="12.180052572569453"><ele>318.0</ele><time>2026-04-18T09:34:30.001Z</time></trkpt><trkpt lat="43.06294104985251" lon="12.179898377712616"><ele>318.0</ele><time>2026-04-18T09:34:32.001Z</time></trkpt><trkpt lat="43.06296413791691" lon="12.179763665867613"><ele>318.0</ele><time>2026-04-18T09:34:34.001Z</time></trkpt><trkpt lat="43.06297565871074" lon="12.179566556781458"><ele>318.0</ele><time>2026-04-18T09:34:36.002Z</time></trkpt><trkpt lat="43.06296623757568" lon="12.179469192044323"><ele>318.0</ele><time>2026-04-18T09:34:37.002Z</time></trkpt><trkpt lat="43.06295537076576" lon="12.179371534594727"><ele>319.0</ele><time>2026-04-18T09:34:38.002Z</time></trkpt><trkpt lat="43.062948354458655" lon="12.179272745907271"><ele>320.0</ele><time>2026-04-18T09:34:39.002Z</time></trkpt><trkpt lat="43.06293765117887" lon="12.179184324230649"><ele>321.0</ele><time>2026-04-18T09:34:40.002Z</time></trkpt><trkpt lat="43.062916230039036" lon="12.179097738523131"><ele>322.0</ele><time>2026-04-18T09:34:41.002Z</time></trkpt><trkpt lat="43.06288574828061" lon="12.178938515800382"><ele>323.0</ele><time>2026-04-18T09:34:43.002Z</time></trkpt><trkpt lat="43.06287570067565" lon="12.178836455803527"><ele>324.0</ele><time>2026-04-18T09:34:44.002Z</time></trkpt><trkpt lat="43.06284741544195" lon="12.178667655879526"><ele>326.75</ele><time>2026-04-18T09:34:46Z</time></trkpt><trkpt lat="43.06282463475561" lon="12.178500660807233"><ele>329.5</ele><time>2026-04-18T09:34:48Z</time></trkpt><trkpt lat="43.06280151427519" lon="12.178335373376896"><ele>332.25</ele><time>2026-04-18T09:34:50Z</time></trkpt><trkpt lat="43.062785499455664" lon="12.178250442080266"><ele>335.0</ele><time>2026-04-18T09:34:51Z</time></trkpt><trkpt lat="43.06275402912971" lon="12.178065858815595"><ele>337.6</ele><time>2026-04-18T09:34:53Z</time></trkpt><trkpt lat="43.062729902100735" lon="12.177887199512345"><ele>340.2</ele><time>2026-04-18T09:34:55Z</time></trkpt><trkpt lat="43.06267364856217" lon="12.177802413288463"><ele>342.79999999999995</ele><time>2026-04-18T09:34:57Z</time></trkpt><trkpt lat="43.06258505075007" lon="12.177867787312705"><ele>345.4</ele><time>2026-04-18T09:34:59Z</time></trkpt><trkpt lat="43.06248480747886" lon="12.17794531912227"><ele>348.0</ele><time>2026-04-18T09:35:01Z</time></trkpt><trkpt lat="43.06242818450765" lon="12.177899946640805"><ele>350.6666666666667</ele><time>2026-04-18T09:35:03Z</time></trkpt><trkpt lat="43.06240429288035" lon="12.177783551300559"><ele>353.3333333333333</ele><time>2026-04-18T09:35:05Z</time></trkpt><trkpt lat="43.06238175001439" lon="12.177699055384542"><ele>356.0</ele><time>2026-04-18T09:35:06Z</time></trkpt><trkpt lat="43.06233081677237" lon="12.177602145883231"><ele>358.66666666666663</ele><time>2026-04-18T09:35:08Z</time></trkpt><trkpt lat="43.06228348156654" lon="12.177512511774381"><ele>361.3333333333333</ele><time>2026-04-18T09:35:10Z</time></trkpt><trkpt lat="43.0622099183076" lon="12.177455077368705"><ele>364.0</ele><time>2026-04-18T09:35:13Z</time></trkpt><trkpt lat="43.06214140536948" lon="12.177536866753892"><ele>364.0</ele><time>2026-04-18T09:35:16Z</time></trkpt><trkpt lat="43.062119912985615" lon="12.177646460689564"><ele>364.0</ele><time>2026-04-18T09:35:18Z</time></trkpt><trkpt lat="43.062082942375454" lon="12.177811833363856"><ele>364.0</ele><time>2026-04-18T09:35:20Z</time></trkpt><trkpt lat="43.06203194199255" lon="12.177962710890492"><ele>364.0</ele><time>2026-04-18T09:35:22Z</time></trkpt><trkpt lat="43.06199855854678" lon="12.178049928643365"><ele>364.0</ele><time>2026-04-18T09:35:24Z</time></trkpt><trkpt lat="43.06196309317887" lon="12.17815059505653"><ele>361.5</ele><time>2026-04-18T09:35:26Z</time></trkpt><trkpt lat="43.06193637356871" lon="12.17827203561493"><ele>359.0</ele><time>2026-04-18T09:35:28Z</time></trkpt><trkpt lat="43.0619048989087" lon="12.17839918848429"><ele>356.5</ele><time>2026-04-18T09:35:30Z</time></trkpt><trkpt lat="43.061888133806086" lon="12.178494439095342"><ele>354.0</ele><time>2026-04-18T09:35:31Z</time></trkpt><trkpt lat="43.061846461891015" lon="12.178611816979489"><ele>351.5</ele><time>2026-04-18T09:35:33Z</time></trkpt><trkpt lat="43.06178701214357" lon="12.17870511166106"><ele>349.0</ele><time>2026-04-18T09:35:35Z</time></trkpt><trkpt lat="43.06169296505672" lon="12.178795270309307"><ele>349.79999999999995</ele><time>2026-04-18T09:35:37Z</time></trkpt><trkpt lat="43.06159491964166" lon="12.178881207341528"><ele>350.59999999999997</ele><time>2026-04-18T09:35:39.001Z</time></trkpt><trkpt lat="43.06153942833131" lon="12.178925485566362"><ele>351.4</ele><time>2026-04-18T09:35:40.001Z</time></trkpt><trkpt lat="43.06144394657256" lon="12.178997847034605"><ele>352.2</ele><time>2026-04-18T09:35:42.001Z</time></trkpt><trkpt lat="43.061349103230334" lon="12.17904747944924"><ele>353.0</ele><time>2026-04-18T09:35:44.001Z</time></trkpt><trkpt lat="43.06125334958234" lon="12.179122186017253"><ele>349.59999999999997</ele><time>2026-04-18T09:35:46.001Z</time></trkpt><trkpt lat="43.06115872817812" lon="12.1791848651706"><ele>346.2</ele><time>2026-04-18T09:35:48.001Z</time></trkpt><trkpt lat="43.06105776974976" lon="12.17924033096705"><ele>342.8</ele><time>2026-04-18T09:35:50.001Z</time></trkpt><trkpt lat="43.06099898913402" lon="12.179275095028995"><ele>339.4</ele><time>2026-04-18T09:35:51.001Z</time></trkpt><trkpt lat="43.060880244657795" lon="12.179333072040075"><ele>336.0</ele><time>2026-04-18T09:35:53.001Z</time></trkpt><trkpt lat="43.06081339469999" lon="12.179364999039963"><ele>335.5</ele><time>2026-04-18T09:35:54.001Z</time></trkpt><trkpt lat="43.060744460179706" lon="12.179398751584072"><ele>335.0</ele><time>2026-04-18T09:35:55.001Z</time></trkpt><trkpt lat="43.06068035470489" lon="12.179427198806145"><ele>334.5</ele><time>2026-04-18T09:35:56.001Z</time></trkpt><trkpt lat="43.06061582901966" lon="12.179459464623756"><ele>334.0</ele><time>2026-04-18T09:35:57.001Z</time></trkpt><trkpt lat="43.06053552006103" lon="12.179534924672227"><ele>333.5</ele><time>2026-04-18T09:35:59.001Z</time></trkpt><trkpt lat="43.06046241719225" lon="12.179606389427038"><ele>333.0</ele><time>2026-04-18T09:36:01.001Z</time></trkpt><trkpt lat="43.060371630558116" lon="12.17968777340939"><ele>333.0</ele><time>2026-04-18T09:36:03.001Z</time></trkpt><trkpt lat="43.06030324128982" lon="12.179768568159915"><ele>333.0</ele><time>2026-04-18T09:36:05.001Z</time></trkpt><trkpt lat="43.06024052914429" lon="12.17981349971747"><ele>333.0</ele><time>2026-04-18T09:36:07.001Z</time></trkpt><trkpt lat="43.06014126971276" lon="12.17978944820373"><ele>333.0</ele><time>2026-04-18T09:36:10.001Z</time></trkpt><trkpt lat="43.060047169324086" lon="12.179762774575918"><ele>333.0</ele><time>2026-04-18T09:36:12.001Z</time></trkpt><trkpt lat="43.059972512448276" lon="12.179743756755943"><ele>333.0</ele><time>2026-04-18T09:36:14.001Z</time></trkpt><trkpt lat="43.0598936869162" lon="12.179721521304032"><ele>333.6666666666667</ele><time>2026-04-18T09:36:16.001Z</time></trkpt><trkpt lat="43.05982390232563" lon="12.179702845245625"><ele>334.3333333333333</ele><time>2026-04-18T09:36:18.001Z</time></trkpt><trkpt lat="43.05978988054539" lon="12.179784115258636"><ele>335.0</ele><time>2026-04-18T09:36:53Z</time></trkpt><trkpt lat="43.059803714968055" lon="12.17989062903047"><ele>335.66666666666663</ele><time>2026-04-18T09:36:55Z</time></trkpt><trkpt lat="43.05983229376838" lon="12.18003886056345"><ele>336.3333333333333</ele><time>2026-04-18T09:36:57Z</time></trkpt><trkpt lat="43.05984100440076" lon="12.180133946577827"><ele>337.0</ele><time>2026-04-18T09:36:58Z</time></trkpt><trkpt lat="43.059865977226785" lon="12.180277592911919"><ele>334.8</ele><time>2026-04-18T09:37:00Z</time></trkpt><trkpt lat="43.05987916226116" lon="12.180418273602648"><ele>332.6</ele><time>2026-04-18T09:37:02Z</time></trkpt><trkpt lat="43.05988335800589" lon="12.180528274267797"><ele>330.40000000000003</ele><time>2026-04-18T09:37:04Z</time></trkpt><trkpt lat="43.05992946423963" lon="12.18064737507827"><ele>328.20000000000005</ele><time>2026-04-18T09:37:07Z</time></trkpt><trkpt lat="43.0599650974749" lon="12.18077004104854"><ele>326.0</ele><time>2026-04-18T09:37:09Z</time></trkpt><trkpt lat="43.05997108745422" lon="12.180924567656813"><ele>324.5714285714286</ele><time>2026-04-18T09:37:11Z</time></trkpt><trkpt lat="43.05996984470635" lon="12.181014794441356"><ele>323.1428571428571</ele><time>2026-04-18T09:37:12Z</time></trkpt><trkpt lat="43.0599741159193" lon="12.181106167294688"><ele>321.7142857142857</ele><time>2026-04-18T09:37:13Z</time></trkpt><trkpt lat="43.05998202828567" lon="12.1811933968704"><ele>320.28571428571433</ele><time>2026-04-18T09:37:14Z</time></trkpt><trkpt lat="43.05998533942368" lon="12.181284200379068"><ele>318.8571428571429</ele><time>2026-04-18T09:37:15Z</time></trkpt><trkpt lat="43.05998278830852" lon="12.181373672296642"><ele>317.42857142857144</ele><time>2026-04-18T09:37:16Z</time></trkpt><trkpt lat="43.05997874887412" lon="12.18146404728205"><ele>316.0</ele><time>2026-04-18T09:37:17Z</time></trkpt><trkpt lat="43.05996823227756" lon="12.181605476140405"><ele>315.40000000000003</ele><time>2026-04-18T09:37:19Z</time></trkpt><trkpt lat="43.05996151229943" lon="12.181736900745681"><ele>314.8</ele><time>2026-04-18T09:37:21Z</time></trkpt><trkpt lat="43.05991156120875" lon="12.181893277994911"><ele>314.20000000000005</ele><time>2026-04-18T09:37:23Z</time></trkpt><trkpt lat="43.059874637668386" lon="12.182068847095433"><ele>313.6</ele><time>2026-04-18T09:37:25Z</time></trkpt><trkpt lat="43.05983748966044" lon="12.182178884582365"><ele>313.0</ele><time>2026-04-18T09:37:26Z</time></trkpt><trkpt lat="43.05980609308701" lon="12.18230857918057"><ele>311.0</ele><time>2026-04-18T09:37:27Z</time></trkpt><trkpt lat="43.059771820540334" lon="12.182426422419212"><ele>309.0</ele><time>2026-04-18T09:37:28Z</time></trkpt><trkpt lat="43.05974546057913" lon="12.182530415490943"><ele>307.0</ele><time>2026-04-18T09:37:29Z</time></trkpt><trkpt lat="43.059721945025885" lon="12.182688458891594"><ele>305.0</ele><time>2026-04-18T09:37:31Z</time></trkpt><trkpt lat="43.05972570250979" lon="12.182873226426482"><ele>303.0</ele><time>2026-04-18T09:37:33Z</time></trkpt><trkpt lat="43.059748422219826" lon="12.183020120267976"><ele>303.0</ele><time>2026-04-18T09:37:35Z</time></trkpt><trkpt lat="43.05978012104214" lon="12.183171139176002"><ele>303.0</ele><time>2026-04-18T09:37:37Z</time></trkpt><trkpt lat="43.05980580180744" lon="12.183260413820213"><ele>303.0</ele><time>2026-04-18T09:37:38Z</time></trkpt><trkpt lat="43.059839185965934" lon="12.183336732741909"><ele>303.0</ele><time>2026-04-18T09:37:39Z</time></trkpt><trkpt lat="43.05986885248745" lon="12.18341544907385"><ele>303.0</ele><time>2026-04-18T09:37:40Z</time></trkpt><trkpt lat="43.059903287640346" lon="12.183499486048335"><ele>303.0</ele><time>2026-04-18T09:37:41Z</time></trkpt><trkpt lat="43.05993646777602" lon="12.183658682628696"><ele>303.2</ele><time>2026-04-18T09:37:43Z</time></trkpt><trkpt lat="43.05999445938378" lon="12.183767373852431"><ele>303.4</ele><time>2026-04-18T09:37:45.001Z</time></trkpt><trkpt lat="43.060093919520476" lon="12.183770890088736"><ele>303.59999999999997</ele><time>2026-04-18T09:37:47.001Z</time></trkpt><trkpt lat="43.06018854955766" lon="12.183666909649089"><ele>303.8</ele><time>2026-04-18T09:37:49.001Z</time></trkpt><trkpt lat="43.06021629763073" lon="12.18358011911353"><ele>304.0</ele><time>2026-04-18T09:37:50.001Z</time></trkpt><trkpt lat="43.06029472927514" lon="12.183605723515669"><ele>304.0</ele><time>2026-04-18T09:37:54.001Z</time></trkpt><trkpt lat="43.06032333963504" lon="12.183735433586834"><ele>304.0</ele><time>2026-04-18T09:37:57.001Z</time></trkpt><trkpt lat="43.060331988255435" lon="12.183841944205613"><ele>304.0</ele><time>2026-04-18T09:37:58.001Z</time></trkpt><trkpt lat="43.06035408942879" lon="12.183935048412934"><ele>304.0</ele><time>2026-04-18T09:37:59.001Z</time></trkpt><trkpt lat="43.06038653847939" lon="12.184029183661565"><ele>304.0</ele><time>2026-04-18T09:38:00.001Z</time></trkpt><trkpt lat="43.06042848307995" lon="12.184144310467028"><ele>304.0</ele><time>2026-04-18T09:38:01.001Z</time></trkpt><trkpt lat="43.0604626408177" lon="12.184239293272276"><ele>303.0</ele><time>2026-04-18T09:38:02.001Z</time></trkpt><trkpt lat="43.06050684264519" lon="12.184391781200592"><ele>302.0</ele><time>2026-04-18T09:38:04.001Z</time></trkpt><trkpt lat="43.06052292079291" lon="12.184526058103886"><ele>301.0</ele><time>2026-04-18T09:38:06.001Z</time></trkpt><trkpt lat="43.06050522054569" lon="12.184684283956203"><ele>300.0</ele><time>2026-04-18T09:38:08.001Z</time></trkpt><trkpt lat="43.060494953764426" lon="12.18477595492568"><ele>299.0</ele><time>2026-04-18T09:38:09.001Z</time></trkpt><trkpt lat="43.06049741108903" lon="12.184892009966928"><ele>298.33333333333337</ele><time>2026-04-18T09:38:10.001Z</time></trkpt><trkpt lat="43.06049148291627" lon="12.184987125669789"><ele>297.6666666666667</ele><time>2026-04-18T09:38:11.001Z</time></trkpt><trkpt lat="43.06049211369311" lon="12.185077304690328"><ele>297.0</ele><time>2026-04-18T09:38:12.001Z</time></trkpt><trkpt lat="43.06049807013862" lon="12.185198710959336"><ele>296.3333333333333</ele><time>2026-04-18T09:38:14.001Z</time></trkpt><trkpt lat="43.06050748864882" lon="12.185287637276158"><ele>295.66666666666663</ele><time>2026-04-18T09:38:16.001Z</time></trkpt><trkpt lat="43.06053826497772" lon="12.185459007754224"><ele>295.0</ele><time>2026-04-18T09:38:18.001Z</time></trkpt><trkpt lat="43.060553093076734" lon="12.18555410783527"><ele>295.0</ele><time>2026-04-18T09:38:19.001Z</time></trkpt><trkpt lat="43.06057047691464" lon="12.185649124082591"><ele>295.0</ele><time>2026-04-18T09:38:20.001Z</time></trkpt><trkpt lat="43.06058213660586" lon="12.185739263747081"><ele>295.0</ele><time>2026-04-18T09:38:21.001Z</time></trkpt><trkpt lat="43.06059016692614" lon="12.185837675269877"><ele>295.0</ele><time>2026-04-18T09:38:22.001Z</time></trkpt><trkpt lat="43.060610781923515" lon="12.185937709622966"><ele>295.0</ele><time>2026-04-18T09:38:23.001Z</time></trkpt><trkpt lat="43.0606441124315" lon="12.18605780369429"><ele>295.0</ele><time>2026-04-18T09:38:24.001Z</time></trkpt><trkpt lat="43.0606718579599" lon="12.186166401230754"><ele>293.6</ele><time>2026-04-18T09:38:25.001Z</time></trkpt><trkpt lat="43.06067633923132" lon="12.186266915874372"><ele>292.2</ele><time>2026-04-18T09:38:26.001Z</time></trkpt><trkpt lat="43.06067782524014" lon="12.186408760111101"><ele>290.8</ele><time>2026-04-18T09:38:27.001Z</time></trkpt><trkpt lat="43.06067737320469" lon="12.186555013817495"><ele>289.4</ele><time>2026-04-18T09:38:28.001Z</time></trkpt><trkpt lat="43.06067872343631" lon="12.18669626189835"><ele>288.0</ele><time>2026-04-18T09:38:29.001Z</time></trkpt><trkpt lat="43.060679999107805" lon="12.186833541438268"><ele>286.6</ele><time>2026-04-18T09:38:30.001Z</time></trkpt><trkpt lat="43.06068582036088" lon="12.186975226804362"><ele>285.20000000000005</ele><time>2026-04-18T09:38:31.001Z</time></trkpt><trkpt lat="43.060686656626885" lon="12.187140151425947"><ele>283.8</ele><time>2026-04-18T09:38:32.001Z</time></trkpt><trkpt lat="43.060686298917076" lon="12.18729441691514"><ele>282.40000000000003</ele><time>2026-04-18T09:38:33.001Z</time></trkpt><trkpt lat="43.0606832593665" lon="12.187436635874146"><ele>281.0</ele><time>2026-04-18T09:38:34.001Z</time></trkpt><trkpt lat="43.06067900425178" lon="12.187551765752959"><ele>280.2</ele><time>2026-04-18T09:38:35.001Z</time></trkpt><trkpt lat="43.06067497501952" lon="12.187649693437054"><ele>279.40000000000003</ele><time>2026-04-18T09:38:36.001Z</time></trkpt><trkpt lat="43.060651954871666" lon="12.187800741260862"><ele>278.6</ele><time>2026-04-18T09:38:38.001Z</time></trkpt><trkpt lat="43.06061510717208" lon="12.187954466586987"><ele>277.8</ele><time>2026-04-18T09:38:40.001Z</time></trkpt><trkpt lat="43.060567368104934" lon="12.188024149294069"><ele>277.0</ele><time>2026-04-18T09:38:41.001Z</time></trkpt><trkpt lat="43.060537778000985" lon="12.188137167548328"><ele>276.0</ele><time>2026-04-18T09:38:42.001Z</time></trkpt><trkpt lat="43.0605047503038" lon="12.18822220339686"><ele>275.0</ele><time>2026-04-18T09:38:43.001Z</time></trkpt><trkpt lat="43.06046614210779" lon="12.188335095344858"><ele>274.0</ele><time>2026-04-18T09:38:44.001Z</time></trkpt><trkpt lat="43.06042901206041" lon="12.188459751195586"><ele>273.0</ele><time>2026-04-18T09:38:45.001Z</time></trkpt><trkpt lat="43.06038948079936" lon="12.188589807237685"><ele>272.0</ele><time>2026-04-18T09:38:46.001Z</time></trkpt><trkpt lat="43.06035214811473" lon="12.188718812818935"><ele>272.0</ele><time>2026-04-18T09:38:47.001Z</time></trkpt><trkpt lat="43.060305675178725" lon="12.188805151028507"><ele>272.0</ele><time>2026-04-18T09:38:48.001Z</time></trkpt><trkpt lat="43.06027588162473" lon="12.188889466963035"><ele>272.0</ele><time>2026-04-18T09:38:49.001Z</time></trkpt><trkpt lat="43.060237987492656" lon="12.189047040651928"><ele>272.0</ele><time>2026-04-18T09:38:51.001Z</time></trkpt><trkpt lat="43.060179295503126" lon="12.189151015054625"><ele>272.0</ele><time>2026-04-18T09:38:53.001Z</time></trkpt><trkpt lat="43.06016207663738" lon="12.189270751788994"><ele>271.2</ele><time>2026-04-18T09:38:55.001Z</time></trkpt><trkpt lat="43.06014085865815" lon="12.189460860205847"><ele>270.4</ele><time>2026-04-18T09:38:57Z</time></trkpt><trkpt lat="43.06012306512854" lon="12.189576293198376"><ele>269.6</ele><time>2026-04-18T09:38:58Z</time></trkpt><trkpt lat="43.06009733841879" lon="12.18970766573053"><ele>268.8</ele><time>2026-04-18T09:38:59Z</time></trkpt><trkpt lat="43.060075437825425" lon="12.189813584058097"><ele>268.0</ele><time>2026-04-18T09:39:00Z</time></trkpt><trkpt lat="43.06005503107079" lon="12.189921328181049"><ele>267.66666666666663</ele><time>2026-04-18T09:39:01Z</time></trkpt><trkpt lat="43.06003492919568" lon="12.190043196758515"><ele>267.3333333333333</ele><time>2026-04-18T09:39:02Z</time></trkpt><trkpt lat="43.06001811498433" lon="12.190147092584585"><ele>267.0</ele><time>2026-04-18T09:39:03Z</time></trkpt><trkpt lat="43.06000012050154" lon="12.190262985059793"><ele>266.6666666666667</ele><time>2026-04-18T09:39:04Z</time></trkpt><trkpt lat="43.05998179832357" lon="12.19038098828587"><ele>266.33333333333337</ele><time>2026-04-18T09:39:05Z</time></trkpt><trkpt lat="43.059959426672975" lon="12.190517519185823"><ele>266.0</ele><time>2026-04-18T09:39:06Z</time></trkpt><trkpt lat="43.05993782349948" lon="12.19063720790194"><ele>265.2</ele><time>2026-04-18T09:39:07Z</time></trkpt><trkpt lat="43.05991601752984" lon="12.19075420286374"><ele>264.40000000000003</ele><time>2026-04-18T09:39:08Z</time></trkpt><trkpt lat="43.05988863139392" lon="12.19087366932202"><ele>263.6</ele><time>2026-04-18T09:39:09Z</time></trkpt><trkpt lat="43.05985646816366" lon="12.191002075260675"><ele>262.8</ele><time>2026-04-18T09:39:10Z</time></trkpt><trkpt lat="43.05982397053067" lon="12.191126256618269"><ele>262.0</ele><time>2026-04-18T09:39:11Z</time></trkpt><trkpt lat="43.05978877189347" lon="12.19126075890002"><ele>262.0</ele><time>2026-04-18T09:39:12Z</time></trkpt><trkpt lat="43.0597546447935" lon="12.191388590438454"><ele>262.0</ele><time>2026-04-18T09:39:13Z</time></trkpt><trkpt lat="43.05972277055457" lon="12.191506803120717"><ele>262.0</ele><time>2026-04-18T09:39:14Z</time></trkpt><trkpt lat="43.05969050318641" lon="12.191623794398373"><ele>262.0</ele><time>2026-04-18T09:39:15Z</time></trkpt><trkpt lat="43.05966020554902" lon="12.191739646084706"><ele>262.0</ele><time>2026-04-18T09:39:16Z</time></trkpt><trkpt lat="43.05963932771531" lon="12.191862043458231"><ele>261.6</ele><time>2026-04-18T09:39:17Z</time></trkpt><trkpt lat="43.059626541540126" lon="12.191993328915096"><ele>261.2</ele><time>2026-04-18T09:39:18Z</time></trkpt><trkpt lat="43.059608160548194" lon="12.192121318531335"><ele>260.8</ele><time>2026-04-18T09:39:19Z</time></trkpt><trkpt lat="43.059584071768676" lon="12.19224714050441"><ele>260.4</ele><time>2026-04-18T09:39:20Z</time></trkpt><trkpt lat="43.05956549215475" lon="12.1923588775403"><ele>260.0</ele><time>2026-04-18T09:39:21Z</time></trkpt><trkpt lat="43.059551056125464" lon="12.192471591815279"><ele>259.5</ele><time>2026-04-18T09:39:22Z</time></trkpt><trkpt lat="43.059547185268336" lon="12.192558897054052"><ele>259.0</ele><time>2026-04-18T09:39:23Z</time></trkpt><trkpt lat="43.05954736343901" lon="12.192647598729511"><ele>258.5</ele><time>2026-04-18T09:39:24Z</time></trkpt><trkpt lat="43.059557140269895" lon="12.192791524483729"><ele>258.0</ele><time>2026-04-18T09:39:26Z</time></trkpt><trkpt lat="43.059564283609824" lon="12.192898755743622"><ele>257.5</ele><time>2026-04-18T09:39:28Z</time></trkpt><trkpt lat="43.05957154370374" lon="12.193008988431497"><ele>257.0</ele><time>2026-04-18T09:39:31Z</time></trkpt><trkpt lat="43.059569153802094" lon="12.193103684568259"><ele>257.0</ele><time>2026-04-18T09:39:34Z</time></trkpt><trkpt lat="43.059857377529575" lon="12.19313377869476"><ele>257.0</ele><time>2026-04-18T09:41:28.001Z</time></trkpt><trkpt lat="43.05995390440603" lon="12.193104562940507"><ele>257.0</ele><time>2026-04-18T09:41:30.001Z</time></trkpt><trkpt lat="43.060034039177324" lon="12.193048259612391"><ele>257.33333333333337</ele><time>2026-04-18T09:41:32.001Z</time></trkpt><trkpt lat="43.06011640305232" lon="12.192952688557773"><ele>257.6666666666667</ele><time>2026-04-18T09:41:34.001Z</time></trkpt><trkpt lat="43.06015803497669" lon="12.19288481030696"><ele>258.0</ele><time>2026-04-18T09:41:35.001Z</time></trkpt><trkpt lat="43.060215553848764" lon="12.19281955643077"><ele>258.3333333333333</ele><time>2026-04-18T09:41:36.001Z</time></trkpt><trkpt lat="43.06028253746716" lon="12.192760394311598"><ele>258.66666666666663</ele><time>2026-04-18T09:41:37.001Z</time></trkpt><trkpt lat="43.0603690149964" lon="12.192716770498668"><ele>259.0</ele><time>2026-04-18T09:41:38.001Z</time></trkpt><trkpt lat="43.060465882468314" lon="12.192673540435392"><ele>259.0</ele><time>2026-04-18T09:41:39.001Z</time></trkpt><trkpt lat="43.06056633586228" lon="12.19263116025313"><ele>259.0</ele><time>2026-04-18T09:41:40.001Z</time></trkpt><trkpt lat="43.060651574902515" lon="12.192586546982135"><ele>259.0</ele><time>2026-04-18T09:41:41.001Z</time></trkpt><trkpt lat="43.06075166929871" lon="12.192539198419901"><ele>259.0</ele><time>2026-04-18T09:41:42.001Z</time></trkpt><trkpt lat="43.060817553118255" lon="12.192498848184963"><ele>259.0</ele><time>2026-04-18T09:41:43.001Z</time></trkpt><trkpt lat="43.060892242770386" lon="12.192461396199793"><ele>259.2</ele><time>2026-04-18T09:41:44.001Z</time></trkpt><trkpt lat="43.0609744934306" lon="12.192441531522157"><ele>259.4</ele><time>2026-04-18T09:41:45.001Z</time></trkpt><trkpt lat="43.061070138348796" lon="12.19243519373197"><ele>259.6</ele><time>2026-04-18T09:41:46.001Z</time></trkpt><trkpt lat="43.06116346527775" lon="12.192415651066348"><ele>259.8</ele><time>2026-04-18T09:41:47.001Z</time></trkpt><trkpt lat="43.06126455257164" lon="12.192387385806436"><ele>260.0</ele><time>2026-04-18T09:41:48.001Z</time></trkpt><trkpt lat="43.06136720618303" lon="12.19237098491245"><ele>260.0</ele><time>2026-04-18T09:41:49.001Z</time></trkpt><trkpt lat="43.06145945174869" lon="12.192375181206891"><ele>260.0</ele><time>2026-04-18T09:41:50.001Z</time></trkpt><trkpt lat="43.06155953935271" lon="12.19237936964163"><ele>260.0</ele><time>2026-04-18T09:41:51.001Z</time></trkpt><trkpt lat="43.06163838585996" lon="12.192378310913151"><ele>260.0</ele><time>2026-04-18T09:41:52.001Z</time></trkpt><trkpt lat="43.06171152307612" lon="12.1923832481713"><ele>260.0</ele><time>2026-04-18T09:41:53.001Z</time></trkpt><trkpt lat="43.06178598465297" lon="12.192412360073334"><ele>260.0</ele><time>2026-04-18T09:41:54.001Z</time></trkpt><trkpt lat="43.061855117699004" lon="12.192458430345923"><ele>261.33333333333337</ele><time>2026-04-18T09:41:55.001Z</time></trkpt><trkpt lat="43.061930247853375" lon="12.192513173288761"><ele>262.6666666666667</ele><time>2026-04-18T09:41:56.001Z</time></trkpt><trkpt lat="43.06200125563049" lon="12.19257347269863"><ele>264.0</ele><time>2026-04-18T09:41:57.001Z</time></trkpt><trkpt lat="43.0620638101038" lon="12.192638291584975"><ele>265.3333333333333</ele><time>2026-04-18T09:41:58.001Z</time></trkpt><trkpt lat="43.06210026056669" lon="12.19270879635638"><ele>266.66666666666663</ele><time>2026-04-18T09:41:59.001Z</time></trkpt><trkpt lat="43.062114512383665" lon="12.192801794961035"><ele>268.0</ele><time>2026-04-18T09:42:00.001Z</time></trkpt><trkpt lat="43.06220290789077" lon="12.19290590787436"><ele>268.0</ele><time>2026-04-18T09:42:02.001Z</time></trkpt><trkpt lat="43.06226689460918" lon="12.192971865678022"><ele>268.0</ele><time>2026-04-18T09:42:09.001Z</time></trkpt><trkpt lat="43.062238281866925" lon="12.193184017707676"><ele>268.0</ele><time>2026-04-18T09:42:11.001Z</time></trkpt><trkpt lat="43.06221151697462" lon="12.193315801278267"><ele>268.0</ele><time>2026-04-18T09:42:12.001Z</time></trkpt><trkpt lat="43.062193848617554" lon="12.19348731435677"><ele>268.0</ele><time>2026-04-18T09:42:13.001Z</time></trkpt><trkpt lat="43.062172187439565" lon="12.193662440861113"><ele>268.0</ele><time>2026-04-18T09:42:14.001Z</time></trkpt><trkpt lat="43.062147870548884" lon="12.19385575398357"><ele>268.0</ele><time>2026-04-18T09:42:15.001Z</time></trkpt><trkpt lat="43.06212241831103" lon="12.194030194775733"><ele>268.0</ele><time>2026-04-18T09:42:16.001Z</time></trkpt><trkpt lat="43.062104617035295" lon="12.194184991509989"><ele>268.0</ele><time>2026-04-18T09:42:17.001Z</time></trkpt><trkpt lat="43.06208076841859" lon="12.194343402985593"><ele>268.0</ele><time>2026-04-18T09:42:18.001Z</time></trkpt><trkpt lat="43.06205263764739" lon="12.194508710774802"><ele>268.0</ele><time>2026-04-18T09:42:19.001Z</time></trkpt><trkpt lat="43.062020812828266" lon="12.194676353763242"><ele>268.0</ele><time>2026-04-18T09:42:20.001Z</time></trkpt><trkpt lat="43.061974690732704" lon="12.194836385793785"><ele>267.8</ele><time>2026-04-18T09:42:21.001Z</time></trkpt><trkpt lat="43.061911084704676" lon="12.194982690044476"><ele>267.6</ele><time>2026-04-18T09:42:22.001Z</time></trkpt><trkpt lat="43.061855073215824" lon="12.195110319913365"><ele>267.4</ele><time>2026-04-18T09:42:23.001Z</time></trkpt><trkpt lat="43.06180105857624" lon="12.195238096823404"><ele>267.2</ele><time>2026-04-18T09:42:24.001Z</time></trkpt><trkpt lat="43.06174930379764" lon="12.195364894733453"><ele>267.0</ele><time>2026-04-18T09:42:25.001Z</time></trkpt><trkpt lat="43.06170379790568" lon="12.195504514678891"><ele>267.0</ele><time>2026-04-18T09:42:26.001Z</time></trkpt><trkpt lat="43.06166077260627" lon="12.195678040268739"><ele>267.0</ele><time>2026-04-18T09:42:27.001Z</time></trkpt><trkpt lat="43.061616092548064" lon="12.195881417451389"><ele>267.0</ele><time>2026-04-18T09:42:28.001Z</time></trkpt><trkpt lat="43.06155468600068" lon="12.19610644340472"><ele>263.6666666666667</ele><time>2026-04-18T09:42:29.001Z</time></trkpt><trkpt lat="43.06149888550825" lon="12.19633008568833"><ele>260.33333333333337</ele><time>2026-04-18T09:42:30.001Z</time></trkpt><trkpt lat="43.06143184297236" lon="12.196575728112965"><ele>257.0</ele><time>2026-04-18T09:42:31.001Z</time></trkpt><trkpt lat="43.061375355212604" lon="12.196824014091517"><ele>256.33333333333337</ele><time>2026-04-18T09:42:32.001Z</time></trkpt><trkpt lat="43.06132382295047" lon="12.197049379121486"><ele>255.66666666666669</ele><time>2026-04-18T09:42:33.001Z</time></trkpt><trkpt lat="43.06126898016329" lon="12.197271823319255"><ele>255.0</ele><time>2026-04-18T09:42:34.001Z</time></trkpt><trkpt lat="43.061217575097544" lon="12.197487813641837"><ele>254.5</ele><time>2026-04-18T09:42:35.001Z</time></trkpt><trkpt lat="43.06117253983988" lon="12.197683097245651"><ele>254.0</ele><time>2026-04-18T09:42:36.001Z</time></trkpt><trkpt lat="43.061133871240806" lon="12.197865886626142"><ele>253.5</ele><time>2026-04-18T09:42:37.001Z</time></trkpt><trkpt lat="43.06109418992833" lon="12.198033545788846"><ele>253.0</ele><time>2026-04-18T09:42:38.001Z</time></trkpt><trkpt lat="43.06105216077716" lon="12.198189754666501"><ele>252.60000000000002</ele><time>2026-04-18T09:42:39.001Z</time></trkpt><trkpt lat="43.061020073889225" lon="12.19833672069684"><ele>252.20000000000002</ele><time>2026-04-18T09:42:40.001Z</time></trkpt><trkpt lat="43.06098666300573" lon="12.198485452294214"><ele>251.8</ele><time>2026-04-18T09:42:41.001Z</time></trkpt><trkpt lat="43.06094836924653" lon="12.19862333034163"><ele>251.4</ele><time>2026-04-18T09:42:42.001Z</time></trkpt><trkpt lat="43.06091484565505" lon="12.198760345985011"><ele>251.0</ele><time>2026-04-18T09:42:43.001Z</time></trkpt><trkpt lat="43.06087866646666" lon="12.198929905255616"><ele>250.25</ele><time>2026-04-18T09:42:44.001Z</time></trkpt><trkpt lat="43.06083570186284" lon="12.199118403370806"><ele>249.5</ele><time>2026-04-18T09:42:45.001Z</time></trkpt><trkpt lat="43.06079232051683" lon="12.199319488457556"><ele>248.75</ele><time>2026-04-18T09:42:46.001Z</time></trkpt><trkpt lat="43.0607535796649" lon="12.199493741802957"><ele>248.0</ele><time>2026-04-18T09:42:47.001Z</time></trkpt><trkpt lat="43.06071097648038" lon="12.199663965916775"><ele>247.25</ele><time>2026-04-18T09:42:48.001Z</time></trkpt><trkpt lat="43.06067422683972" lon="12.199820071987643"><ele>246.5</ele><time>2026-04-18T09:42:49.001Z</time></trkpt><trkpt lat="43.060639110291646" lon="12.199968147490399"><ele>245.75</ele><time>2026-04-18T09:42:50.001Z</time></trkpt><trkpt lat="43.06061132937607" lon="12.200126690928185"><ele>245.0</ele><time>2026-04-18T09:42:51.001Z</time></trkpt><trkpt lat="43.06057065570503" lon="12.20029794588973"><ele>245.0</ele><time>2026-04-18T09:42:52.001Z</time></trkpt><trkpt lat="43.06052350350699" lon="12.200476569267808"><ele>245.0</ele><time>2026-04-18T09:42:53.001Z</time></trkpt><trkpt lat="43.06047808598623" lon="12.200633999621648"><ele>245.0</ele><time>2026-04-18T09:42:54.001Z</time></trkpt><trkpt lat="43.060428230589295" lon="12.20077884183795"><ele>245.0</ele><time>2026-04-18T09:42:55.002Z</time></trkpt><trkpt lat="43.06038033347068" lon="12.200906647481323"><ele>244.75</ele><time>2026-04-18T09:42:56.002Z</time></trkpt><trkpt lat="43.06032493064279" lon="12.20102634007714"><ele>244.5</ele><time>2026-04-18T09:42:57.002Z</time></trkpt><trkpt lat="43.06026627151861" lon="12.201134469755987"><ele>244.25</ele><time>2026-04-18T09:42:58.002Z</time></trkpt><trkpt lat="43.06020727736121" lon="12.201276791261868"><ele>244.0</ele><time>2026-04-18T09:42:59.002Z</time></trkpt><trkpt lat="43.0601396899551" lon="12.201451730102558"><ele>244.0</ele><time>2026-04-18T09:43:00.002Z</time></trkpt><trkpt lat="43.06008401532616" lon="12.201654979716645"><ele>245.0</ele><time>2026-04-18T09:43:01.002Z</time></trkpt><trkpt lat="43.06003915862544" lon="12.201903249506916"><ele>245.0</ele><time>2026-04-18T09:43:02.002Z</time></trkpt></trkseg></trk></gpx>